<?xml version="1.0" encoding="UTF-8"?>
<gpx version="1.1" creator="https://www.youtrack.es" xsi:schemaLocation="http://www.topografix.com/GPX/1/1 http://www.topografix.com/GPX/1/1/gpx.xsd http://www.garmin.com/xmlschemas/GpxExtensions/v3 http://www.garmin.com/xmlschemas/GpxExtensionsv3.xsd http://www.garmin.com/xmlschemas/TrackPointExtension/v1 http://www.garmin.com/xmlschemas/TrackPointExtensionv1.xsd" xmlns:gpxtpx="http://www.garmin.com/xmlschemas/TrackPointExtension/v1" xmlns:gpxx="http://www.garmin.com/xmlschemas/GpxExtensions/v3" xmlns:xsi="http://www.w3.org/2001/XMLSchema-instance">
  <metadata>
    <link href="https://www.youtrack.es">
      <text>YouTrack.es</text>
    </link>
    <time>2026-05-07T22:29:20Z</time>
  </metadata>
  <trk>
    <src>https://www.youtrack.es</src>
    <link href="https://www.youtrack.es/ruta/24776-jenny">
      <text>YouTrack.es</text>
    </link>
    <trkseg>
      <trkpt lat="40.959777" lon="-5.667290">
        <ele>798.834</ele>
        <time>2018-04-19T05:57:01Z</time>
      </trkpt>
      <trkpt lat="40.959959" lon="-5.667019">
        <ele>802.955</ele>
        <time>2018-04-19T05:57:03Z</time>
      </trkpt>
      <trkpt lat="40.960293" lon="-5.666887">
        <ele>807.910</ele>
        <time>2018-04-19T05:57:07Z</time>
      </trkpt>
      <trkpt lat="40.960381" lon="-5.667135">
        <ele>807.608</ele>
        <time>2018-04-19T05:57:22Z</time>
      </trkpt>
      <trkpt lat="40.960682" lon="-5.666996">
        <ele>810.926</ele>
        <time>2018-04-19T05:57:35Z</time>
      </trkpt>
      <trkpt lat="40.963982" lon="-5.664656">
        <ele>806.015</ele>
        <time>2018-04-19T06:02:00Z</time>
      </trkpt>
      <trkpt lat="40.964251" lon="-5.664758">
        <ele>806.453</ele>
        <time>2018-04-19T06:02:15Z</time>
      </trkpt>
      <trkpt lat="40.966897" lon="-5.664081">
        <ele>810.384</ele>
        <time>2018-04-19T06:05:38Z</time>
      </trkpt>
      <trkpt lat="40.969265" lon="-5.663700">
        <ele>816.495</ele>
        <time>2018-04-19T06:07:22Z</time>
      </trkpt>
      <trkpt lat="40.969772" lon="-5.663563">
        <ele>816.014</ele>
        <time>2018-04-19T06:07:45Z</time>
      </trkpt>
      <trkpt lat="40.969883" lon="-5.663278">
        <ele>816.597</ele>
        <time>2018-04-19T06:07:55Z</time>
      </trkpt>
      <trkpt lat="40.970129" lon="-5.663285">
        <ele>817.395</ele>
        <time>2018-04-19T06:08:03Z</time>
      </trkpt>
      <trkpt lat="40.970313" lon="-5.663481">
        <ele>817.994</ele>
        <time>2018-04-19T06:08:10Z</time>
      </trkpt>
      <trkpt lat="40.971450" lon="-5.663400">
        <ele>820.957</ele>
        <time>2018-04-19T06:08:50Z</time>
      </trkpt>
      <trkpt lat="40.972353" lon="-5.663122">
        <ele>822.122</ele>
        <time>2018-04-19T06:09:14Z</time>
      </trkpt>
      <trkpt lat="40.974889" lon="-5.662734">
        <ele>819.308</ele>
        <time>2018-04-19T06:10:27Z</time>
      </trkpt>
      <trkpt lat="40.975688" lon="-5.662328">
        <ele>818.682</ele>
        <time>2018-04-19T06:11:08Z</time>
      </trkpt>
      <trkpt lat="40.975949" lon="-5.662335">
        <ele>817.911</ele>
        <time>2018-04-19T06:11:16Z</time>
      </trkpt>
      <trkpt lat="40.976162" lon="-5.662773">
        <ele>816.019</ele>
        <time>2018-04-19T06:11:28Z</time>
      </trkpt>
      <trkpt lat="40.992098" lon="-5.665549">
        <ele>815.920</ele>
        <time>2018-04-19T06:17:50Z</time>
      </trkpt>
      <trkpt lat="40.992689" lon="-5.665416">
        <ele>815.371</ele>
        <time>2018-04-19T06:18:02Z</time>
      </trkpt>
      <trkpt lat="40.992965" lon="-5.665611">
        <ele>815.170</ele>
        <time>2018-04-19T06:18:09Z</time>
      </trkpt>
      <trkpt lat="40.996235" lon="-5.666212">
        <ele>809.623</ele>
        <time>2018-04-19T06:19:14Z</time>
      </trkpt>
      <trkpt lat="40.996676" lon="-5.666054">
        <ele>807.341</ele>
        <time>2018-04-19T06:19:26Z</time>
      </trkpt>
      <trkpt lat="40.996947" lon="-5.666243">
        <ele>806.147</ele>
        <time>2018-04-19T06:19:32Z</time>
      </trkpt>
      <trkpt lat="40.998002" lon="-5.666495">
        <ele>806.829</ele>
        <time>2018-04-19T06:19:52Z</time>
      </trkpt>
      <trkpt lat="40.998655" lon="-5.666145">
        <ele>808.121</ele>
        <time>2018-04-19T06:20:09Z</time>
      </trkpt>
      <trkpt lat="40.998919" lon="-5.666274">
        <ele>809.208</ele>
        <time>2018-04-19T06:20:16Z</time>
      </trkpt>
      <trkpt lat="40.999233" lon="-5.666768">
        <ele>810.217</ele>
        <time>2018-04-19T06:20:27Z</time>
      </trkpt>
      <trkpt lat="41.001809" lon="-5.667224">
        <ele>808.586</ele>
        <time>2018-04-19T06:21:27Z</time>
      </trkpt>
      <trkpt lat="41.002200" lon="-5.667063">
        <ele>808.044</ele>
        <time>2018-04-19T06:21:36Z</time>
      </trkpt>
      <trkpt lat="41.002589" lon="-5.667348">
        <ele>806.625</ele>
        <time>2018-04-19T06:21:45Z</time>
      </trkpt>
      <trkpt lat="41.007353" lon="-5.668210">
        <ele>802.256</ele>
        <time>2018-04-19T06:23:22Z</time>
      </trkpt>
      <trkpt lat="41.011913" lon="-5.669879">
        <ele>802.355</ele>
        <time>2018-04-19T06:26:43Z</time>
      </trkpt>
      <trkpt lat="41.019010" lon="-5.671163">
        <ele>813.788</ele>
        <time>2018-04-19T06:27:52Z</time>
      </trkpt>
      <trkpt lat="41.020213" lon="-5.671040">
        <ele>816.226</ele>
        <time>2018-04-19T06:28:56Z</time>
      </trkpt>
      <trkpt lat="41.020221" lon="-5.671406">
        <ele>817.045</ele>
        <time>2018-04-19T06:29:08Z</time>
      </trkpt>
      <trkpt lat="41.020380" lon="-5.671398">
        <ele>816.947</ele>
        <time>2018-04-19T06:29:17Z</time>
      </trkpt>
      <trkpt lat="41.020260" lon="-5.672213">
        <ele>818.111</ele>
        <time>2018-04-19T06:29:34Z</time>
      </trkpt>
      <trkpt lat="41.019438" lon="-5.673504">
        <ele>817.008</ele>
        <time>2018-04-19T06:51:47Z</time>
      </trkpt>
      <trkpt lat="41.019892" lon="-5.675759">
        <ele>815.057</ele>
        <time>2021-08-12T15:39:44Z</time>
      </trkpt>
      <trkpt lat="41.020314" lon="-5.681977">
        <ele>815.726</ele>
        <time>2021-08-12T15:40:04Z</time>
      </trkpt>
      <trkpt lat="41.019928" lon="-5.686680">
        <ele>807.494</ele>
        <time>2021-08-12T15:40:24Z</time>
      </trkpt>
      <trkpt lat="41.020018" lon="-5.689099">
        <ele>807.595</ele>
        <time>2018-04-19T06:52:19Z</time>
      </trkpt>
      <trkpt lat="41.024556" lon="-5.690327">
        <ele>806.766</ele>
        <time>2018-04-19T06:52:33Z</time>
      </trkpt>
      <trkpt lat="41.028801" lon="-5.692601">
        <ele>785.565</ele>
        <time>2018-04-19T06:52:47Z</time>
      </trkpt>
      <trkpt lat="41.041667" lon="-5.695406">
        <ele>808.768</ele>
        <time>2018-04-19T06:53:02Z</time>
      </trkpt>
      <trkpt lat="41.045571" lon="-5.695734">
        <ele>812.516</ele>
        <time>2021-08-12T15:42:04Z</time>
      </trkpt>
      <trkpt lat="41.047776" lon="-5.697287">
        <ele>817.229</ele>
        <time>2018-04-19T06:53:17Z</time>
      </trkpt>
      <trkpt lat="41.049370" lon="-5.696689">
        <ele>819.900</ele>
        <time>2018-04-19T06:53:31Z</time>
      </trkpt>
      <trkpt lat="41.050125" lon="-5.696208">
        <ele>822.020</ele>
        <time>2018-04-19T06:53:46Z</time>
      </trkpt>
      <trkpt lat="41.051715" lon="-5.695992">
        <ele>825.008</ele>
        <time>2018-04-19T06:54:02Z</time>
      </trkpt>
      <trkpt lat="41.052146" lon="-5.695743">
        <ele>826.175</ele>
        <time>2018-04-19T06:54:18Z</time>
      </trkpt>
      <trkpt lat="41.053022" lon="-5.695943">
        <ele>825.544</ele>
        <time>2018-04-19T06:54:33Z</time>
      </trkpt>
      <trkpt lat="41.053991" lon="-5.697254">
        <ele>827.682</ele>
        <time>2018-04-19T06:54:50Z</time>
      </trkpt>
      <trkpt lat="41.061348" lon="-5.702199">
        <ele>822.413</ele>
        <time>2018-04-19T06:55:05Z</time>
      </trkpt>
      <trkpt lat="41.064528" lon="-5.701320">
        <ele>822.164</ele>
        <time>2018-04-19T06:55:19Z</time>
      </trkpt>
      <trkpt lat="41.065458" lon="-5.701204">
        <ele>819.493</ele>
        <time>2018-04-19T06:55:33Z</time>
      </trkpt>
      <trkpt lat="41.073812" lon="-5.701220">
        <ele>811.246</ele>
        <time>2018-04-19T06:58:26Z</time>
      </trkpt>
      <trkpt lat="41.075294" lon="-5.701353">
        <ele>807.664</ele>
        <time>2018-04-19T06:58:42Z</time>
      </trkpt>
      <trkpt lat="41.078393" lon="-5.701253">
        <ele>805.222</ele>
        <time>2018-04-19T06:59:11Z</time>
      </trkpt>
      <trkpt lat="41.084840" lon="-5.702842">
        <ele>803.662</ele>
        <time>2018-04-19T07:04:46Z</time>
      </trkpt>
      <trkpt lat="41.085325" lon="-5.701456">
        <ele>803.408</ele>
        <time>2018-04-19T07:04:58Z</time>
      </trkpt>
      <trkpt lat="41.086588" lon="-5.702269">
        <ele>801.708</ele>
        <time>2018-04-19T07:05:00Z</time>
      </trkpt>
      <trkpt lat="41.086507" lon="-5.702695">
        <ele>801.195</ele>
        <time>2018-04-19T07:05:01Z</time>
      </trkpt>
      <trkpt lat="41.087141" lon="-5.703382">
        <ele>799.424</ele>
        <time>2018-04-19T07:05:24Z</time>
      </trkpt>
      <trkpt lat="41.088808" lon="-5.703577">
        <ele>799.042</ele>
        <time>2018-04-19T07:06:15Z</time>
      </trkpt>
      <trkpt lat="41.091014" lon="-5.704681">
        <ele>808.283</ele>
        <time>2018-04-19T07:07:48Z</time>
      </trkpt>
      <trkpt lat="41.097424" lon="-5.706429">
        <ele>816.764</ele>
        <time>2018-04-19T07:10:49Z</time>
      </trkpt>
      <trkpt lat="41.108748" lon="-5.701665">
        <ele>824.133</ele>
        <time>2018-04-19T07:15:56Z</time>
      </trkpt>
      <trkpt lat="41.110889" lon="-5.700633">
        <ele>823.346</ele>
        <time>2018-04-19T07:16:58Z</time>
      </trkpt>
      <trkpt lat="41.111246" lon="-5.700439">
        <ele>823.144</ele>
        <time>2018-04-19T07:17:11Z</time>
      </trkpt>
      <trkpt lat="41.111389" lon="-5.699338">
        <ele>823.487</ele>
        <time>2018-04-19T07:17:44Z</time>
      </trkpt>
      <trkpt lat="41.114629" lon="-5.699284">
        <ele>818.042</ele>
        <time>2018-04-19T07:21:11Z</time>
      </trkpt>
      <trkpt lat="41.118690" lon="-5.699673">
        <ele>823.426</ele>
        <time>2018-04-19T07:23:35Z</time>
      </trkpt>
      <trkpt lat="41.119459" lon="-5.700080">
        <ele>821.108</ele>
        <time>2018-04-19T07:23:57Z</time>
      </trkpt>
      <trkpt lat="41.120357" lon="-5.701511">
        <ele>819.251</ele>
        <time>2018-04-19T07:25:01Z</time>
      </trkpt>
      <trkpt lat="41.120742" lon="-5.701782">
        <ele>819.710</ele>
        <time>2018-04-19T07:25:14Z</time>
      </trkpt>
      <trkpt lat="41.121152" lon="-5.701866">
        <ele>820.468</ele>
        <time>2018-04-19T07:25:26Z</time>
      </trkpt>
      <trkpt lat="41.121798" lon="-5.701589">
        <ele>822.129</ele>
        <time>2018-04-19T07:25:47Z</time>
      </trkpt>
      <trkpt lat="41.122566" lon="-5.700475">
        <ele>821.260</ele>
        <time>2018-04-19T07:26:19Z</time>
      </trkpt>
      <trkpt lat="41.124027" lon="-5.699835">
        <ele>816.499</ele>
        <time>2018-04-19T07:26:57Z</time>
      </trkpt>
      <trkpt lat="41.125361" lon="-5.699525">
        <ele>809.652</ele>
        <time>2018-04-19T07:27:28Z</time>
      </trkpt>
      <trkpt lat="41.127584" lon="-5.699327">
        <ele>801.610</ele>
        <time>2018-04-19T07:28:20Z</time>
      </trkpt>
      <trkpt lat="41.130793" lon="-5.698510">
        <ele>798.149</ele>
        <time>2018-04-19T07:29:44Z</time>
      </trkpt>
      <trkpt lat="41.130926" lon="-5.698274">
        <ele>797.402</ele>
        <time>2018-04-19T07:30:46Z</time>
      </trkpt>
      <trkpt lat="41.130732" lon="-5.697646">
        <ele>796.822</ele>
        <time>2018-04-19T07:31:36Z</time>
      </trkpt>
      <trkpt lat="41.130430" lon="-5.697564">
        <ele>797.308</ele>
        <time>2018-04-19T07:31:45Z</time>
      </trkpt>
      <trkpt lat="41.128931" lon="-5.697920">
        <ele>799.097</ele>
        <time>2018-04-19T07:32:32Z</time>
      </trkpt>
      <trkpt lat="41.128759" lon="-5.697689">
        <ele>799.676</ele>
        <time>2018-04-19T07:32:41Z</time>
      </trkpt>
      <trkpt lat="41.128800" lon="-5.697108">
        <ele>800.344</ele>
        <time>2018-04-19T07:33:02Z</time>
      </trkpt>
      <trkpt lat="41.128908" lon="-5.697070">
        <ele>800.415</ele>
        <time>2018-04-19T07:33:05Z</time>
      </trkpt>
      <trkpt lat="41.134339" lon="-5.696598">
        <ele>799.466</ele>
        <time>2018-04-19T07:35:09Z</time>
      </trkpt>
      <trkpt lat="41.134325" lon="-5.696760">
        <ele>799.445</ele>
        <time>2018-04-19T07:35:16Z</time>
      </trkpt>
      <trkpt lat="41.133190" lon="-5.697043">
        <ele>798.488</ele>
        <time>2018-04-19T07:35:53Z</time>
      </trkpt>
      <trkpt lat="41.132958" lon="-5.697261">
        <ele>798.056</ele>
        <time>2018-04-19T07:36:04Z</time>
      </trkpt>
      <trkpt lat="41.133050" lon="-5.697937">
        <ele>797.023</ele>
        <time>2018-04-19T07:36:24Z</time>
      </trkpt>
      <trkpt lat="41.133533" lon="-5.698118">
        <ele>797.783</ele>
        <time>2018-04-19T07:36:43Z</time>
      </trkpt>
      <trkpt lat="41.136610" lon="-5.697440">
        <ele>812.211</ele>
        <time>2018-04-19T07:39:12Z</time>
      </trkpt>
      <trkpt lat="41.138288" lon="-5.697426">
        <ele>811.108</ele>
        <time>2018-04-19T07:39:59Z</time>
      </trkpt>
      <trkpt lat="41.141436" lon="-5.696903">
        <ele>825.575</ele>
        <time>2018-04-19T07:42:00Z</time>
      </trkpt>
      <trkpt lat="41.159623" lon="-5.696189">
        <ele>839.024</ele>
        <time>2018-04-19T07:50:41Z</time>
      </trkpt>
      <trkpt lat="41.159928" lon="-5.696790">
        <ele>840.322</ele>
        <time>2018-04-19T07:51:00Z</time>
      </trkpt>
      <trkpt lat="41.160143" lon="-5.696852">
        <ele>841.063</ele>
        <time>2018-04-19T07:51:08Z</time>
      </trkpt>
      <trkpt lat="41.160639" lon="-5.696610">
        <ele>840.424</ele>
        <time>2018-04-19T07:51:27Z</time>
      </trkpt>
      <trkpt lat="41.161041" lon="-5.696720">
        <ele>841.013</ele>
        <time>2018-04-19T07:51:41Z</time>
      </trkpt>
      <trkpt lat="41.161355" lon="-5.696605">
        <ele>842.276</ele>
        <time>2018-04-19T07:51:52Z</time>
      </trkpt>
      <trkpt lat="41.161935" lon="-5.696152">
        <ele>843.524</ele>
        <time>2018-04-19T07:52:13Z</time>
      </trkpt>
      <trkpt lat="41.163085" lon="-5.696047">
        <ele>843.044</ele>
        <time>2018-04-19T07:52:41Z</time>
      </trkpt>
      <trkpt lat="41.176349" lon="-5.695551">
        <ele>842.805</ele>
        <time>2018-04-19T07:58:30Z</time>
      </trkpt>
      <trkpt lat="41.179928" lon="-5.696003">
        <ele>860.115</ele>
        <time>2018-04-19T08:01:19Z</time>
      </trkpt>
      <trkpt lat="41.180241" lon="-5.696106">
        <ele>861.408</ele>
        <time>2018-04-19T08:01:35Z</time>
      </trkpt>
      <trkpt lat="41.180585" lon="-5.696815">
        <ele>865.617</ele>
        <time>2018-04-19T08:02:11Z</time>
      </trkpt>
      <trkpt lat="41.180791" lon="-5.696855">
        <ele>865.966</ele>
        <time>2018-04-19T08:02:51Z</time>
      </trkpt>
      <trkpt lat="41.181088" lon="-5.696295">
        <ele>863.664</ele>
        <time>2018-04-19T08:06:55Z</time>
      </trkpt>
      <trkpt lat="41.181338" lon="-5.696262">
        <ele>863.235</ele>
        <time>2018-04-19T08:07:04Z</time>
      </trkpt>
      <trkpt lat="41.183629" lon="-5.696324">
        <ele>854.286</ele>
        <time>2018-04-19T08:07:56Z</time>
      </trkpt>
      <trkpt lat="41.185065" lon="-5.696529">
        <ele>851.935</ele>
        <time>2018-04-19T08:08:29Z</time>
      </trkpt>
      <trkpt lat="41.187299" lon="-5.697198">
        <ele>855.748</ele>
        <time>2018-04-19T08:09:48Z</time>
      </trkpt>
      <trkpt lat="41.188687" lon="-5.697455">
        <ele>852.736</ele>
        <time>2018-04-19T08:10:24Z</time>
      </trkpt>
      <trkpt lat="41.190130" lon="-5.697980">
        <ele>848.324</ele>
        <time>2018-04-19T08:10:50Z</time>
      </trkpt>
      <trkpt lat="41.192703" lon="-5.698472">
        <ele>852.604</ele>
        <time>2018-04-19T08:12:11Z</time>
      </trkpt>
      <trkpt lat="41.194038" lon="-5.698972">
        <ele>855.714</ele>
        <time>2018-04-19T08:13:03Z</time>
      </trkpt>
      <trkpt lat="41.199756" lon="-5.700296">
        <ele>847.608</ele>
        <time>2018-04-19T08:15:05Z</time>
      </trkpt>
      <trkpt lat="41.200252" lon="-5.700567">
        <ele>847.575</ele>
        <time>2018-04-19T08:15:17Z</time>
      </trkpt>
      <trkpt lat="41.200202" lon="-5.701861">
        <ele>850.444</ele>
        <time>2018-04-19T08:15:43Z</time>
      </trkpt>
      <trkpt lat="41.200443" lon="-5.701948">
        <ele>850.082</ele>
        <time>2018-04-19T08:15:51Z</time>
      </trkpt>
      <trkpt lat="41.200643" lon="-5.701736">
        <ele>849.283</ele>
        <time>2018-04-19T08:15:59Z</time>
      </trkpt>
      <trkpt lat="41.200767" lon="-5.700816">
        <ele>846.884</ele>
        <time>2018-04-19T08:16:15Z</time>
      </trkpt>
      <trkpt lat="41.201110" lon="-5.700620">
        <ele>846.053</ele>
        <time>2018-04-19T08:16:23Z</time>
      </trkpt>
      <trkpt lat="41.209068" lon="-5.702591">
        <ele>838.336</ele>
        <time>2018-04-19T08:19:29Z</time>
      </trkpt>
      <trkpt lat="41.209597" lon="-5.702850">
        <ele>838.854</ele>
        <time>2018-04-19T08:19:43Z</time>
      </trkpt>
      <trkpt lat="41.209529" lon="-5.703739">
        <ele>840.246</ele>
        <time>2018-04-19T08:20:02Z</time>
      </trkpt>
      <trkpt lat="41.209599" lon="-5.704102">
        <ele>840.388</ele>
        <time>2018-04-19T08:20:10Z</time>
      </trkpt>
      <trkpt lat="41.209782" lon="-5.704179">
        <ele>840.216</ele>
        <time>2018-04-19T08:20:15Z</time>
      </trkpt>
      <trkpt lat="41.210011" lon="-5.704021">
        <ele>840.008</ele>
        <time>2018-04-19T08:20:22Z</time>
      </trkpt>
      <trkpt lat="41.210182" lon="-5.703048">
        <ele>838.857</ele>
        <time>2018-04-19T08:20:39Z</time>
      </trkpt>
      <trkpt lat="41.210467" lon="-5.702926">
        <ele>838.036</ele>
        <time>2018-04-19T08:20:46Z</time>
      </trkpt>
      <trkpt lat="41.216781" lon="-5.704528">
        <ele>831.684</ele>
        <time>2018-04-19T08:23:24Z</time>
      </trkpt>
      <trkpt lat="41.218043" lon="-5.705088">
        <ele>832.945</ele>
        <time>2018-04-19T08:23:54Z</time>
      </trkpt>
      <trkpt lat="41.220718" lon="-5.705419">
        <ele>840.646</ele>
        <time>2018-04-19T08:25:12Z</time>
      </trkpt>
      <trkpt lat="41.221776" lon="-5.705789">
        <ele>848.215</ele>
        <time>2018-04-19T08:26:07Z</time>
      </trkpt>
      <trkpt lat="41.224772" lon="-5.705963">
        <ele>851.668</ele>
        <time>2018-04-19T08:27:43Z</time>
      </trkpt>
      <trkpt lat="41.225273" lon="-5.706120">
        <ele>851.846</ele>
        <time>2018-04-19T08:28:04Z</time>
      </trkpt>
      <trkpt lat="41.227196" lon="-5.706273">
        <ele>855.239</ele>
        <time>2018-04-19T08:29:01Z</time>
      </trkpt>
      <trkpt lat="41.227578" lon="-5.706434">
        <ele>857.801</ele>
        <time>2018-04-19T08:29:26Z</time>
      </trkpt>
      <trkpt lat="41.227864" lon="-5.706955">
        <ele>858.921</ele>
        <time>2018-04-19T08:29:48Z</time>
      </trkpt>
      <trkpt lat="41.228147" lon="-5.706935">
        <ele>858.808</ele>
        <time>2018-04-19T08:29:58Z</time>
      </trkpt>
      <trkpt lat="41.228531" lon="-5.706360">
        <ele>858.336</ele>
        <time>2018-04-19T08:30:15Z</time>
      </trkpt>
      <trkpt lat="41.230292" lon="-5.706137">
        <ele>851.475</ele>
        <time>2018-04-19T08:30:53Z</time>
      </trkpt>
      <trkpt lat="41.231899" lon="-5.706186">
        <ele>848.523</ele>
        <time>2018-04-19T08:31:19Z</time>
      </trkpt>
      <trkpt lat="41.236139" lon="-5.705570">
        <ele>852.354</ele>
        <time>2018-04-19T08:33:31Z</time>
      </trkpt>
      <trkpt lat="41.239944" lon="-5.706376">
        <ele>841.875</ele>
        <time>2018-04-19T08:34:44Z</time>
      </trkpt>
      <trkpt lat="41.241467" lon="-5.707049">
        <ele>840.644</ele>
        <time>2018-04-19T08:35:15Z</time>
      </trkpt>
      <trkpt lat="41.241727" lon="-5.706748">
        <ele>841.017</ele>
        <time>2018-04-19T08:35:28Z</time>
      </trkpt>
      <trkpt lat="41.244050" lon="-5.707232">
        <ele>846.245</ele>
        <time>2018-04-19T08:36:18Z</time>
      </trkpt>
      <trkpt lat="41.246560" lon="-5.707114">
        <ele>843.634</ele>
        <time>2018-04-19T08:37:18Z</time>
      </trkpt>
      <trkpt lat="41.246731" lon="-5.707708">
        <ele>843.055</ele>
        <time>2018-04-19T08:37:31Z</time>
      </trkpt>
      <trkpt lat="41.246990" lon="-5.707917">
        <ele>842.810</ele>
        <time>2018-04-19T08:37:38Z</time>
      </trkpt>
      <trkpt lat="41.253596" lon="-5.709432">
        <ele>840.208</ele>
        <time>2018-04-19T08:39:54Z</time>
      </trkpt>
      <trkpt lat="41.254741" lon="-5.710108">
        <ele>840.126</ele>
        <time>2018-04-19T08:40:29Z</time>
      </trkpt>
      <trkpt lat="41.256100" lon="-5.711234">
        <ele>839.465</ele>
        <time>2018-04-19T09:11:33Z</time>
      </trkpt>
      <trkpt lat="41.257472" lon="-5.711752">
        <ele>837.753</ele>
        <time>2018-04-19T09:12:08Z</time>
      </trkpt>
      <trkpt lat="41.257706" lon="-5.712517">
        <ele>837.774</ele>
        <time>2018-04-19T09:12:21Z</time>
      </trkpt>
      <trkpt lat="41.258046" lon="-5.712942">
        <ele>836.555</ele>
        <time>2018-04-19T09:12:32Z</time>
      </trkpt>
      <trkpt lat="41.259786" lon="-5.714050">
        <ele>835.584</ele>
        <time>2018-04-19T09:13:18Z</time>
      </trkpt>
      <trkpt lat="41.261667" lon="-5.715501">
        <ele>836.317</ele>
        <time>2018-04-19T09:14:13Z</time>
      </trkpt>
      <trkpt lat="41.264238" lon="-5.716955">
        <ele>842.225</ele>
        <time>2018-04-19T09:15:38Z</time>
      </trkpt>
      <trkpt lat="41.266004" lon="-5.717475">
        <ele>841.655</ele>
        <time>2018-04-19T09:16:26Z</time>
      </trkpt>
      <trkpt lat="41.267460" lon="-5.718109">
        <ele>842.307</ele>
        <time>2018-04-19T09:17:04Z</time>
      </trkpt>
      <trkpt lat="41.269718" lon="-5.719513">
        <ele>844.317</ele>
        <time>2018-04-19T09:18:17Z</time>
      </trkpt>
      <trkpt lat="41.269801" lon="-5.719761">
        <ele>844.708</ele>
        <time>2018-04-19T09:18:26Z</time>
      </trkpt>
      <trkpt lat="41.270464" lon="-5.720264">
        <ele>844.858</ele>
        <time>2018-04-19T09:19:02Z</time>
      </trkpt>
      <trkpt lat="41.271836" lon="-5.721762">
        <ele>846.117</ele>
        <time>2018-04-19T09:26:39Z</time>
      </trkpt>
      <trkpt lat="41.274191" lon="-5.723977">
        <ele>845.825</ele>
        <time>2018-04-19T09:28:45Z</time>
      </trkpt>
      <trkpt lat="41.275546" lon="-5.725542">
        <ele>844.316</ele>
        <time>2018-04-19T09:29:27Z</time>
      </trkpt>
      <trkpt lat="41.276682" lon="-5.726483">
        <ele>845.657</ele>
        <time>2018-04-19T09:29:57Z</time>
      </trkpt>
      <trkpt lat="41.278217" lon="-5.728159">
        <ele>848.526</ele>
        <time>2018-04-19T09:30:47Z</time>
      </trkpt>
      <trkpt lat="41.280552" lon="-5.730308">
        <ele>849.039</ele>
        <time>2018-04-19T09:31:57Z</time>
      </trkpt>
      <trkpt lat="41.280994" lon="-5.730940">
        <ele>848.897</ele>
        <time>2018-04-19T09:32:12Z</time>
      </trkpt>
      <trkpt lat="41.286745" lon="-5.736531">
        <ele>852.763</ele>
        <time>2018-04-19T09:34:47Z</time>
      </trkpt>
      <trkpt lat="41.293449" lon="-5.743347">
        <ele>859.344</ele>
        <time>2018-04-19T09:38:21Z</time>
      </trkpt>
      <trkpt lat="41.294949" lon="-5.744569">
        <ele>859.018</ele>
        <time>2018-04-19T09:38:57Z</time>
      </trkpt>
      <trkpt lat="41.296557" lon="-5.745135">
        <ele>858.008</ele>
        <time>2018-04-19T09:39:37Z</time>
      </trkpt>
      <trkpt lat="41.296109" lon="-5.745757">
        <ele>860.549</ele>
        <time>2018-04-19T09:39:57Z</time>
      </trkpt>
      <trkpt lat="41.296156" lon="-5.745933">
        <ele>861.238</ele>
        <time>2018-04-19T09:40:02Z</time>
      </trkpt>
      <trkpt lat="41.302787" lon="-5.757014">
        <ele>871.366</ele>
        <time>2018-04-19T09:44:31Z</time>
      </trkpt>
      <trkpt lat="41.309930" lon="-5.766717">
        <ele>878.077</ele>
        <time>2018-04-19T09:48:58Z</time>
      </trkpt>
      <trkpt lat="41.310490" lon="-5.766894">
        <ele>875.498</ele>
        <time>2018-04-19T09:49:08Z</time>
      </trkpt>
      <trkpt lat="41.311677" lon="-5.766279">
        <ele>871.297</ele>
        <time>2018-04-19T09:49:42Z</time>
      </trkpt>
      <trkpt lat="41.312395" lon="-5.765594">
        <ele>867.720</ele>
        <time>2018-04-19T09:50:01Z</time>
      </trkpt>
      <trkpt lat="41.313093" lon="-5.764333">
        <ele>864.028</ele>
        <time>2018-04-19T09:50:26Z</time>
      </trkpt>
      <trkpt lat="41.313484" lon="-5.763922">
        <ele>863.022</ele>
        <time>2018-04-19T09:50:36Z</time>
      </trkpt>
      <trkpt lat="41.316319" lon="-5.762486">
        <ele>849.062</ele>
        <time>2018-04-19T09:51:26Z</time>
      </trkpt>
      <trkpt lat="41.318603" lon="-5.762939">
        <ele>833.908</ele>
        <time>2018-04-19T09:52:00Z</time>
      </trkpt>
      <trkpt lat="41.319228" lon="-5.763182">
        <ele>832.708</ele>
        <time>2018-04-19T09:52:12Z</time>
      </trkpt>
      <trkpt lat="41.320930" lon="-5.763191">
        <ele>827.125</ele>
        <time>2018-04-19T09:52:46Z</time>
      </trkpt>
      <trkpt lat="41.321454" lon="-5.763292">
        <ele>824.094</ele>
        <time>2018-04-19T09:52:55Z</time>
      </trkpt>
      <trkpt lat="41.323753" lon="-5.764368">
        <ele>813.512</ele>
        <time>2018-04-19T09:53:45Z</time>
      </trkpt>
      <trkpt lat="41.325077" lon="-5.764369">
        <ele>808.753</ele>
        <time>2018-04-19T09:54:17Z</time>
      </trkpt>
      <trkpt lat="41.326958" lon="-5.764717">
        <ele>802.474</ele>
        <time>2018-04-19T09:55:15Z</time>
      </trkpt>
      <trkpt lat="41.327204" lon="-5.764586">
        <ele>802.353</ele>
        <time>2018-04-19T09:55:28Z</time>
      </trkpt>
      <trkpt lat="41.327908" lon="-5.764647">
        <ele>801.576</ele>
        <time>2018-04-19T09:55:48Z</time>
      </trkpt>
      <trkpt lat="41.328740" lon="-5.765200">
        <ele>800.254</ele>
        <time>2018-04-19T09:56:11Z</time>
      </trkpt>
      <trkpt lat="41.330187" lon="-5.766635">
        <ele>797.215</ele>
        <time>2018-04-19T09:57:18Z</time>
      </trkpt>
      <trkpt lat="41.332084" lon="-5.767958">
        <ele>794.265</ele>
        <time>2018-04-19T09:59:10Z</time>
      </trkpt>
      <trkpt lat="41.333739" lon="-5.768632">
        <ele>791.911</ele>
        <time>2018-04-19T09:59:53Z</time>
      </trkpt>
      <trkpt lat="41.335667" lon="-5.769158">
        <ele>788.508</ele>
        <time>2018-04-19T10:01:01Z</time>
      </trkpt>
      <trkpt lat="41.338369" lon="-5.771102">
        <ele>784.914</ele>
        <time>2018-04-19T10:02:23Z</time>
      </trkpt>
      <trkpt lat="41.339427" lon="-5.771549">
        <ele>787.933</ele>
        <time>2018-04-19T10:02:51Z</time>
      </trkpt>
      <trkpt lat="41.340377" lon="-5.771556">
        <ele>789.191</ele>
        <time>2018-04-19T10:03:15Z</time>
      </trkpt>
      <trkpt lat="41.341549" lon="-5.771360">
        <ele>791.012</ele>
        <time>2018-04-19T10:03:43Z</time>
      </trkpt>
      <trkpt lat="41.343070" lon="-5.771456">
        <ele>796.173</ele>
        <time>2018-04-19T10:04:27Z</time>
      </trkpt>
      <trkpt lat="41.344106" lon="-5.771104">
        <ele>794.072</ele>
        <time>2018-04-19T10:04:54Z</time>
      </trkpt>
      <trkpt lat="41.345322" lon="-5.770372">
        <ele>791.395</ele>
        <time>2018-04-19T10:05:24Z</time>
      </trkpt>
      <trkpt lat="41.347761" lon="-5.769578">
        <ele>778.313</ele>
        <time>2018-04-19T10:06:05Z</time>
      </trkpt>
      <trkpt lat="41.351285" lon="-5.769154">
        <ele>763.739</ele>
        <time>2018-04-19T10:07:08Z</time>
      </trkpt>
      <trkpt lat="41.352291" lon="-5.769348">
        <ele>763.201</ele>
        <time>2018-04-19T10:07:28Z</time>
      </trkpt>
      <trkpt lat="41.353795" lon="-5.769972">
        <ele>760.821</ele>
        <time>2018-04-19T10:08:03Z</time>
      </trkpt>
      <trkpt lat="41.354328" lon="-5.770631">
        <ele>759.708</ele>
        <time>2018-04-19T10:08:22Z</time>
      </trkpt>
      <trkpt lat="41.356214" lon="-5.770905">
        <ele>755.346</ele>
        <time>2018-04-19T10:09:10Z</time>
      </trkpt>
      <trkpt lat="41.357799" lon="-5.771792">
        <ele>750.415</ele>
        <time>2018-04-19T10:09:46Z</time>
      </trkpt>
      <trkpt lat="41.358385" lon="-5.771820">
        <ele>749.953</ele>
        <time>2018-04-19T10:09:58Z</time>
      </trkpt>
      <trkpt lat="41.364899" lon="-5.771306">
        <ele>730.224</ele>
        <time>2018-04-19T10:11:50Z</time>
      </trkpt>
      <trkpt lat="41.372987" lon="-5.769894">
        <ele>727.795</ele>
        <time>2018-04-19T10:14:40Z</time>
      </trkpt>
      <trkpt lat="41.377040" lon="-5.769901">
        <ele>724.344</ele>
        <time>2018-04-19T10:16:03Z</time>
      </trkpt>
      <trkpt lat="41.377549" lon="-5.769945">
        <ele>724.637</ele>
        <time>2018-04-19T10:16:14Z</time>
      </trkpt>
      <trkpt lat="41.379848" lon="-5.771060">
        <ele>723.965</ele>
        <time>2018-04-19T10:17:07Z</time>
      </trkpt>
      <trkpt lat="41.382838" lon="-5.772276">
        <ele>721.936</ele>
        <time>2018-04-19T10:18:10Z</time>
      </trkpt>
      <trkpt lat="41.388548" lon="-5.775673">
        <ele>720.517</ele>
        <time>2018-04-19T10:20:21Z</time>
      </trkpt>
      <trkpt lat="41.388826" lon="-5.775702">
        <ele>720.318</ele>
        <time>2018-04-19T10:20:30Z</time>
      </trkpt>
      <trkpt lat="41.390402" lon="-5.773573">
        <ele>718.208</ele>
        <time>2018-04-19T10:21:24Z</time>
      </trkpt>
      <trkpt lat="41.391524" lon="-5.768129">
        <ele>722.716</ele>
        <time>2018-04-19T10:25:45Z</time>
      </trkpt>
      <trkpt lat="41.394614" lon="-5.768824">
        <ele>720.145</ele>
        <time>2018-04-19T10:27:11Z</time>
      </trkpt>
      <trkpt lat="41.400965" lon="-5.771895">
        <ele>719.123</ele>
        <time>2018-04-19T10:30:08Z</time>
      </trkpt>
      <trkpt lat="41.402971" lon="-5.770862">
        <ele>727.124</ele>
        <time>2018-04-19T10:31:42Z</time>
      </trkpt>
      <trkpt lat="41.403886" lon="-5.770509">
        <ele>734.315</ele>
        <time>2018-04-19T10:32:29Z</time>
      </trkpt>
      <trkpt lat="41.404528" lon="-5.770488">
        <ele>738.734</ele>
        <time>2018-04-19T10:33:04Z</time>
      </trkpt>
      <trkpt lat="41.406460" lon="-5.771561">
        <ele>744.847</ele>
        <time>2018-04-19T10:34:34Z</time>
      </trkpt>
      <trkpt lat="41.409683" lon="-5.771796">
        <ele>748.295</ele>
        <time>2018-04-19T10:36:28Z</time>
      </trkpt>
      <trkpt lat="41.411323" lon="-5.771659">
        <ele>748.113</ele>
        <time>2018-04-19T10:37:18Z</time>
      </trkpt>
      <trkpt lat="41.411619" lon="-5.772601">
        <ele>747.443</ele>
        <time>2018-04-19T10:37:45Z</time>
      </trkpt>
      <trkpt lat="41.414943" lon="-5.770778">
        <ele>744.307</ele>
        <time>2018-04-19T10:39:19Z</time>
      </trkpt>
      <trkpt lat="41.419401" lon="-5.769520">
        <ele>733.308</ele>
        <time>2018-04-19T10:40:50Z</time>
      </trkpt>
      <trkpt lat="41.420830" lon="-5.769290">
        <ele>731.164</ele>
        <time>2018-04-19T10:41:17Z</time>
      </trkpt>
      <trkpt lat="41.421345" lon="-5.769358">
        <ele>729.443</ele>
        <time>2018-04-19T10:41:30Z</time>
      </trkpt>
      <trkpt lat="41.424946" lon="-5.768987">
        <ele>714.651</ele>
        <time>2018-04-19T10:43:02Z</time>
      </trkpt>
      <trkpt lat="41.428034" lon="-5.769379">
        <ele>704.712</ele>
        <time>2018-04-19T10:44:19Z</time>
      </trkpt>
      <trkpt lat="41.433099" lon="-5.767822">
        <ele>692.623</ele>
        <time>2018-04-19T10:46:39Z</time>
      </trkpt>
      <trkpt lat="41.435733" lon="-5.767480">
        <ele>686.222</ele>
        <time>2018-04-19T10:47:49Z</time>
      </trkpt>
      <trkpt lat="41.437325" lon="-5.767646">
        <ele>684.955</ele>
        <time>2018-04-19T10:48:25Z</time>
      </trkpt>
      <trkpt lat="41.440850" lon="-5.767109">
        <ele>678.843</ele>
        <time>2018-04-19T10:49:50Z</time>
      </trkpt>
      <trkpt lat="41.442360" lon="-5.767058">
        <ele>675.867</ele>
        <time>2018-04-19T10:50:30Z</time>
      </trkpt>
      <trkpt lat="41.443968" lon="-5.770684">
        <ele>677.581</ele>
        <time>2018-04-19T10:51:44Z</time>
      </trkpt>
      <trkpt lat="41.444203" lon="-5.770821">
        <ele>677.719</ele>
        <time>2018-04-19T10:51:53Z</time>
      </trkpt>
      <trkpt lat="41.451935" lon="-5.770398">
        <ele>667.808</ele>
        <time>2018-04-19T10:54:29Z</time>
      </trkpt>
      <trkpt lat="41.454303" lon="-5.767663">
        <ele>670.229</ele>
        <time>2018-04-19T10:56:18Z</time>
      </trkpt>
      <trkpt lat="41.456719" lon="-5.765808">
        <ele>670.058</ele>
        <time>2018-04-19T10:57:32Z</time>
      </trkpt>
      <trkpt lat="41.457893" lon="-5.764523">
        <ele>670.856</ele>
        <time>2018-04-19T10:58:12Z</time>
      </trkpt>
      <trkpt lat="41.461660" lon="-5.762318">
        <ele>665.297</ele>
        <time>2018-04-19T10:59:52Z</time>
      </trkpt>
      <trkpt lat="41.462335" lon="-5.762129">
        <ele>664.698</ele>
        <time>2018-04-19T11:00:08Z</time>
      </trkpt>
      <trkpt lat="41.465183" lon="-5.761924">
        <ele>662.437</ele>
        <time>2018-04-19T11:01:09Z</time>
      </trkpt>
      <trkpt lat="41.466632" lon="-5.761993">
        <ele>662.030</ele>
        <time>2018-04-19T11:01:42Z</time>
      </trkpt>
      <trkpt lat="41.468950" lon="-5.761526">
        <ele>660.788</ele>
        <time>2018-04-19T11:02:42Z</time>
      </trkpt>
      <trkpt lat="41.472020" lon="-5.759825">
        <ele>658.266</ele>
        <time>2018-04-19T11:03:52Z</time>
      </trkpt>
      <trkpt lat="41.473248" lon="-5.758499">
        <ele>656.929</ele>
        <time>2018-04-19T11:04:28Z</time>
      </trkpt>
      <trkpt lat="41.473955" lon="-5.758428">
        <ele>655.421</ele>
        <time>2018-04-19T11:04:46Z</time>
      </trkpt>
      <trkpt lat="41.474504" lon="-5.757533">
        <ele>655.608</ele>
        <time>2018-04-19T11:05:08Z</time>
      </trkpt>
      <trkpt lat="41.475272" lon="-5.756748">
        <ele>654.079</ele>
        <time>2018-04-19T11:05:28Z</time>
      </trkpt>
      <trkpt lat="41.475971" lon="-5.756707">
        <ele>654.768</ele>
        <time>2018-04-19T11:05:44Z</time>
      </trkpt>
      <trkpt lat="41.476885" lon="-5.757092">
        <ele>657.956</ele>
        <time>2018-04-19T11:06:18Z</time>
      </trkpt>
      <trkpt lat="41.478715" lon="-5.756515">
        <ele>661.817</ele>
        <time>2018-04-19T11:07:06Z</time>
      </trkpt>
      <trkpt lat="41.482063" lon="-5.756531">
        <ele>660.268</ele>
        <time>2018-04-19T11:08:21Z</time>
      </trkpt>
      <trkpt lat="41.485621" lon="-5.756176">
        <ele>656.117</ele>
        <time>2018-04-19T11:09:39Z</time>
      </trkpt>
      <trkpt lat="41.487543" lon="-5.754517">
        <ele>649.830</ele>
        <time>2018-04-19T11:10:27Z</time>
      </trkpt>
      <trkpt lat="41.488244" lon="-5.754336">
        <ele>648.398</ele>
        <time>2018-04-19T11:10:42Z</time>
      </trkpt>
      <trkpt lat="41.490797" lon="-5.754231">
        <ele>640.639</ele>
        <time>2018-04-19T11:15:58Z</time>
      </trkpt>
      <trkpt lat="41.493290" lon="-5.753946">
        <ele>627.001</ele>
        <time>2018-04-19T11:17:29Z</time>
      </trkpt>
      <trkpt lat="41.494935" lon="-5.753242">
        <ele>625.421</ele>
        <time>2018-04-19T11:18:07Z</time>
      </trkpt>
      <trkpt lat="41.495067" lon="-5.752903">
        <ele>625.308</ele>
        <time>2018-04-19T11:18:14Z</time>
      </trkpt>
      <trkpt lat="41.495480" lon="-5.752794">
        <ele>625.076</ele>
        <time>2018-04-19T11:18:24Z</time>
      </trkpt>
      <trkpt lat="41.496987" lon="-5.750962">
        <ele>625.455</ele>
        <time>2018-04-19T11:19:14Z</time>
      </trkpt>
      <trkpt lat="41.497524" lon="-5.750078">
        <ele>623.553</ele>
        <time>2018-04-19T11:19:35Z</time>
      </trkpt>
      <trkpt lat="41.497868" lon="-5.748041">
        <ele>625.384</ele>
        <time>2018-04-19T11:20:20Z</time>
      </trkpt>
      <trkpt lat="41.500545" lon="-5.748039">
        <ele>635.465</ele>
        <time>2018-04-19T11:25:33Z</time>
      </trkpt>
      <trkpt lat="41.500856" lon="-5.747395">
        <ele>636.494</ele>
        <time>2018-04-19T11:25:49Z</time>
      </trkpt>
      <trkpt lat="41.501186" lon="-5.747264">
        <ele>639.397</ele>
        <time>2018-04-19T11:26:02Z</time>
      </trkpt>
      <trkpt lat="41.501377" lon="-5.747533">
        <ele>642.885</ele>
        <time>2018-04-19T11:26:17Z</time>
      </trkpt>
      <trkpt lat="41.501077" lon="-5.748103">
        <ele>642.424</ele>
        <time>2018-04-19T11:26:46Z</time>
      </trkpt>
      <trkpt lat="41.501530" lon="-5.748295">
        <ele>649.204</ele>
        <time>2018-04-19T11:32:38Z</time>
      </trkpt>
      <trkpt lat="41.501753" lon="-5.747987">
        <ele>649.214</ele>
        <time>2018-04-19T11:33:04Z</time>
      </trkpt>
      <trkpt lat="41.502228" lon="-5.748263">
        <ele>653.808</ele>
        <time>2018-04-19T11:33:58Z</time>
      </trkpt>
      <trkpt lat="41.502992" lon="-5.746785">
        <ele>656.345</ele>
        <time>2018-04-19T11:34:59Z</time>
      </trkpt>
      <trkpt lat="41.503320" lon="-5.746418">
        <ele>657.164</ele>
        <time>2018-04-19T11:35:22Z</time>
      </trkpt>
      <trkpt lat="41.501278" lon="-5.748130">
        <ele>624.546</ele>
        <time>2019-10-02T05:53:51Z</time>
      </trkpt>
      <trkpt lat="41.501242" lon="-5.748266">
        <ele>634.688</ele>
        <time>2019-10-02T06:04:20Z</time>
      </trkpt>
      <trkpt lat="41.501468" lon="-5.748385">
        <ele>638.416</ele>
        <time>2019-10-02T06:06:03Z</time>
      </trkpt>
      <trkpt lat="41.501832" lon="-5.747979">
        <ele>640.308</ele>
        <time>2019-10-02T06:06:40Z</time>
      </trkpt>
      <trkpt lat="41.502235" lon="-5.748308">
        <ele>640.888</ele>
        <time>2019-10-02T06:07:07Z</time>
      </trkpt>
      <trkpt lat="41.503008" lon="-5.746891">
        <ele>642.796</ele>
        <time>2019-10-02T06:08:09Z</time>
      </trkpt>
      <trkpt lat="41.503344" lon="-5.746550">
        <ele>642.753</ele>
        <time>2019-10-02T06:08:26Z</time>
      </trkpt>
      <trkpt lat="41.504142" lon="-5.746928">
        <ele>642.352</ele>
        <time>2019-10-02T06:09:47Z</time>
      </trkpt>
      <trkpt lat="41.504842" lon="-5.747810">
        <ele>633.144</ele>
        <time>2019-10-02T06:10:20Z</time>
      </trkpt>
      <trkpt lat="41.505049" lon="-5.748805">
        <ele>630.741</ele>
        <time>2019-10-02T06:10:48Z</time>
      </trkpt>
      <trkpt lat="41.506043" lon="-5.750554">
        <ele>630.276</ele>
        <time>2019-10-02T06:11:40Z</time>
      </trkpt>
      <trkpt lat="41.507358" lon="-5.750790">
        <ele>639.883</ele>
        <time>2019-10-02T06:12:48Z</time>
      </trkpt>
      <trkpt lat="41.508088" lon="-5.751158">
        <ele>646.177</ele>
        <time>2019-10-02T06:14:00Z</time>
      </trkpt>
      <trkpt lat="41.514376" lon="-5.755894">
        <ele>667.261</ele>
        <time>2019-10-02T06:18:19Z</time>
      </trkpt>
      <trkpt lat="41.516091" lon="-5.756874">
        <ele>672.127</ele>
        <time>2019-10-02T06:19:22Z</time>
      </trkpt>
      <trkpt lat="41.518161" lon="-5.758362">
        <ele>677.808</ele>
        <time>2019-10-02T06:20:42Z</time>
      </trkpt>
      <trkpt lat="41.519033" lon="-5.758653">
        <ele>682.641</ele>
        <time>2019-10-02T06:21:29Z</time>
      </trkpt>
      <trkpt lat="41.519602" lon="-5.759372">
        <ele>687.479</ele>
        <time>2019-10-02T06:22:14Z</time>
      </trkpt>
      <trkpt lat="41.525476" lon="-5.763594">
        <ele>695.676</ele>
        <time>2019-10-02T06:25:49Z</time>
      </trkpt>
      <trkpt lat="41.527561" lon="-5.765674">
        <ele>697.525</ele>
        <time>2019-10-02T06:26:58Z</time>
      </trkpt>
      <trkpt lat="41.527771" lon="-5.765664">
        <ele>697.547</ele>
        <time>2019-10-02T06:27:05Z</time>
      </trkpt>
      <trkpt lat="41.528112" lon="-5.764828">
        <ele>698.574</ele>
        <time>2019-10-02T06:27:34Z</time>
      </trkpt>
      <trkpt lat="41.528385" lon="-5.764726">
        <ele>698.569</ele>
        <time>2019-10-02T06:27:46Z</time>
      </trkpt>
      <trkpt lat="41.531352" lon="-5.764978">
        <ele>698.586</ele>
        <time>2019-10-02T06:29:12Z</time>
      </trkpt>
      <trkpt lat="41.532481" lon="-5.765411">
        <ele>698.581</ele>
        <time>2019-10-02T06:29:41Z</time>
      </trkpt>
      <trkpt lat="41.535635" lon="-5.767178">
        <ele>699.061</ele>
        <time>2019-10-02T06:31:21Z</time>
      </trkpt>
      <trkpt lat="41.539137" lon="-5.771304">
        <ele>701.917</ele>
        <time>2019-10-02T06:33:49Z</time>
      </trkpt>
      <trkpt lat="41.539324" lon="-5.771253">
        <ele>700.408</ele>
        <time>2019-10-02T06:33:56Z</time>
      </trkpt>
      <trkpt lat="41.540627" lon="-5.768878">
        <ele>702.372</ele>
        <time>2019-10-02T06:35:07Z</time>
      </trkpt>
      <trkpt lat="41.543650" lon="-5.771174">
        <ele>687.080</ele>
        <time>2019-10-02T06:36:19Z</time>
      </trkpt>
      <trkpt lat="41.544098" lon="-5.770242">
        <ele>688.917</ele>
        <time>2019-10-02T06:36:50Z</time>
      </trkpt>
      <trkpt lat="41.544090" lon="-5.768983">
        <ele>690.316</ele>
        <time>2019-10-02T06:37:25Z</time>
      </trkpt>
      <trkpt lat="41.544271" lon="-5.767852">
        <ele>691.858</ele>
        <time>2019-10-02T06:38:02Z</time>
      </trkpt>
      <trkpt lat="41.544578" lon="-5.767554">
        <ele>693.245</ele>
        <time>2019-10-02T06:38:25Z</time>
      </trkpt>
      <trkpt lat="41.548076" lon="-5.770054">
        <ele>696.690</ele>
        <time>2019-10-02T06:43:57Z</time>
      </trkpt>
      <trkpt lat="41.551383" lon="-5.772807">
        <ele>699.097</ele>
        <time>2019-10-02T06:45:55Z</time>
      </trkpt>
      <trkpt lat="41.553767" lon="-5.774096">
        <ele>701.923</ele>
        <time>2019-10-02T06:48:23Z</time>
      </trkpt>
      <trkpt lat="41.556234" lon="-5.774957">
        <ele>711.083</ele>
        <time>2019-10-02T06:50:29Z</time>
      </trkpt>
      <trkpt lat="41.557858" lon="-5.776276">
        <ele>713.411</ele>
        <time>2019-10-02T06:51:56Z</time>
      </trkpt>
      <trkpt lat="41.558031" lon="-5.776252">
        <ele>713.408</ele>
        <time>2019-10-02T06:52:05Z</time>
      </trkpt>
      <trkpt lat="41.559054" lon="-5.774582">
        <ele>711.026</ele>
        <time>2019-10-02T06:53:00Z</time>
      </trkpt>
      <trkpt lat="41.568318" lon="-5.778424">
        <ele>715.844</ele>
        <time>2019-10-02T07:06:53Z</time>
      </trkpt>
      <trkpt lat="41.572423" lon="-5.778701">
        <ele>718.291</ele>
        <time>2019-10-02T07:09:15Z</time>
      </trkpt>
      <trkpt lat="41.589027" lon="-5.784476">
        <ele>725.420</ele>
        <time>2019-10-02T07:19:04Z</time>
      </trkpt>
      <trkpt lat="41.590095" lon="-5.785886">
        <ele>727.852</ele>
        <time>2019-10-02T07:19:56Z</time>
      </trkpt>
      <trkpt lat="41.598354" lon="-5.789618">
        <ele>723.559</ele>
        <time>2019-10-02T07:24:06Z</time>
      </trkpt>
      <trkpt lat="41.599233" lon="-5.789430">
        <ele>725.424</ele>
        <time>2019-10-02T07:24:33Z</time>
      </trkpt>
      <trkpt lat="41.599682" lon="-5.787929">
        <ele>724.471</ele>
        <time>2019-10-02T07:25:03Z</time>
      </trkpt>
      <trkpt lat="41.599755" lon="-5.787227">
        <ele>724.013</ele>
        <time>2019-10-02T07:25:18Z</time>
      </trkpt>
      <trkpt lat="41.599944" lon="-5.787133">
        <ele>724.043</ele>
        <time>2019-10-02T07:25:25Z</time>
      </trkpt>
      <trkpt lat="41.599681" lon="-5.788882">
        <ele>736.007</ele>
        <time>2019-10-02T07:26:55Z</time>
      </trkpt>
      <trkpt lat="41.599806" lon="-5.790211">
        <ele>737.408</ele>
        <time>2019-10-02T07:31:15Z</time>
      </trkpt>
      <trkpt lat="41.599360" lon="-5.791021">
        <ele>731.245</ele>
        <time>2019-10-02T07:31:38Z</time>
      </trkpt>
      <trkpt lat="41.599285" lon="-5.791520">
        <ele>727.813</ele>
        <time>2019-10-02T07:31:47Z</time>
      </trkpt>
      <trkpt lat="41.599377" lon="-5.791591">
        <ele>726.820</ele>
        <time>2019-10-02T07:31:51Z</time>
      </trkpt>
      <trkpt lat="41.599583" lon="-5.791367">
        <ele>727.349</ele>
        <time>2019-10-02T07:32:04Z</time>
      </trkpt>
      <trkpt lat="41.599676" lon="-5.790850">
        <ele>727.391</ele>
        <time>2019-10-02T07:32:22Z</time>
      </trkpt>
      <trkpt lat="41.600071" lon="-5.790296">
        <ele>727.318</ele>
        <time>2019-10-02T07:32:46Z</time>
      </trkpt>
      <trkpt lat="41.600281" lon="-5.790281">
        <ele>727.393</ele>
        <time>2019-10-02T07:32:56Z</time>
      </trkpt>
      <trkpt lat="41.621277" lon="-5.797526">
        <ele>714.810</ele>
        <time>2019-10-02T07:43:08Z</time>
      </trkpt>
      <trkpt lat="41.621532" lon="-5.797742">
        <ele>713.965</ele>
        <time>2019-10-02T07:43:15Z</time>
      </trkpt>
      <trkpt lat="41.623043" lon="-5.800782">
        <ele>708.668</ele>
        <time>2019-10-02T07:44:17Z</time>
      </trkpt>
      <trkpt lat="41.626578" lon="-5.797846">
        <ele>711.014</ele>
        <time>2019-10-02T07:46:13Z</time>
      </trkpt>
      <trkpt lat="41.635151" lon="-5.800768">
        <ele>709.108</ele>
        <time>2019-10-02T07:50:42Z</time>
      </trkpt>
      <trkpt lat="41.635338" lon="-5.800878">
        <ele>709.150</ele>
        <time>2019-10-02T07:50:50Z</time>
      </trkpt>
      <trkpt lat="41.640256" lon="-5.808238">
        <ele>704.338</ele>
        <time>2019-10-02T07:55:07Z</time>
      </trkpt>
      <trkpt lat="41.639741" lon="-5.807282">
        <ele>701.915</ele>
        <time>2019-10-02T07:55:47Z</time>
      </trkpt>
      <trkpt lat="41.640974" lon="-5.805918">
        <ele>701.434</ele>
        <time>2019-10-02T07:56:55Z</time>
      </trkpt>
      <trkpt lat="41.641270" lon="-5.804702">
        <ele>699.056</ele>
        <time>2019-10-02T07:57:25Z</time>
      </trkpt>
      <trkpt lat="41.644733" lon="-5.805665">
        <ele>699.013</ele>
        <time>2019-10-02T07:59:18Z</time>
      </trkpt>
      <trkpt lat="41.647000" lon="-5.805273">
        <ele>697.018</ele>
        <time>2019-10-02T08:00:32Z</time>
      </trkpt>
      <trkpt lat="41.648789" lon="-5.805519">
        <ele>689.475</ele>
        <time>2019-10-02T08:01:11Z</time>
      </trkpt>
      <trkpt lat="41.649595" lon="-5.806373">
        <ele>689.421</ele>
        <time>2019-10-02T08:01:44Z</time>
      </trkpt>
      <trkpt lat="41.649967" lon="-5.807208">
        <ele>689.441</ele>
        <time>2019-10-02T08:02:09Z</time>
      </trkpt>
      <trkpt lat="41.650086" lon="-5.807174">
        <ele>689.405</ele>
        <time>2019-10-02T08:02:13Z</time>
      </trkpt>
      <trkpt lat="41.650494" lon="-5.806637">
        <ele>687.908</ele>
        <time>2019-10-02T08:03:30Z</time>
      </trkpt>
      <trkpt lat="41.650300" lon="-5.805138">
        <ele>688.986</ele>
        <time>2019-10-02T08:04:08Z</time>
      </trkpt>
      <trkpt lat="41.650639" lon="-5.803904">
        <ele>688.934</ele>
        <time>2019-10-02T08:04:40Z</time>
      </trkpt>
      <trkpt lat="41.650549" lon="-5.803660">
        <ele>689.831</ele>
        <time>2019-10-02T08:04:55Z</time>
      </trkpt>
      <trkpt lat="41.653261" lon="-5.804568">
        <ele>690.330</ele>
        <time>2019-10-02T08:06:11Z</time>
      </trkpt>
      <trkpt lat="41.653587" lon="-5.804825">
        <ele>690.332</ele>
        <time>2019-10-02T08:06:24Z</time>
      </trkpt>
      <trkpt lat="41.653776" lon="-5.805443">
        <ele>688.919</ele>
        <time>2019-10-02T08:06:37Z</time>
      </trkpt>
      <trkpt lat="41.653820" lon="-5.806828">
        <ele>699.524</ele>
        <time>2019-10-02T08:08:42Z</time>
      </trkpt>
      <trkpt lat="41.653465" lon="-5.807212">
        <ele>697.021</ele>
        <time>2019-10-02T08:09:41Z</time>
      </trkpt>
      <trkpt lat="41.653446" lon="-5.807093">
        <ele>698.011</ele>
        <time>2019-10-02T08:16:20Z</time>
      </trkpt>
      <trkpt lat="41.653502" lon="-5.807188">
        <ele>698.521</ele>
        <time>2019-10-02T08:19:07Z</time>
      </trkpt>
      <trkpt lat="41.653807" lon="-5.806870">
        <ele>699.503</ele>
        <time>2019-10-02T08:19:28Z</time>
      </trkpt>
      <trkpt lat="41.653849" lon="-5.806408">
        <ele>699.508</ele>
        <time>2019-10-02T08:19:51Z</time>
      </trkpt>
      <trkpt lat="41.654164" lon="-5.807144">
        <ele>708.685</ele>
        <time>2019-10-02T08:21:02Z</time>
      </trkpt>
      <trkpt lat="41.654937" lon="-5.807681">
        <ele>711.013</ele>
        <time>2019-10-02T08:22:11Z</time>
      </trkpt>
      <trkpt lat="41.655395" lon="-5.807596">
        <ele>712.930</ele>
        <time>2019-10-02T08:22:48Z</time>
      </trkpt>
      <trkpt lat="41.657269" lon="-5.807866">
        <ele>715.889</ele>
        <time>2019-10-02T08:24:07Z</time>
      </trkpt>
      <trkpt lat="41.659212" lon="-5.808657">
        <ele>712.921</ele>
        <time>2019-10-02T08:24:59Z</time>
      </trkpt>
      <trkpt lat="41.662962" lon="-5.808728">
        <ele>704.328</ele>
        <time>2019-10-02T08:26:21Z</time>
      </trkpt>
      <trkpt lat="41.667606" lon="-5.808587">
        <ele>698.533</ele>
        <time>2019-10-02T08:28:01Z</time>
      </trkpt>
      <trkpt lat="41.671023" lon="-5.809393">
        <ele>705.210</ele>
        <time>2019-10-02T08:29:34Z</time>
      </trkpt>
      <trkpt lat="41.676604" lon="-5.809404">
        <ele>709.172</ele>
        <time>2019-10-02T08:32:06Z</time>
      </trkpt>
      <trkpt lat="41.678498" lon="-5.809357">
        <ele>707.613</ele>
        <time>2019-10-02T08:32:57Z</time>
      </trkpt>
      <trkpt lat="41.678925" lon="-5.808558">
        <ele>707.614</ele>
        <time>2019-10-02T08:33:18Z</time>
      </trkpt>
      <trkpt lat="41.679102" lon="-5.808465">
        <ele>707.608</ele>
        <time>2019-10-02T08:33:25Z</time>
      </trkpt>
      <trkpt lat="41.679971" lon="-5.809289">
        <ele>713.471</ele>
        <time>2019-10-02T08:34:09Z</time>
      </trkpt>
      <trkpt lat="41.680832" lon="-5.809341">
        <ele>717.299</ele>
        <time>2019-10-02T08:34:48Z</time>
      </trkpt>
      <trkpt lat="41.681591" lon="-5.809199">
        <ele>721.616</ele>
        <time>2019-10-02T08:35:29Z</time>
      </trkpt>
      <trkpt lat="41.681374" lon="-5.806301">
        <ele>713.495</ele>
        <time>2019-10-02T08:37:01Z</time>
      </trkpt>
      <trkpt lat="41.681730" lon="-5.806705">
        <ele>717.277</ele>
        <time>2019-10-02T08:38:27Z</time>
      </trkpt>
      <trkpt lat="41.682059" lon="-5.806485">
        <ele>720.174</ele>
        <time>2019-10-02T08:38:54Z</time>
      </trkpt>
      <trkpt lat="41.682204" lon="-5.804908">
        <ele>717.279</ele>
        <time>2019-10-02T08:39:27Z</time>
      </trkpt>
      <trkpt lat="41.683429" lon="-5.804970">
        <ele>711.576</ele>
        <time>2019-10-02T08:39:51Z</time>
      </trkpt>
      <trkpt lat="41.685262" lon="-5.804655">
        <ele>707.681</ele>
        <time>2019-10-02T08:40:21Z</time>
      </trkpt>
      <trkpt lat="41.685867" lon="-5.804488">
        <ele>706.261</ele>
        <time>2019-10-02T08:40:31Z</time>
      </trkpt>
      <trkpt lat="41.686329" lon="-5.804170">
        <ele>705.217</ele>
        <time>2019-10-02T08:40:39Z</time>
      </trkpt>
      <trkpt lat="41.686718" lon="-5.803766">
        <ele>704.308</ele>
        <time>2019-10-02T08:40:47Z</time>
      </trkpt>
      <trkpt lat="41.686854" lon="-5.803403">
        <ele>704.392</ele>
        <time>2019-10-02T08:40:53Z</time>
      </trkpt>
      <trkpt lat="41.686676" lon="-5.801086">
        <ele>707.640</ele>
        <time>2019-10-02T08:41:51Z</time>
      </trkpt>
      <trkpt lat="41.687797" lon="-5.800897">
        <ele>713.987</ele>
        <time>2019-10-02T08:42:49Z</time>
      </trkpt>
      <trkpt lat="41.688195" lon="-5.801532">
        <ele>714.426</ele>
        <time>2019-10-02T08:43:14Z</time>
      </trkpt>
      <trkpt lat="41.689262" lon="-5.801788">
        <ele>719.238</ele>
        <time>2019-10-02T08:44:04Z</time>
      </trkpt>
      <trkpt lat="41.689974" lon="-5.801420">
        <ele>727.845</ele>
        <time>2019-10-02T08:45:03Z</time>
      </trkpt>
      <trkpt lat="41.691859" lon="-5.799970">
        <ele>711.020</ele>
        <time>2019-10-02T08:45:57Z</time>
      </trkpt>
      <trkpt lat="41.692715" lon="-5.799134">
        <ele>705.217</ele>
        <time>2019-10-02T08:46:09Z</time>
      </trkpt>
      <trkpt lat="41.694328" lon="-5.797139">
        <ele>701.433</ele>
        <time>2019-10-02T08:46:43Z</time>
      </trkpt>
      <trkpt lat="41.695002" lon="-5.796027">
        <ele>700.423</ele>
        <time>2019-10-02T08:47:02Z</time>
      </trkpt>
      <trkpt lat="41.698000" lon="-5.793576">
        <ele>700.915</ele>
        <time>2019-10-02T08:48:22Z</time>
      </trkpt>
      <trkpt lat="41.701086" lon="-5.791868">
        <ele>692.208</ele>
        <time>2019-10-02T08:49:31Z</time>
      </trkpt>
      <trkpt lat="41.703111" lon="-5.788475">
        <ele>692.227</ele>
        <time>2019-10-02T08:50:59Z</time>
      </trkpt>
      <trkpt lat="41.703613" lon="-5.787988">
        <ele>691.355</ele>
        <time>2019-10-02T08:55:27Z</time>
      </trkpt>
      <trkpt lat="41.704277" lon="-5.787936">
        <ele>691.892</ele>
        <time>2019-10-02T08:55:55Z</time>
      </trkpt>
      <trkpt lat="41.704981" lon="-5.788248">
        <ele>693.261</ele>
        <time>2019-10-02T08:56:24Z</time>
      </trkpt>
      <trkpt lat="41.707744" lon="-5.790457">
        <ele>693.793</ele>
        <time>2019-10-02T08:58:10Z</time>
      </trkpt>
      <trkpt lat="41.708127" lon="-5.790509">
        <ele>697.530</ele>
        <time>2019-10-02T08:58:35Z</time>
      </trkpt>
      <trkpt lat="41.709116" lon="-5.790310">
        <ele>704.775</ele>
        <time>2019-10-02T08:59:41Z</time>
      </trkpt>
      <trkpt lat="41.709470" lon="-5.791671">
        <ele>707.152</ele>
        <time>2019-10-02T09:00:47Z</time>
      </trkpt>
      <trkpt lat="41.712432" lon="-5.790368">
        <ele>707.116</ele>
        <time>2019-10-02T09:03:21Z</time>
      </trkpt>
      <trkpt lat="41.713321" lon="-5.790616">
        <ele>707.676</ele>
        <time>2019-10-02T09:06:03Z</time>
      </trkpt>
      <trkpt lat="41.713717" lon="-5.790520">
        <ele>707.613</ele>
        <time>2019-10-02T09:06:17Z</time>
      </trkpt>
      <trkpt lat="41.714560" lon="-5.791059">
        <ele>710.008</ele>
        <time>2019-10-02T09:06:49Z</time>
      </trkpt>
      <trkpt lat="41.715646" lon="-5.792034">
        <ele>711.015</ele>
        <time>2019-10-02T09:07:30Z</time>
      </trkpt>
      <trkpt lat="41.716228" lon="-5.792292">
        <ele>711.953</ele>
        <time>2019-10-02T09:07:51Z</time>
      </trkpt>
      <trkpt lat="41.716951" lon="-5.792332">
        <ele>714.840</ele>
        <time>2019-10-02T09:08:24Z</time>
      </trkpt>
      <trkpt lat="41.718731" lon="-5.791971">
        <ele>717.219</ele>
        <time>2019-10-02T09:09:38Z</time>
      </trkpt>
      <trkpt lat="41.719638" lon="-5.791379">
        <ele>714.831</ele>
        <time>2019-10-02T09:10:09Z</time>
      </trkpt>
      <trkpt lat="41.721510" lon="-5.790804">
        <ele>713.498</ele>
        <time>2019-10-02T09:11:04Z</time>
      </trkpt>
      <trkpt lat="41.722536" lon="-5.790912">
        <ele>715.383</ele>
        <time>2019-10-02T09:12:18Z</time>
      </trkpt>
      <trkpt lat="41.724624" lon="-5.789733">
        <ele>718.760</ele>
        <time>2019-10-02T09:13:57Z</time>
      </trkpt>
      <trkpt lat="41.725413" lon="-5.789514">
        <ele>720.163</ele>
        <time>2019-10-02T09:14:29Z</time>
      </trkpt>
      <trkpt lat="41.726986" lon="-5.789963">
        <ele>727.844</ele>
        <time>2019-10-02T09:15:50Z</time>
      </trkpt>
      <trkpt lat="41.731275" lon="-5.792481">
        <ele>722.518</ele>
        <time>2019-10-02T09:18:08Z</time>
      </trkpt>
      <trkpt lat="41.731705" lon="-5.786461">
        <ele>722.008</ele>
        <time>2019-10-02T09:21:16Z</time>
      </trkpt>
      <trkpt lat="41.731867" lon="-5.786483">
        <ele>720.610</ele>
        <time>2019-10-02T09:21:30Z</time>
      </trkpt>
      <trkpt lat="41.740374" lon="-5.780606">
        <ele>703.878</ele>
        <time>2019-10-02T09:27:09Z</time>
      </trkpt>
      <trkpt lat="41.744656" lon="-5.780798">
        <ele>705.255</ele>
        <time>2019-10-02T09:29:33Z</time>
      </trkpt>
      <trkpt lat="41.753994" lon="-5.776618">
        <ele>691.394</ele>
        <time>2019-10-02T09:34:19Z</time>
      </trkpt>
      <trkpt lat="41.755458" lon="-5.776201">
        <ele>695.646</ele>
        <time>2019-10-02T09:35:09Z</time>
      </trkpt>
      <trkpt lat="41.756611" lon="-5.773263">
        <ele>697.033</ele>
        <time>2019-10-02T09:36:27Z</time>
      </trkpt>
      <trkpt lat="41.758573" lon="-5.770525">
        <ele>703.328</ele>
        <time>2019-10-02T09:38:21Z</time>
      </trkpt>
      <trkpt lat="41.758947" lon="-5.769551">
        <ele>704.385</ele>
        <time>2019-10-02T09:38:46Z</time>
      </trkpt>
      <trkpt lat="41.758797" lon="-5.768061">
        <ele>703.319</ele>
        <time>2019-10-02T09:39:20Z</time>
      </trkpt>
      <trkpt lat="41.759132" lon="-5.767554">
        <ele>703.309</ele>
        <time>2019-10-02T09:39:40Z</time>
      </trkpt>
      <trkpt lat="41.761175" lon="-5.767469">
        <ele>704.319</ele>
        <time>2019-10-02T09:40:47Z</time>
      </trkpt>
      <trkpt lat="41.761924" lon="-5.768390">
        <ele>704.308</ele>
        <time>2019-10-02T09:41:24Z</time>
      </trkpt>
      <trkpt lat="41.762584" lon="-5.769751">
        <ele>704.725</ele>
        <time>2019-10-02T09:42:03Z</time>
      </trkpt>
      <trkpt lat="41.764600" lon="-5.767329">
        <ele>709.163</ele>
        <time>2019-10-02T09:43:44Z</time>
      </trkpt>
      <trkpt lat="41.764934" lon="-5.767124">
        <ele>710.040</ele>
        <time>2019-10-02T09:44:00Z</time>
      </trkpt>
      <trkpt lat="41.776591" lon="-5.764787">
        <ele>721.159</ele>
        <time>2019-10-02T09:51:11Z</time>
      </trkpt>
      <trkpt lat="41.777413" lon="-5.765231">
        <ele>724.431</ele>
        <time>2019-10-02T09:51:52Z</time>
      </trkpt>
      <trkpt lat="41.778608" lon="-5.765501">
        <ele>730.288</ele>
        <time>2019-10-02T09:52:55Z</time>
      </trkpt>
      <trkpt lat="41.779954" lon="-5.765593">
        <ele>729.333</ele>
        <time>2019-10-02T09:53:44Z</time>
      </trkpt>
      <trkpt lat="41.781474" lon="-5.765490">
        <ele>727.320</ele>
        <time>2019-10-02T09:54:31Z</time>
      </trkpt>
      <trkpt lat="41.781427" lon="-5.764105">
        <ele>724.921</ele>
        <time>2019-10-02T09:58:47Z</time>
      </trkpt>
      <trkpt lat="41.781526" lon="-5.763881">
        <ele>723.041</ele>
        <time>2019-10-02T09:58:51Z</time>
      </trkpt>
      <trkpt lat="41.785106" lon="-5.763073">
        <ele>731.205</ele>
        <time>2019-10-02T10:01:24Z</time>
      </trkpt>
      <trkpt lat="41.786108" lon="-5.762677">
        <ele>731.208</ele>
        <time>2019-10-02T10:01:52Z</time>
      </trkpt>
      <trkpt lat="41.788049" lon="-5.761600">
        <ele>725.966</ele>
        <time>2019-10-02T10:02:41Z</time>
      </trkpt>
      <trkpt lat="41.791328" lon="-5.758991">
        <ele>725.434</ele>
        <time>2019-10-02T10:04:29Z</time>
      </trkpt>
      <trkpt lat="41.793550" lon="-5.757635">
        <ele>735.571</ele>
        <time>2019-10-02T10:06:38Z</time>
      </trkpt>
      <trkpt lat="41.795953" lon="-5.756566">
        <ele>729.390</ele>
        <time>2019-10-02T10:07:46Z</time>
      </trkpt>
      <trkpt lat="41.796816" lon="-5.756012">
        <ele>727.842</ele>
        <time>2019-10-02T10:08:14Z</time>
      </trkpt>
      <trkpt lat="41.808463" lon="-5.743399">
        <ele>706.729</ele>
        <time>2019-10-02T10:14:00Z</time>
      </trkpt>
      <trkpt lat="41.808604" lon="-5.742630">
        <ele>706.214</ele>
        <time>2019-10-02T10:14:15Z</time>
      </trkpt>
      <trkpt lat="41.809419" lon="-5.741840">
        <ele>706.231</ele>
        <time>2019-10-02T10:14:46Z</time>
      </trkpt>
      <trkpt lat="41.808982" lon="-5.739601">
        <ele>707.612</ele>
        <time>2019-10-02T10:15:50Z</time>
      </trkpt>
      <trkpt lat="41.809363" lon="-5.739045">
        <ele>708.632</ele>
        <time>2019-10-02T10:16:39Z</time>
      </trkpt>
      <trkpt lat="41.808276" lon="-5.739511">
        <ele>708.605</ele>
        <time>2019-10-02T10:18:35Z</time>
      </trkpt>
      <trkpt lat="41.808283" lon="-5.739878">
        <ele>708.608</ele>
        <time>2019-10-02T10:18:48Z</time>
      </trkpt>
      <trkpt lat="41.808162" lon="-5.739967">
        <ele>707.685</ele>
        <time>2019-10-02T10:30:07Z</time>
      </trkpt>
      <trkpt lat="41.808496" lon="-5.739966">
        <ele>711.973</ele>
        <time>2019-10-02T11:00:38Z</time>
      </trkpt>
      <trkpt lat="41.809358" lon="-5.738999">
        <ele>712.490</ele>
        <time>2019-10-02T11:01:20Z</time>
      </trkpt>
      <trkpt lat="41.809932" lon="-5.739941">
        <ele>712.949</ele>
        <time>2019-10-02T11:07:28Z</time>
      </trkpt>
      <trkpt lat="41.809775" lon="-5.741170">
        <ele>710.591</ele>
        <time>2019-10-02T11:08:25Z</time>
      </trkpt>
      <trkpt lat="41.810284" lon="-5.743692">
        <ele>708.198</ele>
        <time>2019-10-02T11:09:47Z</time>
      </trkpt>
      <trkpt lat="41.810625" lon="-5.746532">
        <ele>708.143</ele>
        <time>2019-10-02T11:11:06Z</time>
      </trkpt>
      <trkpt lat="41.810473" lon="-5.748822">
        <ele>707.690</ele>
        <time>2019-10-02T11:11:56Z</time>
      </trkpt>
      <trkpt lat="41.810685" lon="-5.750741">
        <ele>707.112</ele>
        <time>2019-10-02T11:12:35Z</time>
      </trkpt>
      <trkpt lat="41.810481" lon="-5.752875">
        <ele>705.232</ele>
        <time>2019-10-02T11:13:20Z</time>
      </trkpt>
      <trkpt lat="41.810822" lon="-5.755566">
        <ele>704.705</ele>
        <time>2019-10-02T11:14:20Z</time>
      </trkpt>
      <trkpt lat="41.823074" lon="-5.767265">
        <ele>727.308</ele>
        <time>2019-10-02T11:27:54Z</time>
      </trkpt>
      <trkpt lat="41.826731" lon="-5.770364">
        <ele>724.065</ele>
        <time>2019-10-02T11:29:58Z</time>
      </trkpt>
      <trkpt lat="41.827941" lon="-5.772110">
        <ele>717.283</ele>
        <time>2019-10-02T11:30:37Z</time>
      </trkpt>
      <trkpt lat="41.829829" lon="-5.778030">
        <ele>723.060</ele>
        <time>2019-10-02T11:33:41Z</time>
      </trkpt>
      <trkpt lat="41.837753" lon="-5.773181">
        <ele>746.669</ele>
        <time>2019-10-02T11:45:03Z</time>
      </trkpt>
      <trkpt lat="41.838060" lon="-5.773154">
        <ele>744.211</ele>
        <time>2019-10-02T11:45:11Z</time>
      </trkpt>
      <trkpt lat="41.839554" lon="-5.779233">
        <ele>723.578</ele>
        <time>2019-10-02T11:47:42Z</time>
      </trkpt>
      <trkpt lat="41.841025" lon="-5.779494">
        <ele>717.213</ele>
        <time>2019-10-02T11:48:27Z</time>
      </trkpt>
      <trkpt lat="41.842053" lon="-5.780973">
        <ele>712.490</ele>
        <time>2019-10-02T11:49:01Z</time>
      </trkpt>
      <trkpt lat="41.842799" lon="-5.782578">
        <ele>706.718</ele>
        <time>2019-10-02T11:49:21Z</time>
      </trkpt>
      <trkpt lat="41.843019" lon="-5.782796">
        <ele>705.298</ele>
        <time>2019-10-02T11:49:25Z</time>
      </trkpt>
      <trkpt lat="41.843995" lon="-5.782994">
        <ele>702.317</ele>
        <time>2019-10-02T11:49:41Z</time>
      </trkpt>
      <trkpt lat="41.844482" lon="-5.783274">
        <ele>700.908</ele>
        <time>2019-10-02T11:49:52Z</time>
      </trkpt>
      <trkpt lat="41.845351" lon="-5.782993">
        <ele>700.465</ele>
        <time>2019-10-02T11:50:56Z</time>
      </trkpt>
      <trkpt lat="41.845946" lon="-5.785061">
        <ele>700.453</ele>
        <time>2019-10-02T11:52:04Z</time>
      </trkpt>
      <trkpt lat="41.845763" lon="-5.784613">
        <ele>700.430</ele>
        <time>2019-10-02T11:52:23Z</time>
      </trkpt>
      <trkpt lat="41.847803" lon="-5.787485">
        <ele>701.419</ele>
        <time>2019-10-02T11:57:26Z</time>
      </trkpt>
      <trkpt lat="41.850536" lon="-5.790149">
        <ele>712.941</ele>
        <time>2019-10-02T11:59:45Z</time>
      </trkpt>
      <trkpt lat="41.851643" lon="-5.791706">
        <ele>718.238</ele>
        <time>2019-10-02T12:00:47Z</time>
      </trkpt>
      <trkpt lat="41.851915" lon="-5.792381">
        <ele>719.243</ele>
        <time>2019-10-02T12:01:47Z</time>
      </trkpt>
      <trkpt lat="41.851700" lon="-5.792046">
        <ele>718.290</ele>
        <time>2019-10-02T12:02:10Z</time>
      </trkpt>
      <trkpt lat="41.851296" lon="-5.792408">
        <ele>719.287</ele>
        <time>2019-10-02T12:02:35Z</time>
      </trkpt>
      <trkpt lat="41.850888" lon="-5.793809">
        <ele>730.242</ele>
        <time>2019-10-02T12:04:17Z</time>
      </trkpt>
      <trkpt lat="41.849713" lon="-5.794183">
        <ele>744.626</ele>
        <time>2019-10-02T12:06:46Z</time>
      </trkpt>
      <trkpt lat="41.849330" lon="-5.793828">
        <ele>748.008</ele>
        <time>2019-10-02T12:07:22Z</time>
      </trkpt>
      <trkpt lat="41.849156" lon="-5.792979">
        <ele>748.062</ele>
        <time>2019-10-02T12:07:45Z</time>
      </trkpt>
      <trkpt lat="41.848960" lon="-5.792679">
        <ele>748.050</ele>
        <time>2019-10-02T12:07:54Z</time>
      </trkpt>
      <trkpt lat="41.847728" lon="-5.791867">
        <ele>759.197</ele>
        <time>2019-10-02T12:09:36Z</time>
      </trkpt>
      <trkpt lat="41.847257" lon="-5.791989">
        <ele>763.966</ele>
        <time>2019-10-02T12:10:20Z</time>
      </trkpt>
      <trkpt lat="41.846527" lon="-5.792869">
        <ele>761.598</ele>
        <time>2019-10-02T12:11:56Z</time>
      </trkpt>
      <trkpt lat="41.845678" lon="-5.794808">
        <ele>753.325</ele>
        <time>2019-10-02T12:12:49Z</time>
      </trkpt>
      <trkpt lat="41.845361" lon="-5.795983">
        <ele>747.580</ele>
        <time>2019-10-02T12:13:15Z</time>
      </trkpt>
      <trkpt lat="41.845327" lon="-5.796837">
        <ele>743.247</ele>
        <time>2019-10-02T12:13:31Z</time>
      </trkpt>
      <trkpt lat="41.845026" lon="-5.796915">
        <ele>739.817</ele>
        <time>2019-10-02T12:13:46Z</time>
      </trkpt>
      <trkpt lat="41.844393" lon="-5.796450">
        <ele>739.387</ele>
        <time>2019-10-02T12:14:16Z</time>
      </trkpt>
      <trkpt lat="41.843872" lon="-5.797015">
        <ele>742.215</ele>
        <time>2019-10-02T12:14:53Z</time>
      </trkpt>
      <trkpt lat="41.842983" lon="-5.797119">
        <ele>742.708</ele>
        <time>2019-10-02T12:15:26Z</time>
      </trkpt>
      <trkpt lat="41.842096" lon="-5.797618">
        <ele>741.315</ele>
        <time>2019-10-02T12:15:50Z</time>
      </trkpt>
      <trkpt lat="41.840045" lon="-5.800206">
        <ele>746.153</ele>
        <time>2019-10-02T12:17:44Z</time>
      </trkpt>
      <trkpt lat="41.839480" lon="-5.802958">
        <ele>737.410</ele>
        <time>2019-10-02T12:18:41Z</time>
      </trkpt>
      <trkpt lat="41.838211" lon="-5.804633">
        <ele>726.429</ele>
        <time>2019-10-02T12:19:30Z</time>
      </trkpt>
      <trkpt lat="41.838918" lon="-5.807841">
        <ele>719.271</ele>
        <time>2019-10-02T12:21:00Z</time>
      </trkpt>
      <trkpt lat="41.838486" lon="-5.807930">
        <ele>717.798</ele>
        <time>2019-10-02T12:21:12Z</time>
      </trkpt>
      <trkpt lat="41.838136" lon="-5.807769">
        <ele>716.323</ele>
        <time>2019-10-02T12:21:21Z</time>
      </trkpt>
      <trkpt lat="41.837247" lon="-5.806744">
        <ele>711.520</ele>
        <time>2019-10-02T12:21:53Z</time>
      </trkpt>
      <trkpt lat="41.836231" lon="-5.806953">
        <ele>707.178</ele>
        <time>2019-10-02T12:22:32Z</time>
      </trkpt>
      <trkpt lat="41.835934" lon="-5.807908">
        <ele>710.033</ele>
        <time>2019-10-02T12:23:10Z</time>
      </trkpt>
      <trkpt lat="41.835481" lon="-5.808092">
        <ele>716.326</ele>
        <time>2019-10-02T12:23:52Z</time>
      </trkpt>
      <trkpt lat="41.834897" lon="-5.808050">
        <ele>720.108</ele>
        <time>2019-10-02T12:24:33Z</time>
      </trkpt>
      <trkpt lat="41.833399" lon="-5.809179">
        <ele>730.261</ele>
        <time>2019-10-02T12:26:38Z</time>
      </trkpt>
      <trkpt lat="41.831890" lon="-5.810830">
        <ele>732.619</ele>
        <time>2019-10-02T12:27:49Z</time>
      </trkpt>
      <trkpt lat="41.831490" lon="-5.811471">
        <ele>733.156</ele>
        <time>2019-10-02T12:28:07Z</time>
      </trkpt>
      <trkpt lat="41.830904" lon="-5.811855">
        <ele>733.145</ele>
        <time>2019-10-02T12:28:26Z</time>
      </trkpt>
      <trkpt lat="41.828701" lon="-5.815233">
        <ele>735.057</ele>
        <time>2019-10-02T12:30:09Z</time>
      </trkpt>
      <trkpt lat="41.828362" lon="-5.816068">
        <ele>731.714</ele>
        <time>2019-10-02T12:30:24Z</time>
      </trkpt>
      <trkpt lat="41.830329" lon="-5.821298">
        <ele>736.999</ele>
        <time>2019-10-02T12:33:01Z</time>
      </trkpt>
      <trkpt lat="41.839581" lon="-5.836188">
        <ele>747.026</ele>
        <time>2019-10-02T12:41:01Z</time>
      </trkpt>
      <trkpt lat="41.837522" lon="-5.838510">
        <ele>743.774</ele>
        <time>2019-10-02T12:50:55Z</time>
      </trkpt>
      <trkpt lat="41.836921" lon="-5.839636">
        <ele>741.756</ele>
        <time>2019-10-02T12:51:17Z</time>
      </trkpt>
      <trkpt lat="41.836745" lon="-5.840394">
        <ele>741.721</ele>
        <time>2019-10-02T12:51:32Z</time>
      </trkpt>
      <trkpt lat="41.837065" lon="-5.840905">
        <ele>741.708</ele>
        <time>2019-10-02T12:51:47Z</time>
      </trkpt>
      <trkpt lat="41.837082" lon="-5.841207">
        <ele>741.791</ele>
        <time>2019-10-02T12:51:53Z</time>
      </trkpt>
      <trkpt lat="41.835476" lon="-5.845729">
        <ele>735.559</ele>
        <time>2019-10-02T12:53:07Z</time>
      </trkpt>
      <trkpt lat="41.833451" lon="-5.849141">
        <ele>728.826</ele>
        <time>2019-10-02T12:54:13Z</time>
      </trkpt>
      <trkpt lat="41.832804" lon="-5.851977">
        <ele>719.635</ele>
        <time>2019-10-02T12:54:52Z</time>
      </trkpt>
      <trkpt lat="41.832376" lon="-5.853055">
        <ele>717.737</ele>
        <time>2019-10-02T12:55:08Z</time>
      </trkpt>
      <trkpt lat="41.831327" lon="-5.854303">
        <ele>717.794</ele>
        <time>2019-10-02T12:55:40Z</time>
      </trkpt>
      <trkpt lat="41.836169" lon="-5.883120">
        <ele>729.739</ele>
        <time>2019-10-02T13:08:25Z</time>
      </trkpt>
      <trkpt lat="41.836173" lon="-5.884209">
        <ele>729.776</ele>
        <time>2019-10-02T13:08:56Z</time>
      </trkpt>
      <trkpt lat="41.835791" lon="-5.886643">
        <ele>723.594</ele>
        <time>2019-10-02T13:10:12Z</time>
      </trkpt>
      <trkpt lat="41.835559" lon="-5.887053">
        <ele>722.057</ele>
        <time>2019-10-02T13:10:19Z</time>
      </trkpt>
      <trkpt lat="41.834530" lon="-5.887582">
        <ele>714.822</ele>
        <time>2019-10-02T13:10:40Z</time>
      </trkpt>
      <trkpt lat="41.834617" lon="-5.888245">
        <ele>714.808</ele>
        <time>2019-10-02T13:11:04Z</time>
      </trkpt>
      <trkpt lat="41.833990" lon="-5.889798">
        <ele>711.513</ele>
        <time>2019-10-02T13:15:28Z</time>
      </trkpt>
      <trkpt lat="41.833873" lon="-5.890930">
        <ele>711.071</ele>
        <time>2019-10-02T13:15:52Z</time>
      </trkpt>
      <trkpt lat="41.833493" lon="-5.892299">
        <ele>710.088</ele>
        <time>2019-10-02T13:16:22Z</time>
      </trkpt>
      <trkpt lat="41.833672" lon="-5.893017">
        <ele>710.087</ele>
        <time>2019-10-02T13:16:41Z</time>
      </trkpt>
      <trkpt lat="41.834201" lon="-5.893364">
        <ele>710.099</ele>
        <time>2019-10-02T13:17:05Z</time>
      </trkpt>
      <trkpt lat="41.834293" lon="-5.893595">
        <ele>710.036</ele>
        <time>2019-10-02T13:17:13Z</time>
      </trkpt>
      <trkpt lat="41.834179" lon="-5.894979">
        <ele>711.081</ele>
        <time>2019-10-02T13:17:45Z</time>
      </trkpt>
      <trkpt lat="41.835248" lon="-5.899612">
        <ele>713.918</ele>
        <time>2019-10-02T13:19:28Z</time>
      </trkpt>
      <trkpt lat="41.837461" lon="-5.921638">
        <ele>719.643</ele>
        <time>2019-10-02T13:27:26Z</time>
      </trkpt>
      <trkpt lat="41.837345" lon="-5.921828">
        <ele>719.664</ele>
        <time>2019-10-02T13:27:34Z</time>
      </trkpt>
      <trkpt lat="41.831400" lon="-5.921728">
        <ele>721.110</ele>
        <time>2019-10-02T13:30:17Z</time>
      </trkpt>
      <trkpt lat="41.830779" lon="-5.921875">
        <ele>722.508</ele>
        <time>2019-10-02T13:30:41Z</time>
      </trkpt>
      <trkpt lat="41.830455" lon="-5.928289">
        <ele>726.448</ele>
        <time>2019-10-02T13:32:43Z</time>
      </trkpt>
      <trkpt lat="41.830679" lon="-5.935585">
        <ele>728.336</ele>
        <time>2019-10-02T13:35:01Z</time>
      </trkpt>
      <trkpt lat="41.830997" lon="-5.936683">
        <ele>729.323</ele>
        <time>2019-10-02T13:35:31Z</time>
      </trkpt>
      <trkpt lat="41.831706" lon="-5.938259">
        <ele>738.442</ele>
        <time>2019-10-02T13:36:54Z</time>
      </trkpt>
      <trkpt lat="41.831593" lon="-5.938743">
        <ele>740.324</ele>
        <time>2019-10-02T13:37:20Z</time>
      </trkpt>
      <trkpt lat="41.830943" lon="-5.939512">
        <ele>741.771</ele>
        <time>2019-10-02T13:37:53Z</time>
      </trkpt>
      <trkpt lat="41.830830" lon="-5.939876">
        <ele>739.836</ele>
        <time>2019-10-02T13:37:59Z</time>
      </trkpt>
      <trkpt lat="41.831002" lon="-5.945066">
        <ele>731.273</ele>
        <time>2019-10-02T13:39:20Z</time>
      </trkpt>
      <trkpt lat="41.829798" lon="-5.949482">
        <ele>733.616</ele>
        <time>2019-10-02T13:41:42Z</time>
      </trkpt>
      <trkpt lat="41.828947" lon="-5.950113">
        <ele>734.176</ele>
        <time>2019-10-02T13:42:13Z</time>
      </trkpt>
      <trkpt lat="41.829160" lon="-5.951431">
        <ele>734.113</ele>
        <time>2019-10-02T13:42:45Z</time>
      </trkpt>
      <trkpt lat="41.829076" lon="-5.951828">
        <ele>734.108</ele>
        <time>2019-10-02T13:42:54Z</time>
      </trkpt>
      <trkpt lat="41.827349" lon="-5.955136">
        <ele>736.525</ele>
        <time>2019-10-02T13:44:18Z</time>
      </trkpt>
      <trkpt lat="41.827480" lon="-5.955933">
        <ele>737.443</ele>
        <time>2019-10-02T13:44:38Z</time>
      </trkpt>
      <trkpt lat="41.827764" lon="-5.956482">
        <ele>737.450</ele>
        <time>2019-10-02T13:44:53Z</time>
      </trkpt>
      <trkpt lat="41.828036" lon="-5.956636">
        <ele>737.449</ele>
        <time>2019-10-02T13:45:02Z</time>
      </trkpt>
      <trkpt lat="41.827978" lon="-5.957368">
        <ele>737.461</ele>
        <time>2019-10-02T13:45:22Z</time>
      </trkpt>
      <trkpt lat="41.826685" lon="-5.958468">
        <ele>746.158</ele>
        <time>2019-10-02T13:46:40Z</time>
      </trkpt>
      <trkpt lat="41.826386" lon="-5.958581">
        <ele>748.093</ele>
        <time>2019-10-02T13:49:42Z</time>
      </trkpt>
      <trkpt lat="41.827350" lon="-5.957877">
        <ele>742.280</ele>
        <time>2019-10-02T13:58:15Z</time>
      </trkpt>
      <trkpt lat="41.828731" lon="-5.957488">
        <ele>738.959</ele>
        <time>2019-10-02T13:58:48Z</time>
      </trkpt>
      <trkpt lat="41.830433" lon="-5.956402">
        <ele>736.503</ele>
        <time>2019-10-02T13:59:48Z</time>
      </trkpt>
      <trkpt lat="41.833466" lon="-5.955614">
        <ele>742.223</ele>
        <time>2019-10-02T14:02:01Z</time>
      </trkpt>
      <trkpt lat="41.838741" lon="-5.951456">
        <ele>735.508</ele>
        <time>2019-10-02T14:04:49Z</time>
      </trkpt>
      <trkpt lat="41.839295" lon="-5.952104">
        <ele>736.989</ele>
        <time>2019-10-02T14:05:17Z</time>
      </trkpt>
      <trkpt lat="41.840052" lon="-5.953467">
        <ele>741.777</ele>
        <time>2019-10-02T14:06:23Z</time>
      </trkpt>
      <trkpt lat="41.839988" lon="-5.954433">
        <ele>742.794</ele>
        <time>2019-10-02T14:06:49Z</time>
      </trkpt>
      <trkpt lat="41.840394" lon="-5.955199">
        <ele>741.353</ele>
        <time>2019-10-02T14:07:07Z</time>
      </trkpt>
      <trkpt lat="41.840583" lon="-5.955949">
        <ele>740.865</ele>
        <time>2019-10-02T14:09:04Z</time>
      </trkpt>
      <trkpt lat="41.840651" lon="-5.955397">
        <ele>740.872</ele>
        <time>2019-10-02T14:10:01Z</time>
      </trkpt>
      <trkpt lat="41.841335" lon="-5.955479">
        <ele>746.187</ele>
        <time>2019-10-02T14:10:48Z</time>
      </trkpt>
      <trkpt lat="41.843591" lon="-5.959217">
        <ele>755.254</ele>
        <time>2019-10-02T14:14:01Z</time>
      </trkpt>
      <trkpt lat="41.843474" lon="-5.959532">
        <ele>756.677</ele>
        <time>2019-10-02T14:14:13Z</time>
      </trkpt>
      <trkpt lat="41.842317" lon="-5.959777">
        <ele>751.461</ele>
        <time>2019-10-02T14:14:40Z</time>
      </trkpt>
      <trkpt lat="41.842195" lon="-5.960098">
        <ele>750.927</ele>
        <time>2019-10-02T14:14:47Z</time>
      </trkpt>
      <trkpt lat="41.845532" lon="-5.959476">
        <ele>759.508</ele>
        <time>2019-10-02T14:16:57Z</time>
      </trkpt>
      <trkpt lat="41.847678" lon="-5.960302">
        <ele>750.431</ele>
        <time>2019-10-02T14:17:25Z</time>
      </trkpt>
      <trkpt lat="41.860889" lon="-5.961937">
        <ele>760.569</ele>
        <time>2019-10-02T14:24:27Z</time>
      </trkpt>
      <trkpt lat="41.861556" lon="-5.962180">
        <ele>764.826</ele>
        <time>2019-10-02T14:25:07Z</time>
      </trkpt>
      <trkpt lat="41.864096" lon="-5.964259">
        <ele>782.675</ele>
        <time>2019-10-02T14:28:06Z</time>
      </trkpt>
      <trkpt lat="41.864695" lon="-5.964473">
        <ele>786.057</ele>
        <time>2019-10-02T14:28:42Z</time>
      </trkpt>
      <trkpt lat="41.865281" lon="-5.964261">
        <ele>788.414</ele>
        <time>2019-10-02T14:29:16Z</time>
      </trkpt>
      <trkpt lat="41.866572" lon="-5.963034">
        <ele>793.719</ele>
        <time>2019-10-02T14:30:26Z</time>
      </trkpt>
      <trkpt lat="41.869703" lon="-5.962618">
        <ele>806.226</ele>
        <time>2019-10-02T14:32:58Z</time>
      </trkpt>
      <trkpt lat="41.870482" lon="-5.962283">
        <ele>808.638</ele>
        <time>2019-10-02T14:33:28Z</time>
      </trkpt>
      <trkpt lat="41.870627" lon="-5.962424">
        <ele>808.670</ele>
        <time>2019-10-02T14:33:40Z</time>
      </trkpt>
      <trkpt lat="41.870825" lon="-5.963579">
        <ele>810.517</ele>
        <time>2019-10-02T14:34:25Z</time>
      </trkpt>
      <trkpt lat="41.872995" lon="-5.962336">
        <ele>797.508</ele>
        <time>2019-10-02T14:35:42Z</time>
      </trkpt>
      <trkpt lat="41.874805" lon="-5.962102">
        <ele>785.577</ele>
        <time>2019-10-02T14:36:18Z</time>
      </trkpt>
      <trkpt lat="41.877842" lon="-5.962258">
        <ele>775.485</ele>
        <time>2019-10-02T14:37:22Z</time>
      </trkpt>
      <trkpt lat="41.879326" lon="-5.961545">
        <ele>771.172</ele>
        <time>2019-10-02T14:37:52Z</time>
      </trkpt>
      <trkpt lat="41.880286" lon="-5.960904">
        <ele>769.191</ele>
        <time>2019-10-02T14:38:19Z</time>
      </trkpt>
      <trkpt lat="41.880612" lon="-5.960878">
        <ele>768.793</ele>
        <time>2019-10-02T14:38:32Z</time>
      </trkpt>
      <trkpt lat="41.881640" lon="-5.959934">
        <ele>767.730</ele>
        <time>2019-10-02T14:39:19Z</time>
      </trkpt>
      <trkpt lat="41.883191" lon="-5.959826">
        <ele>767.745</ele>
        <time>2019-10-02T14:40:11Z</time>
      </trkpt>
      <trkpt lat="41.886353" lon="-5.961190">
        <ele>768.752</ele>
        <time>2019-10-02T14:41:56Z</time>
      </trkpt>
      <trkpt lat="41.888839" lon="-5.962563">
        <ele>766.315</ele>
        <time>2019-10-02T14:43:04Z</time>
      </trkpt>
      <trkpt lat="41.892688" lon="-5.964373">
        <ele>771.665</ele>
        <time>2019-10-02T14:47:52Z</time>
      </trkpt>
      <trkpt lat="41.896426" lon="-5.964335">
        <ele>780.711</ele>
        <time>2019-10-02T14:50:35Z</time>
      </trkpt>
      <trkpt lat="41.905004" lon="-5.972170">
        <ele>786.908</ele>
        <time>2019-10-02T15:03:23Z</time>
      </trkpt>
      <trkpt lat="41.904832" lon="-5.972034">
        <ele>786.975</ele>
        <time>2019-10-02T15:03:34Z</time>
      </trkpt>
      <trkpt lat="41.904903" lon="-5.971772">
        <ele>786.593</ele>
        <time>2019-10-02T15:03:43Z</time>
      </trkpt>
      <trkpt lat="41.908037" lon="-5.966723">
        <ele>774.950</ele>
        <time>2019-10-02T15:05:53Z</time>
      </trkpt>
      <trkpt lat="41.910898" lon="-5.967474">
        <ele>769.199</ele>
        <time>2019-10-02T15:07:13Z</time>
      </trkpt>
      <trkpt lat="41.911111" lon="-5.961398">
        <ele>780.761</ele>
        <time>2019-10-02T15:10:41Z</time>
      </trkpt>
      <trkpt lat="41.911971" lon="-5.959113">
        <ele>778.878</ele>
        <time>2019-10-02T15:11:40Z</time>
      </trkpt>
      <trkpt lat="41.917771" lon="-5.960206">
        <ele>767.723</ele>
        <time>2019-10-02T15:13:53Z</time>
      </trkpt>
      <trkpt lat="41.920071" lon="-5.960420">
        <ele>761.920</ele>
        <time>2019-10-02T15:14:51Z</time>
      </trkpt>
      <trkpt lat="41.926825" lon="-5.959539">
        <ele>749.078</ele>
        <time>2019-10-02T15:17:48Z</time>
      </trkpt>
      <trkpt lat="41.929377" lon="-5.959608">
        <ele>746.633</ele>
        <time>2019-10-02T15:24:25Z</time>
      </trkpt>
      <trkpt lat="41.930760" lon="-5.955069">
        <ele>745.626</ele>
        <time>2019-10-02T15:26:07Z</time>
      </trkpt>
      <trkpt lat="41.931296" lon="-5.954094">
        <ele>744.208</ele>
        <time>2019-10-02T15:26:31Z</time>
      </trkpt>
      <trkpt lat="41.931445" lon="-5.951800">
        <ele>744.221</ele>
        <time>2019-10-02T15:27:15Z</time>
      </trkpt>
      <trkpt lat="41.931661" lon="-5.951583">
        <ele>744.269</ele>
        <time>2019-10-02T15:27:24Z</time>
      </trkpt>
      <trkpt lat="41.932886" lon="-5.951939">
        <ele>742.296</ele>
        <time>2019-10-02T15:28:07Z</time>
      </trkpt>
      <trkpt lat="41.934386" lon="-5.953578">
        <ele>744.235</ele>
        <time>2019-10-02T15:29:03Z</time>
      </trkpt>
      <trkpt lat="41.935174" lon="-5.954002">
        <ele>743.797</ele>
        <time>2019-10-02T15:29:27Z</time>
      </trkpt>
      <trkpt lat="41.936799" lon="-5.955665">
        <ele>742.794</ele>
        <time>2019-10-02T15:30:21Z</time>
      </trkpt>
      <trkpt lat="41.935979" lon="-5.967145">
        <ele>747.549</ele>
        <time>2019-10-02T15:35:26Z</time>
      </trkpt>
      <trkpt lat="41.936028" lon="-5.966402">
        <ele>746.616</ele>
        <time>2019-10-02T15:36:17Z</time>
      </trkpt>
      <trkpt lat="41.938374" lon="-5.966800">
        <ele>748.074</ele>
        <time>2019-10-02T15:37:47Z</time>
      </trkpt>
      <trkpt lat="41.938999" lon="-5.963250">
        <ele>748.056</ele>
        <time>2019-10-02T15:39:09Z</time>
      </trkpt>
      <trkpt lat="41.938804" lon="-5.961848">
        <ele>748.021</ele>
        <time>2019-10-02T15:39:36Z</time>
      </trkpt>
      <trkpt lat="41.938931" lon="-5.961724">
        <ele>748.008</ele>
        <time>2019-10-02T15:39:44Z</time>
      </trkpt>
      <trkpt lat="41.940290" lon="-5.962505">
        <ele>754.211</ele>
        <time>2019-10-02T15:41:07Z</time>
      </trkpt>
      <trkpt lat="41.940872" lon="-5.962627">
        <ele>757.649</ele>
        <time>2019-10-02T15:41:48Z</time>
      </trkpt>
      <trkpt lat="41.941839" lon="-5.963461">
        <ele>767.786</ele>
        <time>2019-10-02T15:43:26Z</time>
      </trkpt>
      <trkpt lat="41.942267" lon="-5.964283">
        <ele>774.475</ele>
        <time>2019-10-02T15:44:39Z</time>
      </trkpt>
      <trkpt lat="41.942223" lon="-5.966262">
        <ele>793.737</ele>
        <time>2019-10-02T15:47:08Z</time>
      </trkpt>
      <trkpt lat="41.943024" lon="-5.966133">
        <ele>796.584</ele>
        <time>2019-10-02T15:47:53Z</time>
      </trkpt>
      <trkpt lat="41.943317" lon="-5.966218">
        <ele>796.559</ele>
        <time>2019-10-02T15:48:04Z</time>
      </trkpt>
      <trkpt lat="41.946391" lon="-5.968141">
        <ele>798.576</ele>
        <time>2019-10-02T15:49:37Z</time>
      </trkpt>
      <trkpt lat="41.948954" lon="-5.969193">
        <ele>797.098</ele>
        <time>2019-10-02T15:50:39Z</time>
      </trkpt>
      <trkpt lat="41.950164" lon="-5.970093">
        <ele>798.015</ele>
        <time>2019-10-02T15:51:15Z</time>
      </trkpt>
      <trkpt lat="41.954171" lon="-5.970384">
        <ele>796.526</ele>
        <time>2019-10-02T15:52:52Z</time>
      </trkpt>
      <trkpt lat="41.956720" lon="-5.971104">
        <ele>792.708</ele>
        <time>2019-10-02T15:53:43Z</time>
      </trkpt>
      <trkpt lat="41.957484" lon="-5.970992">
        <ele>792.263</ele>
        <time>2019-10-02T15:54:01Z</time>
      </trkpt>
      <trkpt lat="41.959052" lon="-5.970397">
        <ele>783.191</ele>
        <time>2019-10-02T15:54:32Z</time>
      </trkpt>
      <trkpt lat="41.959424" lon="-5.970428">
        <ele>782.178</ele>
        <time>2019-10-02T15:54:38Z</time>
      </trkpt>
      <trkpt lat="41.961357" lon="-5.970919">
        <ele>773.547</ele>
        <time>2019-10-02T15:55:08Z</time>
      </trkpt>
      <trkpt lat="41.962739" lon="-5.971531">
        <ele>769.619</ele>
        <time>2019-10-02T15:55:30Z</time>
      </trkpt>
      <trkpt lat="41.970288" lon="-5.973490">
        <ele>753.346</ele>
        <time>2019-10-02T15:58:20Z</time>
      </trkpt>
      <trkpt lat="41.971222" lon="-5.973454">
        <ele>744.221</ele>
        <time>2019-10-02T15:58:36Z</time>
      </trkpt>
      <trkpt lat="41.972729" lon="-5.973727">
        <ele>737.468</ele>
        <time>2019-10-02T15:59:01Z</time>
      </trkpt>
      <trkpt lat="41.974805" lon="-5.974602">
        <ele>734.569</ele>
        <time>2019-10-02T16:00:54Z</time>
      </trkpt>
      <trkpt lat="41.977917" lon="-5.976415">
        <ele>732.604</ele>
        <time>2019-10-02T16:02:35Z</time>
      </trkpt>
      <trkpt lat="41.979180" lon="-5.976541">
        <ele>732.124</ele>
        <time>2019-10-02T16:03:13Z</time>
      </trkpt>
      <trkpt lat="41.982356" lon="-5.977820">
        <ele>732.108</ele>
        <time>2019-10-02T16:04:47Z</time>
      </trkpt>
      <trkpt lat="41.983680" lon="-5.977592">
        <ele>732.170</ele>
        <time>2019-10-02T16:05:23Z</time>
      </trkpt>
      <trkpt lat="41.984618" lon="-5.976118">
        <ele>731.758</ele>
        <time>2019-10-02T16:06:06Z</time>
      </trkpt>
      <trkpt lat="41.984877" lon="-5.975922">
        <ele>731.755</ele>
        <time>2019-10-02T16:06:17Z</time>
      </trkpt>
      <trkpt lat="41.985654" lon="-5.975854">
        <ele>732.154</ele>
        <time>2019-10-02T16:07:16Z</time>
      </trkpt>
      <trkpt lat="41.986418" lon="-5.976080">
        <ele>732.156</ele>
        <time>2019-10-02T16:07:37Z</time>
      </trkpt>
      <trkpt lat="41.986961" lon="-5.975914">
        <ele>732.153</ele>
        <time>2019-10-02T16:07:52Z</time>
      </trkpt>
      <trkpt lat="41.987667" lon="-5.974469">
        <ele>730.728</ele>
        <time>2019-10-02T16:08:25Z</time>
      </trkpt>
      <trkpt lat="41.988773" lon="-5.973159">
        <ele>730.745</ele>
        <time>2019-10-02T16:09:01Z</time>
      </trkpt>
      <trkpt lat="41.989283" lon="-5.972080">
        <ele>730.259</ele>
        <time>2019-10-02T16:09:30Z</time>
      </trkpt>
      <trkpt lat="41.989462" lon="-5.971948">
        <ele>730.203</ele>
        <time>2019-10-02T16:09:37Z</time>
      </trkpt>
      <trkpt lat="41.989790" lon="-5.971901">
        <ele>730.223</ele>
        <time>2019-10-02T16:09:46Z</time>
      </trkpt>
      <trkpt lat="41.994171" lon="-5.972695">
        <ele>733.608</ele>
        <time>2019-10-02T16:11:40Z</time>
      </trkpt>
      <trkpt lat="41.994497" lon="-5.972592">
        <ele>735.049</ele>
        <time>2019-10-02T16:11:53Z</time>
      </trkpt>
      <trkpt lat="41.994810" lon="-5.971381">
        <ele>741.347</ele>
        <time>2019-10-02T16:12:48Z</time>
      </trkpt>
      <trkpt lat="41.994613" lon="-5.970773">
        <ele>741.314</ele>
        <time>2019-10-02T16:13:52Z</time>
      </trkpt>
      <trkpt lat="41.994592" lon="-5.970011">
        <ele>723.053</ele>
        <time>2019-10-03T06:23:27Z</time>
      </trkpt>
      <trkpt lat="41.994635" lon="-5.970390">
        <ele>727.868</ele>
        <time>2019-10-03T06:33:46Z</time>
      </trkpt>
      <trkpt lat="41.994604" lon="-5.970670">
        <ele>728.342</ele>
        <time>2019-10-03T06:34:11Z</time>
      </trkpt>
      <trkpt lat="41.994853" lon="-5.971231">
        <ele>729.726</ele>
        <time>2019-10-03T06:34:40Z</time>
      </trkpt>
      <trkpt lat="41.994650" lon="-5.973885">
        <ele>732.608</ele>
        <time>2019-10-03T06:36:00Z</time>
      </trkpt>
      <trkpt lat="41.995143" lon="-5.975985">
        <ele>724.070</ele>
        <time>2019-10-03T06:36:40Z</time>
      </trkpt>
      <trkpt lat="41.995508" lon="-5.978458">
        <ele>718.768</ele>
        <time>2019-10-03T06:37:10Z</time>
      </trkpt>
      <trkpt lat="41.995431" lon="-5.983545">
        <ele>720.665</ele>
        <time>2019-10-03T06:39:56Z</time>
      </trkpt>
      <trkpt lat="41.994461" lon="-5.985315">
        <ele>721.644</ele>
        <time>2019-10-03T06:41:02Z</time>
      </trkpt>
      <trkpt lat="41.994434" lon="-5.987407">
        <ele>722.587</ele>
        <time>2019-10-03T06:42:02Z</time>
      </trkpt>
      <trkpt lat="41.993717" lon="-5.987606">
        <ele>722.526</ele>
        <time>2019-10-03T06:42:27Z</time>
      </trkpt>
      <trkpt lat="41.993594" lon="-5.987771">
        <ele>722.550</ele>
        <time>2019-10-03T06:42:33Z</time>
      </trkpt>
      <trkpt lat="41.993049" lon="-5.990379">
        <ele>723.515</ele>
        <time>2019-10-03T06:43:49Z</time>
      </trkpt>
      <trkpt lat="41.992962" lon="-5.991971">
        <ele>724.076</ele>
        <time>2019-10-03T06:44:31Z</time>
      </trkpt>
      <trkpt lat="41.992812" lon="-5.992084">
        <ele>724.990</ele>
        <time>2019-10-03T06:44:40Z</time>
      </trkpt>
      <trkpt lat="41.992512" lon="-5.991993">
        <ele>724.919</ele>
        <time>2019-10-03T06:44:51Z</time>
      </trkpt>
      <trkpt lat="41.992086" lon="-5.991704">
        <ele>723.508</ele>
        <time>2019-10-03T06:45:09Z</time>
      </trkpt>
      <trkpt lat="41.991203" lon="-5.992234">
        <ele>723.591</ele>
        <time>2019-10-03T06:45:42Z</time>
      </trkpt>
      <trkpt lat="41.990314" lon="-5.995120">
        <ele>725.499</ele>
        <time>2019-10-03T06:47:12Z</time>
      </trkpt>
      <trkpt lat="41.988543" lon="-5.999758">
        <ele>727.876</ele>
        <time>2019-10-03T06:49:55Z</time>
      </trkpt>
      <trkpt lat="41.987521" lon="-6.001182">
        <ele>728.385</ele>
        <time>2019-10-03T06:51:06Z</time>
      </trkpt>
      <trkpt lat="41.986631" lon="-6.001939">
        <ele>728.838</ele>
        <time>2019-10-03T06:51:48Z</time>
      </trkpt>
      <trkpt lat="41.985771" lon="-6.001566">
        <ele>728.817</ele>
        <time>2019-10-03T06:52:17Z</time>
      </trkpt>
      <trkpt lat="41.984206" lon="-6.001780">
        <ele>729.351</ele>
        <time>2019-10-03T06:53:23Z</time>
      </trkpt>
      <trkpt lat="41.984071" lon="-6.001944">
        <ele>729.326</ele>
        <time>2019-10-03T06:53:35Z</time>
      </trkpt>
      <trkpt lat="41.983895" lon="-6.006351">
        <ele>730.282</ele>
        <time>2019-10-03T06:55:51Z</time>
      </trkpt>
      <trkpt lat="41.984446" lon="-6.011036">
        <ele>729.343</ele>
        <time>2019-10-03T06:57:55Z</time>
      </trkpt>
      <trkpt lat="41.984966" lon="-6.012407">
        <ele>730.717</ele>
        <time>2019-10-03T06:58:36Z</time>
      </trkpt>
      <trkpt lat="41.985758" lon="-6.013209">
        <ele>731.208</ele>
        <time>2019-10-03T06:59:23Z</time>
      </trkpt>
      <trkpt lat="41.986217" lon="-6.014168">
        <ele>730.292</ele>
        <time>2019-10-03T07:01:46Z</time>
      </trkpt>
      <trkpt lat="41.986442" lon="-6.015668">
        <ele>730.730</ele>
        <time>2019-10-03T07:02:22Z</time>
      </trkpt>
      <trkpt lat="41.986408" lon="-6.016476">
        <ele>730.767</ele>
        <time>2019-10-03T07:02:40Z</time>
      </trkpt>
      <trkpt lat="41.986225" lon="-6.017636">
        <ele>730.786</ele>
        <time>2019-10-03T07:03:07Z</time>
      </trkpt>
      <trkpt lat="41.985914" lon="-6.018527">
        <ele>730.799</ele>
        <time>2019-10-03T07:03:28Z</time>
      </trkpt>
      <trkpt lat="41.985071" lon="-6.020311">
        <ele>730.288</ele>
        <time>2019-10-03T07:04:13Z</time>
      </trkpt>
      <trkpt lat="41.984002" lon="-6.022037">
        <ele>732.152</ele>
        <time>2019-10-03T07:05:04Z</time>
      </trkpt>
      <trkpt lat="41.983448" lon="-6.023735">
        <ele>732.127</ele>
        <time>2019-10-03T07:05:46Z</time>
      </trkpt>
      <trkpt lat="41.983101" lon="-6.027982">
        <ele>733.161</ele>
        <time>2019-10-03T07:07:21Z</time>
      </trkpt>
      <trkpt lat="41.983185" lon="-6.028222">
        <ele>733.621</ele>
        <time>2019-10-03T07:07:29Z</time>
      </trkpt>
      <trkpt lat="41.983695" lon="-6.028331">
        <ele>734.113</ele>
        <time>2019-10-03T07:07:45Z</time>
      </trkpt>
      <trkpt lat="41.983719" lon="-6.028446">
        <ele>734.508</ele>
        <time>2019-10-03T07:07:48Z</time>
      </trkpt>
      <trkpt lat="41.980413" lon="-6.030137">
        <ele>736.520</ele>
        <time>2019-10-03T07:10:01Z</time>
      </trkpt>
      <trkpt lat="41.979984" lon="-6.030526">
        <ele>735.598</ele>
        <time>2019-10-03T07:10:17Z</time>
      </trkpt>
      <trkpt lat="41.981127" lon="-6.030847">
        <ele>732.665</ele>
        <time>2019-10-03T07:10:46Z</time>
      </trkpt>
      <trkpt lat="41.981472" lon="-6.031480">
        <ele>732.684</ele>
        <time>2019-10-03T07:11:01Z</time>
      </trkpt>
      <trkpt lat="41.981256" lon="-6.033454">
        <ele>734.147</ele>
        <time>2019-10-03T07:11:41Z</time>
      </trkpt>
      <trkpt lat="41.981882" lon="-6.036775">
        <ele>735.546</ele>
        <time>2019-10-03T07:12:53Z</time>
      </trkpt>
      <trkpt lat="41.981558" lon="-6.037642">
        <ele>735.560</ele>
        <time>2019-10-03T07:13:14Z</time>
      </trkpt>
      <trkpt lat="41.981470" lon="-6.040529">
        <ele>736.965</ele>
        <time>2019-10-03T07:14:14Z</time>
      </trkpt>
      <trkpt lat="41.981536" lon="-6.041100">
        <ele>737.468</ele>
        <time>2019-10-03T07:14:26Z</time>
      </trkpt>
      <trkpt lat="41.982053" lon="-6.042514">
        <ele>736.542</ele>
        <time>2019-10-03T07:15:03Z</time>
      </trkpt>
      <trkpt lat="41.982126" lon="-6.043645">
        <ele>737.426</ele>
        <time>2019-10-03T07:15:27Z</time>
      </trkpt>
      <trkpt lat="41.981686" lon="-6.044915">
        <ele>737.908</ele>
        <time>2019-10-03T07:16:01Z</time>
      </trkpt>
      <trkpt lat="41.980947" lon="-6.046338">
        <ele>738.490</ele>
        <time>2019-10-03T07:16:43Z</time>
      </trkpt>
      <trkpt lat="41.981031" lon="-6.047102">
        <ele>738.498</ele>
        <time>2019-10-03T07:17:05Z</time>
      </trkpt>
      <trkpt lat="41.980646" lon="-6.048855">
        <ele>738.445</ele>
        <time>2019-10-03T07:17:54Z</time>
      </trkpt>
      <trkpt lat="41.980699" lon="-6.050632">
        <ele>738.494</ele>
        <time>2019-10-03T07:18:37Z</time>
      </trkpt>
      <trkpt lat="41.980974" lon="-6.051908">
        <ele>738.427</ele>
        <time>2019-10-03T07:19:11Z</time>
      </trkpt>
      <trkpt lat="41.980023" lon="-6.053457">
        <ele>740.326</ele>
        <time>2019-10-03T07:20:02Z</time>
      </trkpt>
      <trkpt lat="41.979681" lon="-6.054400">
        <ele>740.350</ele>
        <time>2019-10-03T07:20:20Z</time>
      </trkpt>
      <trkpt lat="41.979483" lon="-6.056417">
        <ele>740.355</ele>
        <time>2019-10-03T07:21:05Z</time>
      </trkpt>
      <trkpt lat="41.978944" lon="-6.058700">
        <ele>739.348</ele>
        <time>2019-10-03T07:21:53Z</time>
      </trkpt>
      <trkpt lat="41.978519" lon="-6.061519">
        <ele>739.361</ele>
        <time>2019-10-03T07:22:54Z</time>
      </trkpt>
      <trkpt lat="41.978588" lon="-6.062891">
        <ele>739.317</ele>
        <time>2019-10-03T07:23:24Z</time>
      </trkpt>
      <trkpt lat="41.978166" lon="-6.063986">
        <ele>740.808</ele>
        <time>2019-10-03T07:23:51Z</time>
      </trkpt>
      <trkpt lat="41.978030" lon="-6.064781">
        <ele>741.788</ele>
        <time>2019-10-03T07:24:10Z</time>
      </trkpt>
      <trkpt lat="41.977874" lon="-6.070037">
        <ele>742.736</ele>
        <time>2019-10-03T07:25:58Z</time>
      </trkpt>
      <trkpt lat="41.977009" lon="-6.072547">
        <ele>743.293</ele>
        <time>2019-10-03T07:26:52Z</time>
      </trkpt>
      <trkpt lat="41.977197" lon="-6.073174">
        <ele>744.652</ele>
        <time>2019-10-03T07:27:09Z</time>
      </trkpt>
      <trkpt lat="41.977696" lon="-6.073292">
        <ele>745.115</ele>
        <time>2019-10-03T07:27:24Z</time>
      </trkpt>
      <trkpt lat="41.979949" lon="-6.075405">
        <ele>743.724</ele>
        <time>2019-10-03T07:28:36Z</time>
      </trkpt>
      <trkpt lat="41.980118" lon="-6.075771">
        <ele>743.218</ele>
        <time>2019-10-03T07:28:45Z</time>
      </trkpt>
      <trkpt lat="41.980039" lon="-6.076429">
        <ele>746.613</ele>
        <time>2019-10-03T07:29:08Z</time>
      </trkpt>
      <trkpt lat="41.980878" lon="-6.076795">
        <ele>747.081</ele>
        <time>2019-10-03T07:30:15Z</time>
      </trkpt>
      <trkpt lat="41.982031" lon="-6.078337">
        <ele>747.561</ele>
        <time>2019-10-03T07:31:03Z</time>
      </trkpt>
      <trkpt lat="41.982052" lon="-6.079129">
        <ele>747.517</ele>
        <time>2019-10-03T07:31:21Z</time>
      </trkpt>
      <trkpt lat="41.982645" lon="-6.079861">
        <ele>747.508</ele>
        <time>2019-10-03T07:31:45Z</time>
      </trkpt>
      <trkpt lat="41.982356" lon="-6.080976">
        <ele>747.572</ele>
        <time>2019-10-03T07:32:15Z</time>
      </trkpt>
      <trkpt lat="41.981527" lon="-6.081403">
        <ele>747.570</ele>
        <time>2019-10-03T07:32:44Z</time>
      </trkpt>
      <trkpt lat="41.981338" lon="-6.082538">
        <ele>747.587</ele>
        <time>2019-10-03T07:33:09Z</time>
      </trkpt>
      <trkpt lat="41.980902" lon="-6.083316">
        <ele>747.576</ele>
        <time>2019-10-03T07:33:30Z</time>
      </trkpt>
      <trkpt lat="41.980559" lon="-6.083695">
        <ele>747.569</ele>
        <time>2019-10-03T07:33:42Z</time>
      </trkpt>
      <trkpt lat="41.979616" lon="-6.084196">
        <ele>748.088</ele>
        <time>2019-10-03T07:34:14Z</time>
      </trkpt>
      <trkpt lat="41.978988" lon="-6.086150">
        <ele>748.092</ele>
        <time>2019-10-03T07:34:59Z</time>
      </trkpt>
      <trkpt lat="41.979137" lon="-6.087369">
        <ele>746.677</ele>
        <time>2019-10-03T07:35:26Z</time>
      </trkpt>
      <trkpt lat="41.979588" lon="-6.088642">
        <ele>746.664</ele>
        <time>2019-10-03T07:35:56Z</time>
      </trkpt>
      <trkpt lat="41.981700" lon="-6.092267">
        <ele>747.006</ele>
        <time>2019-10-03T07:37:38Z</time>
      </trkpt>
      <trkpt lat="41.982698" lon="-6.095143">
        <ele>747.516</ele>
        <time>2019-10-03T07:38:49Z</time>
      </trkpt>
      <trkpt lat="41.984264" lon="-6.097695">
        <ele>748.508</ele>
        <time>2019-10-03T07:40:09Z</time>
      </trkpt>
      <trkpt lat="41.984301" lon="-6.098672">
        <ele>748.570</ele>
        <time>2019-10-03T07:40:30Z</time>
      </trkpt>
      <trkpt lat="41.984527" lon="-6.099565">
        <ele>749.068</ele>
        <time>2019-10-03T07:40:55Z</time>
      </trkpt>
      <trkpt lat="41.983932" lon="-6.100733">
        <ele>750.425</ele>
        <time>2019-10-03T07:42:00Z</time>
      </trkpt>
      <trkpt lat="41.984547" lon="-6.101580">
        <ele>749.994</ele>
        <time>2019-10-03T07:42:33Z</time>
      </trkpt>
      <trkpt lat="41.985431" lon="-6.105299">
        <ele>752.817</ele>
        <time>2019-10-03T07:44:13Z</time>
      </trkpt>
      <trkpt lat="41.985773" lon="-6.105994">
        <ele>752.866</ele>
        <time>2019-10-03T07:44:33Z</time>
      </trkpt>
      <trkpt lat="41.985285" lon="-6.110201">
        <ele>755.290</ele>
        <time>2019-10-03T07:46:06Z</time>
      </trkpt>
      <trkpt lat="41.985415" lon="-6.110867">
        <ele>755.715</ele>
        <time>2019-10-03T07:46:21Z</time>
      </trkpt>
      <trkpt lat="41.986087" lon="-6.112307">
        <ele>755.779</ele>
        <time>2019-10-03T07:46:54Z</time>
      </trkpt>
      <trkpt lat="41.986460" lon="-6.114263">
        <ele>755.705</ele>
        <time>2019-10-03T07:47:30Z</time>
      </trkpt>
      <trkpt lat="41.986630" lon="-6.115604">
        <ele>757.625</ele>
        <time>2019-10-03T07:47:57Z</time>
      </trkpt>
      <trkpt lat="41.986688" lon="-6.120142">
        <ele>759.108</ele>
        <time>2019-10-03T07:49:24Z</time>
      </trkpt>
      <trkpt lat="41.987118" lon="-6.122707">
        <ele>759.551</ele>
        <time>2019-10-03T07:50:49Z</time>
      </trkpt>
      <trkpt lat="41.986760" lon="-6.123899">
        <ele>760.099</ele>
        <time>2019-10-03T07:52:20Z</time>
      </trkpt>
      <trkpt lat="41.985478" lon="-6.125747">
        <ele>761.076</ele>
        <time>2019-10-03T07:53:29Z</time>
      </trkpt>
      <trkpt lat="41.984501" lon="-6.127725">
        <ele>763.415</ele>
        <time>2019-10-03T07:54:25Z</time>
      </trkpt>
      <trkpt lat="41.983677" lon="-6.128930">
        <ele>762.448</ele>
        <time>2019-10-03T07:54:57Z</time>
      </trkpt>
      <trkpt lat="41.982304" lon="-6.130188">
        <ele>768.767</ele>
        <time>2019-10-03T07:56:19Z</time>
      </trkpt>
      <trkpt lat="41.982123" lon="-6.130130">
        <ele>770.161</ele>
        <time>2019-10-03T07:56:30Z</time>
      </trkpt>
      <trkpt lat="41.980713" lon="-6.128218">
        <ele>777.886</ele>
        <time>2019-10-03T07:58:07Z</time>
      </trkpt>
      <trkpt lat="41.978221" lon="-6.128395">
        <ele>785.514</ele>
        <time>2019-10-03T07:59:53Z</time>
      </trkpt>
      <trkpt lat="41.977907" lon="-6.127717">
        <ele>786.954</ele>
        <time>2019-10-03T08:00:22Z</time>
      </trkpt>
      <trkpt lat="41.977133" lon="-6.128593">
        <ele>789.809</ele>
        <time>2019-10-03T08:01:03Z</time>
      </trkpt>
      <trkpt lat="41.976834" lon="-6.129671">
        <ele>788.408</ele>
        <time>2019-10-03T08:01:28Z</time>
      </trkpt>
      <trkpt lat="41.975764" lon="-6.130670">
        <ele>795.685</ele>
        <time>2019-10-03T08:02:34Z</time>
      </trkpt>
      <trkpt lat="41.974337" lon="-6.132950">
        <ele>806.673</ele>
        <time>2019-10-03T08:04:35Z</time>
      </trkpt>
      <trkpt lat="41.973778" lon="-6.137065">
        <ele>810.010</ele>
        <time>2019-10-03T08:07:02Z</time>
      </trkpt>
      <trkpt lat="41.973406" lon="-6.138344">
        <ele>810.089</ele>
        <time>2019-10-03T08:07:37Z</time>
      </trkpt>
      <trkpt lat="41.972957" lon="-6.142420">
        <ele>810.052</ele>
        <time>2019-10-03T08:09:13Z</time>
      </trkpt>
      <trkpt lat="41.972965" lon="-6.143451">
        <ele>807.121</ele>
        <time>2019-10-03T08:09:37Z</time>
      </trkpt>
      <trkpt lat="41.973099" lon="-6.143576">
        <ele>805.795</ele>
        <time>2019-10-03T08:09:44Z</time>
      </trkpt>
      <trkpt lat="41.973768" lon="-6.142814">
        <ele>804.770</ele>
        <time>2019-10-03T08:10:10Z</time>
      </trkpt>
      <trkpt lat="41.974765" lon="-6.140929">
        <ele>799.446</ele>
        <time>2019-10-03T08:10:47Z</time>
      </trkpt>
      <trkpt lat="41.976184" lon="-6.140375">
        <ele>791.388</ele>
        <time>2019-10-03T08:11:05Z</time>
      </trkpt>
      <trkpt lat="41.980322" lon="-6.142506">
        <ele>791.316</ele>
        <time>2019-10-03T08:14:57Z</time>
      </trkpt>
      <trkpt lat="41.980555" lon="-6.142774">
        <ele>791.308</ele>
        <time>2019-10-03T08:15:06Z</time>
      </trkpt>
      <trkpt lat="41.980690" lon="-6.143281">
        <ele>792.228</ele>
        <time>2019-10-03T08:15:18Z</time>
      </trkpt>
      <trkpt lat="41.980584" lon="-6.144366">
        <ele>791.396</ele>
        <time>2019-10-03T08:15:44Z</time>
      </trkpt>
      <trkpt lat="41.980697" lon="-6.145337">
        <ele>792.263</ele>
        <time>2019-10-03T08:16:04Z</time>
      </trkpt>
      <trkpt lat="41.981146" lon="-6.146555">
        <ele>790.372</ele>
        <time>2019-10-03T08:16:32Z</time>
      </trkpt>
      <trkpt lat="41.980710" lon="-6.146687">
        <ele>790.385</ele>
        <time>2019-10-03T08:16:44Z</time>
      </trkpt>
      <trkpt lat="41.980474" lon="-6.147154">
        <ele>790.834</ele>
        <time>2019-10-03T08:16:59Z</time>
      </trkpt>
      <trkpt lat="41.979982" lon="-6.146953">
        <ele>793.748</ele>
        <time>2019-10-03T08:17:20Z</time>
      </trkpt>
      <trkpt lat="41.978050" lon="-6.147024">
        <ele>792.223</ele>
        <time>2019-10-03T08:18:22Z</time>
      </trkpt>
      <trkpt lat="41.977600" lon="-6.149218">
        <ele>795.634</ele>
        <time>2019-10-03T08:19:42Z</time>
      </trkpt>
      <trkpt lat="41.977668" lon="-6.151128">
        <ele>795.155</ele>
        <time>2019-10-03T08:20:27Z</time>
      </trkpt>
      <trkpt lat="41.978132" lon="-6.153326">
        <ele>790.310</ele>
        <time>2019-10-03T08:21:01Z</time>
      </trkpt>
      <trkpt lat="41.979075" lon="-6.154389">
        <ele>790.308</ele>
        <time>2019-10-03T08:21:33Z</time>
      </trkpt>
      <trkpt lat="41.981006" lon="-6.155275">
        <ele>790.377</ele>
        <time>2019-10-03T08:22:25Z</time>
      </trkpt>
      <trkpt lat="41.981207" lon="-6.155651">
        <ele>790.395</ele>
        <time>2019-10-03T08:22:34Z</time>
      </trkpt>
      <trkpt lat="41.981074" lon="-6.155882">
        <ele>790.312</ele>
        <time>2019-10-03T08:22:40Z</time>
      </trkpt>
      <trkpt lat="41.980736" lon="-6.155954">
        <ele>790.351</ele>
        <time>2019-10-03T08:22:48Z</time>
      </trkpt>
      <trkpt lat="41.980237" lon="-6.156317">
        <ele>790.324</ele>
        <time>2019-10-03T08:23:03Z</time>
      </trkpt>
      <trkpt lat="41.979669" lon="-6.156251">
        <ele>790.313</ele>
        <time>2019-10-03T08:23:17Z</time>
      </trkpt>
      <trkpt lat="41.979376" lon="-6.156502">
        <ele>789.857</ele>
        <time>2019-10-03T08:23:26Z</time>
      </trkpt>
      <trkpt lat="41.978906" lon="-6.158023">
        <ele>793.232</ele>
        <time>2019-10-03T08:24:08Z</time>
      </trkpt>
      <trkpt lat="41.979142" lon="-6.160125">
        <ele>790.347</ele>
        <time>2019-10-03T08:24:45Z</time>
      </trkpt>
      <trkpt lat="41.978983" lon="-6.162147">
        <ele>790.829</ele>
        <time>2019-10-03T08:25:19Z</time>
      </trkpt>
      <trkpt lat="41.979351" lon="-6.164087">
        <ele>791.721</ele>
        <time>2019-10-03T08:25:59Z</time>
      </trkpt>
      <trkpt lat="41.980274" lon="-6.166132">
        <ele>794.608</ele>
        <time>2019-10-03T08:26:58Z</time>
      </trkpt>
      <trkpt lat="41.980360" lon="-6.167239">
        <ele>796.128</ele>
        <time>2019-10-03T08:27:31Z</time>
      </trkpt>
      <trkpt lat="41.980253" lon="-6.167723">
        <ele>797.536</ele>
        <time>2019-10-03T08:27:48Z</time>
      </trkpt>
      <trkpt lat="41.979250" lon="-6.169469">
        <ele>808.693</ele>
        <time>2019-10-03T08:29:27Z</time>
      </trkpt>
      <trkpt lat="41.978886" lon="-6.169646">
        <ele>810.552</ele>
        <time>2019-10-03T08:29:51Z</time>
      </trkpt>
      <trkpt lat="41.978875" lon="-6.170534">
        <ele>808.655</ele>
        <time>2019-10-03T08:30:10Z</time>
      </trkpt>
      <trkpt lat="41.979712" lon="-6.171250">
        <ele>804.294</ele>
        <time>2019-10-03T08:30:34Z</time>
      </trkpt>
      <trkpt lat="41.981722" lon="-6.175101">
        <ele>809.078</ele>
        <time>2019-10-03T08:33:02Z</time>
      </trkpt>
      <trkpt lat="41.982880" lon="-6.176445">
        <ele>808.143</ele>
        <time>2019-10-03T08:33:47Z</time>
      </trkpt>
      <trkpt lat="41.984576" lon="-6.178899">
        <ele>810.032</ele>
        <time>2019-10-03T08:35:22Z</time>
      </trkpt>
      <trkpt lat="41.985150" lon="-6.179963">
        <ele>811.092</ele>
        <time>2019-10-03T08:36:00Z</time>
      </trkpt>
      <trkpt lat="41.986538" lon="-6.183339">
        <ele>815.811</ele>
        <time>2019-10-03T08:37:40Z</time>
      </trkpt>
      <trkpt lat="41.987511" lon="-6.186877">
        <ele>820.608</ele>
        <time>2019-10-03T08:39:25Z</time>
      </trkpt>
      <trkpt lat="41.989589" lon="-6.190408">
        <ele>828.777</ele>
        <time>2019-10-03T08:41:54Z</time>
      </trkpt>
      <trkpt lat="41.991226" lon="-6.194099">
        <ele>829.215</ele>
        <time>2019-10-03T08:44:03Z</time>
      </trkpt>
      <trkpt lat="41.992188" lon="-6.197498">
        <ele>835.022</ele>
        <time>2019-10-03T08:45:44Z</time>
      </trkpt>
      <trkpt lat="41.992660" lon="-6.198693">
        <ele>841.271</ele>
        <time>2019-10-03T08:46:48Z</time>
      </trkpt>
      <trkpt lat="41.993403" lon="-6.201992">
        <ele>847.074</ele>
        <time>2019-10-03T08:52:46Z</time>
      </trkpt>
      <trkpt lat="41.995065" lon="-6.204489">
        <ele>822.013</ele>
        <time>2019-10-03T08:54:24Z</time>
      </trkpt>
      <trkpt lat="41.996010" lon="-6.207015">
        <ele>810.037</ele>
        <time>2019-10-03T08:55:15Z</time>
      </trkpt>
      <trkpt lat="41.996726" lon="-6.208086">
        <ele>808.612</ele>
        <time>2019-10-03T08:55:45Z</time>
      </trkpt>
      <trkpt lat="41.997334" lon="-6.209677">
        <ele>807.148</ele>
        <time>2019-10-03T08:56:21Z</time>
      </trkpt>
      <trkpt lat="41.997799" lon="-6.210371">
        <ele>807.661</ele>
        <time>2019-10-03T08:56:42Z</time>
      </trkpt>
      <trkpt lat="41.998545" lon="-6.210833">
        <ele>811.917</ele>
        <time>2019-10-03T08:57:23Z</time>
      </trkpt>
      <trkpt lat="41.999386" lon="-6.211901">
        <ele>813.808</ele>
        <time>2019-10-03T08:58:08Z</time>
      </trkpt>
      <trkpt lat="41.999578" lon="-6.211996">
        <ele>813.868</ele>
        <time>2019-10-03T08:58:16Z</time>
      </trkpt>
      <trkpt lat="42.000272" lon="-6.211750">
        <ele>810.596</ele>
        <time>2019-10-03T08:58:38Z</time>
      </trkpt>
      <trkpt lat="42.000575" lon="-6.211810">
        <ele>808.653</ele>
        <time>2019-10-03T08:58:48Z</time>
      </trkpt>
      <trkpt lat="42.002443" lon="-6.213484">
        <ele>800.982</ele>
        <time>2019-10-03T08:59:42Z</time>
      </trkpt>
      <trkpt lat="42.003520" lon="-6.213784">
        <ele>797.585</ele>
        <time>2019-10-03T09:00:13Z</time>
      </trkpt>
      <trkpt lat="42.003933" lon="-6.214391">
        <ele>796.144</ele>
        <time>2019-10-03T09:00:31Z</time>
      </trkpt>
      <trkpt lat="42.004832" lon="-6.218124">
        <ele>797.588</ele>
        <time>2019-10-03T09:02:02Z</time>
      </trkpt>
      <trkpt lat="42.005309" lon="-6.219179">
        <ele>797.553</ele>
        <time>2019-10-03T09:03:32Z</time>
      </trkpt>
      <trkpt lat="42.005525" lon="-6.222310">
        <ele>795.674</ele>
        <time>2019-10-03T09:04:49Z</time>
      </trkpt>
      <trkpt lat="42.005226" lon="-6.223454">
        <ele>792.756</ele>
        <time>2019-10-03T09:05:10Z</time>
      </trkpt>
      <trkpt lat="42.005228" lon="-6.224526">
        <ele>792.721</ele>
        <time>2019-10-03T09:05:32Z</time>
      </trkpt>
      <trkpt lat="42.005928" lon="-6.225024">
        <ele>793.708</ele>
        <time>2019-10-03T09:05:58Z</time>
      </trkpt>
      <trkpt lat="42.006348" lon="-6.226601">
        <ele>798.981</ele>
        <time>2019-10-03T09:06:50Z</time>
      </trkpt>
      <trkpt lat="42.006055" lon="-6.226474">
        <ele>801.449</ele>
        <time>2019-10-03T09:07:16Z</time>
      </trkpt>
      <trkpt lat="42.006206" lon="-6.227080">
        <ele>803.826</ele>
        <time>2019-10-03T09:07:41Z</time>
      </trkpt>
      <trkpt lat="42.006560" lon="-6.227683">
        <ele>806.675</ele>
        <time>2019-10-03T09:08:17Z</time>
      </trkpt>
      <trkpt lat="42.006949" lon="-6.229359">
        <ele>808.158</ele>
        <time>2019-10-03T09:09:06Z</time>
      </trkpt>
      <trkpt lat="42.007904" lon="-6.231216">
        <ele>818.267</ele>
        <time>2019-10-03T09:10:48Z</time>
      </trkpt>
      <trkpt lat="42.008268" lon="-6.232615">
        <ele>825.991</ele>
        <time>2019-10-03T09:11:57Z</time>
      </trkpt>
      <trkpt lat="42.008669" lon="-6.233513">
        <ele>829.246</ele>
        <time>2019-10-03T09:12:39Z</time>
      </trkpt>
      <trkpt lat="42.008931" lon="-6.233648">
        <ele>829.719</ele>
        <time>2019-10-03T09:12:54Z</time>
      </trkpt>
      <trkpt lat="42.009506" lon="-6.233390">
        <ele>830.209</ele>
        <time>2019-10-03T09:13:14Z</time>
      </trkpt>
      <trkpt lat="42.009880" lon="-6.233764">
        <ele>831.619</ele>
        <time>2019-10-03T09:13:34Z</time>
      </trkpt>
      <trkpt lat="42.010693" lon="-6.233634">
        <ele>834.508</ele>
        <time>2019-10-03T09:14:08Z</time>
      </trkpt>
      <trkpt lat="42.010936" lon="-6.238466">
        <ele>829.775</ele>
        <time>2019-10-03T09:15:42Z</time>
      </trkpt>
      <trkpt lat="42.010657" lon="-6.241819">
        <ele>834.053</ele>
        <time>2019-10-03T09:17:01Z</time>
      </trkpt>
      <trkpt lat="42.010722" lon="-6.242743">
        <ele>834.530</ele>
        <time>2019-10-03T09:17:27Z</time>
      </trkpt>
      <trkpt lat="42.010304" lon="-6.243488">
        <ele>836.929</ele>
        <time>2019-10-03T09:18:02Z</time>
      </trkpt>
      <trkpt lat="42.009255" lon="-6.246983">
        <ele>849.432</ele>
        <time>2019-10-03T09:20:36Z</time>
      </trkpt>
      <trkpt lat="42.009491" lon="-6.249638">
        <ele>858.511</ele>
        <time>2019-10-03T09:22:26Z</time>
      </trkpt>
      <trkpt lat="42.011071" lon="-6.255327">
        <ele>866.255</ele>
        <time>2019-10-03T09:26:51Z</time>
      </trkpt>
      <trkpt lat="42.011284" lon="-6.257719">
        <ele>868.240</ele>
        <time>2019-10-03T09:28:11Z</time>
      </trkpt>
      <trkpt lat="42.011727" lon="-6.259108">
        <ele>870.671</ele>
        <time>2019-10-03T09:28:50Z</time>
      </trkpt>
      <trkpt lat="42.012544" lon="-6.264361">
        <ele>869.641</ele>
        <time>2019-10-03T09:30:40Z</time>
      </trkpt>
      <trkpt lat="42.014462" lon="-6.270778">
        <ele>870.615</ele>
        <time>2019-10-03T09:34:01Z</time>
      </trkpt>
      <trkpt lat="42.015418" lon="-6.276161">
        <ele>875.408</ele>
        <time>2019-10-03T09:36:42Z</time>
      </trkpt>
      <trkpt lat="42.015315" lon="-6.279072">
        <ele>878.731</ele>
        <time>2019-10-03T09:38:07Z</time>
      </trkpt>
      <trkpt lat="42.015414" lon="-6.279719">
        <ele>878.759</ele>
        <time>2019-10-03T09:38:22Z</time>
      </trkpt>
      <trkpt lat="42.015272" lon="-6.281824">
        <ele>881.166</ele>
        <time>2019-10-03T09:39:17Z</time>
      </trkpt>
      <trkpt lat="42.015116" lon="-6.282312">
        <ele>882.195</ele>
        <time>2019-10-03T09:39:32Z</time>
      </trkpt>
      <trkpt lat="42.015168" lon="-6.287195">
        <ele>891.218</ele>
        <time>2019-10-03T09:42:02Z</time>
      </trkpt>
      <trkpt lat="42.015626" lon="-6.288322">
        <ele>896.597</ele>
        <time>2019-10-03T09:43:03Z</time>
      </trkpt>
      <trkpt lat="42.015879" lon="-6.289972">
        <ele>899.491</ele>
        <time>2019-10-03T09:43:59Z</time>
      </trkpt>
      <trkpt lat="42.017321" lon="-6.294496">
        <ele>900.896</ele>
        <time>2019-10-03T09:46:42Z</time>
      </trkpt>
      <trkpt lat="42.018705" lon="-6.299646">
        <ele>898.031</ele>
        <time>2019-10-03T09:48:36Z</time>
      </trkpt>
      <trkpt lat="42.019134" lon="-6.302524">
        <ele>899.461</ele>
        <time>2019-10-03T09:50:10Z</time>
      </trkpt>
      <trkpt lat="42.019023" lon="-6.304984">
        <ele>903.307</ele>
        <time>2019-10-03T09:51:34Z</time>
      </trkpt>
      <trkpt lat="42.019193" lon="-6.307153">
        <ele>908.508</ele>
        <time>2019-10-03T09:52:52Z</time>
      </trkpt>
      <trkpt lat="42.020770" lon="-6.315036">
        <ele>910.557</ele>
        <time>2019-10-03T09:56:10Z</time>
      </trkpt>
      <trkpt lat="42.020885" lon="-6.316436">
        <ele>910.595</ele>
        <time>2019-10-03T09:56:42Z</time>
      </trkpt>
      <trkpt lat="42.020821" lon="-6.316678">
        <ele>910.972</ele>
        <time>2019-10-03T09:56:53Z</time>
      </trkpt>
      <trkpt lat="42.020566" lon="-6.316816">
        <ele>910.991</ele>
        <time>2019-10-03T09:57:09Z</time>
      </trkpt>
      <trkpt lat="42.020732" lon="-6.317004">
        <ele>910.964</ele>
        <time>2019-10-03T09:57:50Z</time>
      </trkpt>
      <trkpt lat="42.020666" lon="-6.317712">
        <ele>913.863</ele>
        <time>2019-10-03T10:07:51Z</time>
      </trkpt>
      <trkpt lat="42.022892" lon="-6.326664">
        <ele>910.537</ele>
        <time>2019-10-03T10:11:00Z</time>
      </trkpt>
      <trkpt lat="42.023079" lon="-6.329027">
        <ele>904.222</ele>
        <time>2019-10-03T10:11:32Z</time>
      </trkpt>
      <trkpt lat="42.023488" lon="-6.330891">
        <ele>899.448</ele>
        <time>2019-10-03T10:11:55Z</time>
      </trkpt>
      <trkpt lat="42.023384" lon="-6.331137">
        <ele>899.461</ele>
        <time>2019-10-03T10:12:39Z</time>
      </trkpt>
      <trkpt lat="42.023481" lon="-6.331263">
        <ele>905.717</ele>
        <time>2019-10-03T10:35:54Z</time>
      </trkpt>
      <trkpt lat="42.023402" lon="-6.331194">
        <ele>909.508</ele>
        <time>2019-10-03T10:45:29Z</time>
      </trkpt>
      <trkpt lat="42.022558" lon="-6.331884">
        <ele>908.158</ele>
        <time>2019-10-03T10:46:25Z</time>
      </trkpt>
      <trkpt lat="42.022273" lon="-6.332978">
        <ele>903.746</ele>
        <time>2019-10-03T10:46:46Z</time>
      </trkpt>
      <trkpt lat="42.022581" lon="-6.334272">
        <ele>906.643</ele>
        <time>2019-10-03T10:47:28Z</time>
      </trkpt>
      <trkpt lat="42.023261" lon="-6.335308">
        <ele>908.122</ele>
        <time>2019-10-03T10:48:12Z</time>
      </trkpt>
      <trkpt lat="42.023452" lon="-6.335863">
        <ele>908.145</ele>
        <time>2019-10-03T10:48:28Z</time>
      </trkpt>
      <trkpt lat="42.023579" lon="-6.337389">
        <ele>910.524</ele>
        <time>2019-10-03T10:49:16Z</time>
      </trkpt>
      <trkpt lat="42.023577" lon="-6.338169">
        <ele>911.918</ele>
        <time>2019-10-03T10:49:47Z</time>
      </trkpt>
      <trkpt lat="42.023167" lon="-6.340068">
        <ele>917.273</ele>
        <time>2019-10-03T10:51:19Z</time>
      </trkpt>
      <trkpt lat="42.023592" lon="-6.340949">
        <ele>920.179</ele>
        <time>2019-10-03T10:52:01Z</time>
      </trkpt>
      <trkpt lat="42.023367" lon="-6.347528">
        <ele>931.105</ele>
        <time>2019-10-03T10:55:40Z</time>
      </trkpt>
      <trkpt lat="42.023590" lon="-6.349967">
        <ele>929.725</ele>
        <time>2019-10-03T10:56:39Z</time>
      </trkpt>
      <trkpt lat="42.023544" lon="-6.354573">
        <ele>936.408</ele>
        <time>2019-10-03T10:59:02Z</time>
      </trkpt>
      <trkpt lat="42.023668" lon="-6.355221">
        <ele>937.411</ele>
        <time>2019-10-03T10:59:21Z</time>
      </trkpt>
      <trkpt lat="42.023570" lon="-6.356486">
        <ele>939.829</ele>
        <time>2019-10-03T11:00:00Z</time>
      </trkpt>
      <trkpt lat="42.023681" lon="-6.357055">
        <ele>941.226</ele>
        <time>2019-10-03T11:00:21Z</time>
      </trkpt>
      <trkpt lat="42.023383" lon="-6.359628">
        <ele>944.115</ele>
        <time>2019-10-03T11:01:42Z</time>
      </trkpt>
      <trkpt lat="42.023626" lon="-6.360437">
        <ele>945.128</ele>
        <time>2019-10-03T11:02:10Z</time>
      </trkpt>
      <trkpt lat="42.023504" lon="-6.361275">
        <ele>945.197</ele>
        <time>2019-10-03T11:02:32Z</time>
      </trkpt>
      <trkpt lat="42.023189" lon="-6.361992">
        <ele>946.581</ele>
        <time>2019-10-03T11:03:01Z</time>
      </trkpt>
      <trkpt lat="42.022939" lon="-6.362180">
        <ele>948.946</ele>
        <time>2019-10-03T11:03:23Z</time>
      </trkpt>
      <trkpt lat="42.020549" lon="-6.362816">
        <ele>953.257</ele>
        <time>2019-10-03T11:05:21Z</time>
      </trkpt>
      <trkpt lat="42.020168" lon="-6.362835">
        <ele>954.200</ele>
        <time>2019-10-03T11:05:59Z</time>
      </trkpt>
      <trkpt lat="42.019861" lon="-6.362651">
        <ele>954.220</ele>
        <time>2019-10-03T11:06:13Z</time>
      </trkpt>
      <trkpt lat="42.018103" lon="-6.365515">
        <ele>947.008</ele>
        <time>2019-10-03T11:07:26Z</time>
      </trkpt>
      <trkpt lat="42.017171" lon="-6.365751">
        <ele>942.799</ele>
        <time>2019-10-03T11:07:42Z</time>
      </trkpt>
      <trkpt lat="42.016863" lon="-6.365997">
        <ele>940.757</ele>
        <time>2019-10-03T11:07:48Z</time>
      </trkpt>
      <trkpt lat="42.016774" lon="-6.366439">
        <ele>939.814</ele>
        <time>2019-10-03T11:07:54Z</time>
      </trkpt>
      <trkpt lat="42.016880" lon="-6.367445">
        <ele>937.473</ele>
        <time>2019-10-03T11:08:08Z</time>
      </trkpt>
      <trkpt lat="42.016379" lon="-6.369646">
        <ele>930.686</ele>
        <time>2019-10-03T11:09:02Z</time>
      </trkpt>
      <trkpt lat="42.016187" lon="-6.369969">
        <ele>930.215</ele>
        <time>2019-10-03T11:09:09Z</time>
      </trkpt>
      <trkpt lat="42.015669" lon="-6.370209">
        <ele>929.739</ele>
        <time>2019-10-03T11:09:24Z</time>
      </trkpt>
      <trkpt lat="42.016067" lon="-6.375400">
        <ele>918.254</ele>
        <time>2019-10-03T11:10:56Z</time>
      </trkpt>
      <trkpt lat="42.015936" lon="-6.376474">
        <ele>914.828</ele>
        <time>2019-10-03T11:11:10Z</time>
      </trkpt>
      <trkpt lat="42.015624" lon="-6.377031">
        <ele>913.389</ele>
        <time>2019-10-03T11:11:20Z</time>
      </trkpt>
      <trkpt lat="42.015198" lon="-6.377181">
        <ele>912.417</ele>
        <time>2019-10-03T11:11:32Z</time>
      </trkpt>
      <trkpt lat="42.014931" lon="-6.377448">
        <ele>912.408</ele>
        <time>2019-10-03T11:11:41Z</time>
      </trkpt>
      <trkpt lat="42.015092" lon="-6.378746">
        <ele>906.666</ele>
        <time>2019-10-03T11:12:01Z</time>
      </trkpt>
      <trkpt lat="42.014981" lon="-6.379178">
        <ele>906.664</ele>
        <time>2019-10-03T11:12:08Z</time>
      </trkpt>
      <trkpt lat="42.013985" lon="-6.379774">
        <ele>903.771</ele>
        <time>2019-10-03T11:12:30Z</time>
      </trkpt>
      <trkpt lat="42.013527" lon="-6.380435">
        <ele>903.370</ele>
        <time>2019-10-03T11:12:45Z</time>
      </trkpt>
      <trkpt lat="42.013250" lon="-6.381182">
        <ele>907.123</ele>
        <time>2019-10-03T11:13:19Z</time>
      </trkpt>
      <trkpt lat="42.015411" lon="-6.393474">
        <ele>912.412</ele>
        <time>2019-10-03T11:19:51Z</time>
      </trkpt>
      <trkpt lat="42.015558" lon="-6.396083">
        <ele>910.036</ele>
        <time>2019-10-03T11:20:41Z</time>
      </trkpt>
      <trkpt lat="42.015477" lon="-6.397440">
        <ele>906.651</ele>
        <time>2019-10-03T11:21:04Z</time>
      </trkpt>
      <trkpt lat="42.017426" lon="-6.403014">
        <ele>916.794</ele>
        <time>2019-10-03T11:23:28Z</time>
      </trkpt>
      <trkpt lat="42.018010" lon="-6.405628">
        <ele>919.657</ele>
        <time>2019-10-03T11:24:34Z</time>
      </trkpt>
      <trkpt lat="42.019115" lon="-6.409039">
        <ele>918.222</ele>
        <time>2019-10-03T11:25:52Z</time>
      </trkpt>
      <trkpt lat="42.020127" lon="-6.413994">
        <ele>920.108</ele>
        <time>2019-10-03T11:27:44Z</time>
      </trkpt>
      <trkpt lat="42.020526" lon="-6.414977">
        <ele>920.193</ele>
        <time>2019-10-03T11:28:11Z</time>
      </trkpt>
      <trkpt lat="42.020387" lon="-6.416751">
        <ele>918.641</ele>
        <time>2019-10-03T11:32:39Z</time>
      </trkpt>
      <trkpt lat="42.020820" lon="-6.418267">
        <ele>910.518</ele>
        <time>2019-10-03T11:33:04Z</time>
      </trkpt>
      <trkpt lat="42.020387" lon="-6.419751">
        <ele>915.737</ele>
        <time>2019-10-03T11:34:01Z</time>
      </trkpt>
      <trkpt lat="42.020633" lon="-6.421134">
        <ele>914.310</ele>
        <time>2019-10-03T11:34:32Z</time>
      </trkpt>
      <trkpt lat="42.021004" lon="-6.421784">
        <ele>915.339</ele>
        <time>2019-10-03T11:34:50Z</time>
      </trkpt>
      <trkpt lat="42.021045" lon="-6.422647">
        <ele>917.733</ele>
        <time>2019-10-03T11:35:26Z</time>
      </trkpt>
      <trkpt lat="42.021413" lon="-6.423987">
        <ele>923.078</ele>
        <time>2019-10-03T11:36:15Z</time>
      </trkpt>
      <trkpt lat="42.022321" lon="-6.434886">
        <ele>934.565</ele>
        <time>2019-10-03T11:40:46Z</time>
      </trkpt>
      <trkpt lat="42.021806" lon="-6.439268">
        <ele>923.468</ele>
        <time>2019-10-03T11:42:16Z</time>
      </trkpt>
      <trkpt lat="42.021743" lon="-6.439186">
        <ele>923.014</ele>
        <time>2019-10-03T11:42:24Z</time>
      </trkpt>
      <trkpt lat="42.021351" lon="-6.440389">
        <ele>917.208</ele>
        <time>2019-10-03T11:42:53Z</time>
      </trkpt>
      <trkpt lat="42.021648" lon="-6.441555">
        <ele>912.480</ele>
        <time>2019-10-03T11:43:09Z</time>
      </trkpt>
      <trkpt lat="42.021470" lon="-6.441880">
        <ele>910.928</ele>
        <time>2019-10-03T11:43:16Z</time>
      </trkpt>
      <trkpt lat="42.021290" lon="-6.443718">
        <ele>898.955</ele>
        <time>2019-10-03T11:43:39Z</time>
      </trkpt>
      <trkpt lat="42.022426" lon="-6.446922">
        <ele>868.244</ele>
        <time>2019-10-03T11:44:29Z</time>
      </trkpt>
      <trkpt lat="42.022033" lon="-6.449481">
        <ele>865.837</ele>
        <time>2019-10-03T11:45:28Z</time>
      </trkpt>
      <trkpt lat="42.022448" lon="-6.451391">
        <ele>872.596</ele>
        <time>2019-10-03T11:46:38Z</time>
      </trkpt>
      <trkpt lat="42.022934" lon="-6.452346">
        <ele>881.680</ele>
        <time>2019-10-03T11:47:55Z</time>
      </trkpt>
      <trkpt lat="42.024017" lon="-6.456178">
        <ele>906.685</ele>
        <time>2019-10-03T11:51:57Z</time>
      </trkpt>
      <trkpt lat="42.024334" lon="-6.456703">
        <ele>911.433</ele>
        <time>2019-10-03T11:52:37Z</time>
      </trkpt>
      <trkpt lat="42.025094" lon="-6.457370">
        <ele>918.223</ele>
        <time>2019-10-03T11:53:32Z</time>
      </trkpt>
      <trkpt lat="42.025431" lon="-6.457866">
        <ele>919.115</ele>
        <time>2019-10-03T11:55:14Z</time>
      </trkpt>
      <trkpt lat="42.026228" lon="-6.460003">
        <ele>919.108</ele>
        <time>2019-10-03T11:56:08Z</time>
      </trkpt>
      <trkpt lat="42.026417" lon="-6.461035">
        <ele>921.517</ele>
        <time>2019-10-03T11:56:42Z</time>
      </trkpt>
      <trkpt lat="42.028164" lon="-6.462973">
        <ele>923.945</ele>
        <time>2019-10-03T11:58:00Z</time>
      </trkpt>
      <trkpt lat="42.029312" lon="-6.463469">
        <ele>923.092</ele>
        <time>2019-10-03T11:58:38Z</time>
      </trkpt>
      <trkpt lat="42.029850" lon="-6.464619">
        <ele>917.791</ele>
        <time>2019-10-03T11:58:59Z</time>
      </trkpt>
      <trkpt lat="42.029973" lon="-6.465397">
        <ele>917.794</ele>
        <time>2019-10-03T11:59:17Z</time>
      </trkpt>
      <trkpt lat="42.030733" lon="-6.467754">
        <ele>920.183</ele>
        <time>2019-10-03T12:00:14Z</time>
      </trkpt>
      <trkpt lat="42.030859" lon="-6.471195">
        <ele>925.487</ele>
        <time>2019-10-03T12:01:41Z</time>
      </trkpt>
      <trkpt lat="42.031027" lon="-6.472320">
        <ele>920.622</ele>
        <time>2019-10-03T12:01:57Z</time>
      </trkpt>
      <trkpt lat="42.031339" lon="-6.473135">
        <ele>916.213</ele>
        <time>2019-10-03T12:02:05Z</time>
      </trkpt>
      <trkpt lat="42.032054" lon="-6.473622">
        <ele>916.243</ele>
        <time>2019-10-03T12:02:18Z</time>
      </trkpt>
      <trkpt lat="42.032357" lon="-6.474526">
        <ele>919.107</ele>
        <time>2019-10-03T12:02:47Z</time>
      </trkpt>
      <trkpt lat="42.032764" lon="-6.474916">
        <ele>920.608</ele>
        <time>2019-10-03T12:03:14Z</time>
      </trkpt>
      <trkpt lat="42.033354" lon="-6.474792">
        <ele>925.455</ele>
        <time>2019-10-03T12:03:53Z</time>
      </trkpt>
      <trkpt lat="42.034568" lon="-6.474079">
        <ele>929.223</ele>
        <time>2019-10-03T12:04:56Z</time>
      </trkpt>
      <trkpt lat="42.035475" lon="-6.474150">
        <ele>931.190</ele>
        <time>2019-10-03T12:05:37Z</time>
      </trkpt>
      <trkpt lat="42.036748" lon="-6.474517">
        <ele>931.129</ele>
        <time>2019-10-03T12:06:36Z</time>
      </trkpt>
      <trkpt lat="42.037036" lon="-6.475478">
        <ele>924.992</ele>
        <time>2019-10-03T12:07:00Z</time>
      </trkpt>
      <trkpt lat="42.037634" lon="-6.476410">
        <ele>924.951</ele>
        <time>2019-10-03T12:07:30Z</time>
      </trkpt>
      <trkpt lat="42.037907" lon="-6.476584">
        <ele>926.835</ele>
        <time>2019-10-03T12:07:50Z</time>
      </trkpt>
      <trkpt lat="42.038457" lon="-6.476551">
        <ele>929.780</ele>
        <time>2019-10-03T12:08:21Z</time>
      </trkpt>
      <trkpt lat="42.038706" lon="-6.476756">
        <ele>932.114</ele>
        <time>2019-10-03T12:08:41Z</time>
      </trkpt>
      <trkpt lat="42.039209" lon="-6.477661">
        <ele>939.854</ele>
        <time>2019-10-03T12:09:51Z</time>
      </trkpt>
      <trkpt lat="42.039945" lon="-6.480008">
        <ele>943.609</ele>
        <time>2019-10-03T12:11:17Z</time>
      </trkpt>
      <trkpt lat="42.040155" lon="-6.480350">
        <ele>942.208</ele>
        <time>2019-10-03T12:11:26Z</time>
      </trkpt>
      <trkpt lat="42.041664" lon="-6.481566">
        <ele>944.155</ele>
        <time>2019-10-03T12:12:37Z</time>
      </trkpt>
      <trkpt lat="42.041906" lon="-6.482344">
        <ele>943.173</ele>
        <time>2019-10-03T12:13:06Z</time>
      </trkpt>
      <trkpt lat="42.042619" lon="-6.483687">
        <ele>953.230</ele>
        <time>2019-10-03T12:14:34Z</time>
      </trkpt>
      <trkpt lat="42.042881" lon="-6.483845">
        <ele>955.289</ele>
        <time>2019-10-03T12:14:58Z</time>
      </trkpt>
      <trkpt lat="42.044068" lon="-6.483655">
        <ele>958.042</ele>
        <time>2019-10-03T12:16:04Z</time>
      </trkpt>
      <trkpt lat="42.044354" lon="-6.483815">
        <ele>956.611</ele>
        <time>2019-10-03T12:16:15Z</time>
      </trkpt>
      <trkpt lat="42.044839" lon="-6.486612">
        <ele>950.885</ele>
        <time>2019-10-03T12:17:16Z</time>
      </trkpt>
      <trkpt lat="42.046446" lon="-6.488411">
        <ele>951.390</ele>
        <time>2019-10-03T12:18:30Z</time>
      </trkpt>
      <trkpt lat="42.047221" lon="-6.488756">
        <ele>951.327</ele>
        <time>2019-10-03T12:19:06Z</time>
      </trkpt>
      <trkpt lat="42.047430" lon="-6.489182">
        <ele>955.268</ele>
        <time>2019-10-03T12:19:34Z</time>
      </trkpt>
      <trkpt lat="42.047920" lon="-6.489504">
        <ele>960.914</ele>
        <time>2019-10-03T12:20:21Z</time>
      </trkpt>
      <trkpt lat="42.048254" lon="-6.490442">
        <ele>962.408</ele>
        <time>2019-10-03T12:21:05Z</time>
      </trkpt>
      <trkpt lat="42.048984" lon="-6.490691">
        <ele>966.746</ele>
        <time>2019-10-03T12:21:57Z</time>
      </trkpt>
      <trkpt lat="42.050832" lon="-6.490554">
        <ele>972.924</ele>
        <time>2019-10-03T12:27:26Z</time>
      </trkpt>
      <trkpt lat="42.051131" lon="-6.490327">
        <ele>973.991</ele>
        <time>2019-10-03T12:30:33Z</time>
      </trkpt>
      <trkpt lat="42.051397" lon="-6.490370">
        <ele>975.320</ele>
        <time>2019-10-03T12:30:55Z</time>
      </trkpt>
      <trkpt lat="42.052727" lon="-6.496275">
        <ele>986.933</ele>
        <time>2019-10-03T12:34:27Z</time>
      </trkpt>
      <trkpt lat="42.053744" lon="-6.497905">
        <ele>989.852</ele>
        <time>2019-10-03T12:35:20Z</time>
      </trkpt>
      <trkpt lat="42.055123" lon="-6.499654">
        <ele>986.916</ele>
        <time>2019-10-03T12:36:22Z</time>
      </trkpt>
      <trkpt lat="42.054572" lon="-6.500375">
        <ele>984.021</ele>
        <time>2019-10-03T12:37:07Z</time>
      </trkpt>
      <trkpt lat="42.055117" lon="-6.499750">
        <ele>985.021</ele>
        <time>2019-10-03T13:02:17Z</time>
      </trkpt>
      <trkpt lat="42.055275" lon="-6.499860">
        <ele>985.041</ele>
        <time>2019-10-03T13:02:36Z</time>
      </trkpt>
      <trkpt lat="42.056365" lon="-6.501419">
        <ele>978.705</ele>
        <time>2019-10-03T13:03:19Z</time>
      </trkpt>
      <trkpt lat="42.056551" lon="-6.501505">
        <ele>977.808</ele>
        <time>2019-10-03T13:03:26Z</time>
      </trkpt>
      <trkpt lat="42.057152" lon="-6.502483">
        <ele>973.466</ele>
        <time>2019-10-03T13:03:55Z</time>
      </trkpt>
      <trkpt lat="42.057601" lon="-6.503621">
        <ele>966.244</ele>
        <time>2019-10-03T13:04:39Z</time>
      </trkpt>
      <trkpt lat="42.057636" lon="-6.505851">
        <ele>960.941</ele>
        <time>2019-10-03T13:06:33Z</time>
      </trkpt>
      <trkpt lat="42.057254" lon="-6.506550">
        <ele>961.960</ele>
        <time>2019-10-03T13:07:26Z</time>
      </trkpt>
      <trkpt lat="42.057280" lon="-6.507523">
        <ele>964.883</ele>
        <time>2019-10-03T13:08:25Z</time>
      </trkpt>
      <trkpt lat="42.057158" lon="-6.507743">
        <ele>964.842</ele>
        <time>2019-10-03T13:08:35Z</time>
      </trkpt>
      <trkpt lat="42.057637" lon="-6.513873">
        <ele>962.966</ele>
        <time>2019-10-03T13:10:45Z</time>
      </trkpt>
      <trkpt lat="42.058920" lon="-6.521481">
        <ele>982.111</ele>
        <time>2019-10-03T13:15:09Z</time>
      </trkpt>
      <trkpt lat="42.059677" lon="-6.523151">
        <ele>987.479</ele>
        <time>2019-10-03T13:17:08Z</time>
      </trkpt>
      <trkpt lat="42.060250" lon="-6.525171">
        <ele>988.305</ele>
        <time>2019-10-03T13:18:13Z</time>
      </trkpt>
      <trkpt lat="42.059925" lon="-6.527861">
        <ele>995.125</ele>
        <time>2019-10-03T13:19:53Z</time>
      </trkpt>
      <trkpt lat="42.059886" lon="-6.529708">
        <ele>992.208</ele>
        <time>2019-10-03T13:20:35Z</time>
      </trkpt>
      <trkpt lat="42.059626" lon="-6.530949">
        <ele>989.891</ele>
        <time>2019-10-03T13:21:00Z</time>
      </trkpt>
      <trkpt lat="42.059830" lon="-6.533315">
        <ele>987.869</ele>
        <time>2019-10-03T13:21:48Z</time>
      </trkpt>
      <trkpt lat="42.060714" lon="-6.537001">
        <ele>980.246</ele>
        <time>2019-10-03T13:23:04Z</time>
      </trkpt>
      <trkpt lat="42.060203" lon="-6.537917">
        <ele>985.095</ele>
        <time>2019-10-03T13:23:59Z</time>
      </trkpt>
      <trkpt lat="42.060124" lon="-6.538840">
        <ele>988.828</ele>
        <time>2019-10-03T13:24:49Z</time>
      </trkpt>
      <trkpt lat="42.059772" lon="-6.539974">
        <ele>993.177</ele>
        <time>2019-10-03T13:25:39Z</time>
      </trkpt>
      <trkpt lat="42.058385" lon="-6.542143">
        <ele>1002.781</ele>
        <time>2019-10-03T13:27:53Z</time>
      </trkpt>
      <trkpt lat="42.058388" lon="-6.542528">
        <ele>1003.216</ele>
        <time>2019-10-03T13:29:14Z</time>
      </trkpt>
      <trkpt lat="42.058038" lon="-6.543640">
        <ele>1008.521</ele>
        <time>2019-10-03T13:30:10Z</time>
      </trkpt>
      <trkpt lat="42.057297" lon="-6.544522">
        <ele>1012.841</ele>
        <time>2019-10-03T13:31:14Z</time>
      </trkpt>
      <trkpt lat="42.057227" lon="-6.545072">
        <ele>1015.705</ele>
        <time>2019-10-03T13:31:46Z</time>
      </trkpt>
      <trkpt lat="42.057591" lon="-6.546493">
        <ele>1014.308</ele>
        <time>2019-10-03T13:32:28Z</time>
      </trkpt>
      <trkpt lat="42.057544" lon="-6.547266">
        <ele>1012.426</ele>
        <time>2019-10-03T13:32:47Z</time>
      </trkpt>
      <trkpt lat="42.057717" lon="-6.548715">
        <ele>1010.054</ele>
        <time>2019-10-03T13:34:38Z</time>
      </trkpt>
      <trkpt lat="42.056920" lon="-6.550027">
        <ele>1001.371</ele>
        <time>2019-10-03T13:35:20Z</time>
      </trkpt>
      <trkpt lat="42.056559" lon="-6.551831">
        <ele>992.230</ele>
        <time>2019-10-03T13:35:58Z</time>
      </trkpt>
      <trkpt lat="42.056079" lon="-6.552954">
        <ele>989.333</ele>
        <time>2019-10-03T13:36:37Z</time>
      </trkpt>
      <trkpt lat="42.056101" lon="-6.553430">
        <ele>988.842</ele>
        <time>2019-10-03T13:36:46Z</time>
      </trkpt>
      <trkpt lat="42.056495" lon="-6.554176">
        <ele>985.976</ele>
        <time>2019-10-03T13:37:06Z</time>
      </trkpt>
      <trkpt lat="42.056515" lon="-6.554705">
        <ele>988.311</ele>
        <time>2019-10-03T13:37:30Z</time>
      </trkpt>
      <trkpt lat="42.055854" lon="-6.556766">
        <ele>993.125</ele>
        <time>2019-10-03T13:38:58Z</time>
      </trkpt>
      <trkpt lat="42.055972" lon="-6.558476">
        <ele>990.726</ele>
        <time>2019-10-03T13:39:35Z</time>
      </trkpt>
      <trkpt lat="42.055874" lon="-6.559731">
        <ele>988.808</ele>
        <time>2019-10-03T13:40:06Z</time>
      </trkpt>
      <trkpt lat="42.055174" lon="-6.561099">
        <ele>991.708</ele>
        <time>2019-10-03T13:40:58Z</time>
      </trkpt>
      <trkpt lat="42.056128" lon="-6.565019">
        <ele>1004.796</ele>
        <time>2019-10-03T13:43:11Z</time>
      </trkpt>
      <trkpt lat="42.056659" lon="-6.565550">
        <ele>1011.964</ele>
        <time>2019-10-03T13:44:06Z</time>
      </trkpt>
      <trkpt lat="42.056793" lon="-6.566630">
        <ele>1010.421</ele>
        <time>2019-10-03T13:44:39Z</time>
      </trkpt>
      <trkpt lat="42.056338" lon="-6.565475">
        <ele>1005.680</ele>
        <time>2019-10-03T13:45:28Z</time>
      </trkpt>
      <trkpt lat="42.055019" lon="-6.565645">
        <ele>997.083</ele>
        <time>2019-10-03T13:45:54Z</time>
      </trkpt>
      <trkpt lat="42.054634" lon="-6.565895">
        <ele>993.692</ele>
        <time>2019-10-03T13:46:08Z</time>
      </trkpt>
      <trkpt lat="42.054173" lon="-6.565724">
        <ele>991.786</ele>
        <time>2019-10-03T13:48:37Z</time>
      </trkpt>
      <trkpt lat="42.053945" lon="-6.565819">
        <ele>991.281</ele>
        <time>2019-10-03T13:48:43Z</time>
      </trkpt>
      <trkpt lat="42.053580" lon="-6.565479">
        <ele>989.331</ele>
        <time>2019-10-03T13:48:57Z</time>
      </trkpt>
      <trkpt lat="42.053423" lon="-6.565031">
        <ele>987.461</ele>
        <time>2019-10-03T13:49:07Z</time>
      </trkpt>
      <trkpt lat="42.053320" lon="-6.565059">
        <ele>986.907</ele>
        <time>2019-10-03T13:49:12Z</time>
      </trkpt>
      <trkpt lat="42.052737" lon="-6.565667">
        <ele>985.408</ele>
        <time>2019-10-03T13:49:38Z</time>
      </trkpt>
      <trkpt lat="42.051558" lon="-6.567823">
        <ele>977.377</ele>
        <time>2019-10-03T13:50:25Z</time>
      </trkpt>
      <trkpt lat="42.050556" lon="-6.568180">
        <ele>971.035</ele>
        <time>2019-10-03T13:50:49Z</time>
      </trkpt>
      <trkpt lat="42.050344" lon="-6.568414">
        <ele>970.182</ele>
        <time>2019-10-03T13:50:55Z</time>
      </trkpt>
      <trkpt lat="42.050136" lon="-6.569053">
        <ele>967.761</ele>
        <time>2019-10-03T13:51:07Z</time>
      </trkpt>
      <trkpt lat="42.049777" lon="-6.569497">
        <ele>965.364</ele>
        <time>2019-10-03T13:52:04Z</time>
      </trkpt>
      <trkpt lat="42.049919" lon="-6.570807">
        <ele>962.993</ele>
        <time>2019-10-03T13:52:37Z</time>
      </trkpt>
      <trkpt lat="42.049594" lon="-6.571444">
        <ele>963.817</ele>
        <time>2019-10-03T13:52:53Z</time>
      </trkpt>
      <trkpt lat="42.049830" lon="-6.572895">
        <ele>965.742</ele>
        <time>2019-10-03T13:53:40Z</time>
      </trkpt>
      <trkpt lat="42.049597" lon="-6.573517">
        <ele>966.293</ele>
        <time>2019-10-03T13:54:09Z</time>
      </trkpt>
      <trkpt lat="42.050445" lon="-6.574900">
        <ele>962.965</ele>
        <time>2019-10-03T13:55:36Z</time>
      </trkpt>
      <trkpt lat="42.050622" lon="-6.576006">
        <ele>961.421</ele>
        <time>2019-10-03T13:55:57Z</time>
      </trkpt>
      <trkpt lat="42.050413" lon="-6.576483">
        <ele>961.408</ele>
        <time>2019-10-03T13:56:13Z</time>
      </trkpt>
      <trkpt lat="42.050795" lon="-6.577741">
        <ele>968.643</ele>
        <time>2019-10-03T13:57:23Z</time>
      </trkpt>
      <trkpt lat="42.051632" lon="-6.578342">
        <ele>967.781</ele>
        <time>2019-10-03T13:58:03Z</time>
      </trkpt>
      <trkpt lat="42.051793" lon="-6.579024">
        <ele>967.268</ele>
        <time>2019-10-03T13:58:18Z</time>
      </trkpt>
      <trkpt lat="42.052201" lon="-6.579670">
        <ele>969.687</ele>
        <time>2019-10-03T13:58:42Z</time>
      </trkpt>
      <trkpt lat="42.053268" lon="-6.582164">
        <ele>970.150</ele>
        <time>2019-10-03T13:59:45Z</time>
      </trkpt>
      <trkpt lat="42.052924" lon="-6.584616">
        <ele>966.229</ele>
        <time>2019-10-03T14:00:32Z</time>
      </trkpt>
      <trkpt lat="42.053695" lon="-6.585237">
        <ele>959.053</ele>
        <time>2019-10-03T14:00:44Z</time>
      </trkpt>
      <trkpt lat="42.054267" lon="-6.586790">
        <ele>948.988</ele>
        <time>2019-10-03T14:01:00Z</time>
      </trkpt>
      <trkpt lat="42.054513" lon="-6.586991">
        <ele>947.567</ele>
        <time>2019-10-03T14:01:04Z</time>
      </trkpt>
      <trkpt lat="42.055839" lon="-6.586774">
        <ele>939.381</ele>
        <time>2019-10-03T14:01:19Z</time>
      </trkpt>
      <trkpt lat="42.056680" lon="-6.586354">
        <ele>933.119</ele>
        <time>2019-10-03T14:01:30Z</time>
      </trkpt>
      <trkpt lat="42.057024" lon="-6.586512">
        <ele>932.108</ele>
        <time>2019-10-03T14:01:36Z</time>
      </trkpt>
      <trkpt lat="42.056935" lon="-6.587020">
        <ele>932.150</ele>
        <time>2019-10-03T14:01:46Z</time>
      </trkpt>
      <trkpt lat="42.056394" lon="-6.587583">
        <ele>935.948</ele>
        <time>2019-10-03T14:02:15Z</time>
      </trkpt>
      <trkpt lat="42.056601" lon="-6.588312">
        <ele>938.845</ele>
        <time>2019-10-03T14:02:49Z</time>
      </trkpt>
      <trkpt lat="42.057056" lon="-6.589202">
        <ele>943.684</ele>
        <time>2019-10-03T14:03:37Z</time>
      </trkpt>
      <trkpt lat="42.060376" lon="-6.593104">
        <ele>961.937</ele>
        <time>2019-10-03T14:07:35Z</time>
      </trkpt>
      <trkpt lat="42.060111" lon="-6.593330">
        <ele>960.986</ele>
        <time>2019-10-03T14:07:44Z</time>
      </trkpt>
      <trkpt lat="42.060044" lon="-6.593613">
        <ele>960.040</ele>
        <time>2019-10-03T14:07:48Z</time>
      </trkpt>
      <trkpt lat="42.060470" lon="-6.594884">
        <ele>957.615</ele>
        <time>2019-10-03T14:08:11Z</time>
      </trkpt>
      <trkpt lat="42.060334" lon="-6.595332">
        <ele>955.612</ele>
        <time>2019-10-03T14:08:17Z</time>
      </trkpt>
      <trkpt lat="42.059957" lon="-6.595529">
        <ele>953.232</ele>
        <time>2019-10-03T14:08:26Z</time>
      </trkpt>
      <trkpt lat="42.059846" lon="-6.595911">
        <ele>952.805</ele>
        <time>2019-10-03T14:08:33Z</time>
      </trkpt>
      <trkpt lat="42.060379" lon="-6.597434">
        <ele>954.208</ele>
        <time>2019-10-03T14:09:18Z</time>
      </trkpt>
      <trkpt lat="42.060434" lon="-6.598232">
        <ele>954.285</ele>
        <time>2019-10-03T14:09:42Z</time>
      </trkpt>
      <trkpt lat="42.060758" lon="-6.598983">
        <ele>957.163</ele>
        <time>2019-10-03T14:10:12Z</time>
      </trkpt>
      <trkpt lat="42.061193" lon="-6.599521">
        <ele>959.590</ele>
        <time>2019-10-03T14:10:42Z</time>
      </trkpt>
      <trkpt lat="42.061255" lon="-6.599911">
        <ele>959.549</ele>
        <time>2019-10-03T14:10:54Z</time>
      </trkpt>
      <trkpt lat="42.060956" lon="-6.601835">
        <ele>960.942</ele>
        <time>2019-10-03T14:11:43Z</time>
      </trkpt>
      <trkpt lat="42.060316" lon="-6.603422">
        <ele>962.961</ele>
        <time>2019-10-03T14:12:28Z</time>
      </trkpt>
      <trkpt lat="42.059106" lon="-6.604873">
        <ele>963.315</ele>
        <time>2019-10-03T14:13:25Z</time>
      </trkpt>
      <trkpt lat="42.058001" lon="-6.606817">
        <ele>970.550</ele>
        <time>2019-10-03T14:14:44Z</time>
      </trkpt>
      <trkpt lat="42.057374" lon="-6.608639">
        <ele>970.139</ele>
        <time>2019-10-03T14:15:32Z</time>
      </trkpt>
      <trkpt lat="42.056497" lon="-6.609289">
        <ele>966.701</ele>
        <time>2019-10-03T14:15:48Z</time>
      </trkpt>
      <trkpt lat="42.056502" lon="-6.609634">
        <ele>965.321</ele>
        <time>2019-10-03T14:15:52Z</time>
      </trkpt>
      <trkpt lat="42.057137" lon="-6.610922">
        <ele>959.508</ele>
        <time>2019-10-03T14:16:08Z</time>
      </trkpt>
      <trkpt lat="42.056804" lon="-6.612504">
        <ele>945.117</ele>
        <time>2019-10-03T14:16:26Z</time>
      </trkpt>
      <trkpt lat="42.057161" lon="-6.614077">
        <ele>941.215</ele>
        <time>2019-10-03T14:16:46Z</time>
      </trkpt>
      <trkpt lat="42.057668" lon="-6.618805">
        <ele>927.382</ele>
        <time>2019-10-03T14:17:31Z</time>
      </trkpt>
      <trkpt lat="42.057842" lon="-6.619505">
        <ele>924.451</ele>
        <time>2019-10-03T14:17:39Z</time>
      </trkpt>
      <trkpt lat="42.058297" lon="-6.619979">
        <ele>922.524</ele>
        <time>2019-10-03T14:17:53Z</time>
      </trkpt>
      <trkpt lat="42.058352" lon="-6.620344">
        <ele>922.023</ele>
        <time>2019-10-03T14:18:02Z</time>
      </trkpt>
      <trkpt lat="42.058018" lon="-6.620893">
        <ele>921.577</ele>
        <time>2019-10-03T14:18:16Z</time>
      </trkpt>
      <trkpt lat="42.057312" lon="-6.620598">
        <ele>921.522</ele>
        <time>2019-10-03T14:18:36Z</time>
      </trkpt>
      <trkpt lat="42.056956" lon="-6.620906">
        <ele>920.169</ele>
        <time>2019-10-03T14:18:44Z</time>
      </trkpt>
      <trkpt lat="42.055455" lon="-6.623194">
        <ele>912.404</ele>
        <time>2019-10-03T14:19:18Z</time>
      </trkpt>
      <trkpt lat="42.053880" lon="-6.626646">
        <ele>921.524</ele>
        <time>2019-10-03T14:21:07Z</time>
      </trkpt>
      <trkpt lat="42.053686" lon="-6.627256">
        <ele>922.508</ele>
        <time>2019-10-03T14:21:23Z</time>
      </trkpt>
      <trkpt lat="42.053720" lon="-6.627906">
        <ele>921.010</ele>
        <time>2019-10-03T14:21:34Z</time>
      </trkpt>
      <trkpt lat="42.054423" lon="-6.629568">
        <ele>912.488</ele>
        <time>2019-10-03T14:24:41Z</time>
      </trkpt>
      <trkpt lat="42.054265" lon="-6.629283">
        <ele>914.335</ele>
        <time>2019-10-03T14:25:10Z</time>
      </trkpt>
      <trkpt lat="42.054071" lon="-6.629578">
        <ele>914.854</ele>
        <time>2019-10-03T14:25:35Z</time>
      </trkpt>
      <trkpt lat="42.054288" lon="-6.629725">
        <ele>912.477</ele>
        <time>2019-10-03T14:31:23Z</time>
      </trkpt>
      <trkpt lat="42.054680" lon="-6.630429">
        <ele>912.466</ele>
        <time>2019-10-03T14:31:59Z</time>
      </trkpt>
      <trkpt lat="42.054217" lon="-6.629604">
        <ele>912.430</ele>
        <time>2019-10-03T14:32:01Z</time>
      </trkpt>
      <trkpt lat="42.054524" lon="-6.629083">
        <ele>913.365</ele>
        <time>2019-10-03T14:35:01Z</time>
      </trkpt>
      <trkpt lat="42.054621" lon="-6.629850">
        <ele>913.873</ele>
        <time>2019-10-03T14:37:25Z</time>
      </trkpt>
      <trkpt lat="42.060897" lon="-6.642215">
        <ele>900.026</ele>
        <time>2021-08-12T15:56:23Z</time>
      </trkpt>
      <trkpt lat="42.060548" lon="-6.642128">
        <ele>900.047</ele>
        <time>2021-08-12T15:56:43Z</time>
      </trkpt>
      <trkpt lat="42.060516" lon="-6.643573">
        <ele>900.011</ele>
        <time>2021-08-12T15:57:03Z</time>
      </trkpt>
      <trkpt lat="42.060726" lon="-6.645780">
        <ele>900.008</ele>
        <time>2021-08-12T15:57:23Z</time>
      </trkpt>
      <trkpt lat="42.061060" lon="-6.647550">
        <ele>900.094</ele>
        <time>2021-08-12T15:57:43Z</time>
      </trkpt>
      <trkpt lat="42.061190" lon="-6.650420">
        <ele>901.045</ele>
        <time>2021-08-12T15:58:03Z</time>
      </trkpt>
      <trkpt lat="42.058610" lon="-6.660800">
        <ele>901.990</ele>
        <time>2021-08-12T15:58:23Z</time>
      </trkpt>
      <trkpt lat="42.051330" lon="-6.674250">
        <ele>913.950</ele>
        <time>2021-08-12T15:58:43Z</time>
      </trkpt>
      <trkpt lat="42.051060" lon="-6.674950">
        <ele>913.021</ele>
        <time>2021-08-12T15:59:03Z</time>
      </trkpt>
      <trkpt lat="42.050760" lon="-6.674870">
        <ele>909.932</ele>
        <time>2021-08-12T15:59:23Z</time>
      </trkpt>
      <trkpt lat="42.050600" lon="-6.675110">
        <ele>909.062</ele>
        <time>2021-08-12T15:59:43Z</time>
      </trkpt>
      <trkpt lat="42.050360" lon="-6.676070">
        <ele>909.069</ele>
        <time>2021-08-12T16:00:03Z</time>
      </trkpt>
      <trkpt lat="42.050210" lon="-6.677810">
        <ele>913.066</ele>
        <time>2021-08-12T16:00:23Z</time>
      </trkpt>
      <trkpt lat="42.049500" lon="-6.679030">
        <ele>913.029</ele>
        <time>2021-08-12T16:00:43Z</time>
      </trkpt>
      <trkpt lat="42.049070" lon="-6.680170">
        <ele>912.021</ele>
        <time>2021-08-12T16:01:03Z</time>
      </trkpt>
      <trkpt lat="42.048730" lon="-6.680090">
        <ele>911.008</ele>
        <time>2021-08-12T16:01:23Z</time>
      </trkpt>
      <trkpt lat="42.047810" lon="-6.680690">
        <ele>909.938</ele>
        <time>2021-08-12T16:01:43Z</time>
      </trkpt>
      <trkpt lat="42.047360" lon="-6.681200">
        <ele>908.089</ele>
        <time>2021-08-12T16:02:03Z</time>
      </trkpt>
      <trkpt lat="42.048230" lon="-6.684090">
        <ele>911.024</ele>
        <time>2021-08-12T16:02:23Z</time>
      </trkpt>
      <trkpt lat="42.048050" lon="-6.686370">
        <ele>915.054</ele>
        <time>2021-08-12T16:02:43Z</time>
      </trkpt>
      <trkpt lat="42.048280" lon="-6.687340">
        <ele>913.935</ele>
        <time>2021-08-12T16:03:03Z</time>
      </trkpt>
      <trkpt lat="42.048240" lon="-6.688410">
        <ele>913.956</ele>
        <time>2021-08-12T16:03:23Z</time>
      </trkpt>
      <trkpt lat="42.047520" lon="-6.690100">
        <ele>916.026</ele>
        <time>2021-08-12T16:03:43Z</time>
      </trkpt>
      <trkpt lat="42.046670" lon="-6.691500">
        <ele>916.013</ele>
        <time>2021-08-12T16:04:03Z</time>
      </trkpt>
      <trkpt lat="42.046240" lon="-6.692680">
        <ele>915.058</ele>
        <time>2021-08-12T16:04:23Z</time>
      </trkpt>
      <trkpt lat="42.045570" lon="-6.693560">
        <ele>915.052</ele>
        <time>2021-08-12T16:04:43Z</time>
      </trkpt>
      <trkpt lat="42.045380" lon="-6.694250">
        <ele>915.017</ele>
        <time>2021-08-12T16:05:03Z</time>
      </trkpt>
      <trkpt lat="42.045550" lon="-6.694450">
        <ele>916.008</ele>
        <time>2021-08-12T16:05:23Z</time>
      </trkpt>
      <trkpt lat="42.045710" lon="-6.694380">
        <ele>916.047</ele>
        <time>2021-08-12T16:05:43Z</time>
      </trkpt>
      <trkpt lat="42.040110" lon="-6.705890">
        <ele>929.048</ele>
        <time>2021-08-12T16:06:03Z</time>
      </trkpt>
      <trkpt lat="42.034110" lon="-6.714250">
        <ele>956.033</ele>
        <time>2021-08-12T16:06:23Z</time>
      </trkpt>
      <trkpt lat="42.033340" lon="-6.715820">
        <ele>965.093</ele>
        <time>2021-08-12T16:06:43Z</time>
      </trkpt>
      <trkpt lat="42.030780" lon="-6.738440">
        <ele>979.094</ele>
        <time>2021-08-12T16:07:03Z</time>
      </trkpt>
      <trkpt lat="42.031280" lon="-6.739990">
        <ele>983.035</ele>
        <time>2021-08-12T16:07:23Z</time>
      </trkpt>
      <trkpt lat="42.031310" lon="-6.740760">
        <ele>987.055</ele>
        <time>2021-08-12T16:07:43Z</time>
      </trkpt>
      <trkpt lat="42.030610" lon="-6.742100">
        <ele>992.022</ele>
        <time>2021-08-12T16:08:03Z</time>
      </trkpt>
      <trkpt lat="42.030500" lon="-6.743810">
        <ele>991.081</ele>
        <time>2021-08-12T16:08:23Z</time>
      </trkpt>
      <trkpt lat="42.029940" lon="-6.744360">
        <ele>992.061</ele>
        <time>2021-08-12T16:08:43Z</time>
      </trkpt>
      <trkpt lat="42.029770" lon="-6.744970">
        <ele>993.917</ele>
        <time>2021-08-12T16:09:03Z</time>
      </trkpt>
      <trkpt lat="42.029740" lon="-6.749880">
        <ele>989.008</ele>
        <time>2021-08-12T16:09:23Z</time>
      </trkpt>
      <trkpt lat="42.029410" lon="-6.753100">
        <ele>991.060</ele>
        <time>2021-08-12T16:09:43Z</time>
      </trkpt>
      <trkpt lat="42.029010" lon="-6.754030">
        <ele>996.061</ele>
        <time>2021-08-12T16:10:03Z</time>
      </trkpt>
      <trkpt lat="42.028710" lon="-6.755700">
        <ele>997.936</ele>
        <time>2021-08-12T16:10:23Z</time>
      </trkpt>
      <trkpt lat="42.028830" lon="-6.756180">
        <ele>1001.086</ele>
        <time>2021-08-12T16:10:43Z</time>
      </trkpt>
      <trkpt lat="42.029370" lon="-6.757110">
        <ele>1006.067</ele>
        <time>2021-08-12T16:11:03Z</time>
      </trkpt>
      <trkpt lat="42.030060" lon="-6.757060">
        <ele>1008.068</ele>
        <time>2021-08-12T16:11:23Z</time>
      </trkpt>
      <trkpt lat="42.030300" lon="-6.756640">
        <ele>1007.098</ele>
        <time>2021-08-12T16:11:43Z</time>
      </trkpt>
      <trkpt lat="42.030660" lon="-6.757080">
        <ele>1006.025</ele>
        <time>2021-08-12T16:12:03Z</time>
      </trkpt>
      <trkpt lat="42.031620" lon="-6.756970">
        <ele>1002.035</ele>
        <time>2021-08-12T16:12:23Z</time>
      </trkpt>
      <trkpt lat="42.032870" lon="-6.760260">
        <ele>1018.086</ele>
        <time>2021-08-12T16:12:43Z</time>
      </trkpt>
      <trkpt lat="42.033030" lon="-6.764870">
        <ele>1043.014</ele>
        <time>2021-08-12T16:13:03Z</time>
      </trkpt>
      <trkpt lat="42.033420" lon="-6.766540">
        <ele>1032.008</ele>
        <time>2021-08-12T16:13:23Z</time>
      </trkpt>
      <trkpt lat="42.035050" lon="-6.769450">
        <ele>1057.085</ele>
        <time>2021-08-12T16:13:43Z</time>
      </trkpt>
      <trkpt lat="42.035890" lon="-6.772880">
        <ele>1080.096</ele>
        <time>2021-08-12T16:14:03Z</time>
      </trkpt>
      <trkpt lat="42.036320" lon="-6.773560">
        <ele>1083.021</ele>
        <time>2021-08-12T16:14:23Z</time>
      </trkpt>
      <trkpt lat="42.039440" lon="-6.777280">
        <ele>1109.091</ele>
        <time>2021-08-12T16:14:43Z</time>
      </trkpt>
      <trkpt lat="42.040000" lon="-6.778500">
        <ele>1116.032</ele>
        <time>2021-08-12T16:15:03Z</time>
      </trkpt>
      <trkpt lat="42.040330" lon="-6.780230">
        <ele>1110.043</ele>
        <time>2021-08-12T16:15:23Z</time>
      </trkpt>
      <trkpt lat="42.040370" lon="-6.785610">
        <ele>1137.033</ele>
        <time>2021-08-12T16:15:43Z</time>
      </trkpt>
      <trkpt lat="42.040100" lon="-6.787110">
        <ele>1150.030</ele>
        <time>2021-08-12T16:16:03Z</time>
      </trkpt>
      <trkpt lat="42.039450" lon="-6.788200">
        <ele>1149.078</ele>
        <time>2021-08-12T16:16:23Z</time>
      </trkpt>
      <trkpt lat="42.039570" lon="-6.788050">
        <ele>1148.033</ele>
        <time>2021-08-12T16:16:43Z</time>
      </trkpt>
      <trkpt lat="42.037200" lon="-6.790930">
        <ele>1169.026</ele>
        <time>2021-08-12T16:17:03Z</time>
      </trkpt>
      <trkpt lat="42.036840" lon="-6.791740">
        <ele>1171.008</ele>
        <time>2021-08-12T16:17:23Z</time>
      </trkpt>
      <trkpt lat="42.036680" lon="-6.792610">
        <ele>1180.019</ele>
        <time>2021-08-12T16:17:43Z</time>
      </trkpt>
      <trkpt lat="42.036820" lon="-6.794010">
        <ele>1184.030</ele>
        <time>2021-08-12T16:18:03Z</time>
      </trkpt>
      <trkpt lat="42.037630" lon="-6.796370">
        <ele>1195.055</ele>
        <time>2021-08-12T16:18:23Z</time>
      </trkpt>
      <trkpt lat="42.037860" lon="-6.797630">
        <ele>1203.035</ele>
        <time>2021-08-12T16:18:43Z</time>
      </trkpt>
      <trkpt lat="42.037740" lon="-6.798740">
        <ele>1205.066</ele>
        <time>2021-08-12T16:19:03Z</time>
      </trkpt>
      <trkpt lat="42.036870" lon="-6.802080">
        <ele>1232.087</ele>
        <time>2021-08-12T16:19:23Z</time>
      </trkpt>
      <trkpt lat="42.036830" lon="-6.803060">
        <ele>1232.077</ele>
        <time>2021-08-12T16:19:43Z</time>
      </trkpt>
      <trkpt lat="42.037200" lon="-6.804490">
        <ele>1245.054</ele>
        <time>2021-08-12T16:20:03Z</time>
      </trkpt>
      <trkpt lat="42.038870" lon="-6.807670">
        <ele>1255.011</ele>
        <time>2021-08-12T16:20:23Z</time>
      </trkpt>
      <trkpt lat="42.039010" lon="-6.808400">
        <ele>1251.021</ele>
        <time>2021-08-12T16:20:43Z</time>
      </trkpt>
      <trkpt lat="42.038940" lon="-6.809570">
        <ele>1235.003</ele>
        <time>2021-08-12T16:21:03Z</time>
      </trkpt>
      <trkpt lat="42.038510" lon="-6.810700">
        <ele>1247.008</ele>
        <time>2021-08-12T16:21:23Z</time>
      </trkpt>
      <trkpt lat="42.037950" lon="-6.811330">
        <ele>1279.023</ele>
        <time>2021-08-12T16:21:43Z</time>
      </trkpt>
      <trkpt lat="42.037220" lon="-6.811710">
        <ele>1292.034</ele>
        <time>2021-08-12T16:22:03Z</time>
      </trkpt>
      <trkpt lat="42.035700" lon="-6.811760">
        <ele>1302.099</ele>
        <time>2021-08-12T16:22:23Z</time>
      </trkpt>
      <trkpt lat="42.035120" lon="-6.811920">
        <ele>1303.019</ele>
        <time>2021-08-12T16:22:43Z</time>
      </trkpt>
      <trkpt lat="42.034270" lon="-6.812580">
        <ele>1301.090</ele>
        <time>2021-08-12T16:23:03Z</time>
      </trkpt>
      <trkpt lat="42.033740" lon="-6.813560">
        <ele>1311.021</ele>
        <time>2021-08-12T16:23:23Z</time>
      </trkpt>
      <trkpt lat="42.033520" lon="-6.815220">
        <ele>1320.071</ele>
        <time>2021-08-12T16:23:43Z</time>
      </trkpt>
      <trkpt lat="42.033910" lon="-6.823370">
        <ele>1327.018</ele>
        <time>2021-08-12T16:24:03Z</time>
      </trkpt>
      <trkpt lat="42.033600" lon="-6.824530">
        <ele>1325.083</ele>
        <time>2021-08-12T16:24:23Z</time>
      </trkpt>
      <trkpt lat="42.032800" lon="-6.825890">
        <ele>1315.025</ele>
        <time>2021-08-12T16:24:43Z</time>
      </trkpt>
      <trkpt lat="42.032530" lon="-6.826980">
        <ele>1319.017</ele>
        <time>2021-08-12T16:25:03Z</time>
      </trkpt>
      <trkpt lat="42.032710" lon="-6.829260">
        <ele>1318.008</ele>
        <time>2021-08-12T16:25:23Z</time>
      </trkpt>
      <trkpt lat="42.032750" lon="-6.833490">
        <ele>1316.050</ele>
        <time>2021-08-12T16:25:43Z</time>
      </trkpt>
      <trkpt lat="42.033480" lon="-6.835450">
        <ele>1312.071</ele>
        <time>2021-08-12T16:26:03Z</time>
      </trkpt>
      <trkpt lat="42.033610" lon="-6.836230">
        <ele>1310.096</ele>
        <time>2021-08-12T16:26:23Z</time>
      </trkpt>
      <trkpt lat="42.033520" lon="-6.836110">
        <ele>1310.066</ele>
        <time>2021-08-12T16:26:43Z</time>
      </trkpt>
      <trkpt lat="42.033380" lon="-6.837630">
        <ele>1308.087</ele>
        <time>2021-08-12T16:27:03Z</time>
      </trkpt>
      <trkpt lat="42.033060" lon="-6.838340">
        <ele>1302.078</ele>
        <time>2021-08-12T16:27:23Z</time>
      </trkpt>
      <trkpt lat="42.033490" lon="-6.838850">
        <ele>1297.068</ele>
        <time>2021-08-12T16:27:43Z</time>
      </trkpt>
      <trkpt lat="42.035070" lon="-6.842610">
        <ele>1293.065</ele>
        <time>2021-08-12T16:28:03Z</time>
      </trkpt>
      <trkpt lat="42.035680" lon="-6.846650">
        <ele>1278.028</ele>
        <time>2021-08-12T16:28:23Z</time>
      </trkpt>
      <trkpt lat="42.035760" lon="-6.848410">
        <ele>1274.089</ele>
        <time>2021-08-12T16:28:43Z</time>
      </trkpt>
      <trkpt lat="42.035100" lon="-6.850890">
        <ele>1253.017</ele>
        <time>2021-08-12T16:29:03Z</time>
      </trkpt>
      <trkpt lat="42.035260" lon="-6.853840">
        <ele>1239.008</ele>
        <time>2021-08-12T16:29:23Z</time>
      </trkpt>
      <trkpt lat="42.036590" lon="-6.858060">
        <ele>1223.014</ele>
        <time>2021-08-12T16:29:43Z</time>
      </trkpt>
      <trkpt lat="42.036810" lon="-6.859220">
        <ele>1219.085</ele>
        <time>2021-08-12T16:30:03Z</time>
      </trkpt>
      <trkpt lat="42.037590" lon="-6.859980">
        <ele>1212.080</ele>
        <time>2021-08-12T16:30:23Z</time>
      </trkpt>
      <trkpt lat="42.037940" lon="-6.860700">
        <ele>1203.040</ele>
        <time>2021-08-12T16:30:43Z</time>
      </trkpt>
      <trkpt lat="42.038510" lon="-6.861210">
        <ele>1197.061</ele>
        <time>2021-08-12T16:31:03Z</time>
      </trkpt>
      <trkpt lat="42.038940" lon="-6.862110">
        <ele>1221.042</ele>
        <time>2021-08-12T16:31:23Z</time>
      </trkpt>
      <trkpt lat="42.038670" lon="-6.863960">
        <ele>1196.062</ele>
        <time>2021-08-12T16:31:43Z</time>
      </trkpt>
      <trkpt lat="42.038300" lon="-6.864750">
        <ele>1184.069</ele>
        <time>2021-08-12T16:32:03Z</time>
      </trkpt>
      <trkpt lat="42.038290" lon="-6.865240">
        <ele>1179.055</ele>
        <time>2021-08-12T16:32:23Z</time>
      </trkpt>
      <trkpt lat="42.038730" lon="-6.866110">
        <ele>1183.007</ele>
        <time>2021-08-12T16:32:43Z</time>
      </trkpt>
      <trkpt lat="42.040130" lon="-6.867790">
        <ele>1179.017</ele>
        <time>2021-08-12T16:33:03Z</time>
      </trkpt>
      <trkpt lat="42.040070" lon="-6.868880">
        <ele>1167.008</ele>
        <time>2021-08-12T16:33:23Z</time>
      </trkpt>
      <trkpt lat="42.040270" lon="-6.870290">
        <ele>1153.067</ele>
        <time>2021-08-12T16:33:43Z</time>
      </trkpt>
      <trkpt lat="42.041090" lon="-6.871510">
        <ele>1164.018</ele>
        <time>2021-08-12T16:34:03Z</time>
      </trkpt>
      <trkpt lat="42.040640" lon="-6.873460">
        <ele>1149.063</ele>
        <time>2021-08-12T16:34:23Z</time>
      </trkpt>
      <trkpt lat="42.040700" lon="-6.873860">
        <ele>1151.013</ele>
        <time>2021-08-12T16:34:43Z</time>
      </trkpt>
      <trkpt lat="42.040520" lon="-6.873610">
        <ele>1155.044</ele>
        <time>2021-08-12T16:35:03Z</time>
      </trkpt>
      <trkpt lat="42.041680" lon="-6.876350">
        <ele>1139.085</ele>
        <time>2021-08-12T16:35:23Z</time>
      </trkpt>
      <trkpt lat="42.043150" lon="-6.877760">
        <ele>1131.095</ele>
        <time>2021-08-12T16:35:43Z</time>
      </trkpt>
      <trkpt lat="42.043970" lon="-6.877730">
        <ele>1131.052</ele>
        <time>2021-08-12T16:36:03Z</time>
      </trkpt>
      <trkpt lat="42.044070" lon="-6.878930">
        <ele>1122.066</ele>
        <time>2021-08-12T16:36:23Z</time>
      </trkpt>
      <trkpt lat="42.044410" lon="-6.879200">
        <ele>1122.029</ele>
        <time>2021-08-12T16:36:43Z</time>
      </trkpt>
      <trkpt lat="42.048770" lon="-6.879500">
        <ele>1094.021</ele>
        <time>2021-08-12T16:37:03Z</time>
      </trkpt>
      <trkpt lat="42.049860" lon="-6.879190">
        <ele>1100.008</ele>
        <time>2021-08-12T16:37:23Z</time>
      </trkpt>
      <trkpt lat="42.052550" lon="-6.877830">
        <ele>1088.088</ele>
        <time>2021-08-12T16:37:43Z</time>
      </trkpt>
      <trkpt lat="42.053670" lon="-6.877530">
        <ele>1086.049</ele>
        <time>2021-08-12T16:38:03Z</time>
      </trkpt>
      <trkpt lat="42.053900" lon="-6.877910">
        <ele>1085.064</ele>
        <time>2021-08-12T16:38:23Z</time>
      </trkpt>
      <trkpt lat="42.053720" lon="-6.878570">
        <ele>1085.024</ele>
        <time>2021-08-12T16:38:43Z</time>
      </trkpt>
      <trkpt lat="42.053070" lon="-6.879110">
        <ele>1089.045</ele>
        <time>2021-08-12T16:39:03Z</time>
      </trkpt>
      <trkpt lat="42.052630" lon="-6.880190">
        <ele>1100.036</ele>
        <time>2021-08-12T16:39:23Z</time>
      </trkpt>
      <trkpt lat="42.051700" lon="-6.881540">
        <ele>1101.066</ele>
        <time>2021-08-12T16:39:43Z</time>
      </trkpt>
      <trkpt lat="42.049800" lon="-6.882890">
        <ele>1110.063</ele>
        <time>2021-08-12T16:40:03Z</time>
      </trkpt>
      <trkpt lat="42.047880" lon="-6.884020">
        <ele>1110.037</ele>
        <time>2021-08-12T16:40:23Z</time>
      </trkpt>
      <trkpt lat="42.047320" lon="-6.884510">
        <ele>1112.049</ele>
        <time>2021-08-12T16:40:43Z</time>
      </trkpt>
      <trkpt lat="42.047100" lon="-6.885440">
        <ele>1115.013</ele>
        <time>2021-08-12T16:41:03Z</time>
      </trkpt>
      <trkpt lat="42.046690" lon="-6.885440">
        <ele>1119.008</ele>
        <time>2021-08-12T16:41:23Z</time>
      </trkpt>
      <trkpt lat="42.046900" lon="-6.886110">
        <ele>1121.055</ele>
        <time>2021-08-12T16:41:43Z</time>
      </trkpt>
      <trkpt lat="42.046780" lon="-6.886220">
        <ele>1119.026</ele>
        <time>2021-08-12T16:42:03Z</time>
      </trkpt>
      <trkpt lat="42.044810" lon="-6.887260">
        <ele>1116.011</ele>
        <time>2021-08-12T16:42:23Z</time>
      </trkpt>
      <trkpt lat="42.044530" lon="-6.887270">
        <ele>1115.041</ele>
        <time>2021-08-12T16:42:43Z</time>
      </trkpt>
      <trkpt lat="42.043700" lon="-6.886750">
        <ele>1104.052</ele>
        <time>2021-08-12T16:43:03Z</time>
      </trkpt>
      <trkpt lat="42.043160" lon="-6.886740">
        <ele>1105.033</ele>
        <time>2021-08-12T16:43:23Z</time>
      </trkpt>
      <trkpt lat="42.042570" lon="-6.886960">
        <ele>1106.063</ele>
        <time>2021-08-12T16:43:43Z</time>
      </trkpt>
      <trkpt lat="42.042050" lon="-6.887650">
        <ele>1106.030</ele>
        <time>2021-08-12T16:44:03Z</time>
      </trkpt>
      <trkpt lat="42.040610" lon="-6.887680">
        <ele>1097.033</ele>
        <time>2021-08-12T16:44:23Z</time>
      </trkpt>
      <trkpt lat="42.039810" lon="-6.888140">
        <ele>1090.023</ele>
        <time>2021-08-12T16:44:43Z</time>
      </trkpt>
      <trkpt lat="42.038870" lon="-6.889250">
        <ele>1086.015</ele>
        <time>2021-08-12T16:45:03Z</time>
      </trkpt>
      <trkpt lat="42.038530" lon="-6.890610">
        <ele>1074.008</ele>
        <time>2021-08-12T16:45:23Z</time>
      </trkpt>
      <trkpt lat="42.038610" lon="-6.891950">
        <ele>1074.045</ele>
        <time>2021-08-12T16:45:43Z</time>
      </trkpt>
      <trkpt lat="42.038290" lon="-6.893400">
        <ele>1071.026</ele>
        <time>2021-08-12T16:46:03Z</time>
      </trkpt>
      <trkpt lat="42.039150" lon="-6.894370">
        <ele>1078.021</ele>
        <time>2021-08-12T16:46:23Z</time>
      </trkpt>
      <trkpt lat="42.039320" lon="-6.895520">
        <ele>1071.061</ele>
        <time>2021-08-12T16:46:43Z</time>
      </trkpt>
      <trkpt lat="42.040350" lon="-6.897310">
        <ele>1065.092</ele>
        <time>2021-08-12T16:47:03Z</time>
      </trkpt>
      <trkpt lat="42.041850" lon="-6.898320">
        <ele>1063.093</ele>
        <time>2021-08-12T16:47:23Z</time>
      </trkpt>
      <trkpt lat="42.042700" lon="-6.898690">
        <ele>1064.073</ele>
        <time>2021-08-12T16:47:43Z</time>
      </trkpt>
      <trkpt lat="42.043510" lon="-6.898690">
        <ele>1070.090</ele>
        <time>2021-08-12T16:48:03Z</time>
      </trkpt>
      <trkpt lat="42.043620" lon="-6.899170">
        <ele>1072.045</ele>
        <time>2021-08-12T16:48:23Z</time>
      </trkpt>
      <trkpt lat="42.041880" lon="-6.900370">
        <ele>1080.047</ele>
        <time>2021-08-12T16:48:43Z</time>
      </trkpt>
      <trkpt lat="42.041270" lon="-6.900150">
        <ele>1070.011</ele>
        <time>2021-08-12T16:49:03Z</time>
      </trkpt>
      <trkpt lat="42.040530" lon="-6.900090">
        <ele>1069.008</ele>
        <time>2021-08-12T16:49:23Z</time>
      </trkpt>
      <trkpt lat="42.039410" lon="-6.900650">
        <ele>1064.086</ele>
        <time>2021-08-12T16:49:43Z</time>
      </trkpt>
      <trkpt lat="42.038140" lon="-6.900240">
        <ele>1062.057</ele>
        <time>2021-08-12T16:50:03Z</time>
      </trkpt>
      <trkpt lat="42.036770" lon="-6.900380">
        <ele>1050.092</ele>
        <time>2021-08-12T16:50:23Z</time>
      </trkpt>
      <trkpt lat="42.036320" lon="-6.900590">
        <ele>1043.082</ele>
        <time>2021-08-12T16:50:43Z</time>
      </trkpt>
      <trkpt lat="42.035850" lon="-6.901590">
        <ele>1038.083</ele>
        <time>2021-08-12T16:51:03Z</time>
      </trkpt>
      <trkpt lat="42.035800" lon="-6.902050">
        <ele>1039.054</ele>
        <time>2021-08-12T16:51:23Z</time>
      </trkpt>
      <trkpt lat="42.035960" lon="-6.902500">
        <ele>1042.054</ele>
        <time>2021-08-12T16:51:43Z</time>
      </trkpt>
      <trkpt lat="42.036720" lon="-6.903460">
        <ele>1046.061</ele>
        <time>2021-08-12T16:52:03Z</time>
      </trkpt>
      <trkpt lat="42.036800" lon="-6.903890">
        <ele>1044.067</ele>
        <time>2021-08-12T16:52:23Z</time>
      </trkpt>
      <trkpt lat="42.036470" lon="-6.904570">
        <ele>1036.081</ele>
        <time>2021-08-12T16:52:43Z</time>
      </trkpt>
      <trkpt lat="42.036140" lon="-6.904830">
        <ele>1035.019</ele>
        <time>2021-08-12T16:53:03Z</time>
      </trkpt>
      <trkpt lat="42.035860" lon="-6.906280">
        <ele>1039.008</ele>
        <time>2021-08-12T16:53:23Z</time>
      </trkpt>
      <trkpt lat="42.035190" lon="-6.907110">
        <ele>1037.048</ele>
        <time>2021-08-12T16:53:43Z</time>
      </trkpt>
      <trkpt lat="42.033490" lon="-6.910350">
        <ele>1017.019</ele>
        <time>2021-08-12T16:54:03Z</time>
      </trkpt>
      <trkpt lat="42.034190" lon="-6.913270">
        <ele>1022.084</ele>
        <time>2021-08-12T16:54:23Z</time>
      </trkpt>
      <trkpt lat="42.033910" lon="-6.914810">
        <ele>1020.044</ele>
        <time>2021-08-12T16:54:43Z</time>
      </trkpt>
      <trkpt lat="42.034190" lon="-6.916720">
        <ele>1012.065</ele>
        <time>2021-08-12T16:55:03Z</time>
      </trkpt>
      <trkpt lat="42.033690" lon="-6.917300">
        <ele>1002.016</ele>
        <time>2021-08-12T16:55:23Z</time>
      </trkpt>
      <trkpt lat="42.033720" lon="-6.919350">
        <ele>991.046</ele>
        <time>2021-08-12T16:55:43Z</time>
      </trkpt>
      <trkpt lat="42.033880" lon="-6.919500">
        <ele>989.993</ele>
        <time>2021-08-12T16:56:03Z</time>
      </trkpt>
      <trkpt lat="42.034580" lon="-6.919490">
        <ele>989.923</ele>
        <time>2021-08-12T16:56:23Z</time>
      </trkpt>
      <trkpt lat="42.035350" lon="-6.919800">
        <ele>984.083</ele>
        <time>2021-08-12T16:56:43Z</time>
      </trkpt>
      <trkpt lat="42.036530" lon="-6.918970">
        <ele>988.011</ele>
        <time>2021-08-12T16:57:03Z</time>
      </trkpt>
      <trkpt lat="42.036860" lon="-6.918970">
        <ele>987.008</ele>
        <time>2021-08-12T16:57:23Z</time>
      </trkpt>
      <trkpt lat="42.037940" lon="-6.919510">
        <ele>983.044</ele>
        <time>2021-08-12T16:57:43Z</time>
      </trkpt>
      <trkpt lat="42.038840" lon="-6.920230">
        <ele>1009.065</ele>
        <time>2021-08-12T16:58:03Z</time>
      </trkpt>
      <trkpt lat="42.038950" lon="-6.920500">
        <ele>1008.050</ele>
        <time>2021-08-12T16:58:23Z</time>
      </trkpt>
      <trkpt lat="42.038590" lon="-6.920750">
        <ele>1004.090</ele>
        <time>2021-08-12T16:58:43Z</time>
      </trkpt>
      <trkpt lat="42.037520" lon="-6.920330">
        <ele>1006.011</ele>
        <time>2021-08-12T16:59:03Z</time>
      </trkpt>
      <trkpt lat="42.036740" lon="-6.920370">
        <ele>996.062</ele>
        <time>2021-08-12T16:59:23Z</time>
      </trkpt>
      <trkpt lat="42.035850" lon="-6.922860">
        <ele>1023.022</ele>
        <time>2021-08-12T16:59:43Z</time>
      </trkpt>
      <trkpt lat="42.035100" lon="-6.922800">
        <ele>1022.019</ele>
        <time>2021-08-12T17:00:03Z</time>
      </trkpt>
      <trkpt lat="42.033780" lon="-6.923100">
        <ele>1012.089</ele>
        <time>2021-08-12T17:00:23Z</time>
      </trkpt>
      <trkpt lat="42.033390" lon="-6.925380">
        <ele>1009.006</ele>
        <time>2021-08-12T17:00:43Z</time>
      </trkpt>
      <trkpt lat="42.033930" lon="-6.926660">
        <ele>1011.026</ele>
        <time>2021-08-12T17:01:03Z</time>
      </trkpt>
      <trkpt lat="42.034390" lon="-6.927100">
        <ele>1018.008</ele>
        <time>2021-08-12T17:01:23Z</time>
      </trkpt>
      <trkpt lat="42.035570" lon="-6.927730">
        <ele>1036.080</ele>
        <time>2021-08-12T17:01:43Z</time>
      </trkpt>
      <trkpt lat="42.035600" lon="-6.928140">
        <ele>1038.091</ele>
        <time>2021-08-12T17:02:03Z</time>
      </trkpt>
      <trkpt lat="42.035320" lon="-6.928600">
        <ele>1036.026</ele>
        <time>2021-08-12T17:02:23Z</time>
      </trkpt>
      <trkpt lat="42.035280" lon="-6.929060">
        <ele>1035.046</ele>
        <time>2021-08-12T17:02:43Z</time>
      </trkpt>
      <trkpt lat="42.035410" lon="-6.929490">
        <ele>1039.047</ele>
        <time>2021-08-12T17:03:03Z</time>
      </trkpt>
      <trkpt lat="42.035840" lon="-6.930000">
        <ele>1044.018</ele>
        <time>2021-08-12T17:03:23Z</time>
      </trkpt>
      <trkpt lat="42.036040" lon="-6.931880">
        <ele>1053.028</ele>
        <time>2021-08-12T17:03:43Z</time>
      </trkpt>
      <trkpt lat="42.036600" lon="-6.932990">
        <ele>1056.095</ele>
        <time>2021-08-12T17:04:03Z</time>
      </trkpt>
      <trkpt lat="42.036750" lon="-6.933180">
        <ele>1056.059</ele>
        <time>2021-08-12T17:04:23Z</time>
      </trkpt>
      <trkpt lat="42.036750" lon="-6.932950">
        <ele>1058.003</ele>
        <time>2021-08-12T17:04:43Z</time>
      </trkpt>
      <trkpt lat="42.036760" lon="-6.933180">
        <ele>1060.023</ele>
        <time>2021-08-12T17:05:03Z</time>
      </trkpt>
      <trkpt lat="42.037470" lon="-6.933960">
        <ele>1067.008</ele>
        <time>2021-08-12T17:05:23Z</time>
      </trkpt>
      <trkpt lat="42.037880" lon="-6.934870">
        <ele>1066.047</ele>
        <time>2021-08-12T17:05:43Z</time>
      </trkpt>
      <trkpt lat="42.039170" lon="-6.936810">
        <ele>1078.098</ele>
        <time>2021-08-12T17:06:03Z</time>
      </trkpt>
      <trkpt lat="42.039750" lon="-6.937360">
        <ele>1081.013</ele>
        <time>2021-08-12T17:06:23Z</time>
      </trkpt>
      <trkpt lat="42.039920" lon="-6.938010">
        <ele>1070.073</ele>
        <time>2021-08-12T17:06:43Z</time>
      </trkpt>
      <trkpt lat="42.041290" lon="-6.939370">
        <ele>1093.054</ele>
        <time>2021-08-12T17:07:03Z</time>
      </trkpt>
      <trkpt lat="42.041170" lon="-6.939690">
        <ele>1097.045</ele>
        <time>2021-08-12T17:07:23Z</time>
      </trkpt>
      <trkpt lat="42.039650" lon="-6.940430">
        <ele>1091.015</ele>
        <time>2021-08-12T17:07:43Z</time>
      </trkpt>
      <trkpt lat="42.039060" lon="-6.940990">
        <ele>1090.082</ele>
        <time>2021-08-12T17:08:03Z</time>
      </trkpt>
      <trkpt lat="42.039060" lon="-6.941820">
        <ele>1092.037</ele>
        <time>2021-08-12T17:08:23Z</time>
      </trkpt>
      <trkpt lat="42.039810" lon="-6.943740">
        <ele>1112.049</ele>
        <time>2021-08-12T17:08:43Z</time>
      </trkpt>
      <trkpt lat="42.039690" lon="-6.943910">
        <ele>1109.013</ele>
        <time>2021-08-12T17:09:03Z</time>
      </trkpt>
      <trkpt lat="42.039240" lon="-6.943700">
        <ele>1101.008</ele>
        <time>2021-08-12T17:09:23Z</time>
      </trkpt>
      <trkpt lat="42.039010" lon="-6.943970">
        <ele>1104.025</ele>
        <time>2021-08-12T17:09:43Z</time>
      </trkpt>
      <trkpt lat="42.039240" lon="-6.948730">
        <ele>1124.016</ele>
        <time>2021-08-12T17:10:03Z</time>
      </trkpt>
      <trkpt lat="42.039970" lon="-6.951080">
        <ele>1114.011</ele>
        <time>2021-08-12T17:10:23Z</time>
      </trkpt>
      <trkpt lat="42.040250" lon="-6.951500">
        <ele>1114.031</ele>
        <time>2021-08-12T17:10:43Z</time>
      </trkpt>
      <trkpt lat="42.041140" lon="-6.952130">
        <ele>1119.072</ele>
        <time>2021-08-12T17:11:03Z</time>
      </trkpt>
      <trkpt lat="42.042660" lon="-6.952690">
        <ele>1133.013</ele>
        <time>2021-08-12T17:11:23Z</time>
      </trkpt>
      <trkpt lat="42.043180" lon="-6.953300">
        <ele>1141.043</ele>
        <time>2021-08-12T17:11:43Z</time>
      </trkpt>
      <trkpt lat="42.043560" lon="-6.953410">
        <ele>1148.060</ele>
        <time>2021-08-12T17:12:03Z</time>
      </trkpt>
      <trkpt lat="42.044020" lon="-6.954070">
        <ele>1152.093</ele>
        <time>2021-08-12T17:12:23Z</time>
      </trkpt>
      <trkpt lat="42.043930" lon="-6.954280">
        <ele>1153.065</ele>
        <time>2021-08-12T17:12:43Z</time>
      </trkpt>
      <trkpt lat="42.043420" lon="-6.954220">
        <ele>1166.021</ele>
        <time>2021-08-12T17:13:03Z</time>
      </trkpt>
      <trkpt lat="42.042880" lon="-6.954440">
        <ele>1179.008</ele>
        <time>2021-08-12T17:13:23Z</time>
      </trkpt>
      <trkpt lat="42.041560" lon="-6.954370">
        <ele>1176.041</ele>
        <time>2021-08-12T17:13:43Z</time>
      </trkpt>
      <trkpt lat="42.041010" lon="-6.954690">
        <ele>1170.082</ele>
        <time>2021-08-12T17:14:03Z</time>
      </trkpt>
      <trkpt lat="42.040460" lon="-6.954620">
        <ele>1159.027</ele>
        <time>2021-08-12T17:14:23Z</time>
      </trkpt>
      <trkpt lat="42.040050" lon="-6.954820">
        <ele>1161.037</ele>
        <time>2021-08-12T17:14:43Z</time>
      </trkpt>
      <trkpt lat="42.039970" lon="-6.956420">
        <ele>1164.028</ele>
        <time>2021-08-12T17:15:03Z</time>
      </trkpt>
      <trkpt lat="42.040070" lon="-6.957280">
        <ele>1161.079</ele>
        <time>2021-08-12T17:15:23Z</time>
      </trkpt>
      <trkpt lat="42.040620" lon="-6.958500">
        <ele>1169.019</ele>
        <time>2021-08-12T17:15:43Z</time>
      </trkpt>
      <trkpt lat="42.041350" lon="-6.959520">
        <ele>1190.076</ele>
        <time>2021-08-12T17:16:03Z</time>
      </trkpt>
      <trkpt lat="42.041800" lon="-6.960710">
        <ele>1199.089</ele>
        <time>2021-08-12T17:16:23Z</time>
      </trkpt>
      <trkpt lat="42.041660" lon="-6.960920">
        <ele>1200.006</ele>
        <time>2021-08-12T17:16:43Z</time>
      </trkpt>
      <trkpt lat="42.041010" lon="-6.960860">
        <ele>1201.026</ele>
        <time>2021-08-12T17:17:03Z</time>
      </trkpt>
      <trkpt lat="42.039750" lon="-6.961790">
        <ele>1206.008</ele>
        <time>2021-08-12T17:17:23Z</time>
      </trkpt>
      <trkpt lat="42.040100" lon="-6.962870">
        <ele>1214.040</ele>
        <time>2021-08-12T17:17:43Z</time>
      </trkpt>
      <trkpt lat="42.039540" lon="-6.963780">
        <ele>1208.011</ele>
        <time>2021-08-12T17:18:03Z</time>
      </trkpt>
      <trkpt lat="42.039200" lon="-6.965720">
        <ele>1219.046</ele>
        <time>2021-08-12T17:18:23Z</time>
      </trkpt>
      <trkpt lat="42.039340" lon="-6.966810">
        <ele>1234.036</ele>
        <time>2021-08-12T17:18:43Z</time>
      </trkpt>
      <trkpt lat="42.038630" lon="-6.967550">
        <ele>1217.027</ele>
        <time>2021-08-12T17:19:03Z</time>
      </trkpt>
      <trkpt lat="42.038270" lon="-6.969810">
        <ele>1246.038</ele>
        <time>2021-08-12T17:19:23Z</time>
      </trkpt>
      <trkpt lat="42.038080" lon="-6.970190">
        <ele>1241.018</ele>
        <time>2021-08-12T17:19:43Z</time>
      </trkpt>
      <trkpt lat="42.037410" lon="-6.970070">
        <ele>1237.095</ele>
        <time>2021-08-12T17:20:03Z</time>
      </trkpt>
      <trkpt lat="42.037020" lon="-6.969790">
        <ele>1242.078</ele>
        <time>2021-08-12T17:20:23Z</time>
      </trkpt>
      <trkpt lat="42.036080" lon="-6.968360">
        <ele>1258.033</ele>
        <time>2021-08-12T17:20:43Z</time>
      </trkpt>
      <trkpt lat="42.035790" lon="-6.967030">
        <ele>1256.026</ele>
        <time>2021-08-12T17:21:03Z</time>
      </trkpt>
      <trkpt lat="42.035000" lon="-6.966420">
        <ele>1258.008</ele>
        <time>2021-08-12T17:21:23Z</time>
      </trkpt>
      <trkpt lat="42.034290" lon="-6.964910">
        <ele>1256.029</ele>
        <time>2021-08-12T17:21:43Z</time>
      </trkpt>
      <trkpt lat="42.033770" lon="-6.964680">
        <ele>1256.060</ele>
        <time>2021-08-12T17:22:03Z</time>
      </trkpt>
      <trkpt lat="42.033730" lon="-6.965020">
        <ele>1257.065</ele>
        <time>2021-08-12T17:22:23Z</time>
      </trkpt>
      <trkpt lat="42.034080" lon="-6.967550">
        <ele>1254.085</ele>
        <time>2021-08-12T17:22:43Z</time>
      </trkpt>
      <trkpt lat="42.035030" lon="-6.970010">
        <ele>1248.016</ele>
        <time>2021-08-12T17:23:03Z</time>
      </trkpt>
      <trkpt lat="42.035330" lon="-6.971250">
        <ele>1246.037</ele>
        <time>2021-08-12T17:23:23Z</time>
      </trkpt>
      <trkpt lat="42.035750" lon="-6.972130">
        <ele>1251.067</ele>
        <time>2021-08-12T17:23:43Z</time>
      </trkpt>
      <trkpt lat="42.035800" lon="-6.973500">
        <ele>1240.024</ele>
        <time>2021-08-12T17:24:03Z</time>
      </trkpt>
      <trkpt lat="42.036600" lon="-6.975160">
        <ele>1231.078</ele>
        <time>2021-08-12T17:24:23Z</time>
      </trkpt>
      <trkpt lat="42.037230" lon="-6.975800">
        <ele>1252.033</ele>
        <time>2021-08-12T17:24:43Z</time>
      </trkpt>
      <trkpt lat="42.037310" lon="-6.976050">
        <ele>1251.026</ele>
        <time>2021-08-12T17:25:03Z</time>
      </trkpt>
      <trkpt lat="42.037180" lon="-6.977860">
        <ele>1235.008</ele>
        <time>2021-08-12T17:25:23Z</time>
      </trkpt>
      <trkpt lat="42.037760" lon="-6.980460">
        <ele>1221.019</ele>
        <time>2021-08-12T17:25:43Z</time>
      </trkpt>
      <trkpt lat="42.037300" lon="-6.981880">
        <ele>1221.040</ele>
        <time>2021-08-12T17:26:03Z</time>
      </trkpt>
      <trkpt lat="42.037240" lon="-6.982780">
        <ele>1218.025</ele>
        <time>2021-08-12T17:26:23Z</time>
      </trkpt>
      <trkpt lat="42.037400" lon="-6.983850">
        <ele>1217.075</ele>
        <time>2021-08-12T17:26:43Z</time>
      </trkpt>
      <trkpt lat="42.037060" lon="-6.986180">
        <ele>1199.016</ele>
        <time>2021-08-12T17:27:03Z</time>
      </trkpt>
      <trkpt lat="42.038000" lon="-6.989850">
        <ele>1185.067</ele>
        <time>2021-08-12T17:27:23Z</time>
      </trkpt>
      <trkpt lat="42.038310" lon="-6.990430">
        <ele>1181.047</ele>
        <time>2021-08-12T17:27:43Z</time>
      </trkpt>
      <trkpt lat="42.039260" lon="-6.991430">
        <ele>1172.024</ele>
        <time>2021-08-12T17:28:03Z</time>
      </trkpt>
      <trkpt lat="42.039580" lon="-6.993020">
        <ele>1161.051</ele>
        <time>2021-08-12T17:28:23Z</time>
      </trkpt>
      <trkpt lat="42.040010" lon="-6.993940">
        <ele>1150.001</ele>
        <time>2021-08-12T17:28:43Z</time>
      </trkpt>
      <trkpt lat="42.039920" lon="-6.993940">
        <ele>1148.011</ele>
        <time>2021-08-12T17:29:03Z</time>
      </trkpt>
      <trkpt lat="42.040840" lon="-6.995070">
        <ele>1141.008</ele>
        <time>2021-08-12T17:29:23Z</time>
      </trkpt>
      <trkpt lat="42.042800" lon="-6.996260">
        <ele>1141.097</ele>
        <time>2021-08-12T17:29:43Z</time>
      </trkpt>
      <trkpt lat="42.044240" lon="-6.999160">
        <ele>1130.078</ele>
        <time>2021-08-12T17:30:03Z</time>
      </trkpt>
      <trkpt lat="42.044200" lon="-6.999860">
        <ele>1123.053</ele>
        <time>2021-08-12T17:30:23Z</time>
      </trkpt>
      <trkpt lat="42.043150" lon="-7.001270">
        <ele>1116.013</ele>
        <time>2021-08-12T17:30:43Z</time>
      </trkpt>
      <trkpt lat="42.042610" lon="-7.001540">
        <ele>1110.024</ele>
        <time>2021-08-12T17:31:03Z</time>
      </trkpt>
      <trkpt lat="42.041650" lon="-7.001710">
        <ele>1104.085</ele>
        <time>2021-08-12T17:31:23Z</time>
      </trkpt>
      <trkpt lat="42.041070" lon="-7.002230">
        <ele>1102.085</ele>
        <time>2021-08-12T17:31:43Z</time>
      </trkpt>
      <trkpt lat="42.040610" lon="-7.003610">
        <ele>1087.042</ele>
        <time>2021-08-12T17:32:03Z</time>
      </trkpt>
      <trkpt lat="42.041120" lon="-7.006390">
        <ele>1080.063</ele>
        <time>2021-08-12T17:32:23Z</time>
      </trkpt>
      <trkpt lat="42.041000" lon="-7.007250">
        <ele>1079.044</ele>
        <time>2021-08-12T17:32:43Z</time>
      </trkpt>
      <trkpt lat="42.040690" lon="-7.007730">
        <ele>1078.018</ele>
        <time>2021-08-12T17:33:03Z</time>
      </trkpt>
      <trkpt lat="42.038730" lon="-7.009500">
        <ele>1072.008</ele>
        <time>2021-08-12T17:33:23Z</time>
      </trkpt>
      <trkpt lat="42.038380" lon="-7.010120">
        <ele>1067.078</ele>
        <time>2021-08-12T17:33:43Z</time>
      </trkpt>
      <trkpt lat="42.038260" lon="-7.010730">
        <ele>1065.039</ele>
        <time>2021-08-12T17:34:03Z</time>
      </trkpt>
      <trkpt lat="42.038240" lon="-7.011270">
        <ele>1064.074</ele>
        <time>2021-08-12T17:34:23Z</time>
      </trkpt>
      <trkpt lat="42.038570" lon="-7.012390">
        <ele>1061.024</ele>
        <time>2021-08-12T17:34:43Z</time>
      </trkpt>
      <trkpt lat="42.039350" lon="-7.013900">
        <ele>1062.085</ele>
        <time>2021-08-12T17:35:03Z</time>
      </trkpt>
      <trkpt lat="42.041190" lon="-7.016480">
        <ele>1034.096</ele>
        <time>2021-08-12T17:35:23Z</time>
      </trkpt>
      <trkpt lat="42.041480" lon="-7.017230">
        <ele>1035.016</ele>
        <time>2021-08-12T17:35:43Z</time>
      </trkpt>
      <trkpt lat="42.041510" lon="-7.017850">
        <ele>1038.013</ele>
        <time>2021-08-12T17:36:03Z</time>
      </trkpt>
      <trkpt lat="42.041300" lon="-7.018470">
        <ele>1039.091</ele>
        <time>2021-08-12T17:36:23Z</time>
      </trkpt>
      <trkpt lat="42.040910" lon="-7.018900">
        <ele>1041.081</ele>
        <time>2021-08-12T17:36:43Z</time>
      </trkpt>
      <trkpt lat="42.038900" lon="-7.019780">
        <ele>1050.019</ele>
        <time>2021-08-12T17:37:03Z</time>
      </trkpt>
      <trkpt lat="42.038560" lon="-7.020090">
        <ele>1049.008</ele>
        <time>2021-08-12T17:37:23Z</time>
      </trkpt>
      <trkpt lat="42.038320" lon="-7.020800">
        <ele>1052.091</ele>
        <time>2021-08-12T17:37:43Z</time>
      </trkpt>
      <trkpt lat="42.038090" lon="-7.022410">
        <ele>1052.052</ele>
        <time>2021-08-12T17:38:03Z</time>
      </trkpt>
      <trkpt lat="42.038170" lon="-7.024530">
        <ele>1054.057</ele>
        <time>2021-08-12T17:38:23Z</time>
      </trkpt>
      <trkpt lat="42.037960" lon="-7.024920">
        <ele>1052.067</ele>
        <time>2021-08-12T17:38:43Z</time>
      </trkpt>
      <trkpt lat="42.037160" lon="-7.025710">
        <ele>1048.028</ele>
        <time>2021-08-12T17:39:03Z</time>
      </trkpt>
      <trkpt lat="42.036890" lon="-7.026330">
        <ele>1043.089</ele>
        <time>2021-08-12T17:39:23Z</time>
      </trkpt>
      <trkpt lat="42.036910" lon="-7.027030">
        <ele>1043.019</ele>
        <time>2021-08-12T17:39:43Z</time>
      </trkpt>
      <trkpt lat="42.037590" lon="-7.028370">
        <ele>1039.096</ele>
        <time>2021-08-12T17:40:03Z</time>
      </trkpt>
      <trkpt lat="42.037860" lon="-7.029260">
        <ele>1038.066</ele>
        <time>2021-08-12T17:40:23Z</time>
      </trkpt>
      <trkpt lat="42.039270" lon="-7.035690">
        <ele>1033.029</ele>
        <time>2021-08-12T17:40:43Z</time>
      </trkpt>
      <trkpt lat="42.038700" lon="-7.037620">
        <ele>1024.021</ele>
        <time>2021-08-12T17:41:03Z</time>
      </trkpt>
      <trkpt lat="42.038620" lon="-7.039650">
        <ele>1020.008</ele>
        <time>2021-08-12T17:41:23Z</time>
      </trkpt>
      <trkpt lat="42.037710" lon="-7.041570">
        <ele>1016.098</ele>
        <time>2021-08-12T17:41:43Z</time>
      </trkpt>
      <trkpt lat="42.037670" lon="-7.044070">
        <ele>1010.019</ele>
        <time>2021-08-12T17:42:03Z</time>
      </trkpt>
      <trkpt lat="42.038220" lon="-7.045650">
        <ele>1002.044</ele>
        <time>2021-08-12T17:42:23Z</time>
      </trkpt>
      <trkpt lat="42.038320" lon="-7.046560">
        <ele>1002.084</ele>
        <time>2021-08-12T17:42:43Z</time>
      </trkpt>
      <trkpt lat="42.037720" lon="-7.047920">
        <ele>1004.025</ele>
        <time>2021-08-12T17:43:03Z</time>
      </trkpt>
      <trkpt lat="42.037560" lon="-7.049380">
        <ele>1011.036</ele>
        <time>2021-08-12T17:43:23Z</time>
      </trkpt>
      <trkpt lat="42.037230" lon="-7.050210">
        <ele>1011.026</ele>
        <time>2021-08-12T17:43:43Z</time>
      </trkpt>
      <trkpt lat="42.036780" lon="-7.052320">
        <ele>1019.023</ele>
        <time>2021-08-12T17:44:03Z</time>
      </trkpt>
      <trkpt lat="42.036750" lon="-7.053310">
        <ele>1021.021</ele>
        <time>2021-08-12T17:44:23Z</time>
      </trkpt>
      <trkpt lat="42.037810" lon="-7.055230">
        <ele>1024.041</ele>
        <time>2021-08-12T17:44:43Z</time>
      </trkpt>
      <trkpt lat="42.040570" lon="-7.058250">
        <ele>1022.005</ele>
        <time>2021-08-12T17:45:03Z</time>
      </trkpt>
      <trkpt lat="42.041350" lon="-7.059550">
        <ele>1027.008</ele>
        <time>2021-08-12T17:45:23Z</time>
      </trkpt>
      <trkpt lat="42.042440" lon="-7.062840">
        <ele>1042.094</ele>
        <time>2021-08-12T17:45:43Z</time>
      </trkpt>
      <trkpt lat="42.042830" lon="-7.065730">
        <ele>1049.015</ele>
        <time>2021-08-12T17:46:03Z</time>
      </trkpt>
      <trkpt lat="42.043280" lon="-7.066750">
        <ele>1048.040</ele>
        <time>2021-08-12T17:46:23Z</time>
      </trkpt>
      <trkpt lat="42.043770" lon="-7.067320">
        <ele>1047.080</ele>
        <time>2021-08-12T17:46:43Z</time>
      </trkpt>
      <trkpt lat="42.046240" lon="-7.069080">
        <ele>1045.061</ele>
        <time>2021-08-12T17:47:03Z</time>
      </trkpt>
      <trkpt lat="42.047850" lon="-7.069590">
        <ele>1051.082</ele>
        <time>2021-08-12T17:47:23Z</time>
      </trkpt>
      <trkpt lat="42.048280" lon="-7.069900">
        <ele>1053.022</ele>
        <time>2021-08-12T17:47:43Z</time>
      </trkpt>
      <trkpt lat="42.048530" lon="-7.070320">
        <ele>1056.069</ele>
        <time>2021-08-12T17:48:03Z</time>
      </trkpt>
      <trkpt lat="42.048650" lon="-7.070910">
        <ele>1060.036</ele>
        <time>2021-08-12T17:48:23Z</time>
      </trkpt>
      <trkpt lat="42.048470" lon="-7.071810">
        <ele>1061.017</ele>
        <time>2021-08-12T17:48:43Z</time>
      </trkpt>
      <trkpt lat="42.047210" lon="-7.073460">
        <ele>1059.018</ele>
        <time>2021-08-12T17:49:03Z</time>
      </trkpt>
      <trkpt lat="42.046740" lon="-7.074790">
        <ele>1061.008</ele>
        <time>2021-08-12T17:49:23Z</time>
      </trkpt>
      <trkpt lat="42.046700" lon="-7.075750">
        <ele>1056.045</ele>
        <time>2021-08-12T17:49:43Z</time>
      </trkpt>
      <trkpt lat="42.047280" lon="-7.078370">
        <ele>1058.056</ele>
        <time>2021-08-12T17:50:03Z</time>
      </trkpt>
      <trkpt lat="42.047470" lon="-7.080360">
        <ele>1060.021</ele>
        <time>2021-08-12T17:50:23Z</time>
      </trkpt>
      <trkpt lat="42.046920" lon="-7.082520">
        <ele>1061.051</ele>
        <time>2021-08-12T17:50:43Z</time>
      </trkpt>
      <trkpt lat="42.046870" lon="-7.086180">
        <ele>1069.092</ele>
        <time>2021-08-12T17:51:03Z</time>
      </trkpt>
      <trkpt lat="42.046980" lon="-7.087170">
        <ele>1068.083</ele>
        <time>2021-08-12T17:51:23Z</time>
      </trkpt>
      <trkpt lat="42.047580" lon="-7.088700">
        <ele>1067.023</ele>
        <time>2021-08-12T17:51:43Z</time>
      </trkpt>
      <trkpt lat="42.047990" lon="-7.089330">
        <ele>1064.040</ele>
        <time>2021-08-12T17:52:03Z</time>
      </trkpt>
      <trkpt lat="42.049620" lon="-7.091110">
        <ele>1063.049</ele>
        <time>2021-08-12T17:52:23Z</time>
      </trkpt>
      <trkpt lat="42.050110" lon="-7.091930">
        <ele>1062.002</ele>
        <time>2021-08-12T17:52:43Z</time>
      </trkpt>
      <trkpt lat="42.050520" lon="-7.093030">
        <ele>1063.022</ele>
        <time>2021-08-12T17:53:03Z</time>
      </trkpt>
      <trkpt lat="42.050260" lon="-7.093320">
        <ele>1063.008</ele>
        <time>2021-08-12T17:53:23Z</time>
      </trkpt>
      <trkpt lat="42.049900" lon="-7.094740">
        <ele>1065.036</ele>
        <time>2021-08-12T17:53:43Z</time>
      </trkpt>
      <trkpt lat="42.050030" lon="-7.095700">
        <ele>1067.057</ele>
        <time>2021-08-12T17:54:03Z</time>
      </trkpt>
      <trkpt lat="42.049510" lon="-7.096450">
        <ele>1067.012</ele>
        <time>2021-08-12T17:54:23Z</time>
      </trkpt>
      <trkpt lat="42.049790" lon="-7.097420">
        <ele>1065.082</ele>
        <time>2021-08-12T17:54:43Z</time>
      </trkpt>
      <trkpt lat="42.049320" lon="-7.098380">
        <ele>1060.043</ele>
        <time>2021-08-12T17:55:03Z</time>
      </trkpt>
      <trkpt lat="42.049350" lon="-7.098860">
        <ele>1058.034</ele>
        <time>2021-08-12T17:55:23Z</time>
      </trkpt>
      <trkpt lat="42.049850" lon="-7.100280">
        <ele>1053.044</ele>
        <time>2021-08-12T17:55:43Z</time>
      </trkpt>
      <trkpt lat="42.050940" lon="-7.101890">
        <ele>1053.091</ele>
        <time>2021-08-12T17:56:03Z</time>
      </trkpt>
      <trkpt lat="42.051260" lon="-7.103190">
        <ele>1058.028</ele>
        <time>2021-08-12T17:56:23Z</time>
      </trkpt>
      <trkpt lat="42.051720" lon="-7.104210">
        <ele>1066.089</ele>
        <time>2021-08-12T17:56:43Z</time>
      </trkpt>
      <trkpt lat="42.052240" lon="-7.105060">
        <ele>1069.017</ele>
        <time>2021-08-12T17:57:03Z</time>
      </trkpt>
      <trkpt lat="42.052760" lon="-7.105510">
        <ele>1071.008</ele>
        <time>2021-08-12T17:57:23Z</time>
      </trkpt>
      <trkpt lat="42.053940" lon="-7.109620">
        <ele>1084.014</ele>
        <time>2021-08-12T17:57:43Z</time>
      </trkpt>
      <trkpt lat="42.054510" lon="-7.110340">
        <ele>1083.075</ele>
        <time>2021-08-12T17:58:03Z</time>
      </trkpt>
      <trkpt lat="42.055100" lon="-7.111620">
        <ele>1081.060</ele>
        <time>2021-08-12T17:58:23Z</time>
      </trkpt>
      <trkpt lat="42.055720" lon="-7.112150">
        <ele>1078.040</ele>
        <time>2021-08-12T17:58:43Z</time>
      </trkpt>
      <trkpt lat="42.055760" lon="-7.113830">
        <ele>1074.031</ele>
        <time>2021-08-12T17:59:03Z</time>
      </trkpt>
      <trkpt lat="42.055930" lon="-7.114540">
        <ele>1071.042</ele>
        <time>2021-08-12T17:59:23Z</time>
      </trkpt>
      <trkpt lat="42.057560" lon="-7.117040">
        <ele>1043.032</ele>
        <time>2021-08-12T17:59:43Z</time>
      </trkpt>
      <trkpt lat="42.058980" lon="-7.118170">
        <ele>1037.019</ele>
        <time>2021-08-12T18:00:03Z</time>
      </trkpt>
      <trkpt lat="42.059960" lon="-7.119810">
        <ele>1034.076</ele>
        <time>2021-08-12T18:00:23Z</time>
      </trkpt>
      <trkpt lat="42.060030" lon="-7.120500">
        <ele>1030.090</ele>
        <time>2021-08-12T18:00:43Z</time>
      </trkpt>
      <trkpt lat="42.059370" lon="-7.124330">
        <ele>1010.019</ele>
        <time>2021-08-12T18:01:03Z</time>
      </trkpt>
      <trkpt lat="42.059110" lon="-7.125310">
        <ele>1006.008</ele>
        <time>2021-08-12T18:01:23Z</time>
      </trkpt>
      <trkpt lat="42.058270" lon="-7.127360">
        <ele>993.939</ele>
        <time>2021-08-12T18:01:43Z</time>
      </trkpt>
      <trkpt lat="42.058420" lon="-7.128120">
        <ele>991.020</ele>
        <time>2021-08-12T18:02:03Z</time>
      </trkpt>
      <trkpt lat="42.058740" lon="-7.128700">
        <ele>988.045</ele>
        <time>2021-08-12T18:02:23Z</time>
      </trkpt>
      <trkpt lat="42.058800" lon="-7.129260">
        <ele>981.995</ele>
        <time>2021-08-12T18:02:43Z</time>
      </trkpt>
      <trkpt lat="42.059860" lon="-7.130550">
        <ele>971.066</ele>
        <time>2021-08-12T18:03:03Z</time>
      </trkpt>
      <trkpt lat="42.060770" lon="-7.135130">
        <ele>981.087</ele>
        <time>2021-08-12T18:03:23Z</time>
      </trkpt>
      <trkpt lat="42.060963" lon="-7.137465">
        <ele>980.017</ele>
        <time>2021-08-12T18:03:43Z</time>
      </trkpt>
      <trkpt lat="42.060676" lon="-7.139537">
        <ele>981.024</ele>
        <time>2021-08-12T18:04:03Z</time>
      </trkpt>
      <trkpt lat="42.060629" lon="-7.141330">
        <ele>981.052</ele>
        <time>2021-08-12T18:04:23Z</time>
      </trkpt>
      <trkpt lat="42.060295" lon="-7.142649">
        <ele>981.053</ele>
        <time>2021-08-12T18:04:43Z</time>
      </trkpt>
      <trkpt lat="42.059347" lon="-7.144117">
        <ele>981.008</ele>
        <time>2021-08-12T18:05:03Z</time>
      </trkpt>
      <trkpt lat="42.059172" lon="-7.144763">
        <ele>981.008</ele>
        <time>2021-08-12T18:05:23Z</time>
      </trkpt>
      <trkpt lat="42.057760" lon="-7.147478">
        <ele>981.057</ele>
        <time>2021-08-12T18:05:43Z</time>
      </trkpt>
      <trkpt lat="42.057164" lon="-7.148210">
        <ele>981.018</ele>
        <time>2021-08-12T18:06:03Z</time>
      </trkpt>
      <trkpt lat="42.057072" lon="-7.148524">
        <ele>981.073</ele>
        <time>2021-08-12T18:06:23Z</time>
      </trkpt>
      <trkpt lat="42.057424" lon="-7.147535">
        <ele>985.079</ele>
        <time>2020-08-13T05:19:48Z</time>
      </trkpt>
      <trkpt lat="42.057790" lon="-7.147876">
        <ele>954.205</ele>
        <time>2020-08-13T05:22:32Z</time>
      </trkpt>
      <trkpt lat="42.057640" lon="-7.147378">
        <ele>957.625</ele>
        <time>2020-08-13T05:23:05Z</time>
      </trkpt>
      <trkpt lat="42.058791" lon="-7.145476">
        <ele>961.908</ele>
        <time>2020-08-13T05:24:19Z</time>
      </trkpt>
      <trkpt lat="42.059409" lon="-7.143911">
        <ele>967.762</ele>
        <time>2020-08-13T05:25:20Z</time>
      </trkpt>
      <trkpt lat="42.060186" lon="-7.142823">
        <ele>974.961</ele>
        <time>2020-08-13T05:26:09Z</time>
      </trkpt>
      <trkpt lat="42.060662" lon="-7.141289">
        <ele>985.983</ele>
        <time>2020-08-13T05:27:07Z</time>
      </trkpt>
      <trkpt lat="42.060990" lon="-7.141075">
        <ele>989.317</ele>
        <time>2020-08-13T05:27:32Z</time>
      </trkpt>
      <trkpt lat="42.061832" lon="-7.142816">
        <ele>997.942</ele>
        <time>2020-08-13T05:28:56Z</time>
      </trkpt>
      <trkpt lat="42.062457" lon="-7.143613">
        <ele>998.495</ele>
        <time>2020-08-13T05:29:32Z</time>
      </trkpt>
      <trkpt lat="42.063190" lon="-7.144988">
        <ele>1003.777</ele>
        <time>2020-08-13T05:30:29Z</time>
      </trkpt>
      <trkpt lat="42.063137" lon="-7.146712">
        <ele>1010.429</ele>
        <time>2020-08-13T05:31:39Z</time>
      </trkpt>
      <trkpt lat="42.063695" lon="-7.147691">
        <ele>1013.346</ele>
        <time>2020-08-13T05:34:02Z</time>
      </trkpt>
      <trkpt lat="42.065141" lon="-7.148935">
        <ele>1017.688</ele>
        <time>2020-08-13T05:35:09Z</time>
      </trkpt>
      <trkpt lat="42.066563" lon="-7.149285">
        <ele>1015.716</ele>
        <time>2020-08-13T05:35:54Z</time>
      </trkpt>
      <trkpt lat="42.067013" lon="-7.149685">
        <ele>1016.708</ele>
        <time>2020-08-13T05:36:11Z</time>
      </trkpt>
      <trkpt lat="42.068035" lon="-7.152415">
        <ele>1025.399</ele>
        <time>2020-08-13T05:37:45Z</time>
      </trkpt>
      <trkpt lat="42.067900" lon="-7.156753">
        <ele>1042.698</ele>
        <time>2020-08-13T05:40:20Z</time>
      </trkpt>
      <trkpt lat="42.068159" lon="-7.158540">
        <ele>1047.990</ele>
        <time>2020-08-13T05:41:21Z</time>
      </trkpt>
      <trkpt lat="42.067836" lon="-7.160430">
        <ele>1055.684</ele>
        <time>2020-08-13T05:42:12Z</time>
      </trkpt>
      <trkpt lat="42.068328" lon="-7.161734">
        <ele>1066.279</ele>
        <time>2020-08-13T05:45:07Z</time>
      </trkpt>
      <trkpt lat="42.068460" lon="-7.162971">
        <ele>1071.592</ele>
        <time>2020-08-13T05:46:21Z</time>
      </trkpt>
      <trkpt lat="42.068920" lon="-7.164623">
        <ele>1077.234</ele>
        <time>2020-08-13T05:47:19Z</time>
      </trkpt>
      <trkpt lat="42.068394" lon="-7.167071">
        <ele>1088.346</ele>
        <time>2020-08-13T05:48:49Z</time>
      </trkpt>
      <trkpt lat="42.070434" lon="-7.171272">
        <ele>1087.845</ele>
        <time>2020-08-13T05:51:06Z</time>
      </trkpt>
      <trkpt lat="42.072500" lon="-7.174174">
        <ele>1091.747</ele>
        <time>2020-08-13T05:52:52Z</time>
      </trkpt>
      <trkpt lat="42.073379" lon="-7.176491">
        <ele>1092.211</ele>
        <time>2020-08-13T05:53:43Z</time>
      </trkpt>
      <trkpt lat="42.073386" lon="-7.179148">
        <ele>1092.208</ele>
        <time>2020-08-13T05:54:29Z</time>
      </trkpt>
      <trkpt lat="42.073089" lon="-7.181996">
        <ele>1084.569</ele>
        <time>2020-08-13T05:54:55Z</time>
      </trkpt>
      <trkpt lat="42.073223" lon="-7.184470">
        <ele>1090.298</ele>
        <time>2020-08-13T05:55:46Z</time>
      </trkpt>
      <trkpt lat="42.073072" lon="-7.185137">
        <ele>1086.940</ele>
        <time>2020-08-13T05:55:54Z</time>
      </trkpt>
      <trkpt lat="42.072398" lon="-7.185891">
        <ele>1085.444</ele>
        <time>2020-08-13T05:56:07Z</time>
      </trkpt>
      <trkpt lat="42.071053" lon="-7.186734">
        <ele>1081.639</ele>
        <time>2020-08-13T05:56:28Z</time>
      </trkpt>
      <trkpt lat="42.070563" lon="-7.187510">
        <ele>1078.722</ele>
        <time>2020-08-13T05:56:39Z</time>
      </trkpt>
      <trkpt lat="42.069780" lon="-7.187736">
        <ele>1078.764</ele>
        <time>2020-08-13T05:56:53Z</time>
      </trkpt>
      <trkpt lat="42.069312" lon="-7.188164">
        <ele>1076.826</ele>
        <time>2020-08-13T05:57:03Z</time>
      </trkpt>
      <trkpt lat="42.069173" lon="-7.188654">
        <ele>1074.441</ele>
        <time>2020-08-13T05:57:10Z</time>
      </trkpt>
      <trkpt lat="42.069190" lon="-7.190181">
        <ele>1072.081</ele>
        <time>2020-08-13T05:57:30Z</time>
      </trkpt>
      <trkpt lat="42.070376" lon="-7.191790">
        <ele>1077.709</ele>
        <time>2020-08-13T05:58:27Z</time>
      </trkpt>
      <trkpt lat="42.070723" lon="-7.193193">
        <ele>1079.208</ele>
        <time>2020-08-13T05:59:04Z</time>
      </trkpt>
      <trkpt lat="42.070725" lon="-7.194177">
        <ele>1078.249</ele>
        <time>2020-08-13T05:59:23Z</time>
      </trkpt>
      <trkpt lat="42.070386" lon="-7.195381">
        <ele>1080.628</ele>
        <time>2020-08-13T05:59:50Z</time>
      </trkpt>
      <trkpt lat="42.070296" lon="-7.196665">
        <ele>1084.040</ele>
        <time>2020-08-13T06:00:20Z</time>
      </trkpt>
      <trkpt lat="42.070443" lon="-7.196981">
        <ele>1083.514</ele>
        <time>2020-08-13T06:00:29Z</time>
      </trkpt>
      <trkpt lat="42.071315" lon="-7.197574">
        <ele>1079.279</ele>
        <time>2020-08-13T06:00:58Z</time>
      </trkpt>
      <trkpt lat="42.071737" lon="-7.198100">
        <ele>1077.752</ele>
        <time>2020-08-13T06:01:14Z</time>
      </trkpt>
      <trkpt lat="42.072203" lon="-7.200469">
        <ele>1069.624</ele>
        <time>2020-08-13T06:04:33Z</time>
      </trkpt>
      <trkpt lat="42.073097" lon="-7.202207">
        <ele>1060.986</ele>
        <time>2020-08-13T06:04:52Z</time>
      </trkpt>
      <trkpt lat="42.073666" lon="-7.202786">
        <ele>1057.559</ele>
        <time>2020-08-13T06:05:01Z</time>
      </trkpt>
      <trkpt lat="42.075747" lon="-7.203821">
        <ele>1047.403</ele>
        <time>2020-08-13T06:05:36Z</time>
      </trkpt>
      <trkpt lat="42.075983" lon="-7.204416">
        <ele>1046.523</ele>
        <time>2020-08-13T06:05:47Z</time>
      </trkpt>
      <trkpt lat="42.076223" lon="-7.205852">
        <ele>1047.408</ele>
        <time>2020-08-13T06:06:12Z</time>
      </trkpt>
      <trkpt lat="42.076726" lon="-7.206662">
        <ele>1046.030</ele>
        <time>2020-08-13T06:06:30Z</time>
      </trkpt>
      <trkpt lat="42.077106" lon="-7.207825">
        <ele>1047.439</ele>
        <time>2020-08-13T06:06:57Z</time>
      </trkpt>
      <trkpt lat="42.077678" lon="-7.208721">
        <ele>1052.741</ele>
        <time>2020-08-13T06:07:33Z</time>
      </trkpt>
      <trkpt lat="42.077797" lon="-7.209215">
        <ele>1056.695</ele>
        <time>2020-08-13T06:07:51Z</time>
      </trkpt>
      <trkpt lat="42.077580" lon="-7.210671">
        <ele>1063.890</ele>
        <time>2020-08-13T06:08:47Z</time>
      </trkpt>
      <trkpt lat="42.077016" lon="-7.212564">
        <ele>1066.793</ele>
        <time>2020-08-13T06:09:42Z</time>
      </trkpt>
      <trkpt lat="42.077388" lon="-7.213883">
        <ele>1069.115</ele>
        <time>2020-08-13T06:10:19Z</time>
      </trkpt>
      <trkpt lat="42.077444" lon="-7.214950">
        <ele>1064.317</ele>
        <time>2020-08-13T06:11:21Z</time>
      </trkpt>
      <trkpt lat="42.078932" lon="-7.217165">
        <ele>1067.226</ele>
        <time>2020-08-13T06:12:54Z</time>
      </trkpt>
      <trkpt lat="42.079541" lon="-7.220494">
        <ele>1072.947</ele>
        <time>2020-08-13T06:18:06Z</time>
      </trkpt>
      <trkpt lat="42.079483" lon="-7.221592">
        <ele>1073.911</ele>
        <time>2020-08-13T06:21:20Z</time>
      </trkpt>
      <trkpt lat="42.079479" lon="-7.221407">
        <ele>1076.308</ele>
        <time>2020-08-13T06:22:39Z</time>
      </trkpt>
      <trkpt lat="42.079369" lon="-7.221921">
        <ele>1075.867</ele>
        <time>2020-08-13T06:24:30Z</time>
      </trkpt>
      <trkpt lat="42.079055" lon="-7.222411">
        <ele>1076.346</ele>
        <time>2020-08-13T06:24:48Z</time>
      </trkpt>
      <trkpt lat="42.077657" lon="-7.222909">
        <ele>1067.688</ele>
        <time>2020-08-13T06:25:48Z</time>
      </trkpt>
      <trkpt lat="42.076896" lon="-7.222925">
        <ele>1062.372</ele>
        <time>2020-08-13T06:26:11Z</time>
      </trkpt>
      <trkpt lat="42.076615" lon="-7.225447">
        <ele>1049.487</ele>
        <time>2020-08-13T06:28:33Z</time>
      </trkpt>
      <trkpt lat="42.076162" lon="-7.227182">
        <ele>1044.680</ele>
        <time>2020-08-13T06:28:53Z</time>
      </trkpt>
      <trkpt lat="42.073199" lon="-7.229866">
        <ele>1028.212</ele>
        <time>2020-08-13T06:29:44Z</time>
      </trkpt>
      <trkpt lat="42.071571" lon="-7.229584">
        <ele>1017.214</ele>
        <time>2020-08-13T06:30:09Z</time>
      </trkpt>
      <trkpt lat="42.071183" lon="-7.230959">
        <ele>1013.895</ele>
        <time>2020-08-13T06:30:28Z</time>
      </trkpt>
      <trkpt lat="42.070357" lon="-7.231269">
        <ele>1021.049</ele>
        <time>2020-08-13T06:31:02Z</time>
      </trkpt>
      <trkpt lat="42.069407" lon="-7.232887">
        <ele>1031.623</ele>
        <time>2020-08-13T06:32:20Z</time>
      </trkpt>
      <trkpt lat="42.069336" lon="-7.234280">
        <ele>1027.308</ele>
        <time>2020-08-13T06:32:40Z</time>
      </trkpt>
      <trkpt lat="42.068947" lon="-7.236000">
        <ele>1027.354</ele>
        <time>2020-08-13T06:33:24Z</time>
      </trkpt>
      <trkpt lat="42.067762" lon="-7.237220">
        <ele>1035.983</ele>
        <time>2020-08-13T06:34:20Z</time>
      </trkpt>
      <trkpt lat="42.067010" lon="-7.239226">
        <ele>1037.465</ele>
        <time>2020-08-13T06:35:20Z</time>
      </trkpt>
      <trkpt lat="42.067134" lon="-7.240262">
        <ele>1038.339</ele>
        <time>2020-08-13T06:35:47Z</time>
      </trkpt>
      <trkpt lat="42.068054" lon="-7.241371">
        <ele>1047.434</ele>
        <time>2020-08-13T06:36:47Z</time>
      </trkpt>
      <trkpt lat="42.068704" lon="-7.244108">
        <ele>1058.017</ele>
        <time>2020-08-13T06:38:41Z</time>
      </trkpt>
      <trkpt lat="42.068596" lon="-7.244547">
        <ele>1060.969</ele>
        <time>2020-08-13T06:39:00Z</time>
      </trkpt>
      <trkpt lat="42.067389" lon="-7.245770">
        <ele>1071.011</ele>
        <time>2020-08-13T06:40:22Z</time>
      </trkpt>
      <trkpt lat="42.066365" lon="-7.247795">
        <ele>1079.264</ele>
        <time>2020-08-13T06:43:23Z</time>
      </trkpt>
      <trkpt lat="42.067164" lon="-7.255282">
        <ele>1096.506</ele>
        <time>2020-08-13T06:46:56Z</time>
      </trkpt>
      <trkpt lat="42.066969" lon="-7.257348">
        <ele>1106.616</ele>
        <time>2020-08-13T06:48:14Z</time>
      </trkpt>
      <trkpt lat="42.066403" lon="-7.258539">
        <ele>1104.608</ele>
        <time>2020-08-13T06:48:52Z</time>
      </trkpt>
      <trkpt lat="42.066976" lon="-7.261879">
        <ele>1088.811</ele>
        <time>2020-08-13T06:49:26Z</time>
      </trkpt>
      <trkpt lat="42.066475" lon="-7.265636">
        <ele>1083.550</ele>
        <time>2020-08-13T06:50:10Z</time>
      </trkpt>
      <trkpt lat="42.066157" lon="-7.266549">
        <ele>1085.922</ele>
        <time>2020-08-13T06:50:36Z</time>
      </trkpt>
      <trkpt lat="42.065763" lon="-7.266972">
        <ele>1088.856</ele>
        <time>2020-08-13T06:50:52Z</time>
      </trkpt>
      <trkpt lat="42.065260" lon="-7.267955">
        <ele>1087.881</ele>
        <time>2020-08-13T06:51:20Z</time>
      </trkpt>
      <trkpt lat="42.066176" lon="-7.269265">
        <ele>1092.614</ele>
        <time>2020-08-13T06:54:05Z</time>
      </trkpt>
      <trkpt lat="42.066551" lon="-7.270669">
        <ele>1098.416</ele>
        <time>2020-08-13T06:55:00Z</time>
      </trkpt>
      <trkpt lat="42.067116" lon="-7.271389">
        <ele>1101.318</ele>
        <time>2020-08-13T06:55:38Z</time>
      </trkpt>
      <trkpt lat="42.068049" lon="-7.272150">
        <ele>1105.653</ele>
        <time>2020-08-13T06:56:33Z</time>
      </trkpt>
      <trkpt lat="42.068101" lon="-7.272666">
        <ele>1107.504</ele>
        <time>2020-08-13T06:56:53Z</time>
      </trkpt>
      <trkpt lat="42.067793" lon="-7.273864">
        <ele>1111.914</ele>
        <time>2020-08-13T06:57:41Z</time>
      </trkpt>
      <trkpt lat="42.068259" lon="-7.275599">
        <ele>1115.208</ele>
        <time>2020-08-13T06:58:44Z</time>
      </trkpt>
      <trkpt lat="42.067994" lon="-7.276981">
        <ele>1116.780</ele>
        <time>2020-08-13T06:59:21Z</time>
      </trkpt>
      <trkpt lat="42.068262" lon="-7.278794">
        <ele>1113.359</ele>
        <time>2020-08-13T06:59:55Z</time>
      </trkpt>
      <trkpt lat="42.067721" lon="-7.279872">
        <ele>1109.951</ele>
        <time>2020-08-13T07:00:12Z</time>
      </trkpt>
      <trkpt lat="42.067053" lon="-7.280175">
        <ele>1108.585</ele>
        <time>2020-08-13T07:00:26Z</time>
      </trkpt>
      <trkpt lat="42.065574" lon="-7.282435">
        <ele>1104.260</ele>
        <time>2020-08-13T07:01:11Z</time>
      </trkpt>
      <trkpt lat="42.064325" lon="-7.282184">
        <ele>1094.613</ele>
        <time>2020-08-13T07:01:29Z</time>
      </trkpt>
      <trkpt lat="42.063643" lon="-7.283256">
        <ele>1088.855</ele>
        <time>2020-08-13T07:01:48Z</time>
      </trkpt>
      <trkpt lat="42.062710" lon="-7.284249">
        <ele>1084.037</ele>
        <time>2020-08-13T07:02:08Z</time>
      </trkpt>
      <trkpt lat="42.061969" lon="-7.285776">
        <ele>1073.423</ele>
        <time>2020-08-13T07:02:29Z</time>
      </trkpt>
      <trkpt lat="42.062371" lon="-7.290221">
        <ele>1070.583</ele>
        <time>2020-08-13T07:03:41Z</time>
      </trkpt>
      <trkpt lat="42.062025" lon="-7.292505">
        <ele>1075.311</ele>
        <time>2020-08-13T07:04:32Z</time>
      </trkpt>
      <trkpt lat="42.062050" lon="-7.294898">
        <ele>1075.808</ele>
        <time>2020-08-13T07:05:23Z</time>
      </trkpt>
      <trkpt lat="42.062223" lon="-7.295056">
        <ele>1076.347</ele>
        <time>2020-08-13T07:05:29Z</time>
      </trkpt>
      <trkpt lat="42.063154" lon="-7.295098">
        <ele>1077.236</ele>
        <time>2020-08-13T07:05:56Z</time>
      </trkpt>
      <trkpt lat="42.063482" lon="-7.295521">
        <ele>1076.368</ele>
        <time>2020-08-13T07:06:11Z</time>
      </trkpt>
      <trkpt lat="42.063416" lon="-7.296206">
        <ele>1075.882</ele>
        <time>2020-08-13T07:06:27Z</time>
      </trkpt>
      <trkpt lat="42.062808" lon="-7.297660">
        <ele>1075.357</ele>
        <time>2020-08-13T07:07:01Z</time>
      </trkpt>
      <trkpt lat="42.062793" lon="-7.298477">
        <ele>1074.850</ele>
        <time>2020-08-13T07:07:18Z</time>
      </trkpt>
      <trkpt lat="42.062606" lon="-7.299081">
        <ele>1075.872</ele>
        <time>2020-08-13T07:07:33Z</time>
      </trkpt>
      <trkpt lat="42.062895" lon="-7.299993">
        <ele>1074.444</ele>
        <time>2020-08-13T07:08:43Z</time>
      </trkpt>
      <trkpt lat="42.063360" lon="-7.300361">
        <ele>1075.811</ele>
        <time>2020-08-13T07:09:05Z</time>
      </trkpt>
      <trkpt lat="42.063595" lon="-7.301736">
        <ele>1074.821</ele>
        <time>2020-08-13T07:11:36Z</time>
      </trkpt>
      <trkpt lat="42.063998" lon="-7.302010">
        <ele>1076.303</ele>
        <time>2020-08-13T07:11:49Z</time>
      </trkpt>
      <trkpt lat="42.064247" lon="-7.303504">
        <ele>1072.408</ele>
        <time>2020-08-13T07:12:17Z</time>
      </trkpt>
      <trkpt lat="42.064850" lon="-7.304196">
        <ele>1066.796</ele>
        <time>2020-08-13T07:12:31Z</time>
      </trkpt>
      <trkpt lat="42.064853" lon="-7.305509">
        <ele>1060.435</ele>
        <time>2020-08-13T07:12:45Z</time>
      </trkpt>
      <trkpt lat="42.064497" lon="-7.306078">
        <ele>1057.137</ele>
        <time>2020-08-13T07:12:55Z</time>
      </trkpt>
      <trkpt lat="42.065047" lon="-7.308112">
        <ele>1046.061</ele>
        <time>2020-08-13T07:13:21Z</time>
      </trkpt>
      <trkpt lat="42.065035" lon="-7.308749">
        <ele>1044.616</ele>
        <time>2020-08-13T07:13:27Z</time>
      </trkpt>
      <trkpt lat="42.065243" lon="-7.308859">
        <ele>1043.629</ele>
        <time>2020-08-13T07:13:32Z</time>
      </trkpt>
      <trkpt lat="42.066110" lon="-7.308421">
        <ele>1038.311</ele>
        <time>2020-08-13T07:13:49Z</time>
      </trkpt>
      <trkpt lat="42.066876" lon="-7.308276">
        <ele>1033.593</ele>
        <time>2020-08-13T07:14:02Z</time>
      </trkpt>
      <trkpt lat="42.067279" lon="-7.308604">
        <ele>1031.147</ele>
        <time>2020-08-13T07:14:10Z</time>
      </trkpt>
      <trkpt lat="42.068092" lon="-7.310742">
        <ele>1020.529</ele>
        <time>2020-08-13T07:14:35Z</time>
      </trkpt>
      <trkpt lat="42.066292" lon="-7.311746">
        <ele>1010.421</ele>
        <time>2020-08-13T07:15:07Z</time>
      </trkpt>
      <trkpt lat="42.066236" lon="-7.311994">
        <ele>1009.508</ele>
        <time>2020-08-13T07:15:11Z</time>
      </trkpt>
      <trkpt lat="42.068374" lon="-7.315611">
        <ele>987.899</ele>
        <time>2020-08-13T07:16:09Z</time>
      </trkpt>
      <trkpt lat="42.069369" lon="-7.316496">
        <ele>981.148</ele>
        <time>2020-08-13T07:16:31Z</time>
      </trkpt>
      <trkpt lat="42.070254" lon="-7.316769">
        <ele>981.110</ele>
        <time>2020-08-13T07:20:33Z</time>
      </trkpt>
      <trkpt lat="42.070555" lon="-7.317817">
        <ele>975.344</ele>
        <time>2020-08-13T07:20:49Z</time>
      </trkpt>
      <trkpt lat="42.070292" lon="-7.318813">
        <ele>969.129</ele>
        <time>2020-08-13T07:21:02Z</time>
      </trkpt>
      <trkpt lat="42.068831" lon="-7.320546">
        <ele>956.692</ele>
        <time>2020-08-13T07:21:37Z</time>
      </trkpt>
      <trkpt lat="42.068198" lon="-7.320711">
        <ele>951.864</ele>
        <time>2020-08-13T07:21:48Z</time>
      </trkpt>
      <trkpt lat="42.067619" lon="-7.319910">
        <ele>946.046</ele>
        <time>2020-08-13T07:22:04Z</time>
      </trkpt>
      <trkpt lat="42.066986" lon="-7.319803">
        <ele>943.197</ele>
        <time>2020-08-13T07:22:17Z</time>
      </trkpt>
      <trkpt lat="42.067203" lon="-7.320531">
        <ele>942.723</ele>
        <time>2020-08-13T07:22:32Z</time>
      </trkpt>
      <trkpt lat="42.067205" lon="-7.322957">
        <ele>933.125</ele>
        <time>2020-08-13T07:23:04Z</time>
      </trkpt>
      <trkpt lat="42.067513" lon="-7.323813">
        <ele>926.308</ele>
        <time>2020-08-13T07:23:15Z</time>
      </trkpt>
      <trkpt lat="42.067549" lon="-7.324567">
        <ele>923.084</ele>
        <time>2020-08-13T07:23:25Z</time>
      </trkpt>
      <trkpt lat="42.067222" lon="-7.325556">
        <ele>920.683</ele>
        <time>2020-08-13T07:23:40Z</time>
      </trkpt>
      <trkpt lat="42.066356" lon="-7.326380">
        <ele>913.865</ele>
        <time>2020-08-13T07:23:56Z</time>
      </trkpt>
      <trkpt lat="42.066410" lon="-7.326707">
        <ele>912.949</ele>
        <time>2020-08-13T07:24:01Z</time>
      </trkpt>
      <trkpt lat="42.066968" lon="-7.326923">
        <ele>912.434</ele>
        <time>2020-08-13T07:24:14Z</time>
      </trkpt>
      <trkpt lat="42.067223" lon="-7.327309">
        <ele>913.337</ele>
        <time>2020-08-13T07:24:29Z</time>
      </trkpt>
      <trkpt lat="42.066441" lon="-7.328184">
        <ele>909.529</ele>
        <time>2020-08-13T07:24:58Z</time>
      </trkpt>
      <trkpt lat="42.066273" lon="-7.329186">
        <ele>907.191</ele>
        <time>2020-08-13T07:25:12Z</time>
      </trkpt>
      <trkpt lat="42.065934" lon="-7.329696">
        <ele>906.672</ele>
        <time>2020-08-13T07:25:28Z</time>
      </trkpt>
      <trkpt lat="42.066656" lon="-7.330374">
        <ele>902.813</ele>
        <time>2020-08-13T07:28:38Z</time>
      </trkpt>
      <trkpt lat="42.067265" lon="-7.330652">
        <ele>901.814</ele>
        <time>2020-08-13T07:31:12Z</time>
      </trkpt>
      <trkpt lat="42.067424" lon="-7.331099">
        <ele>902.308</ele>
        <time>2020-08-13T07:31:31Z</time>
      </trkpt>
      <trkpt lat="42.067575" lon="-7.333028">
        <ele>918.282</ele>
        <time>2020-08-13T07:33:04Z</time>
      </trkpt>
      <trkpt lat="42.067459" lon="-7.335567">
        <ele>929.211</ele>
        <time>2020-08-13T07:51:40Z</time>
      </trkpt>
      <trkpt lat="42.067848" lon="-7.337537">
        <ele>945.533</ele>
        <time>2020-08-13T07:53:16Z</time>
      </trkpt>
      <trkpt lat="42.068569" lon="-7.339020">
        <ele>955.687</ele>
        <time>2020-08-13T07:55:03Z</time>
      </trkpt>
      <trkpt lat="42.069067" lon="-7.340882">
        <ele>968.612</ele>
        <time>2020-08-13T07:56:53Z</time>
      </trkpt>
      <trkpt lat="42.069428" lon="-7.341526">
        <ele>972.915</ele>
        <time>2020-08-13T07:57:34Z</time>
      </trkpt>
      <trkpt lat="42.070379" lon="-7.342304">
        <ele>985.447</ele>
        <time>2020-08-13T07:58:34Z</time>
      </trkpt>
      <trkpt lat="42.070624" lon="-7.343310">
        <ele>992.739</ele>
        <time>2020-08-13T07:59:23Z</time>
      </trkpt>
      <trkpt lat="42.071394" lon="-7.344518">
        <ele>999.932</ele>
        <time>2020-08-13T08:00:23Z</time>
      </trkpt>
      <trkpt lat="42.071958" lon="-7.344548">
        <ele>1003.292</ele>
        <time>2020-08-13T08:00:51Z</time>
      </trkpt>
      <trkpt lat="42.072356" lon="-7.344919">
        <ele>1005.211</ele>
        <time>2020-08-13T08:01:17Z</time>
      </trkpt>
      <trkpt lat="42.072253" lon="-7.346393">
        <ele>1002.708</ele>
        <time>2020-08-13T08:03:58Z</time>
      </trkpt>
      <trkpt lat="42.072696" lon="-7.347565">
        <ele>997.528</ele>
        <time>2020-08-13T08:04:40Z</time>
      </trkpt>
      <trkpt lat="42.072770" lon="-7.350351">
        <ele>980.267</ele>
        <time>2020-08-13T08:05:25Z</time>
      </trkpt>
      <trkpt lat="42.072430" lon="-7.353630">
        <ele>969.699</ele>
        <time>2020-08-13T08:05:57Z</time>
      </trkpt>
      <trkpt lat="42.072104" lon="-7.354480">
        <ele>966.713</ele>
        <time>2020-08-13T08:06:14Z</time>
      </trkpt>
      <trkpt lat="42.070943" lon="-7.356516">
        <ele>959.568</ele>
        <time>2020-08-13T08:06:47Z</time>
      </trkpt>
      <trkpt lat="42.070478" lon="-7.357715">
        <ele>955.671</ele>
        <time>2020-08-13T08:07:03Z</time>
      </trkpt>
      <trkpt lat="42.070113" lon="-7.359650">
        <ele>946.553</ele>
        <time>2020-08-13T08:07:20Z</time>
      </trkpt>
      <trkpt lat="42.069581" lon="-7.360287">
        <ele>948.055</ele>
        <time>2020-08-13T08:07:30Z</time>
      </trkpt>
      <trkpt lat="42.069860" lon="-7.361687">
        <ele>937.939</ele>
        <time>2020-08-13T08:07:55Z</time>
      </trkpt>
      <trkpt lat="42.069690" lon="-7.362509">
        <ele>934.001</ele>
        <time>2020-08-13T08:08:54Z</time>
      </trkpt>
      <trkpt lat="42.069908" lon="-7.362917">
        <ele>936.921</ele>
        <time>2020-08-13T08:09:10Z</time>
      </trkpt>
      <trkpt lat="42.068117" lon="-7.367361">
        <ele>956.608</ele>
        <time>2020-08-13T08:12:01Z</time>
      </trkpt>
      <trkpt lat="42.067329" lon="-7.367851">
        <ele>960.018</ele>
        <time>2020-08-13T08:12:46Z</time>
      </trkpt>
      <trkpt lat="42.066983" lon="-7.368866">
        <ele>968.677</ele>
        <time>2020-08-13T08:13:44Z</time>
      </trkpt>
      <trkpt lat="42.067216" lon="-7.370912">
        <ele>983.089</ele>
        <time>2020-08-13T08:15:26Z</time>
      </trkpt>
      <trkpt lat="42.068603" lon="-7.372494">
        <ele>991.763</ele>
        <time>2020-08-13T08:17:04Z</time>
      </trkpt>
      <trkpt lat="42.068429" lon="-7.373080">
        <ele>996.068</ele>
        <time>2020-08-13T08:17:30Z</time>
      </trkpt>
      <trkpt lat="42.067345" lon="-7.373310">
        <ele>990.371</ele>
        <time>2020-08-13T08:17:59Z</time>
      </trkpt>
      <trkpt lat="42.067199" lon="-7.373539">
        <ele>990.363</ele>
        <time>2020-08-13T08:18:06Z</time>
      </trkpt>
      <trkpt lat="42.067399" lon="-7.376793">
        <ele>997.065</ele>
        <time>2020-08-13T08:19:22Z</time>
      </trkpt>
      <trkpt lat="42.067351" lon="-7.380040">
        <ele>1012.882</ele>
        <time>2020-08-13T08:21:42Z</time>
      </trkpt>
      <trkpt lat="42.067704" lon="-7.381801">
        <ele>1009.043</ele>
        <time>2020-08-13T08:23:20Z</time>
      </trkpt>
      <trkpt lat="42.067388" lon="-7.382842">
        <ele>998.917</ele>
        <time>2020-08-13T08:23:52Z</time>
      </trkpt>
      <trkpt lat="42.067454" lon="-7.383957">
        <ele>994.608</ele>
        <time>2020-08-13T08:24:12Z</time>
      </trkpt>
      <trkpt lat="42.068017" lon="-7.385302">
        <ele>985.923</ele>
        <time>2020-08-13T08:24:53Z</time>
      </trkpt>
      <trkpt lat="42.069144" lon="-7.386153">
        <ele>974.982</ele>
        <time>2020-08-13T08:25:32Z</time>
      </trkpt>
      <trkpt lat="42.069409" lon="-7.386628">
        <ele>972.964</ele>
        <time>2020-08-13T08:25:42Z</time>
      </trkpt>
      <trkpt lat="42.069201" lon="-7.387044">
        <ele>970.558</ele>
        <time>2020-08-13T08:25:54Z</time>
      </trkpt>
      <trkpt lat="42.068297" lon="-7.387028">
        <ele>964.383</ele>
        <time>2020-08-13T08:26:31Z</time>
      </trkpt>
      <trkpt lat="42.067611" lon="-7.388010">
        <ele>957.146</ele>
        <time>2020-08-13T08:27:07Z</time>
      </trkpt>
      <trkpt lat="42.067029" lon="-7.388339">
        <ele>950.498</ele>
        <time>2020-08-13T08:27:34Z</time>
      </trkpt>
      <trkpt lat="42.066624" lon="-7.389605">
        <ele>947.060</ele>
        <time>2020-08-13T08:28:09Z</time>
      </trkpt>
      <trkpt lat="42.066805" lon="-7.390931">
        <ele>942.273</ele>
        <time>2020-08-13T08:28:39Z</time>
      </trkpt>
      <trkpt lat="42.067113" lon="-7.391448">
        <ele>941.785</ele>
        <time>2020-08-13T08:28:53Z</time>
      </trkpt>
      <trkpt lat="42.067500" lon="-7.393505">
        <ele>928.713</ele>
        <time>2020-08-13T08:29:25Z</time>
      </trkpt>
      <trkpt lat="42.067319" lon="-7.394415">
        <ele>925.408</ele>
        <time>2020-08-13T08:29:40Z</time>
      </trkpt>
      <trkpt lat="42.067497" lon="-7.395773">
        <ele>915.732</ele>
        <time>2020-08-13T08:30:03Z</time>
      </trkpt>
      <trkpt lat="42.068418" lon="-7.397036">
        <ele>907.631</ele>
        <time>2020-08-13T08:31:38Z</time>
      </trkpt>
      <trkpt lat="42.068564" lon="-7.397530">
        <ele>904.763</ele>
        <time>2020-08-13T08:31:52Z</time>
      </trkpt>
      <trkpt lat="42.068274" lon="-7.400076">
        <ele>891.227</ele>
        <time>2020-08-13T08:36:11Z</time>
      </trkpt>
      <trkpt lat="42.067338" lon="-7.399848">
        <ele>882.112</ele>
        <time>2020-08-13T08:37:33Z</time>
      </trkpt>
      <trkpt lat="42.065871" lon="-7.399836">
        <ele>867.255</ele>
        <time>2020-08-13T08:38:17Z</time>
      </trkpt>
      <trkpt lat="42.065528" lon="-7.400288">
        <ele>867.227</ele>
        <time>2020-08-13T08:38:32Z</time>
      </trkpt>
      <trkpt lat="42.065357" lon="-7.401239">
        <ele>863.499</ele>
        <time>2020-08-13T08:38:57Z</time>
      </trkpt>
      <trkpt lat="42.064541" lon="-7.401516">
        <ele>846.586</ele>
        <time>2020-08-13T08:42:04Z</time>
      </trkpt>
      <trkpt lat="42.063925" lon="-7.402256">
        <ele>843.660</ele>
        <time>2020-08-13T08:42:36Z</time>
      </trkpt>
      <trkpt lat="42.063612" lon="-7.402329">
        <ele>842.726</ele>
        <time>2020-08-13T08:42:43Z</time>
      </trkpt>
      <trkpt lat="42.062825" lon="-7.401860">
        <ele>837.908</ele>
        <time>2020-08-13T08:43:04Z</time>
      </trkpt>
      <trkpt lat="42.061982" lon="-7.401811">
        <ele>830.713</ele>
        <time>2020-08-13T08:43:31Z</time>
      </trkpt>
      <trkpt lat="42.061726" lon="-7.402221">
        <ele>825.982</ele>
        <time>2020-08-13T08:43:49Z</time>
      </trkpt>
      <trkpt lat="42.061859" lon="-7.402586">
        <ele>823.984</ele>
        <time>2020-08-13T08:44:02Z</time>
      </trkpt>
      <trkpt lat="42.062252" lon="-7.402922">
        <ele>821.148</ele>
        <time>2020-08-13T08:44:17Z</time>
      </trkpt>
      <trkpt lat="42.062907" lon="-7.402840">
        <ele>815.893</ele>
        <time>2020-08-13T08:45:06Z</time>
      </trkpt>
      <trkpt lat="42.063398" lon="-7.403588">
        <ele>810.096</ele>
        <time>2020-08-13T08:45:27Z</time>
      </trkpt>
      <trkpt lat="42.064044" lon="-7.404058">
        <ele>803.858</ele>
        <time>2020-08-13T08:45:45Z</time>
      </trkpt>
      <trkpt lat="42.063931" lon="-7.404802">
        <ele>800.460</ele>
        <time>2020-08-13T08:46:08Z</time>
      </trkpt>
      <trkpt lat="42.064149" lon="-7.405511">
        <ele>794.674</ele>
        <time>2020-08-13T08:46:40Z</time>
      </trkpt>
      <trkpt lat="42.063898" lon="-7.406246">
        <ele>791.756</ele>
        <time>2020-08-13T08:47:03Z</time>
      </trkpt>
      <trkpt lat="42.062538" lon="-7.406387">
        <ele>785.021</ele>
        <time>2020-08-13T08:48:06Z</time>
      </trkpt>
      <trkpt lat="42.062300" lon="-7.406559">
        <ele>784.508</ele>
        <time>2020-08-13T08:48:24Z</time>
      </trkpt>
      <trkpt lat="42.061935" lon="-7.407636">
        <ele>775.932</ele>
        <time>2020-08-13T08:49:01Z</time>
      </trkpt>
      <trkpt lat="42.061944" lon="-7.408395">
        <ele>778.351</ele>
        <time>2020-08-13T08:50:58Z</time>
      </trkpt>
      <trkpt lat="42.061405" lon="-7.410291">
        <ele>784.513</ele>
        <time>2020-08-13T08:53:35Z</time>
      </trkpt>
      <trkpt lat="42.062047" lon="-7.411832">
        <ele>773.547</ele>
        <time>2020-08-13T08:54:25Z</time>
      </trkpt>
      <trkpt lat="42.062590" lon="-7.412296">
        <ele>770.192</ele>
        <time>2020-08-13T08:54:38Z</time>
      </trkpt>
      <trkpt lat="42.062725" lon="-7.413285">
        <ele>763.425</ele>
        <time>2020-08-13T08:54:51Z</time>
      </trkpt>
      <trkpt lat="42.063654" lon="-7.412930">
        <ele>759.577</ele>
        <time>2020-08-13T08:55:10Z</time>
      </trkpt>
      <trkpt lat="42.064336" lon="-7.413402">
        <ele>750.999</ele>
        <time>2020-08-13T08:55:22Z</time>
      </trkpt>
      <trkpt lat="42.064749" lon="-7.414292">
        <ele>739.815</ele>
        <time>2020-08-13T08:55:35Z</time>
      </trkpt>
      <trkpt lat="42.065181" lon="-7.414603">
        <ele>735.065</ele>
        <time>2020-08-13T08:55:44Z</time>
      </trkpt>
      <trkpt lat="42.065417" lon="-7.416378">
        <ele>725.911</ele>
        <time>2020-08-13T08:56:03Z</time>
      </trkpt>
      <trkpt lat="42.065354" lon="-7.417048">
        <ele>724.408</ele>
        <time>2020-08-13T08:56:10Z</time>
      </trkpt>
      <trkpt lat="42.064948" lon="-7.417861">
        <ele>719.696</ele>
        <time>2020-08-13T08:56:20Z</time>
      </trkpt>
      <trkpt lat="42.065016" lon="-7.418055">
        <ele>718.785</ele>
        <time>2020-08-13T08:56:23Z</time>
      </trkpt>
      <trkpt lat="42.066589" lon="-7.418372">
        <ele>714.887</ele>
        <time>2020-08-13T08:56:54Z</time>
      </trkpt>
      <trkpt lat="42.066842" lon="-7.418632">
        <ele>711.951</ele>
        <time>2020-08-13T08:56:59Z</time>
      </trkpt>
      <trkpt lat="42.066937" lon="-7.419545">
        <ele>709.546</ele>
        <time>2020-08-13T08:57:10Z</time>
      </trkpt>
      <trkpt lat="42.066705" lon="-7.420630">
        <ele>710.559</ele>
        <time>2020-08-13T08:57:26Z</time>
      </trkpt>
      <trkpt lat="42.066086" lon="-7.421743">
        <ele>710.531</ele>
        <time>2020-08-13T08:57:43Z</time>
      </trkpt>
      <trkpt lat="42.065682" lon="-7.422001">
        <ele>710.593</ele>
        <time>2020-08-13T08:57:55Z</time>
      </trkpt>
      <trkpt lat="42.065093" lon="-7.422928">
        <ele>711.093</ele>
        <time>2020-08-13T08:58:14Z</time>
      </trkpt>
      <trkpt lat="42.064683" lon="-7.423119">
        <ele>706.265</ele>
        <time>2020-08-13T08:58:21Z</time>
      </trkpt>
      <trkpt lat="42.064603" lon="-7.423622">
        <ele>698.521</ele>
        <time>2020-08-13T08:59:40Z</time>
      </trkpt>
      <trkpt lat="42.064975" lon="-7.424817">
        <ele>686.008</ele>
        <time>2020-08-13T09:00:00Z</time>
      </trkpt>
      <trkpt lat="42.065915" lon="-7.425615">
        <ele>678.374</ele>
        <time>2020-08-13T09:00:22Z</time>
      </trkpt>
      <trkpt lat="42.066045" lon="-7.427094">
        <ele>669.733</ele>
        <time>2020-08-13T09:02:03Z</time>
      </trkpt>
      <trkpt lat="42.066686" lon="-7.427193">
        <ele>666.815</ele>
        <time>2020-08-13T09:07:35Z</time>
      </trkpt>
      <trkpt lat="42.067082" lon="-7.427550">
        <ele>662.479</ele>
        <time>2020-08-13T09:07:42Z</time>
      </trkpt>
      <trkpt lat="42.067992" lon="-7.427818">
        <ele>656.264</ele>
        <time>2020-08-13T09:07:57Z</time>
      </trkpt>
      <trkpt lat="42.068375" lon="-7.429104">
        <ele>648.067</ele>
        <time>2020-08-13T09:08:16Z</time>
      </trkpt>
      <trkpt lat="42.067141" lon="-7.431381">
        <ele>633.689</ele>
        <time>2020-08-13T09:08:48Z</time>
      </trkpt>
      <trkpt lat="42.067291" lon="-7.431904">
        <ele>631.721</ele>
        <time>2020-08-13T09:08:56Z</time>
      </trkpt>
      <trkpt lat="42.067992" lon="-7.432671">
        <ele>629.384</ele>
        <time>2020-08-13T09:09:18Z</time>
      </trkpt>
      <trkpt lat="42.067462" lon="-7.433376">
        <ele>624.007</ele>
        <time>2020-08-13T09:09:31Z</time>
      </trkpt>
      <trkpt lat="42.066448" lon="-7.433976">
        <ele>621.117</ele>
        <time>2020-08-13T09:09:55Z</time>
      </trkpt>
      <trkpt lat="42.066741" lon="-7.435026">
        <ele>612.908</ele>
        <time>2020-08-13T09:10:12Z</time>
      </trkpt>
      <trkpt lat="42.066902" lon="-7.436946">
        <ele>599.583</ele>
        <time>2020-08-13T09:10:35Z</time>
      </trkpt>
      <trkpt lat="42.064512" lon="-7.440526">
        <ele>571.122</ele>
        <time>2020-08-13T09:11:22Z</time>
      </trkpt>
      <trkpt lat="42.063972" lon="-7.443397">
        <ele>555.384</ele>
        <time>2020-08-13T09:11:56Z</time>
      </trkpt>
      <trkpt lat="42.064190" lon="-7.444590">
        <ele>544.728</ele>
        <time>2020-08-13T09:12:12Z</time>
      </trkpt>
      <trkpt lat="42.062755" lon="-7.446531">
        <ele>524.543</ele>
        <time>2020-08-13T09:12:39Z</time>
      </trkpt>
      <trkpt lat="42.061666" lon="-7.447707">
        <ele>511.556</ele>
        <time>2020-08-13T09:14:03Z</time>
      </trkpt>
      <trkpt lat="42.061790" lon="-7.447810">
        <ele>509.148</ele>
        <time>2020-08-13T09:14:15Z</time>
      </trkpt>
      <trkpt lat="42.063319" lon="-7.447199">
        <ele>496.140</ele>
        <time>2020-08-13T09:16:17Z</time>
      </trkpt>
      <trkpt lat="42.062885" lon="-7.447961">
        <ele>483.247</ele>
        <time>2020-08-13T09:18:04Z</time>
      </trkpt>
      <trkpt lat="42.063237" lon="-7.448913">
        <ele>475.929</ele>
        <time>2020-08-13T09:18:28Z</time>
      </trkpt>
      <trkpt lat="42.063267" lon="-7.449662">
        <ele>474.021</ele>
        <time>2020-08-13T09:21:08Z</time>
      </trkpt>
      <trkpt lat="42.063639" lon="-7.450175">
        <ele>474.008</ele>
        <time>2020-08-13T09:21:27Z</time>
      </trkpt>
      <trkpt lat="42.061143" lon="-7.457003">
        <ele>476.419</ele>
        <time>2020-08-13T09:25:18Z</time>
      </trkpt>
      <trkpt lat="42.058227" lon="-7.459851">
        <ele>466.848</ele>
        <time>2020-08-13T09:27:16Z</time>
      </trkpt>
      <trkpt lat="42.059497" lon="-7.460150">
        <ele>481.210</ele>
        <time>2020-08-13T09:28:46Z</time>
      </trkpt>
      <trkpt lat="42.060172" lon="-7.460839">
        <ele>481.724</ele>
        <time>2020-08-13T09:29:33Z</time>
      </trkpt>
      <trkpt lat="42.060250" lon="-7.460730">
        <ele>484.129</ele>
        <time>2020-08-13T09:43:26Z</time>
      </trkpt>
      <trkpt lat="42.060967" lon="-7.463057">
        <ele>478.372</ele>
        <time>2020-08-13T09:47:28Z</time>
      </trkpt>
      <trkpt lat="42.061021" lon="-7.464360">
        <ele>474.584</ele>
        <time>2020-08-13T09:48:18Z</time>
      </trkpt>
      <trkpt lat="42.062165" lon="-7.468154">
        <ele>475.566</ele>
        <time>2020-08-13T09:49:47Z</time>
      </trkpt>
      <trkpt lat="42.062952" lon="-7.469896">
        <ele>472.659</ele>
        <time>2020-08-13T09:52:49Z</time>
      </trkpt>
      <trkpt lat="42.063254" lon="-7.471178">
        <ele>474.503</ele>
        <time>2020-08-13T10:08:44Z</time>
      </trkpt>
      <trkpt lat="42.064022" lon="-7.472991">
        <ele>475.923</ele>
        <time>2020-08-13T10:09:34Z</time>
      </trkpt>
      <trkpt lat="42.065224" lon="-7.477431">
        <ele>476.908</ele>
        <time>2020-08-13T10:11:31Z</time>
      </trkpt>
      <trkpt lat="42.065258" lon="-7.478015">
        <ele>479.840</ele>
        <time>2020-08-13T10:12:35Z</time>
      </trkpt>
      <trkpt lat="42.065684" lon="-7.479098">
        <ele>481.279</ele>
        <time>2020-08-13T10:13:22Z</time>
      </trkpt>
      <trkpt lat="42.066148" lon="-7.479767">
        <ele>483.251</ele>
        <time>2020-08-13T10:13:42Z</time>
      </trkpt>
      <trkpt lat="42.070842" lon="-7.483459">
        <ele>488.935</ele>
        <time>2020-08-13T10:16:04Z</time>
      </trkpt>
      <trkpt lat="42.071938" lon="-7.485042">
        <ele>487.070</ele>
        <time>2020-08-13T10:16:50Z</time>
      </trkpt>
      <trkpt lat="42.072746" lon="-7.485790">
        <ele>488.943</ele>
        <time>2020-08-13T10:17:16Z</time>
      </trkpt>
      <trkpt lat="42.073543" lon="-7.486997">
        <ele>484.695</ele>
        <time>2020-08-13T10:17:53Z</time>
      </trkpt>
      <trkpt lat="42.074144" lon="-7.488973">
        <ele>492.357</ele>
        <time>2020-08-13T10:18:41Z</time>
      </trkpt>
      <trkpt lat="42.074813" lon="-7.489977">
        <ele>492.383</ele>
        <time>2020-08-13T10:19:06Z</time>
      </trkpt>
      <trkpt lat="42.077885" lon="-7.496523">
        <ele>504.825</ele>
        <time>2020-08-13T10:21:55Z</time>
      </trkpt>
      <trkpt lat="42.078792" lon="-7.496479">
        <ele>518.717</ele>
        <time>2020-08-13T10:22:38Z</time>
      </trkpt>
      <trkpt lat="42.080555" lon="-7.498391">
        <ele>533.108</ele>
        <time>2020-08-13T10:24:45Z</time>
      </trkpt>
      <trkpt lat="42.081459" lon="-7.499983">
        <ele>539.953</ele>
        <time>2020-08-13T10:26:04Z</time>
      </trkpt>
      <trkpt lat="42.082395" lon="-7.501066">
        <ele>555.352</ele>
        <time>2020-08-13T10:27:16Z</time>
      </trkpt>
      <trkpt lat="42.082591" lon="-7.501617">
        <ele>555.324</ele>
        <time>2020-08-13T10:27:43Z</time>
      </trkpt>
      <trkpt lat="42.082504" lon="-7.503496">
        <ele>560.578</ele>
        <time>2020-08-13T10:29:01Z</time>
      </trkpt>
      <trkpt lat="42.083480" lon="-7.504919">
        <ele>587.573</ele>
        <time>2020-08-13T10:35:32Z</time>
      </trkpt>
      <trkpt lat="42.083338" lon="-7.506828">
        <ele>586.556</ele>
        <time>2020-08-13T10:36:50Z</time>
      </trkpt>
      <trkpt lat="42.084373" lon="-7.508224">
        <ele>593.238</ele>
        <time>2020-08-13T10:38:23Z</time>
      </trkpt>
      <trkpt lat="42.085139" lon="-7.507988">
        <ele>598.570</ele>
        <time>2020-08-13T10:39:08Z</time>
      </trkpt>
      <trkpt lat="42.085824" lon="-7.508426">
        <ele>607.252</ele>
        <time>2020-08-13T10:39:53Z</time>
      </trkpt>
      <trkpt lat="42.085790" lon="-7.508861">
        <ele>605.253</ele>
        <time>2020-08-13T10:40:13Z</time>
      </trkpt>
      <trkpt lat="42.085392" lon="-7.509724">
        <ele>609.108</ele>
        <time>2020-08-13T10:40:52Z</time>
      </trkpt>
      <trkpt lat="42.085372" lon="-7.510474">
        <ele>611.508</ele>
        <time>2020-08-13T10:41:20Z</time>
      </trkpt>
      <trkpt lat="42.085710" lon="-7.511015">
        <ele>615.350</ele>
        <time>2020-08-13T10:41:47Z</time>
      </trkpt>
      <trkpt lat="42.086023" lon="-7.512115">
        <ele>617.379</ele>
        <time>2020-08-13T10:42:31Z</time>
      </trkpt>
      <trkpt lat="42.087584" lon="-7.514632">
        <ele>629.311</ele>
        <time>2020-08-13T10:44:39Z</time>
      </trkpt>
      <trkpt lat="42.088563" lon="-7.515101">
        <ele>641.375</ele>
        <time>2020-08-13T10:45:42Z</time>
      </trkpt>
      <trkpt lat="42.088911" lon="-7.515526">
        <ele>640.850</ele>
        <time>2020-08-13T10:46:12Z</time>
      </trkpt>
      <trkpt lat="42.089315" lon="-7.517055">
        <ele>646.643</ele>
        <time>2020-08-13T10:49:27Z</time>
      </trkpt>
      <trkpt lat="42.089341" lon="-7.517756">
        <ele>649.915</ele>
        <time>2020-08-13T10:49:59Z</time>
      </trkpt>
      <trkpt lat="42.089759" lon="-7.517728">
        <ele>660.027</ele>
        <time>2020-08-13T10:51:58Z</time>
      </trkpt>
      <trkpt lat="42.089918" lon="-7.517951">
        <ele>661.099</ele>
        <time>2020-08-13T10:52:33Z</time>
      </trkpt>
      <trkpt lat="42.089645" lon="-7.518833">
        <ele>665.807</ele>
        <time>2020-08-13T10:53:13Z</time>
      </trkpt>
      <trkpt lat="42.089753" lon="-7.519093">
        <ele>667.227</ele>
        <time>2020-08-13T10:53:26Z</time>
      </trkpt>
      <trkpt lat="42.090387" lon="-7.519129">
        <ele>676.408</ele>
        <time>2020-08-13T10:54:07Z</time>
      </trkpt>
      <trkpt lat="42.090796" lon="-7.519596">
        <ele>678.334</ele>
        <time>2020-08-13T10:54:36Z</time>
      </trkpt>
      <trkpt lat="42.091214" lon="-7.519623">
        <ele>685.023</ele>
        <time>2020-08-13T10:55:01Z</time>
      </trkpt>
      <trkpt lat="42.091605" lon="-7.520405">
        <ele>687.025</ele>
        <time>2020-08-13T10:55:43Z</time>
      </trkpt>
      <trkpt lat="42.091900" lon="-7.520662">
        <ele>690.329</ele>
        <time>2020-08-13T10:56:03Z</time>
      </trkpt>
      <trkpt lat="42.092125" lon="-7.521304">
        <ele>693.724</ele>
        <time>2020-08-13T10:57:33Z</time>
      </trkpt>
      <trkpt lat="42.092786" lon="-7.521445">
        <ele>703.397</ele>
        <time>2020-08-13T10:58:23Z</time>
      </trkpt>
      <trkpt lat="42.092966" lon="-7.522041">
        <ele>706.229</ele>
        <time>2020-08-13T10:58:57Z</time>
      </trkpt>
      <trkpt lat="42.094238" lon="-7.522163">
        <ele>715.821</ele>
        <time>2020-08-13T11:00:06Z</time>
      </trkpt>
      <trkpt lat="42.094953" lon="-7.521794">
        <ele>723.086</ele>
        <time>2020-08-13T11:00:50Z</time>
      </trkpt>
      <trkpt lat="42.095505" lon="-7.522776">
        <ele>729.760</ele>
        <time>2020-08-13T11:03:30Z</time>
      </trkpt>
      <trkpt lat="42.095786" lon="-7.523694">
        <ele>734.126</ele>
        <time>2020-08-13T11:11:10Z</time>
      </trkpt>
      <trkpt lat="42.096484" lon="-7.524035">
        <ele>742.208</ele>
        <time>2020-08-13T11:11:52Z</time>
      </trkpt>
      <trkpt lat="42.096845" lon="-7.524440">
        <ele>745.613</ele>
        <time>2020-08-13T11:12:21Z</time>
      </trkpt>
      <trkpt lat="42.097997" lon="-7.524771">
        <ele>752.892</ele>
        <time>2020-08-13T11:13:33Z</time>
      </trkpt>
      <trkpt lat="42.098327" lon="-7.525260">
        <ele>756.234</ele>
        <time>2020-08-13T11:14:03Z</time>
      </trkpt>
      <trkpt lat="42.098602" lon="-7.526272">
        <ele>758.658</ele>
        <time>2020-08-13T11:14:48Z</time>
      </trkpt>
      <trkpt lat="42.099340" lon="-7.527260">
        <ele>765.333</ele>
        <time>2020-08-13T11:15:48Z</time>
      </trkpt>
      <trkpt lat="42.099960" lon="-7.529277">
        <ele>776.836</ele>
        <time>2020-08-13T11:17:25Z</time>
      </trkpt>
      <trkpt lat="42.100306" lon="-7.529623">
        <ele>779.728</ele>
        <time>2020-08-13T11:18:01Z</time>
      </trkpt>
      <trkpt lat="42.100288" lon="-7.529803">
        <ele>778.870</ele>
        <time>2020-08-13T11:40:39Z</time>
      </trkpt>
      <trkpt lat="42.101329" lon="-7.528471">
        <ele>794.626</ele>
        <time>2020-08-13T12:19:02Z</time>
      </trkpt>
      <trkpt lat="42.102270" lon="-7.528031">
        <ele>795.147</ele>
        <time>2020-08-13T12:20:02Z</time>
      </trkpt>
      <trkpt lat="42.103434" lon="-7.529365">
        <ele>806.611</ele>
        <time>2020-08-13T12:21:32Z</time>
      </trkpt>
      <trkpt lat="42.105224" lon="-7.530581">
        <ele>821.508</ele>
        <time>2020-08-13T12:23:37Z</time>
      </trkpt>
      <trkpt lat="42.106323" lon="-7.532129">
        <ele>836.467</ele>
        <time>2020-08-13T12:25:26Z</time>
      </trkpt>
      <trkpt lat="42.107081" lon="-7.532029">
        <ele>842.216</ele>
        <time>2020-08-13T12:26:14Z</time>
      </trkpt>
      <trkpt lat="42.107707" lon="-7.531662">
        <ele>849.918</ele>
        <time>2020-08-13T12:26:56Z</time>
      </trkpt>
      <trkpt lat="42.108480" lon="-7.532024">
        <ele>852.322</ele>
        <time>2020-08-13T12:27:46Z</time>
      </trkpt>
      <trkpt lat="42.108848" lon="-7.532779">
        <ele>856.657</ele>
        <time>2020-08-13T12:28:28Z</time>
      </trkpt>
      <trkpt lat="42.109513" lon="-7.533266">
        <ele>861.990</ele>
        <time>2020-08-13T12:30:38Z</time>
      </trkpt>
      <trkpt lat="42.110244" lon="-7.534502">
        <ele>873.592</ele>
        <time>2020-08-13T12:31:49Z</time>
      </trkpt>
      <trkpt lat="42.110094" lon="-7.534749">
        <ele>875.494</ele>
        <time>2020-08-13T12:32:04Z</time>
      </trkpt>
      <trkpt lat="42.108915" lon="-7.535097">
        <ele>881.635</ele>
        <time>2020-08-13T12:33:07Z</time>
      </trkpt>
      <trkpt lat="42.107722" lon="-7.535915">
        <ele>885.986</ele>
        <time>2020-08-13T12:33:58Z</time>
      </trkpt>
      <trkpt lat="42.107610" lon="-7.536168">
        <ele>885.514</ele>
        <time>2020-08-13T12:34:05Z</time>
      </trkpt>
      <trkpt lat="42.107834" lon="-7.536647">
        <ele>886.908</ele>
        <time>2020-08-13T12:34:20Z</time>
      </trkpt>
      <trkpt lat="42.109843" lon="-7.538790">
        <ele>894.668</ele>
        <time>2020-08-13T12:35:50Z</time>
      </trkpt>
      <trkpt lat="42.111825" lon="-7.539719">
        <ele>906.627</ele>
        <time>2020-08-13T12:37:12Z</time>
      </trkpt>
      <trkpt lat="42.112601" lon="-7.540959">
        <ele>914.359</ele>
        <time>2020-08-13T12:38:12Z</time>
      </trkpt>
      <trkpt lat="42.114025" lon="-7.541751">
        <ele>922.043</ele>
        <time>2020-08-13T12:39:26Z</time>
      </trkpt>
      <trkpt lat="42.115202" lon="-7.544103">
        <ele>919.138</ele>
        <time>2020-08-13T12:40:37Z</time>
      </trkpt>
      <trkpt lat="42.118355" lon="-7.549266">
        <ele>899.921</ele>
        <time>2020-08-13T12:41:43Z</time>
      </trkpt>
      <trkpt lat="42.122443" lon="-7.551024">
        <ele>907.643</ele>
        <time>2020-08-13T12:45:41Z</time>
      </trkpt>
      <trkpt lat="42.123137" lon="-7.551825">
        <ele>910.925</ele>
        <time>2020-08-13T12:46:22Z</time>
      </trkpt>
      <trkpt lat="42.125190" lon="-7.553408">
        <ele>921.573</ele>
        <time>2020-08-13T12:49:09Z</time>
      </trkpt>
      <trkpt lat="42.127412" lon="-7.555868">
        <ele>932.185</ele>
        <time>2020-08-13T12:51:11Z</time>
      </trkpt>
      <trkpt lat="42.128697" lon="-7.559279">
        <ele>947.513</ele>
        <time>2020-08-13T12:53:37Z</time>
      </trkpt>
      <trkpt lat="42.129822" lon="-7.560868">
        <ele>951.308</ele>
        <time>2020-08-13T12:54:50Z</time>
      </trkpt>
      <trkpt lat="42.130831" lon="-7.563548">
        <ele>946.572</ele>
        <time>2020-08-13T12:56:18Z</time>
      </trkpt>
      <trkpt lat="42.131347" lon="-7.570244">
        <ele>955.261</ele>
        <time>2020-08-13T13:02:36Z</time>
      </trkpt>
      <trkpt lat="42.132222" lon="-7.572317">
        <ele>956.643</ele>
        <time>2020-08-13T13:03:26Z</time>
      </trkpt>
      <trkpt lat="42.135012" lon="-7.575615">
        <ele>953.217</ele>
        <time>2020-08-13T13:05:26Z</time>
      </trkpt>
      <trkpt lat="42.135442" lon="-7.575763">
        <ele>954.792</ele>
        <time>2020-08-13T13:06:14Z</time>
      </trkpt>
      <trkpt lat="42.136978" lon="-7.578070">
        <ele>964.835</ele>
        <time>2020-08-13T13:09:55Z</time>
      </trkpt>
      <trkpt lat="42.138238" lon="-7.578743">
        <ele>950.457</ele>
        <time>2020-08-13T13:12:19Z</time>
      </trkpt>
      <trkpt lat="42.139563" lon="-7.580372">
        <ele>934.069</ele>
        <time>2020-08-13T13:18:42Z</time>
      </trkpt>
      <trkpt lat="42.141719" lon="-7.582073">
        <ele>901.379</ele>
        <time>2020-08-13T13:19:44Z</time>
      </trkpt>
      <trkpt lat="42.142064" lon="-7.582871">
        <ele>896.005</ele>
        <time>2020-08-13T13:19:52Z</time>
      </trkpt>
      <trkpt lat="42.142988" lon="-7.583970">
        <ele>885.525</ele>
        <time>2020-08-13T13:20:04Z</time>
      </trkpt>
      <trkpt lat="42.143802" lon="-7.585286">
        <ele>875.908</ele>
        <time>2020-08-13T13:20:17Z</time>
      </trkpt>
      <trkpt lat="42.144118" lon="-7.585267">
        <ele>873.082</ele>
        <time>2020-08-13T13:20:22Z</time>
      </trkpt>
      <trkpt lat="42.144378" lon="-7.584275">
        <ele>866.231</ele>
        <time>2020-08-13T13:20:32Z</time>
      </trkpt>
      <trkpt lat="42.144086" lon="-7.583375">
        <ele>862.993</ele>
        <time>2020-08-13T13:20:41Z</time>
      </trkpt>
      <trkpt lat="42.144352" lon="-7.583099">
        <ele>861.027</ele>
        <time>2020-08-13T13:20:46Z</time>
      </trkpt>
      <trkpt lat="42.146053" lon="-7.583410">
        <ele>847.022</ele>
        <time>2020-08-13T13:21:02Z</time>
      </trkpt>
      <trkpt lat="42.146931" lon="-7.583952">
        <ele>837.495</ele>
        <time>2020-08-13T13:21:11Z</time>
      </trkpt>
      <trkpt lat="42.148455" lon="-7.583195">
        <ele>827.857</ele>
        <time>2020-08-13T13:21:29Z</time>
      </trkpt>
      <trkpt lat="42.148867" lon="-7.583541">
        <ele>824.959</ele>
        <time>2020-08-13T13:21:34Z</time>
      </trkpt>
      <trkpt lat="42.149619" lon="-7.584921">
        <ele>815.841</ele>
        <time>2020-08-13T13:21:46Z</time>
      </trkpt>
      <trkpt lat="42.150239" lon="-7.585395">
        <ele>808.681</ele>
        <time>2020-08-13T13:21:53Z</time>
      </trkpt>
      <trkpt lat="42.150520" lon="-7.586415">
        <ele>802.309</ele>
        <time>2020-08-13T13:22:01Z</time>
      </trkpt>
      <trkpt lat="42.151256" lon="-7.587434">
        <ele>790.808</ele>
        <time>2020-08-13T13:22:19Z</time>
      </trkpt>
      <trkpt lat="42.150934" lon="-7.587900">
        <ele>790.369</ele>
        <time>2020-08-13T13:23:42Z</time>
      </trkpt>
      <trkpt lat="42.150269" lon="-7.588090">
        <ele>787.928</ele>
        <time>2020-08-13T13:24:04Z</time>
      </trkpt>
      <trkpt lat="42.149271" lon="-7.590259">
        <ele>767.770</ele>
        <time>2020-08-13T13:24:46Z</time>
      </trkpt>
      <trkpt lat="42.149491" lon="-7.592241">
        <ele>750.964</ele>
        <time>2020-08-13T13:25:08Z</time>
      </trkpt>
      <trkpt lat="42.149338" lon="-7.592441">
        <ele>745.679</ele>
        <time>2020-08-13T13:25:12Z</time>
      </trkpt>
      <trkpt lat="42.148831" lon="-7.592502">
        <ele>736.092</ele>
        <time>2020-08-13T13:25:20Z</time>
      </trkpt>
      <trkpt lat="42.148645" lon="-7.592896">
        <ele>728.814</ele>
        <time>2020-08-13T13:25:25Z</time>
      </trkpt>
      <trkpt lat="42.149123" lon="-7.597350">
        <ele>696.186</ele>
        <time>2020-08-13T13:26:55Z</time>
      </trkpt>
      <trkpt lat="42.148836" lon="-7.597687">
        <ele>691.348</ele>
        <time>2020-08-13T13:27:01Z</time>
      </trkpt>
      <trkpt lat="42.148296" lon="-7.597740">
        <ele>687.061</ele>
        <time>2020-08-13T13:27:10Z</time>
      </trkpt>
      <trkpt lat="42.147589" lon="-7.598342">
        <ele>678.817</ele>
        <time>2020-08-13T13:27:22Z</time>
      </trkpt>
      <trkpt lat="42.147184" lon="-7.599524">
        <ele>679.708</ele>
        <time>2020-08-13T13:27:43Z</time>
      </trkpt>
      <trkpt lat="42.145919" lon="-7.601076">
        <ele>672.129</ele>
        <time>2020-08-13T13:28:18Z</time>
      </trkpt>
      <trkpt lat="42.147179" lon="-7.601738">
        <ele>672.158</ele>
        <time>2020-08-13T13:28:56Z</time>
      </trkpt>
      <trkpt lat="42.148014" lon="-7.602468">
        <ele>670.690</ele>
        <time>2020-08-13T13:29:18Z</time>
      </trkpt>
      <trkpt lat="42.148335" lon="-7.602522">
        <ele>669.294</ele>
        <time>2020-08-13T13:29:22Z</time>
      </trkpt>
      <trkpt lat="42.149218" lon="-7.601813">
        <ele>666.379</ele>
        <time>2020-08-13T13:29:34Z</time>
      </trkpt>
      <trkpt lat="42.149889" lon="-7.600733">
        <ele>661.012</ele>
        <time>2020-08-13T13:29:48Z</time>
      </trkpt>
      <trkpt lat="42.150903" lon="-7.600689">
        <ele>657.684</ele>
        <time>2020-08-13T13:30:02Z</time>
      </trkpt>
      <trkpt lat="42.153610" lon="-7.604480">
        <ele>666.886</ele>
        <time>2020-08-13T13:32:01Z</time>
      </trkpt>
      <trkpt lat="42.154783" lon="-7.605200">
        <ele>672.165</ele>
        <time>2020-08-13T13:32:50Z</time>
      </trkpt>
      <trkpt lat="42.155618" lon="-7.606507">
        <ele>669.268</ele>
        <time>2020-08-13T13:33:28Z</time>
      </trkpt>
      <trkpt lat="42.156917" lon="-7.607051">
        <ele>661.014</ele>
        <time>2020-08-13T13:33:55Z</time>
      </trkpt>
      <trkpt lat="42.157739" lon="-7.608418">
        <ele>658.608</ele>
        <time>2020-08-13T13:34:19Z</time>
      </trkpt>
      <trkpt lat="42.160065" lon="-7.610104">
        <ele>660.531</ele>
        <time>2020-08-13T13:37:38Z</time>
      </trkpt>
      <trkpt lat="42.160490" lon="-7.610732">
        <ele>672.180</ele>
        <time>2020-08-13T13:53:54Z</time>
      </trkpt>
      <trkpt lat="42.160304" lon="-7.611446">
        <ele>672.512</ele>
        <time>2020-08-13T13:54:23Z</time>
      </trkpt>
      <trkpt lat="42.160361" lon="-7.612078">
        <ele>669.256</ele>
        <time>2020-08-13T13:54:41Z</time>
      </trkpt>
      <trkpt lat="42.161063" lon="-7.614498">
        <ele>668.251</ele>
        <time>2020-08-13T13:55:34Z</time>
      </trkpt>
      <trkpt lat="42.160985" lon="-7.616521">
        <ele>665.824</ele>
        <time>2020-08-13T13:56:20Z</time>
      </trkpt>
      <trkpt lat="42.161114" lon="-7.616980">
        <ele>663.996</ele>
        <time>2020-08-13T13:56:26Z</time>
      </trkpt>
      <trkpt lat="42.162762" lon="-7.619865">
        <ele>663.438</ele>
        <time>2020-08-13T13:57:28Z</time>
      </trkpt>
      <trkpt lat="42.163620" lon="-7.620645">
        <ele>662.997</ele>
        <time>2020-08-13T13:57:51Z</time>
      </trkpt>
      <trkpt lat="42.164137" lon="-7.621376">
        <ele>663.423</ele>
        <time>2020-08-13T13:58:09Z</time>
      </trkpt>
      <trkpt lat="42.164803" lon="-7.624503">
        <ele>660.025</ele>
        <time>2020-08-13T13:59:09Z</time>
      </trkpt>
      <trkpt lat="42.164755" lon="-7.627173">
        <ele>644.708</ele>
        <time>2020-08-13T13:59:46Z</time>
      </trkpt>
      <trkpt lat="42.164227" lon="-7.628097">
        <ele>642.744</ele>
        <time>2020-08-13T14:00:05Z</time>
      </trkpt>
      <trkpt lat="42.164134" lon="-7.628888">
        <ele>642.783</ele>
        <time>2020-08-13T14:00:18Z</time>
      </trkpt>
      <trkpt lat="42.164518" lon="-7.631989">
        <ele>645.635</ele>
        <time>2020-08-13T14:01:24Z</time>
      </trkpt>
      <trkpt lat="42.164173" lon="-7.633869">
        <ele>648.519</ele>
        <time>2020-08-13T14:02:10Z</time>
      </trkpt>
      <trkpt lat="42.163866" lon="-7.634536">
        <ele>648.534</ele>
        <time>2020-08-13T14:02:28Z</time>
      </trkpt>
      <trkpt lat="42.163280" lon="-7.635193">
        <ele>648.577</ele>
        <time>2020-08-13T14:02:48Z</time>
      </trkpt>
      <trkpt lat="42.162821" lon="-7.636463">
        <ele>647.149</ele>
        <time>2020-08-13T14:03:14Z</time>
      </trkpt>
      <trkpt lat="42.162517" lon="-7.639118">
        <ele>656.771</ele>
        <time>2020-08-13T14:05:04Z</time>
      </trkpt>
      <trkpt lat="42.163105" lon="-7.642065">
        <ele>669.793</ele>
        <time>2020-08-13T14:07:16Z</time>
      </trkpt>
      <trkpt lat="42.163521" lon="-7.643288">
        <ele>667.265</ele>
        <time>2020-08-13T14:07:55Z</time>
      </trkpt>
      <trkpt lat="42.163144" lon="-7.645166">
        <ele>658.121</ele>
        <time>2020-08-13T14:08:41Z</time>
      </trkpt>
      <trkpt lat="42.163209" lon="-7.646239">
        <ele>653.308</ele>
        <time>2020-08-13T14:09:06Z</time>
      </trkpt>
      <trkpt lat="42.163760" lon="-7.647681">
        <ele>639.894</ele>
        <time>2020-08-13T14:09:38Z</time>
      </trkpt>
      <trkpt lat="42.169507" lon="-7.645560">
        <ele>637.083</ele>
        <time>2020-08-13T14:11:58Z</time>
      </trkpt>
      <trkpt lat="42.170084" lon="-7.645585">
        <ele>637.915</ele>
        <time>2020-08-13T14:12:14Z</time>
      </trkpt>
      <trkpt lat="42.172043" lon="-7.658484">
        <ele>629.829</ele>
        <time>2020-08-13T14:15:47Z</time>
      </trkpt>
      <trkpt lat="42.170192" lon="-7.686375">
        <ele>630.214</ele>
        <time>2020-08-13T14:24:00Z</time>
      </trkpt>
      <trkpt lat="42.177498" lon="-7.687476">
        <ele>646.147</ele>
        <time>2020-08-13T14:27:54Z</time>
      </trkpt>
      <trkpt lat="42.177770" lon="-7.687663">
        <ele>648.589</ele>
        <time>2020-08-13T14:28:09Z</time>
      </trkpt>
      <trkpt lat="42.178399" lon="-7.689035">
        <ele>655.711</ele>
        <time>2020-08-13T14:29:09Z</time>
      </trkpt>
      <trkpt lat="42.177812" lon="-7.692267">
        <ele>664.472</ele>
        <time>2020-08-13T14:31:12Z</time>
      </trkpt>
      <trkpt lat="42.177936" lon="-7.694899">
        <ele>666.313</ele>
        <time>2020-08-13T14:32:22Z</time>
      </trkpt>
      <trkpt lat="42.177750" lon="-7.695405">
        <ele>667.714</ele>
        <time>2020-08-13T14:32:37Z</time>
      </trkpt>
      <trkpt lat="42.177138" lon="-7.696010">
        <ele>675.908</ele>
        <time>2020-08-13T14:33:18Z</time>
      </trkpt>
      <trkpt lat="42.175946" lon="-7.699906">
        <ele>694.662</ele>
        <time>2020-08-13T14:37:00Z</time>
      </trkpt>
      <trkpt lat="42.175686" lon="-7.702372">
        <ele>676.951</ele>
        <time>2020-08-13T14:37:28Z</time>
      </trkpt>
      <trkpt lat="42.175665" lon="-7.704628">
        <ele>666.333</ele>
        <time>2020-08-13T14:37:44Z</time>
      </trkpt>
      <trkpt lat="42.175796" lon="-7.705707">
        <ele>662.947</ele>
        <time>2020-08-13T14:37:52Z</time>
      </trkpt>
      <trkpt lat="42.175644" lon="-7.706639">
        <ele>663.412</ele>
        <time>2020-08-13T14:38:04Z</time>
      </trkpt>
      <trkpt lat="42.176496" lon="-7.707733">
        <ele>674.085</ele>
        <time>2020-08-13T14:38:49Z</time>
      </trkpt>
      <trkpt lat="42.177541" lon="-7.710826">
        <ele>688.447</ele>
        <time>2020-08-13T14:41:09Z</time>
      </trkpt>
      <trkpt lat="42.178382" lon="-7.711641">
        <ele>689.849</ele>
        <time>2020-08-13T14:41:51Z</time>
      </trkpt>
      <trkpt lat="42.180174" lon="-7.714738">
        <ele>682.167</ele>
        <time>2020-08-13T14:42:43Z</time>
      </trkpt>
      <trkpt lat="42.180947" lon="-7.715427">
        <ele>682.681</ele>
        <time>2020-08-13T14:43:07Z</time>
      </trkpt>
      <trkpt lat="42.182232" lon="-7.716168">
        <ele>678.819</ele>
        <time>2020-08-13T14:43:39Z</time>
      </trkpt>
      <trkpt lat="42.183473" lon="-7.716502">
        <ele>680.208</ele>
        <time>2020-08-13T14:44:07Z</time>
      </trkpt>
      <trkpt lat="42.184012" lon="-7.717039">
        <ele>682.121</ele>
        <time>2020-08-13T14:44:24Z</time>
      </trkpt>
      <trkpt lat="42.184381" lon="-7.718331">
        <ele>679.350</ele>
        <time>2020-08-13T14:47:26Z</time>
      </trkpt>
      <trkpt lat="42.184807" lon="-7.718630">
        <ele>677.372</ele>
        <time>2020-08-13T14:47:36Z</time>
      </trkpt>
      <trkpt lat="42.186730" lon="-7.721132">
        <ele>668.786</ele>
        <time>2020-08-13T14:48:27Z</time>
      </trkpt>
      <trkpt lat="42.187662" lon="-7.721753">
        <ele>668.721</ele>
        <time>2020-08-13T14:48:47Z</time>
      </trkpt>
      <trkpt lat="42.188456" lon="-7.723003">
        <ele>668.244</ele>
        <time>2020-08-13T14:49:09Z</time>
      </trkpt>
      <trkpt lat="42.188837" lon="-7.723206">
        <ele>667.776</ele>
        <time>2020-08-13T14:49:17Z</time>
      </trkpt>
      <trkpt lat="42.189682" lon="-7.723195">
        <ele>664.418</ele>
        <time>2020-08-13T14:49:31Z</time>
      </trkpt>
      <trkpt lat="42.190642" lon="-7.722293">
        <ele>656.747</ele>
        <time>2020-08-13T14:49:50Z</time>
      </trkpt>
      <trkpt lat="42.191746" lon="-7.722590">
        <ele>654.829</ele>
        <time>2020-08-13T14:50:13Z</time>
      </trkpt>
      <trkpt lat="42.192825" lon="-7.723716">
        <ele>648.021</ele>
        <time>2020-08-13T14:50:32Z</time>
      </trkpt>
      <trkpt lat="42.193699" lon="-7.723891">
        <ele>642.308</ele>
        <time>2020-08-13T14:50:42Z</time>
      </trkpt>
      <trkpt lat="42.194860" lon="-7.724670">
        <ele>632.259</ele>
        <time>2020-08-13T14:50:56Z</time>
      </trkpt>
      <trkpt lat="42.195060" lon="-7.725056">
        <ele>629.338</ele>
        <time>2020-08-13T14:51:00Z</time>
      </trkpt>
      <trkpt lat="42.195344" lon="-7.726744">
        <ele>615.830</ele>
        <time>2020-08-13T14:51:15Z</time>
      </trkpt>
      <trkpt lat="42.195270" lon="-7.728398">
        <ele>610.074</ele>
        <time>2020-08-13T14:51:32Z</time>
      </trkpt>
      <trkpt lat="42.195872" lon="-7.729417">
        <ele>606.259</ele>
        <time>2020-08-13T14:51:49Z</time>
      </trkpt>
      <trkpt lat="42.196339" lon="-7.729503">
        <ele>604.342</ele>
        <time>2020-08-13T14:51:59Z</time>
      </trkpt>
      <trkpt lat="42.197114" lon="-7.729084">
        <ele>600.094</ele>
        <time>2020-08-13T14:52:18Z</time>
      </trkpt>
      <trkpt lat="42.198231" lon="-7.729607">
        <ele>591.846</ele>
        <time>2020-08-13T14:52:35Z</time>
      </trkpt>
      <trkpt lat="42.199517" lon="-7.729807">
        <ele>575.931</ele>
        <time>2020-08-13T14:52:53Z</time>
      </trkpt>
      <trkpt lat="42.200847" lon="-7.730325">
        <ele>565.861</ele>
        <time>2020-08-13T14:53:15Z</time>
      </trkpt>
      <trkpt lat="42.204508" lon="-7.733930">
        <ele>542.807</ele>
        <time>2020-08-13T14:57:01Z</time>
      </trkpt>
      <trkpt lat="42.204563" lon="-7.735249">
        <ele>543.708</ele>
        <time>2020-08-13T15:03:15Z</time>
      </trkpt>
      <trkpt lat="42.204908" lon="-7.735913">
        <ele>550.468</ele>
        <time>2020-08-13T15:04:11Z</time>
      </trkpt>
      <trkpt lat="42.205112" lon="-7.735965">
        <ele>550.417</ele>
        <time>2020-08-13T15:04:36Z</time>
      </trkpt>
      <trkpt lat="42.205380" lon="-7.735104">
        <ele>551.439</ele>
        <time>2020-08-13T15:05:29Z</time>
      </trkpt>
      <trkpt lat="42.205180" lon="-7.734391">
        <ele>557.283</ele>
        <time>2020-08-13T15:07:48Z</time>
      </trkpt>
      <trkpt lat="42.201715" lon="-7.730519">
        <ele>512.528</ele>
        <time>2019-05-30T06:09:12Z</time>
      </trkpt>
      <trkpt lat="42.201963" lon="-7.730365">
        <ele>562.589</ele>
        <time>2019-05-30T06:13:48Z</time>
      </trkpt>
      <trkpt lat="42.202807" lon="-7.730699">
        <ele>552.417</ele>
        <time>2019-05-30T06:14:09Z</time>
      </trkpt>
      <trkpt lat="42.203183" lon="-7.732509">
        <ele>547.108</ele>
        <time>2019-05-30T06:14:37Z</time>
      </trkpt>
      <trkpt lat="42.203417" lon="-7.732941">
        <ele>545.685</ele>
        <time>2019-05-30T06:14:43Z</time>
      </trkpt>
      <trkpt lat="42.204184" lon="-7.733613">
        <ele>545.299</ele>
        <time>2019-05-30T06:14:59Z</time>
      </trkpt>
      <trkpt lat="42.204541" lon="-7.734132">
        <ele>546.694</ele>
        <time>2019-05-30T06:15:14Z</time>
      </trkpt>
      <trkpt lat="42.204736" lon="-7.735657">
        <ele>551.423</ele>
        <time>2019-05-30T06:58:46Z</time>
      </trkpt>
      <trkpt lat="42.204960" lon="-7.735960">
        <ele>550.933</ele>
        <time>2019-05-30T06:58:58Z</time>
      </trkpt>
      <trkpt lat="42.205794" lon="-7.736206">
        <ele>543.710</ele>
        <time>2019-05-30T06:59:14Z</time>
      </trkpt>
      <trkpt lat="42.206060" lon="-7.736423">
        <ele>539.427</ele>
        <time>2019-05-30T07:00:00Z</time>
      </trkpt>
      <trkpt lat="42.205966" lon="-7.736294">
        <ele>540.860</ele>
        <time>2019-05-30T07:00:08Z</time>
      </trkpt>
      <trkpt lat="42.206331" lon="-7.736147">
        <ele>533.613</ele>
        <time>2019-05-30T07:00:21Z</time>
      </trkpt>
      <trkpt lat="42.207170" lon="-7.737565">
        <ele>514.943</ele>
        <time>2019-05-30T07:00:56Z</time>
      </trkpt>
      <trkpt lat="42.208184" lon="-7.738804">
        <ele>501.407</ele>
        <time>2019-05-30T07:02:08Z</time>
      </trkpt>
      <trkpt lat="42.210034" lon="-7.738941">
        <ele>480.708</ele>
        <time>2019-05-30T07:02:37Z</time>
      </trkpt>
      <trkpt lat="42.210967" lon="-7.739180">
        <ele>471.174</ele>
        <time>2019-05-30T07:03:25Z</time>
      </trkpt>
      <trkpt lat="42.211699" lon="-7.739078">
        <ele>470.758</ele>
        <time>2019-05-30T07:04:05Z</time>
      </trkpt>
      <trkpt lat="42.212287" lon="-7.739829">
        <ele>476.473</ele>
        <time>2019-05-30T07:04:48Z</time>
      </trkpt>
      <trkpt lat="42.212594" lon="-7.739985">
        <ele>479.372</ele>
        <time>2019-05-30T07:05:06Z</time>
      </trkpt>
      <trkpt lat="42.212931" lon="-7.739875">
        <ele>482.222</ele>
        <time>2019-05-30T07:05:28Z</time>
      </trkpt>
      <trkpt lat="42.212695" lon="-7.739317">
        <ele>485.189</ele>
        <time>2019-05-30T07:05:55Z</time>
      </trkpt>
      <trkpt lat="42.213073" lon="-7.738891">
        <ele>488.966</ele>
        <time>2019-05-30T07:06:22Z</time>
      </trkpt>
      <trkpt lat="42.217389" lon="-7.739044">
        <ele>521.699</ele>
        <time>2019-05-30T07:10:44Z</time>
      </trkpt>
      <trkpt lat="42.218774" lon="-7.739631">
        <ele>522.612</ele>
        <time>2019-05-30T07:12:19Z</time>
      </trkpt>
      <trkpt lat="42.219573" lon="-7.740278">
        <ele>524.532</ele>
        <time>2019-05-30T07:12:48Z</time>
      </trkpt>
      <trkpt lat="42.219917" lon="-7.741390">
        <ele>523.005</ele>
        <time>2019-05-30T07:13:17Z</time>
      </trkpt>
      <trkpt lat="42.221089" lon="-7.742961">
        <ele>525.908</ele>
        <time>2019-05-30T07:14:13Z</time>
      </trkpt>
      <trkpt lat="42.221155" lon="-7.743556">
        <ele>524.584</ele>
        <time>2019-05-30T07:14:26Z</time>
      </trkpt>
      <trkpt lat="42.221005" lon="-7.744359">
        <ele>523.538</ele>
        <time>2019-05-30T07:14:40Z</time>
      </trkpt>
      <trkpt lat="42.221109" lon="-7.745319">
        <ele>524.513</ele>
        <time>2019-05-30T07:14:58Z</time>
      </trkpt>
      <trkpt lat="42.221368" lon="-7.745974">
        <ele>526.462</ele>
        <time>2019-05-30T07:15:15Z</time>
      </trkpt>
      <trkpt lat="42.221699" lon="-7.746355">
        <ele>529.882</ele>
        <time>2019-05-30T07:15:32Z</time>
      </trkpt>
      <trkpt lat="42.223688" lon="-7.747535">
        <ele>546.179</ele>
        <time>2019-05-30T07:17:04Z</time>
      </trkpt>
      <trkpt lat="42.224371" lon="-7.749021">
        <ele>553.336</ele>
        <time>2019-05-30T07:17:57Z</time>
      </trkpt>
      <trkpt lat="42.227061" lon="-7.751113">
        <ele>549.079</ele>
        <time>2019-05-30T07:19:23Z</time>
      </trkpt>
      <trkpt lat="42.228640" lon="-7.751080">
        <ele>543.259</ele>
        <time>2019-05-30T07:19:52Z</time>
      </trkpt>
      <trkpt lat="42.229916" lon="-7.750480">
        <ele>534.603</ele>
        <time>2019-05-30T07:20:08Z</time>
      </trkpt>
      <trkpt lat="42.231313" lon="-7.750576">
        <ele>543.723</ele>
        <time>2019-05-30T07:20:50Z</time>
      </trkpt>
      <trkpt lat="42.232694" lon="-7.749675">
        <ele>535.508</ele>
        <time>2019-05-30T07:21:19Z</time>
      </trkpt>
      <trkpt lat="42.235026" lon="-7.747472">
        <ele>535.188</ele>
        <time>2019-05-30T07:22:05Z</time>
      </trkpt>
      <trkpt lat="42.236868" lon="-7.744669">
        <ele>533.622</ele>
        <time>2019-05-30T07:22:57Z</time>
      </trkpt>
      <trkpt lat="42.237072" lon="-7.744542">
        <ele>533.197</ele>
        <time>2019-05-30T07:23:02Z</time>
      </trkpt>
      <trkpt lat="42.238869" lon="-7.745110">
        <ele>519.786</ele>
        <time>2019-05-30T07:23:26Z</time>
      </trkpt>
      <trkpt lat="42.239391" lon="-7.744941">
        <ele>515.876</ele>
        <time>2019-05-30T07:23:32Z</time>
      </trkpt>
      <trkpt lat="42.239946" lon="-7.744368">
        <ele>510.133</ele>
        <time>2019-05-30T07:23:39Z</time>
      </trkpt>
      <trkpt lat="42.240339" lon="-7.744333">
        <ele>508.680</ele>
        <time>2019-05-30T07:23:45Z</time>
      </trkpt>
      <trkpt lat="42.240962" lon="-7.745112">
        <ele>506.793</ele>
        <time>2019-05-30T07:23:57Z</time>
      </trkpt>
      <trkpt lat="42.242323" lon="-7.745637">
        <ele>504.358</ele>
        <time>2019-05-30T07:24:19Z</time>
      </trkpt>
      <trkpt lat="42.244159" lon="-7.747099">
        <ele>500.552</ele>
        <time>2019-05-30T07:24:53Z</time>
      </trkpt>
      <trkpt lat="42.245688" lon="-7.747717">
        <ele>489.917</ele>
        <time>2019-05-30T07:25:17Z</time>
      </trkpt>
      <trkpt lat="42.246060" lon="-7.748341">
        <ele>483.108</ele>
        <time>2019-05-30T07:25:27Z</time>
      </trkpt>
      <trkpt lat="42.246736" lon="-7.749055">
        <ele>473.578</ele>
        <time>2019-05-30T07:25:41Z</time>
      </trkpt>
      <trkpt lat="42.246818" lon="-7.749344">
        <ele>468.772</ele>
        <time>2019-05-30T07:25:46Z</time>
      </trkpt>
      <trkpt lat="42.247314" lon="-7.748943">
        <ele>464.917</ele>
        <time>2019-05-30T07:26:06Z</time>
      </trkpt>
      <trkpt lat="42.248334" lon="-7.749366">
        <ele>475.046</ele>
        <time>2019-05-30T07:27:00Z</time>
      </trkpt>
      <trkpt lat="42.250856" lon="-7.752851">
        <ele>475.536</ele>
        <time>2019-05-30T07:28:29Z</time>
      </trkpt>
      <trkpt lat="42.251399" lon="-7.753120">
        <ele>474.553</ele>
        <time>2019-05-30T07:28:48Z</time>
      </trkpt>
      <trkpt lat="42.252144" lon="-7.754359">
        <ele>466.390</ele>
        <time>2019-05-30T07:29:04Z</time>
      </trkpt>
      <trkpt lat="42.252385" lon="-7.755291">
        <ele>460.193</ele>
        <time>2019-05-30T07:29:15Z</time>
      </trkpt>
      <trkpt lat="42.253124" lon="-7.756070">
        <ele>452.986</ele>
        <time>2019-05-30T07:29:26Z</time>
      </trkpt>
      <trkpt lat="42.253745" lon="-7.758118">
        <ele>439.960</ele>
        <time>2019-05-30T07:29:41Z</time>
      </trkpt>
      <trkpt lat="42.253650" lon="-7.758942">
        <ele>437.026</ele>
        <time>2019-05-30T07:29:47Z</time>
      </trkpt>
      <trkpt lat="42.253227" lon="-7.760272">
        <ele>430.308</ele>
        <time>2019-05-30T07:29:57Z</time>
      </trkpt>
      <trkpt lat="42.253227" lon="-7.760870">
        <ele>426.961</ele>
        <time>2019-05-30T07:30:01Z</time>
      </trkpt>
      <trkpt lat="42.253673" lon="-7.763027">
        <ele>414.965</ele>
        <time>2019-05-30T07:30:16Z</time>
      </trkpt>
      <trkpt lat="42.253592" lon="-7.764723">
        <ele>407.220</ele>
        <time>2019-05-30T07:30:29Z</time>
      </trkpt>
      <trkpt lat="42.254508" lon="-7.767149">
        <ele>401.419</ele>
        <time>2019-05-30T07:30:51Z</time>
      </trkpt>
      <trkpt lat="42.255267" lon="-7.768767">
        <ele>398.649</ele>
        <time>2019-05-30T07:31:12Z</time>
      </trkpt>
      <trkpt lat="42.256659" lon="-7.771001">
        <ele>397.176</ele>
        <time>2019-05-30T07:31:52Z</time>
      </trkpt>
      <trkpt lat="42.257905" lon="-7.774330">
        <ele>382.293</ele>
        <time>2019-05-30T07:32:23Z</time>
      </trkpt>
      <trkpt lat="42.258591" lon="-7.775395">
        <ele>378.886</ele>
        <time>2019-05-30T07:32:34Z</time>
      </trkpt>
      <trkpt lat="42.259352" lon="-7.777036">
        <ele>376.057</ele>
        <time>2019-05-30T07:32:52Z</time>
      </trkpt>
      <trkpt lat="42.262130" lon="-7.784367">
        <ele>362.500</ele>
        <time>2019-05-30T07:34:23Z</time>
      </trkpt>
      <trkpt lat="42.261943" lon="-7.786059">
        <ele>357.720</ele>
        <time>2019-05-30T07:34:39Z</time>
      </trkpt>
      <trkpt lat="42.262033" lon="-7.786650">
        <ele>357.208</ele>
        <time>2019-05-30T07:34:45Z</time>
      </trkpt>
      <trkpt lat="42.262905" lon="-7.788594">
        <ele>354.358</ele>
        <time>2019-05-30T07:35:08Z</time>
      </trkpt>
      <trkpt lat="42.263584" lon="-7.790699">
        <ele>352.482</ele>
        <time>2019-05-30T07:35:33Z</time>
      </trkpt>
      <trkpt lat="42.264885" lon="-7.793346">
        <ele>351.417</ele>
        <time>2019-05-30T07:36:13Z</time>
      </trkpt>
      <trkpt lat="42.265249" lon="-7.794382">
        <ele>351.956</ele>
        <time>2019-05-30T07:36:31Z</time>
      </trkpt>
      <trkpt lat="42.265483" lon="-7.796836">
        <ele>352.996</ele>
        <time>2019-05-30T07:37:23Z</time>
      </trkpt>
      <trkpt lat="42.265023" lon="-7.799093">
        <ele>356.333</ele>
        <time>2019-05-30T07:38:16Z</time>
      </trkpt>
      <trkpt lat="42.265594" lon="-7.800575">
        <ele>359.170</ele>
        <time>2019-05-30T07:38:57Z</time>
      </trkpt>
      <trkpt lat="42.266866" lon="-7.802371">
        <ele>356.753</ele>
        <time>2019-05-30T07:39:37Z</time>
      </trkpt>
      <trkpt lat="42.267665" lon="-7.803089">
        <ele>356.395</ele>
        <time>2019-05-30T07:39:57Z</time>
      </trkpt>
      <trkpt lat="42.268857" lon="-7.805145">
        <ele>355.849</ele>
        <time>2019-05-30T07:40:40Z</time>
      </trkpt>
      <trkpt lat="42.269708" lon="-7.806145">
        <ele>354.823</ele>
        <time>2019-05-30T07:41:03Z</time>
      </trkpt>
      <trkpt lat="42.270694" lon="-7.808274">
        <ele>351.408</ele>
        <time>2019-05-30T07:41:42Z</time>
      </trkpt>
      <trkpt lat="42.272272" lon="-7.809856">
        <ele>345.712</ele>
        <time>2019-05-30T07:42:14Z</time>
      </trkpt>
      <trkpt lat="42.274669" lon="-7.813693">
        <ele>334.156</ele>
        <time>2019-05-30T07:43:11Z</time>
      </trkpt>
      <trkpt lat="42.275267" lon="-7.815312">
        <ele>329.391</ele>
        <time>2019-05-30T07:43:30Z</time>
      </trkpt>
      <trkpt lat="42.275631" lon="-7.815625">
        <ele>325.510</ele>
        <time>2019-05-30T07:43:35Z</time>
      </trkpt>
      <trkpt lat="42.277659" lon="-7.815896">
        <ele>315.910</ele>
        <time>2019-05-30T07:43:59Z</time>
      </trkpt>
      <trkpt lat="42.279574" lon="-7.817287">
        <ele>308.217</ele>
        <time>2019-05-30T07:44:27Z</time>
      </trkpt>
      <trkpt lat="42.284052" lon="-7.821566">
        <ele>297.144</ele>
        <time>2019-05-30T07:45:59Z</time>
      </trkpt>
      <trkpt lat="42.284840" lon="-7.822891">
        <ele>296.747</ele>
        <time>2019-05-30T07:46:22Z</time>
      </trkpt>
      <trkpt lat="42.285467" lon="-7.823167">
        <ele>296.753</ele>
        <time>2019-05-30T07:46:35Z</time>
      </trkpt>
      <trkpt lat="42.288670" lon="-7.823749">
        <ele>296.704</ele>
        <time>2019-05-30T07:47:51Z</time>
      </trkpt>
      <trkpt lat="42.288777" lon="-7.823912">
        <ele>296.714</ele>
        <time>2019-05-30T07:48:26Z</time>
      </trkpt>
      <trkpt lat="42.287923" lon="-7.828541">
        <ele>288.008</ele>
        <time>2019-05-30T07:49:45Z</time>
      </trkpt>
      <trkpt lat="42.290271" lon="-7.834644">
        <ele>283.298</ele>
        <time>2019-05-30T07:51:32Z</time>
      </trkpt>
      <trkpt lat="42.290171" lon="-7.834733">
        <ele>283.272</ele>
        <time>2019-05-30T07:51:51Z</time>
      </trkpt>
      <trkpt lat="42.290185" lon="-7.834574">
        <ele>283.227</ele>
        <time>2019-05-30T07:52:53Z</time>
      </trkpt>
      <trkpt lat="42.290323" lon="-7.834570">
        <ele>283.786</ele>
        <time>2019-05-30T07:53:43Z</time>
      </trkpt>
      <trkpt lat="42.290216" lon="-7.834334">
        <ele>284.646</ele>
        <time>2019-05-30T07:54:14Z</time>
      </trkpt>
      <trkpt lat="42.290339" lon="-7.834441">
        <ele>284.683</ele>
        <time>2019-05-30T07:54:24Z</time>
      </trkpt>
      <trkpt lat="42.290812" lon="-7.838001">
        <ele>293.310</ele>
        <time>2019-05-30T08:08:52Z</time>
      </trkpt>
      <trkpt lat="42.291054" lon="-7.838379">
        <ele>295.763</ele>
        <time>2019-05-30T08:09:12Z</time>
      </trkpt>
      <trkpt lat="42.292738" lon="-7.839470">
        <ele>305.827</ele>
        <time>2019-05-30T08:10:32Z</time>
      </trkpt>
      <trkpt lat="42.293747" lon="-7.840533">
        <ele>313.068</ele>
        <time>2019-05-30T08:11:26Z</time>
      </trkpt>
      <trkpt lat="42.294216" lon="-7.840806">
        <ele>315.414</ele>
        <time>2019-05-30T08:11:47Z</time>
      </trkpt>
      <trkpt lat="42.295380" lon="-7.843783">
        <ele>307.708</ele>
        <time>2019-05-30T08:12:46Z</time>
      </trkpt>
      <trkpt lat="42.297045" lon="-7.845223">
        <ele>291.865</ele>
        <time>2019-05-30T08:13:43Z</time>
      </trkpt>
      <trkpt lat="42.299197" lon="-7.848076">
        <ele>254.899</ele>
        <time>2019-05-30T08:14:36Z</time>
      </trkpt>
      <trkpt lat="42.299676" lon="-7.849730">
        <ele>253.484</ele>
        <time>2019-05-30T08:15:10Z</time>
      </trkpt>
      <trkpt lat="42.301114" lon="-7.851053">
        <ele>242.313</ele>
        <time>2019-05-30T08:15:33Z</time>
      </trkpt>
      <trkpt lat="42.301326" lon="-7.851495">
        <ele>240.453</ele>
        <time>2019-05-30T08:15:38Z</time>
      </trkpt>
      <trkpt lat="42.301358" lon="-7.852504">
        <ele>235.150</ele>
        <time>2019-05-30T08:15:53Z</time>
      </trkpt>
      <trkpt lat="42.301544" lon="-7.852813">
        <ele>234.657</ele>
        <time>2019-05-30T08:16:00Z</time>
      </trkpt>
      <trkpt lat="42.301827" lon="-7.852946">
        <ele>232.720</ele>
        <time>2019-05-30T08:16:07Z</time>
      </trkpt>
      <trkpt lat="42.302399" lon="-7.853928">
        <ele>227.435</ele>
        <time>2019-05-30T08:16:34Z</time>
      </trkpt>
      <trkpt lat="42.301977" lon="-7.854284">
        <ele>221.786</ele>
        <time>2019-05-30T08:16:47Z</time>
      </trkpt>
      <trkpt lat="42.302036" lon="-7.854586">
        <ele>220.214</ele>
        <time>2019-05-30T08:16:58Z</time>
      </trkpt>
      <trkpt lat="42.302524" lon="-7.854752">
        <ele>216.408</ele>
        <time>2019-05-30T08:17:11Z</time>
      </trkpt>
      <trkpt lat="42.302894" lon="-7.854502">
        <ele>215.496</ele>
        <time>2019-05-30T08:17:18Z</time>
      </trkpt>
      <trkpt lat="42.303386" lon="-7.853778">
        <ele>216.460</ele>
        <time>2019-05-30T08:17:35Z</time>
      </trkpt>
      <trkpt lat="42.303258" lon="-7.854174">
        <ele>216.425</ele>
        <time>2019-05-30T08:17:48Z</time>
      </trkpt>
      <trkpt lat="42.303609" lon="-7.855172">
        <ele>211.174</ele>
        <time>2019-05-30T08:18:01Z</time>
      </trkpt>
      <trkpt lat="42.304439" lon="-7.855881">
        <ele>210.114</ele>
        <time>2019-05-30T08:18:20Z</time>
      </trkpt>
      <trkpt lat="42.304979" lon="-7.856560">
        <ele>205.321</ele>
        <time>2019-05-30T08:18:45Z</time>
      </trkpt>
      <trkpt lat="42.305808" lon="-7.855774">
        <ele>203.478</ele>
        <time>2019-05-30T08:19:09Z</time>
      </trkpt>
      <trkpt lat="42.306050" lon="-7.855719">
        <ele>205.811</ele>
        <time>2019-05-30T08:19:19Z</time>
      </trkpt>
      <trkpt lat="42.306294" lon="-7.856001">
        <ele>205.379</ele>
        <time>2019-05-30T08:19:34Z</time>
      </trkpt>
      <trkpt lat="42.307054" lon="-7.856242">
        <ele>198.605</ele>
        <time>2019-05-30T08:19:48Z</time>
      </trkpt>
      <trkpt lat="42.307406" lon="-7.856025">
        <ele>196.225</ele>
        <time>2019-05-30T08:19:55Z</time>
      </trkpt>
      <trkpt lat="42.307679" lon="-7.855601">
        <ele>194.308</ele>
        <time>2019-05-30T08:20:02Z</time>
      </trkpt>
      <trkpt lat="42.308125" lon="-7.855480">
        <ele>191.960</ele>
        <time>2019-05-30T08:20:13Z</time>
      </trkpt>
      <trkpt lat="42.311264" lon="-7.858048">
        <ele>165.424</ele>
        <time>2019-05-30T08:20:59Z</time>
      </trkpt>
      <trkpt lat="42.312231" lon="-7.859448">
        <ele>162.699</ele>
        <time>2019-05-30T08:21:27Z</time>
      </trkpt>
      <trkpt lat="42.312763" lon="-7.860652">
        <ele>162.678</ele>
        <time>2019-05-30T08:21:51Z</time>
      </trkpt>
      <trkpt lat="42.313403" lon="-7.861234">
        <ele>162.638</ele>
        <time>2019-05-30T08:22:08Z</time>
      </trkpt>
      <trkpt lat="42.315064" lon="-7.861433">
        <ele>162.195</ele>
        <time>2019-05-30T08:23:01Z</time>
      </trkpt>
      <trkpt lat="42.318404" lon="-7.862171">
        <ele>155.392</ele>
        <time>2019-05-30T08:24:08Z</time>
      </trkpt>
      <trkpt lat="42.320609" lon="-7.862312">
        <ele>153.415</ele>
        <time>2019-05-30T08:25:09Z</time>
      </trkpt>
      <trkpt lat="42.321857" lon="-7.862188">
        <ele>149.154</ele>
        <time>2019-05-30T08:26:13Z</time>
      </trkpt>
      <trkpt lat="42.324431" lon="-7.862563">
        <ele>139.556</ele>
        <time>2019-05-30T08:27:20Z</time>
      </trkpt>
      <trkpt lat="42.326304" lon="-7.862186">
        <ele>146.211</ele>
        <time>2019-05-30T08:28:31Z</time>
      </trkpt>
      <trkpt lat="42.326149" lon="-7.862164">
        <ele>146.708</ele>
        <time>2019-05-30T08:30:19Z</time>
      </trkpt>
      <trkpt lat="42.327889" lon="-7.862195">
        <ele>156.338</ele>
        <time>2019-05-30T08:34:12Z</time>
      </trkpt>
      <trkpt lat="42.332117" lon="-7.861572">
        <ele>170.782</ele>
        <time>2019-05-30T08:37:33Z</time>
      </trkpt>
      <trkpt lat="42.333645" lon="-7.861107">
        <ele>171.237</ele>
        <time>2019-05-30T08:38:22Z</time>
      </trkpt>
      <trkpt lat="42.336360" lon="-7.860944">
        <ele>190.926</ele>
        <time>2019-05-30T08:41:20Z</time>
      </trkpt>
      <trkpt lat="42.336224" lon="-7.860497">
        <ele>191.446</ele>
        <time>2019-05-30T08:41:38Z</time>
      </trkpt>
      <trkpt lat="42.336303" lon="-7.860309">
        <ele>193.893</ele>
        <time>2019-05-30T08:42:47Z</time>
      </trkpt>
      <trkpt lat="42.336159" lon="-7.860567">
        <ele>192.470</ele>
        <time>2019-05-30T08:44:22Z</time>
      </trkpt>
      <trkpt lat="42.336665" lon="-7.860924">
        <ele>193.833</ele>
        <time>2019-05-30T08:48:37Z</time>
      </trkpt>
      <trkpt lat="42.337423" lon="-7.860890">
        <ele>190.466</ele>
        <time>2019-05-30T08:49:06Z</time>
      </trkpt>
      <trkpt lat="42.337902" lon="-7.860600">
        <ele>188.529</ele>
        <time>2019-05-30T08:49:26Z</time>
      </trkpt>
      <trkpt lat="42.338070" lon="-7.860694">
        <ele>187.521</ele>
        <time>2019-05-30T08:49:36Z</time>
      </trkpt>
      <trkpt lat="42.336976" lon="-7.861886">
        <ele>174.608</ele>
        <time>2019-05-30T08:51:42Z</time>
      </trkpt>
      <trkpt lat="42.336245" lon="-7.862133">
        <ele>169.359</ele>
        <time>2019-05-30T08:52:04Z</time>
      </trkpt>
      <trkpt lat="42.336424" lon="-7.862540">
        <ele>165.983</ele>
        <time>2019-05-30T08:52:15Z</time>
      </trkpt>
      <trkpt lat="42.336115" lon="-7.863002">
        <ele>162.128</ele>
        <time>2019-05-30T08:56:39Z</time>
      </trkpt>
      <trkpt lat="42.336202" lon="-7.863545">
        <ele>155.347</ele>
        <time>2019-05-30T09:00:21Z</time>
      </trkpt>
      <trkpt lat="42.335893" lon="-7.863622">
        <ele>152.527</ele>
        <time>2019-05-30T09:00:55Z</time>
      </trkpt>
      <trkpt lat="42.335849" lon="-7.864198">
        <ele>152.084</ele>
        <time>2019-05-30T09:02:27Z</time>
      </trkpt>
      <trkpt lat="42.337456" lon="-7.864896">
        <ele>149.631</ele>
        <time>2019-05-30T09:04:27Z</time>
      </trkpt>
      <trkpt lat="42.341265" lon="-7.864524">
        <ele>158.744</ele>
        <time>2019-05-30T09:11:06Z</time>
      </trkpt>
      <trkpt lat="42.341529" lon="-7.864670">
        <ele>159.271</ele>
        <time>2019-05-30T09:12:19Z</time>
      </trkpt>
      <trkpt lat="42.341693" lon="-7.865013">
        <ele>158.741</ele>
        <time>2019-05-30T09:13:00Z</time>
      </trkpt>
      <trkpt lat="42.341728" lon="-7.866017">
        <ele>156.315</ele>
        <time>2019-05-30T09:13:33Z</time>
      </trkpt>
      <trkpt lat="42.341871" lon="-7.866434">
        <ele>154.408</ele>
        <time>2019-05-30T09:13:48Z</time>
      </trkpt>
      <trkpt lat="42.342708" lon="-7.867328">
        <ele>144.870</ele>
        <time>2019-05-30T09:14:27Z</time>
      </trkpt>
      <trkpt lat="42.343133" lon="-7.867560">
        <ele>141.444</ele>
        <time>2019-05-30T09:15:08Z</time>
      </trkpt>
      <trkpt lat="42.343182" lon="-7.868168">
        <ele>136.669</ele>
        <time>2019-05-30T09:15:27Z</time>
      </trkpt>
      <trkpt lat="42.343639" lon="-7.868592">
        <ele>135.278</ele>
        <time>2019-05-30T09:15:59Z</time>
      </trkpt>
      <trkpt lat="42.344486" lon="-7.868876">
        <ele>136.178</ele>
        <time>2019-05-30T09:17:12Z</time>
      </trkpt>
      <trkpt lat="42.346792" lon="-7.868671">
        <ele>137.615</ele>
        <time>2019-05-30T09:19:04Z</time>
      </trkpt>
      <trkpt lat="42.347824" lon="-7.869497">
        <ele>145.242</ele>
        <time>2019-05-30T09:20:10Z</time>
      </trkpt>
      <trkpt lat="42.348332" lon="-7.868399">
        <ele>149.675</ele>
        <time>2019-05-30T09:20:58Z</time>
      </trkpt>
      <trkpt lat="42.348648" lon="-7.868575">
        <ele>150.525</ele>
        <time>2019-05-30T09:21:14Z</time>
      </trkpt>
      <trkpt lat="42.348846" lon="-7.868375">
        <ele>151.026</ele>
        <time>2019-05-30T09:21:26Z</time>
      </trkpt>
      <trkpt lat="42.349366" lon="-7.866973">
        <ele>161.608</ele>
        <time>2019-05-30T09:22:16Z</time>
      </trkpt>
      <trkpt lat="42.351855" lon="-7.865685">
        <ele>167.808</ele>
        <time>2019-05-30T09:23:52Z</time>
      </trkpt>
      <trkpt lat="42.352758" lon="-7.865391">
        <ele>172.665</ele>
        <time>2019-05-30T09:24:33Z</time>
      </trkpt>
      <trkpt lat="42.354222" lon="-7.865306">
        <ele>177.959</ele>
        <time>2019-05-30T09:25:18Z</time>
      </trkpt>
      <trkpt lat="42.357773" lon="-7.865486">
        <ele>178.984</ele>
        <time>2019-05-30T09:27:05Z</time>
      </trkpt>
      <trkpt lat="42.358002" lon="-7.865241">
        <ele>178.423</ele>
        <time>2019-05-30T09:27:18Z</time>
      </trkpt>
      <trkpt lat="42.358195" lon="-7.865442">
        <ele>177.943</ele>
        <time>2019-05-30T09:33:44Z</time>
      </trkpt>
      <trkpt lat="42.359407" lon="-7.864700">
        <ele>173.120</ele>
        <time>2019-05-30T09:34:24Z</time>
      </trkpt>
      <trkpt lat="42.360908" lon="-7.862959">
        <ele>170.287</ele>
        <time>2019-05-30T09:35:03Z</time>
      </trkpt>
      <trkpt lat="42.362674" lon="-7.862664">
        <ele>183.770</ele>
        <time>2019-05-30T09:36:38Z</time>
      </trkpt>
      <trkpt lat="42.363431" lon="-7.862034">
        <ele>189.923</ele>
        <time>2019-05-30T09:37:31Z</time>
      </trkpt>
      <trkpt lat="42.364474" lon="-7.862172">
        <ele>196.783</ele>
        <time>2019-05-30T09:38:28Z</time>
      </trkpt>
      <trkpt lat="42.365117" lon="-7.861877">
        <ele>202.011</ele>
        <time>2019-05-30T09:39:06Z</time>
      </trkpt>
      <trkpt lat="42.365598" lon="-7.862090">
        <ele>209.708</ele>
        <time>2019-05-30T09:39:35Z</time>
      </trkpt>
      <trkpt lat="42.366268" lon="-7.861902">
        <ele>216.955</ele>
        <time>2019-05-30T09:40:26Z</time>
      </trkpt>
      <trkpt lat="42.366703" lon="-7.861545">
        <ele>221.739</ele>
        <time>2019-05-30T09:40:57Z</time>
      </trkpt>
      <trkpt lat="42.367354" lon="-7.861370">
        <ele>229.874</ele>
        <time>2019-05-30T09:41:38Z</time>
      </trkpt>
      <trkpt lat="42.368244" lon="-7.860665">
        <ele>245.783</ele>
        <time>2019-05-30T09:43:06Z</time>
      </trkpt>
      <trkpt lat="42.367988" lon="-7.860866">
        <ele>244.373</ele>
        <time>2019-05-30T09:44:36Z</time>
      </trkpt>
      <trkpt lat="42.368093" lon="-7.861134">
        <ele>242.310</ele>
        <time>2019-05-30T09:45:04Z</time>
      </trkpt>
      <trkpt lat="42.368456" lon="-7.861117">
        <ele>241.437</ele>
        <time>2019-05-30T09:46:24Z</time>
      </trkpt>
      <trkpt lat="42.368232" lon="-7.861133">
        <ele>238.060</ele>
        <time>2019-05-30T09:59:18Z</time>
      </trkpt>
      <trkpt lat="42.368443" lon="-7.861090">
        <ele>237.112</ele>
        <time>2019-05-30T10:01:19Z</time>
      </trkpt>
      <trkpt lat="42.368237" lon="-7.861119">
        <ele>234.232</ele>
        <time>2019-05-30T10:12:09Z</time>
      </trkpt>
      <trkpt lat="42.368400" lon="-7.861081">
        <ele>234.205</ele>
        <time>2019-05-30T10:14:03Z</time>
      </trkpt>
      <trkpt lat="42.368305" lon="-7.861112">
        <ele>233.708</ele>
        <time>2019-05-30T10:15:47Z</time>
      </trkpt>
      <trkpt lat="42.368264" lon="-7.860655">
        <ele>237.594</ele>
        <time>2019-05-30T10:22:02Z</time>
      </trkpt>
      <trkpt lat="42.368713" lon="-7.860801">
        <ele>246.798</ele>
        <time>2019-05-30T10:23:07Z</time>
      </trkpt>
      <trkpt lat="42.369063" lon="-7.859924">
        <ele>260.113</ele>
        <time>2019-05-30T10:24:27Z</time>
      </trkpt>
      <trkpt lat="42.369288" lon="-7.859817">
        <ele>263.542</ele>
        <time>2019-05-30T10:24:50Z</time>
      </trkpt>
      <trkpt lat="42.370261" lon="-7.860116">
        <ele>276.042</ele>
        <time>2019-05-30T10:26:22Z</time>
      </trkpt>
      <trkpt lat="42.370439" lon="-7.859389">
        <ele>283.759</ele>
        <time>2019-05-30T10:27:11Z</time>
      </trkpt>
      <trkpt lat="42.370595" lon="-7.859335">
        <ele>284.646</ele>
        <time>2019-05-30T10:27:26Z</time>
      </trkpt>
      <trkpt lat="42.370602" lon="-7.859792">
        <ele>289.489</ele>
        <time>2019-05-30T10:27:53Z</time>
      </trkpt>
      <trkpt lat="42.370860" lon="-7.860294">
        <ele>296.773</ele>
        <time>2019-05-30T10:28:30Z</time>
      </trkpt>
      <trkpt lat="42.371253" lon="-7.860451">
        <ele>301.585</ele>
        <time>2019-05-30T10:29:04Z</time>
      </trkpt>
      <trkpt lat="42.371897" lon="-7.860158">
        <ele>308.213</ele>
        <time>2019-05-30T10:30:02Z</time>
      </trkpt>
      <trkpt lat="42.373423" lon="-7.860887">
        <ele>325.008</ele>
        <time>2019-05-30T10:32:08Z</time>
      </trkpt>
      <trkpt lat="42.374167" lon="-7.860995">
        <ele>334.170</ele>
        <time>2019-05-30T10:33:02Z</time>
      </trkpt>
      <trkpt lat="42.375392" lon="-7.862080">
        <ele>349.044</ele>
        <time>2019-05-30T10:34:56Z</time>
      </trkpt>
      <trkpt lat="42.376316" lon="-7.862317">
        <ele>357.789</ele>
        <time>2019-05-30T10:36:05Z</time>
      </trkpt>
      <trkpt lat="42.377084" lon="-7.862725">
        <ele>370.758</ele>
        <time>2019-05-30T10:36:57Z</time>
      </trkpt>
      <trkpt lat="42.377741" lon="-7.862721">
        <ele>377.948</ele>
        <time>2019-05-30T10:37:38Z</time>
      </trkpt>
      <trkpt lat="42.379149" lon="-7.863968">
        <ele>381.785</ele>
        <time>2019-05-30T10:40:16Z</time>
      </trkpt>
      <trkpt lat="42.381202" lon="-7.864774">
        <ele>386.512</ele>
        <time>2019-05-30T10:41:30Z</time>
      </trkpt>
      <trkpt lat="42.382043" lon="-7.865267">
        <ele>389.415</ele>
        <time>2019-05-30T10:42:06Z</time>
      </trkpt>
      <trkpt lat="42.382388" lon="-7.866931">
        <ele>403.462</ele>
        <time>2019-05-30T10:43:20Z</time>
      </trkpt>
      <trkpt lat="42.382585" lon="-7.867208">
        <ele>405.883</ele>
        <time>2019-05-30T10:43:38Z</time>
      </trkpt>
      <trkpt lat="42.384556" lon="-7.867894">
        <ele>410.111</ele>
        <time>2019-05-30T10:45:01Z</time>
      </trkpt>
      <trkpt lat="42.386499" lon="-7.869324">
        <ele>419.708</ele>
        <time>2019-05-30T10:46:31Z</time>
      </trkpt>
      <trkpt lat="42.387127" lon="-7.870004">
        <ele>425.069</ele>
        <time>2019-05-30T10:47:05Z</time>
      </trkpt>
      <trkpt lat="42.387810" lon="-7.871194">
        <ele>426.063</ele>
        <time>2019-05-30T10:47:50Z</time>
      </trkpt>
      <trkpt lat="42.388668" lon="-7.871682">
        <ele>426.018</ele>
        <time>2019-05-30T10:48:22Z</time>
      </trkpt>
      <trkpt lat="42.389235" lon="-7.872855">
        <ele>429.387</ele>
        <time>2019-05-30T10:49:30Z</time>
      </trkpt>
      <trkpt lat="42.391167" lon="-7.873114">
        <ele>427.427</ele>
        <time>2019-05-30T10:50:44Z</time>
      </trkpt>
      <trkpt lat="42.392161" lon="-7.872881">
        <ele>424.534</ele>
        <time>2019-05-30T10:51:12Z</time>
      </trkpt>
      <trkpt lat="42.394202" lon="-7.873048">
        <ele>436.541</ele>
        <time>2019-05-30T10:52:47Z</time>
      </trkpt>
      <trkpt lat="42.395524" lon="-7.872587">
        <ele>451.424</ele>
        <time>2019-05-30T10:54:15Z</time>
      </trkpt>
      <trkpt lat="42.397354" lon="-7.872708">
        <ele>465.819</ele>
        <time>2019-05-30T11:12:04Z</time>
      </trkpt>
      <trkpt lat="42.397540" lon="-7.873764">
        <ele>474.509</ele>
        <time>2019-05-30T11:12:53Z</time>
      </trkpt>
      <trkpt lat="42.397902" lon="-7.874667">
        <ele>480.319</ele>
        <time>2019-05-30T11:13:33Z</time>
      </trkpt>
      <trkpt lat="42.399380" lon="-7.876430">
        <ele>478.808</ele>
        <time>2019-05-30T11:14:53Z</time>
      </trkpt>
      <trkpt lat="42.403402" lon="-7.877622">
        <ele>477.474</ele>
        <time>2019-05-30T11:16:15Z</time>
      </trkpt>
      <trkpt lat="42.405944" lon="-7.878885">
        <ele>482.718</ele>
        <time>2019-05-30T11:17:32Z</time>
      </trkpt>
      <trkpt lat="42.406434" lon="-7.879425">
        <ele>482.713</ele>
        <time>2019-05-30T11:17:48Z</time>
      </trkpt>
      <trkpt lat="42.407807" lon="-7.880145">
        <ele>484.612</ele>
        <time>2019-05-30T11:18:29Z</time>
      </trkpt>
      <trkpt lat="42.409553" lon="-7.881531">
        <ele>485.662</ele>
        <time>2019-05-30T11:19:17Z</time>
      </trkpt>
      <trkpt lat="42.410161" lon="-7.881845">
        <ele>483.689</ele>
        <time>2019-05-30T11:19:34Z</time>
      </trkpt>
      <trkpt lat="42.411948" lon="-7.884227">
        <ele>476.436</ele>
        <time>2019-05-30T11:20:22Z</time>
      </trkpt>
      <trkpt lat="42.412795" lon="-7.885006">
        <ele>473.559</ele>
        <time>2019-05-30T11:20:36Z</time>
      </trkpt>
      <trkpt lat="42.414114" lon="-7.885251">
        <ele>465.455</ele>
        <time>2019-05-30T11:20:52Z</time>
      </trkpt>
      <trkpt lat="42.415654" lon="-7.885029">
        <ele>453.807</ele>
        <time>2019-05-30T11:21:08Z</time>
      </trkpt>
      <trkpt lat="42.416011" lon="-7.885116">
        <ele>453.317</ele>
        <time>2019-05-30T11:21:13Z</time>
      </trkpt>
      <trkpt lat="42.417994" lon="-7.887176">
        <ele>429.808</ele>
        <time>2019-05-30T11:21:41Z</time>
      </trkpt>
      <trkpt lat="42.418500" lon="-7.888037">
        <ele>424.558</ele>
        <time>2019-05-30T11:21:48Z</time>
      </trkpt>
      <trkpt lat="42.419621" lon="-7.889127">
        <ele>421.692</ele>
        <time>2019-05-30T11:22:13Z</time>
      </trkpt>
      <trkpt lat="42.420690" lon="-7.889081">
        <ele>413.967</ele>
        <time>2019-05-30T11:22:28Z</time>
      </trkpt>
      <trkpt lat="42.421201" lon="-7.889356">
        <ele>413.096</ele>
        <time>2019-05-30T11:22:35Z</time>
      </trkpt>
      <trkpt lat="42.422444" lon="-7.891731">
        <ele>413.976</ele>
        <time>2019-05-30T11:23:24Z</time>
      </trkpt>
      <trkpt lat="42.423855" lon="-7.893800">
        <ele>418.393</ele>
        <time>2019-05-30T11:24:17Z</time>
      </trkpt>
      <trkpt lat="42.424048" lon="-7.893765">
        <ele>419.780</ele>
        <time>2019-05-30T11:24:30Z</time>
      </trkpt>
      <trkpt lat="42.424523" lon="-7.895367">
        <ele>424.063</ele>
        <time>2019-05-30T11:25:12Z</time>
      </trkpt>
      <trkpt lat="42.424909" lon="-7.896144">
        <ele>427.418</ele>
        <time>2019-05-30T11:25:38Z</time>
      </trkpt>
      <trkpt lat="42.425661" lon="-7.896840">
        <ele>429.398</ele>
        <time>2019-05-30T11:26:24Z</time>
      </trkpt>
      <trkpt lat="42.425858" lon="-7.897432">
        <ele>431.717</ele>
        <time>2019-05-30T11:26:42Z</time>
      </trkpt>
      <trkpt lat="42.426063" lon="-7.899483">
        <ele>435.608</ele>
        <time>2019-05-30T11:27:26Z</time>
      </trkpt>
      <trkpt lat="42.426638" lon="-7.901430">
        <ele>446.194</ele>
        <time>2019-05-30T11:28:14Z</time>
      </trkpt>
      <trkpt lat="42.427074" lon="-7.902269">
        <ele>450.078</ele>
        <time>2019-05-30T11:29:48Z</time>
      </trkpt>
      <trkpt lat="42.427792" lon="-7.902815">
        <ele>453.893</ele>
        <time>2019-05-30T11:30:27Z</time>
      </trkpt>
      <trkpt lat="42.428525" lon="-7.904099">
        <ele>460.652</ele>
        <time>2019-05-30T11:31:19Z</time>
      </trkpt>
      <trkpt lat="42.428809" lon="-7.904343">
        <ele>462.592</ele>
        <time>2019-05-30T11:31:33Z</time>
      </trkpt>
      <trkpt lat="42.429470" lon="-7.904550">
        <ele>464.479</ele>
        <time>2019-05-30T11:32:02Z</time>
      </trkpt>
      <trkpt lat="42.432183" lon="-7.907773">
        <ele>454.886</ele>
        <time>2019-05-30T11:34:25Z</time>
      </trkpt>
      <trkpt lat="42.432391" lon="-7.908299">
        <ele>454.349</ele>
        <time>2019-05-30T11:34:42Z</time>
      </trkpt>
      <trkpt lat="42.433108" lon="-7.908872">
        <ele>451.458</ele>
        <time>2019-05-30T11:35:02Z</time>
      </trkpt>
      <trkpt lat="42.433362" lon="-7.909367">
        <ele>451.452</ele>
        <time>2019-05-30T11:35:17Z</time>
      </trkpt>
      <trkpt lat="42.434211" lon="-7.909699">
        <ele>455.817</ele>
        <time>2019-05-30T11:35:57Z</time>
      </trkpt>
      <trkpt lat="42.436181" lon="-7.913496">
        <ele>431.708</ele>
        <time>2019-05-30T11:39:10Z</time>
      </trkpt>
      <trkpt lat="42.436837" lon="-7.914172">
        <ele>431.778</ele>
        <time>2019-05-30T11:39:22Z</time>
      </trkpt>
      <trkpt lat="42.437934" lon="-7.915802">
        <ele>435.612</ele>
        <time>2019-05-30T11:40:09Z</time>
      </trkpt>
      <trkpt lat="42.438584" lon="-7.916449">
        <ele>433.217</ele>
        <time>2019-05-30T11:40:21Z</time>
      </trkpt>
      <trkpt lat="42.439563" lon="-7.917087">
        <ele>434.636</ele>
        <time>2019-05-30T11:40:48Z</time>
      </trkpt>
      <trkpt lat="42.440874" lon="-7.919107">
        <ele>444.256</ele>
        <time>2019-05-30T11:42:14Z</time>
      </trkpt>
      <trkpt lat="42.441183" lon="-7.919961">
        <ele>446.173</ele>
        <time>2019-05-30T11:42:45Z</time>
      </trkpt>
      <trkpt lat="42.441401" lon="-7.921639">
        <ele>446.150</ele>
        <time>2019-05-30T11:43:19Z</time>
      </trkpt>
      <trkpt lat="42.442015" lon="-7.923473">
        <ele>441.833</ele>
        <time>2019-05-30T11:43:44Z</time>
      </trkpt>
      <trkpt lat="42.442783" lon="-7.924988">
        <ele>436.534</ele>
        <time>2019-05-30T11:44:02Z</time>
      </trkpt>
      <trkpt lat="42.444135" lon="-7.926870">
        <ele>427.955</ele>
        <time>2019-05-30T11:44:31Z</time>
      </trkpt>
      <trkpt lat="42.444241" lon="-7.927592">
        <ele>424.010</ele>
        <time>2019-05-30T11:44:44Z</time>
      </trkpt>
      <trkpt lat="42.444496" lon="-7.927863">
        <ele>421.108</ele>
        <time>2019-05-30T11:44:49Z</time>
      </trkpt>
      <trkpt lat="42.445275" lon="-7.929465">
        <ele>409.686</ele>
        <time>2019-05-30T11:45:10Z</time>
      </trkpt>
      <trkpt lat="42.445600" lon="-7.930594">
        <ele>400.520</ele>
        <time>2019-05-30T11:45:32Z</time>
      </trkpt>
      <trkpt lat="42.446218" lon="-7.931146">
        <ele>396.635</ele>
        <time>2019-05-30T11:45:46Z</time>
      </trkpt>
      <trkpt lat="42.447364" lon="-7.932696">
        <ele>389.964</ele>
        <time>2019-05-30T11:46:15Z</time>
      </trkpt>
      <trkpt lat="42.448794" lon="-7.933901">
        <ele>386.144</ele>
        <time>2019-05-30T11:46:47Z</time>
      </trkpt>
      <trkpt lat="42.449301" lon="-7.933610">
        <ele>383.711</ele>
        <time>2019-05-30T11:47:12Z</time>
      </trkpt>
      <trkpt lat="42.452034" lon="-7.934852">
        <ele>392.348</ele>
        <time>2019-05-30T11:48:50Z</time>
      </trkpt>
      <trkpt lat="42.454263" lon="-7.933996">
        <ele>410.651</ele>
        <time>2019-05-30T11:50:20Z</time>
      </trkpt>
      <trkpt lat="42.454487" lon="-7.934028">
        <ele>412.082</ele>
        <time>2019-05-30T11:50:35Z</time>
      </trkpt>
      <trkpt lat="42.455148" lon="-7.934714">
        <ele>420.743</ele>
        <time>2019-05-30T11:51:22Z</time>
      </trkpt>
      <trkpt lat="42.455711" lon="-7.936253">
        <ele>430.817</ele>
        <time>2019-05-30T11:55:30Z</time>
      </trkpt>
      <trkpt lat="42.456483" lon="-7.937410">
        <ele>441.308</ele>
        <time>2019-05-30T11:56:57Z</time>
      </trkpt>
      <trkpt lat="42.456716" lon="-7.938865">
        <ele>447.121</ele>
        <time>2019-05-30T11:58:09Z</time>
      </trkpt>
      <trkpt lat="42.456527" lon="-7.940519">
        <ele>455.815</ele>
        <time>2019-05-30T12:00:00Z</time>
      </trkpt>
      <trkpt lat="42.456643" lon="-7.942824">
        <ele>459.160</ele>
        <time>2019-05-30T12:01:18Z</time>
      </trkpt>
      <trkpt lat="42.456542" lon="-7.944796">
        <ele>472.629</ele>
        <time>2019-05-30T12:02:49Z</time>
      </trkpt>
      <trkpt lat="42.455878" lon="-7.947100">
        <ele>478.399</ele>
        <time>2019-05-30T12:06:07Z</time>
      </trkpt>
      <trkpt lat="42.456201" lon="-7.949187">
        <ele>479.366</ele>
        <time>2019-05-30T12:06:51Z</time>
      </trkpt>
      <trkpt lat="42.457301" lon="-7.950844">
        <ele>483.173</ele>
        <time>2019-05-30T12:07:54Z</time>
      </trkpt>
      <trkpt lat="42.457732" lon="-7.952293">
        <ele>484.166</ele>
        <time>2019-05-30T12:08:40Z</time>
      </trkpt>
      <trkpt lat="42.458324" lon="-7.956402">
        <ele>481.763</ele>
        <time>2019-05-30T12:10:10Z</time>
      </trkpt>
      <trkpt lat="42.458664" lon="-7.957562">
        <ele>477.944</ele>
        <time>2019-05-30T12:10:31Z</time>
      </trkpt>
      <trkpt lat="42.459829" lon="-7.958436">
        <ele>466.318</ele>
        <time>2019-05-30T12:11:06Z</time>
      </trkpt>
      <trkpt lat="42.461505" lon="-7.960639">
        <ele>471.108</ele>
        <time>2019-05-30T12:12:38Z</time>
      </trkpt>
      <trkpt lat="42.462163" lon="-7.961289">
        <ele>474.099</ele>
        <time>2019-05-30T12:13:09Z</time>
      </trkpt>
      <trkpt lat="42.462592" lon="-7.962809">
        <ele>471.173</ele>
        <time>2019-05-30T12:13:41Z</time>
      </trkpt>
      <trkpt lat="42.462850" lon="-7.965250">
        <ele>489.978</ele>
        <time>2019-05-30T12:15:15Z</time>
      </trkpt>
      <trkpt lat="42.463967" lon="-7.968328">
        <ele>496.667</ele>
        <time>2019-05-30T12:16:52Z</time>
      </trkpt>
      <trkpt lat="42.463757" lon="-7.968991">
        <ele>495.637</ele>
        <time>2019-05-30T12:17:07Z</time>
      </trkpt>
      <trkpt lat="42.463855" lon="-7.969983">
        <ele>496.194</ele>
        <time>2019-05-30T12:17:29Z</time>
      </trkpt>
      <trkpt lat="42.463700" lon="-7.972797">
        <ele>501.451</ele>
        <time>2019-05-30T12:20:44Z</time>
      </trkpt>
      <trkpt lat="42.464202" lon="-7.973721">
        <ele>500.994</ele>
        <time>2019-05-30T12:21:14Z</time>
      </trkpt>
      <trkpt lat="42.464332" lon="-7.974591">
        <ele>500.536</ele>
        <time>2019-05-30T12:21:29Z</time>
      </trkpt>
      <trkpt lat="42.464619" lon="-7.975030">
        <ele>499.017</ele>
        <time>2019-05-30T12:21:39Z</time>
      </trkpt>
      <trkpt lat="42.465174" lon="-7.975484">
        <ele>499.518</ele>
        <time>2019-05-30T12:21:53Z</time>
      </trkpt>
      <trkpt lat="42.466616" lon="-7.975540">
        <ele>506.208</ele>
        <time>2019-05-30T12:22:36Z</time>
      </trkpt>
      <trkpt lat="42.468115" lon="-7.977771">
        <ele>513.456</ele>
        <time>2019-05-30T12:23:45Z</time>
      </trkpt>
      <trkpt lat="42.468428" lon="-7.978928">
        <ele>517.390</ele>
        <time>2019-05-30T12:24:15Z</time>
      </trkpt>
      <trkpt lat="42.468848" lon="-7.981494">
        <ele>517.865</ele>
        <time>2019-05-30T12:25:14Z</time>
      </trkpt>
      <trkpt lat="42.469425" lon="-7.982845">
        <ele>513.944</ele>
        <time>2019-05-30T12:25:40Z</time>
      </trkpt>
      <trkpt lat="42.470346" lon="-7.983969">
        <ele>517.314</ele>
        <time>2019-05-30T12:26:25Z</time>
      </trkpt>
      <trkpt lat="42.470507" lon="-7.984969">
        <ele>517.321</ele>
        <time>2019-05-30T12:26:53Z</time>
      </trkpt>
      <trkpt lat="42.470843" lon="-7.985348">
        <ele>516.818</ele>
        <time>2019-05-30T12:27:08Z</time>
      </trkpt>
      <trkpt lat="42.471214" lon="-7.985383">
        <ele>516.871</ele>
        <time>2019-05-30T12:27:17Z</time>
      </trkpt>
      <trkpt lat="42.471379" lon="-7.985110">
        <ele>520.249</ele>
        <time>2019-05-30T12:27:31Z</time>
      </trkpt>
      <trkpt lat="42.471705" lon="-7.985001">
        <ele>520.602</ele>
        <time>2019-05-30T12:27:46Z</time>
      </trkpt>
      <trkpt lat="42.472834" lon="-7.985070">
        <ele>516.822</ele>
        <time>2019-05-30T12:28:12Z</time>
      </trkpt>
      <trkpt lat="42.473267" lon="-7.985875">
        <ele>517.808</ele>
        <time>2019-05-30T12:28:44Z</time>
      </trkpt>
      <trkpt lat="42.473542" lon="-7.985922">
        <ele>521.617</ele>
        <time>2019-05-30T12:29:16Z</time>
      </trkpt>
      <trkpt lat="42.474441" lon="-7.984882">
        <ele>530.361</ele>
        <time>2019-05-30T12:30:29Z</time>
      </trkpt>
      <trkpt lat="42.475560" lon="-7.985521">
        <ele>534.616</ele>
        <time>2019-05-30T12:32:46Z</time>
      </trkpt>
      <trkpt lat="42.475109" lon="-7.985330">
        <ele>533.175</ele>
        <time>2019-05-30T12:33:17Z</time>
      </trkpt>
      <trkpt lat="42.475135" lon="-7.984753">
        <ele>535.545</ele>
        <time>2019-05-30T12:33:44Z</time>
      </trkpt>
      <trkpt lat="42.475368" lon="-7.984634">
        <ele>537.522</ele>
        <time>2019-05-30T12:39:48Z</time>
      </trkpt>
      <trkpt lat="42.475285" lon="-7.984482">
        <ele>537.549</ele>
        <time>2019-05-30T12:42:16Z</time>
      </trkpt>
      <trkpt lat="42.475450" lon="-7.984693">
        <ele>539.962</ele>
        <time>2019-05-30T12:47:13Z</time>
      </trkpt>
      <trkpt lat="42.475346" lon="-7.984609">
        <ele>540.827</ele>
        <time>2019-05-30T12:49:06Z</time>
      </trkpt>
      <trkpt lat="42.475203" lon="-7.984726">
        <ele>541.368</ele>
        <time>2019-05-30T12:51:36Z</time>
      </trkpt>
      <trkpt lat="42.475400" lon="-7.984682">
        <ele>541.814</ele>
        <time>2019-05-30T12:52:33Z</time>
      </trkpt>
      <trkpt lat="42.475296" lon="-7.984574">
        <ele>543.208</ele>
        <time>2019-05-30T12:53:41Z</time>
      </trkpt>
      <trkpt lat="42.475482" lon="-7.984641">
        <ele>544.765</ele>
        <time>2019-05-30T12:58:47Z</time>
      </trkpt>
      <trkpt lat="42.475369" lon="-7.984539">
        <ele>545.639</ele>
        <time>2019-05-30T12:59:32Z</time>
      </trkpt>
      <trkpt lat="42.475484" lon="-7.984714">
        <ele>546.164</ele>
        <time>2019-05-30T13:09:22Z</time>
      </trkpt>
      <trkpt lat="42.475302" lon="-7.984672">
        <ele>547.143</ele>
        <time>2019-05-30T13:10:55Z</time>
      </trkpt>
      <trkpt lat="42.475375" lon="-7.984749">
        <ele>547.143</ele>
        <time>2019-05-30T13:11:34Z</time>
      </trkpt>
      <trkpt lat="42.475307" lon="-7.984590">
        <ele>550.440</ele>
        <time>2019-05-30T13:16:00Z</time>
      </trkpt>
      <trkpt lat="42.475445" lon="-7.984631">
        <ele>552.437</ele>
        <time>2019-05-30T13:24:52Z</time>
      </trkpt>
      <trkpt lat="42.475328" lon="-7.984522">
        <ele>552.420</ele>
        <time>2019-05-30T13:25:31Z</time>
      </trkpt>
      <trkpt lat="42.475425" lon="-7.984713">
        <ele>551.961</ele>
        <time>2019-05-30T13:33:55Z</time>
      </trkpt>
      <trkpt lat="42.475158" lon="-7.984670">
        <ele>547.621</ele>
        <time>2019-05-30T13:48:39Z</time>
      </trkpt>
      <trkpt lat="42.475449" lon="-7.984510">
        <ele>548.013</ele>
        <time>2019-05-30T13:51:12Z</time>
      </trkpt>
      <trkpt lat="42.475395" lon="-7.984647">
        <ele>548.508</ele>
        <time>2019-05-30T13:52:47Z</time>
      </trkpt>
      <trkpt lat="42.475274" lon="-7.984487">
        <ele>550.059</ele>
        <time>2019-05-30T13:57:13Z</time>
      </trkpt>
      <trkpt lat="42.475452" lon="-7.984707">
        <ele>549.593</ele>
        <time>2019-05-30T14:03:07Z</time>
      </trkpt>
      <trkpt lat="42.475027" lon="-7.984894">
        <ele>537.038</ele>
        <time>2019-05-30T14:14:27Z</time>
      </trkpt>
      <trkpt lat="42.475003" lon="-7.984800">
        <ele>540.397</ele>
        <time>2019-05-30T14:15:06Z</time>
      </trkpt>
      <trkpt lat="42.475626" lon="-7.984690">
        <ele>544.737</ele>
        <time>2019-05-30T14:19:36Z</time>
      </trkpt>
      <trkpt lat="42.475710" lon="-7.985553">
        <ele>543.234</ele>
        <time>2019-05-30T14:20:05Z</time>
      </trkpt>
      <trkpt lat="42.475573" lon="-7.985933">
        <ele>542.381</ele>
        <time>2019-05-30T14:20:17Z</time>
      </trkpt>
      <trkpt lat="42.475696" lon="-7.986401">
        <ele>540.334</ele>
        <time>2019-05-30T14:20:42Z</time>
      </trkpt>
      <trkpt lat="42.475787" lon="-7.986151">
        <ele>539.485</ele>
        <time>2019-05-30T14:22:22Z</time>
      </trkpt>
      <trkpt lat="42.475938" lon="-7.987280">
        <ele>539.989</ele>
        <time>2019-05-30T14:33:35Z</time>
      </trkpt>
      <trkpt lat="42.476547" lon="-7.987647">
        <ele>544.217</ele>
        <time>2019-05-30T14:34:30Z</time>
      </trkpt>
      <trkpt lat="42.477172" lon="-7.987744">
        <ele>546.108</ele>
        <time>2019-05-30T14:35:12Z</time>
      </trkpt>
      <trkpt lat="42.477441" lon="-7.988029">
        <ele>545.631</ele>
        <time>2019-05-30T14:35:29Z</time>
      </trkpt>
      <trkpt lat="42.477986" lon="-7.989300">
        <ele>544.755</ele>
        <time>2019-05-30T14:36:07Z</time>
      </trkpt>
      <trkpt lat="42.478462" lon="-7.989718">
        <ele>543.750</ele>
        <time>2019-05-30T14:36:23Z</time>
      </trkpt>
      <trkpt lat="42.479833" lon="-7.990103">
        <ele>538.459</ele>
        <time>2019-05-30T14:36:51Z</time>
      </trkpt>
      <trkpt lat="42.480223" lon="-7.990641">
        <ele>533.159</ele>
        <time>2019-05-30T14:36:59Z</time>
      </trkpt>
      <trkpt lat="42.480554" lon="-7.990815">
        <ele>529.326</ele>
        <time>2019-05-30T14:37:04Z</time>
      </trkpt>
      <trkpt lat="42.482143" lon="-7.989957">
        <ele>524.573</ele>
        <time>2019-05-30T14:37:25Z</time>
      </trkpt>
      <trkpt lat="42.483963" lon="-7.990255">
        <ele>533.656</ele>
        <time>2019-05-30T14:38:38Z</time>
      </trkpt>
      <trkpt lat="42.484961" lon="-7.990209">
        <ele>528.396</ele>
        <time>2019-05-30T14:38:59Z</time>
      </trkpt>
      <trkpt lat="42.486344" lon="-7.990702">
        <ele>526.931</ele>
        <time>2019-05-30T14:39:21Z</time>
      </trkpt>
      <trkpt lat="42.487354" lon="-7.990545">
        <ele>525.024</ele>
        <time>2019-05-30T14:39:43Z</time>
      </trkpt>
      <trkpt lat="42.488237" lon="-7.992377">
        <ele>537.008</ele>
        <time>2019-05-30T14:41:09Z</time>
      </trkpt>
      <trkpt lat="42.489123" lon="-7.993380">
        <ele>545.692</ele>
        <time>2019-05-30T14:42:15Z</time>
      </trkpt>
      <trkpt lat="42.489986" lon="-7.995633">
        <ele>548.536</ele>
        <time>2019-05-30T14:43:36Z</time>
      </trkpt>
      <trkpt lat="42.491049" lon="-7.997105">
        <ele>534.141</ele>
        <time>2019-05-30T14:44:10Z</time>
      </trkpt>
      <trkpt lat="42.491241" lon="-7.997632">
        <ele>528.860</ele>
        <time>2019-05-30T14:44:23Z</time>
      </trkpt>
      <trkpt lat="42.491943" lon="-7.998060">
        <ele>519.250</ele>
        <time>2019-05-30T14:45:47Z</time>
      </trkpt>
      <trkpt lat="42.492479" lon="-7.997532">
        <ele>510.597</ele>
        <time>2019-05-30T14:46:02Z</time>
      </trkpt>
      <trkpt lat="42.492738" lon="-7.997506">
        <ele>505.794</ele>
        <time>2019-05-30T14:46:07Z</time>
      </trkpt>
      <trkpt lat="42.493594" lon="-7.999245">
        <ele>502.927</ele>
        <time>2019-05-30T14:46:38Z</time>
      </trkpt>
      <trkpt lat="42.493820" lon="-7.999382">
        <ele>504.397</ele>
        <time>2019-05-30T14:46:50Z</time>
      </trkpt>
      <trkpt lat="42.493834" lon="-7.999734">
        <ele>507.223</ele>
        <time>2019-05-30T14:47:13Z</time>
      </trkpt>
      <trkpt lat="42.494326" lon="-7.999962">
        <ele>517.325</ele>
        <time>2019-05-30T14:48:04Z</time>
      </trkpt>
      <trkpt lat="42.494522" lon="-8.000242">
        <ele>520.608</ele>
        <time>2019-05-30T14:48:28Z</time>
      </trkpt>
      <trkpt lat="42.495087" lon="-8.002090">
        <ele>533.152</ele>
        <time>2019-05-30T14:50:12Z</time>
      </trkpt>
      <trkpt lat="42.495944" lon="-8.003304">
        <ele>543.226</ele>
        <time>2019-05-30T14:51:18Z</time>
      </trkpt>
      <trkpt lat="42.497098" lon="-8.004270">
        <ele>552.491</ele>
        <time>2019-05-30T14:52:27Z</time>
      </trkpt>
      <trkpt lat="42.497725" lon="-8.004986">
        <ele>562.590</ele>
        <time>2019-05-30T14:53:17Z</time>
      </trkpt>
      <trkpt lat="42.498384" lon="-8.005186">
        <ele>567.720</ele>
        <time>2019-05-30T14:54:04Z</time>
      </trkpt>
      <trkpt lat="42.500295" lon="-8.008209">
        <ele>578.877</ele>
        <time>2019-05-30T14:56:04Z</time>
      </trkpt>
      <trkpt lat="42.501532" lon="-8.008970">
        <ele>583.194</ele>
        <time>2019-05-30T14:56:46Z</time>
      </trkpt>
      <trkpt lat="42.502582" lon="-8.009251">
        <ele>584.167</ele>
        <time>2019-05-30T14:57:18Z</time>
      </trkpt>
      <trkpt lat="42.502955" lon="-8.009189">
        <ele>584.173</ele>
        <time>2019-05-30T14:59:10Z</time>
      </trkpt>
      <trkpt lat="42.504426" lon="-8.008081">
        <ele>583.185</ele>
        <time>2019-05-30T14:59:56Z</time>
      </trkpt>
      <trkpt lat="42.504652" lon="-8.008099">
        <ele>583.113</ele>
        <time>2019-05-30T15:00:02Z</time>
      </trkpt>
      <trkpt lat="42.505928" lon="-8.009030">
        <ele>578.808</ele>
        <time>2019-05-30T15:00:25Z</time>
      </trkpt>
      <trkpt lat="42.506885" lon="-8.009184">
        <ele>579.870</ele>
        <time>2019-05-30T15:00:43Z</time>
      </trkpt>
      <trkpt lat="42.508771" lon="-8.008166">
        <ele>589.984</ele>
        <time>2019-05-30T15:02:00Z</time>
      </trkpt>
      <trkpt lat="42.509833" lon="-8.007958">
        <ele>588.929</ele>
        <time>2019-05-30T15:02:36Z</time>
      </trkpt>
      <trkpt lat="42.512910" lon="-8.008204">
        <ele>573.058</ele>
        <time>2019-05-30T15:03:26Z</time>
      </trkpt>
      <trkpt lat="42.513659" lon="-8.008933">
        <ele>567.378</ele>
        <time>2019-05-30T15:03:38Z</time>
      </trkpt>
      <trkpt lat="42.514166" lon="-8.009225">
        <ele>564.955</ele>
        <time>2019-05-30T15:03:45Z</time>
      </trkpt>
      <trkpt lat="42.515631" lon="-8.009112">
        <ele>560.112</ele>
        <time>2019-05-30T15:04:05Z</time>
      </trkpt>
      <trkpt lat="42.517104" lon="-8.008694">
        <ele>548.585</ele>
        <time>2019-05-30T15:04:21Z</time>
      </trkpt>
      <trkpt lat="42.517433" lon="-8.009076">
        <ele>547.615</ele>
        <time>2019-05-30T15:04:32Z</time>
      </trkpt>
      <trkpt lat="42.517110" lon="-8.010432">
        <ele>556.265</ele>
        <time>2019-05-30T15:05:32Z</time>
      </trkpt>
      <trkpt lat="42.517985" lon="-8.010859">
        <ele>566.811</ele>
        <time>2019-05-30T15:06:51Z</time>
      </trkpt>
      <trkpt lat="42.518312" lon="-8.011541">
        <ele>575.908</ele>
        <time>2019-05-30T15:07:49Z</time>
      </trkpt>
      <trkpt lat="42.519284" lon="-8.011839">
        <ele>588.424</ele>
        <time>2019-05-30T15:09:20Z</time>
      </trkpt>
      <trkpt lat="42.519511" lon="-8.011609">
        <ele>592.778</ele>
        <time>2019-05-30T15:09:46Z</time>
      </trkpt>
      <trkpt lat="42.519565" lon="-8.011205">
        <ele>593.743</ele>
        <time>2019-05-30T15:10:03Z</time>
      </trkpt>
      <trkpt lat="42.521152" lon="-8.010498">
        <ele>600.032</ele>
        <time>2019-05-30T15:12:50Z</time>
      </trkpt>
      <trkpt lat="42.520979" lon="-8.010901">
        <ele>603.352</ele>
        <time>2019-05-30T15:13:10Z</time>
      </trkpt>
      <trkpt lat="42.522060" lon="-8.011172">
        <ele>607.689</ele>
        <time>2019-05-30T15:14:06Z</time>
      </trkpt>
      <trkpt lat="42.522421" lon="-8.010841">
        <ele>609.166</ele>
        <time>2019-05-30T15:14:23Z</time>
      </trkpt>
      <trkpt lat="42.523025" lon="-8.010752">
        <ele>617.399</ele>
        <time>2019-05-30T15:15:04Z</time>
      </trkpt>
      <trkpt lat="42.525345" lon="-8.011292">
        <ele>631.729</ele>
        <time>2019-05-30T15:16:55Z</time>
      </trkpt>
      <trkpt lat="42.526578" lon="-8.011076">
        <ele>637.000</ele>
        <time>2019-05-30T15:17:44Z</time>
      </trkpt>
      <trkpt lat="42.527748" lon="-8.011265">
        <ele>638.920</ele>
        <time>2019-05-30T15:18:21Z</time>
      </trkpt>
      <trkpt lat="42.528326" lon="-8.011038">
        <ele>638.408</ele>
        <time>2019-05-30T15:20:10Z</time>
      </trkpt>
      <trkpt lat="42.528805" lon="-8.010365">
        <ele>639.865</ele>
        <time>2019-05-30T15:20:39Z</time>
      </trkpt>
      <trkpt lat="42.532448" lon="-8.009264">
        <ele>651.929</ele>
        <time>2019-05-30T15:22:47Z</time>
      </trkpt>
      <trkpt lat="42.532638" lon="-8.009726">
        <ele>647.194</ele>
        <time>2019-05-30T15:23:11Z</time>
      </trkpt>
      <trkpt lat="42.533710" lon="-8.009754">
        <ele>637.453</ele>
        <time>2019-05-30T15:23:36Z</time>
      </trkpt>
      <trkpt lat="42.534065" lon="-8.010316">
        <ele>635.583</ele>
        <time>2019-05-30T15:23:47Z</time>
      </trkpt>
      <trkpt lat="42.534179" lon="-8.011210">
        <ele>639.420</ele>
        <time>2019-05-30T15:24:24Z</time>
      </trkpt>
      <trkpt lat="42.535649" lon="-8.013228">
        <ele>666.387</ele>
        <time>2019-05-30T15:27:25Z</time>
      </trkpt>
      <trkpt lat="42.536104" lon="-8.014374">
        <ele>674.990</ele>
        <time>2019-05-30T15:31:51Z</time>
      </trkpt>
      <trkpt lat="42.536932" lon="-8.014771">
        <ele>684.184</ele>
        <time>2019-05-30T15:32:58Z</time>
      </trkpt>
      <trkpt lat="42.538857" lon="-8.016423">
        <ele>695.107</ele>
        <time>2019-05-30T15:34:51Z</time>
      </trkpt>
      <trkpt lat="42.538503" lon="-8.017453">
        <ele>694.617</ele>
        <time>2019-05-30T15:35:27Z</time>
      </trkpt>
      <trkpt lat="42.538713" lon="-8.018089">
        <ele>697.008</ele>
        <time>2019-05-30T15:35:46Z</time>
      </trkpt>
      <trkpt lat="42.539810" lon="-8.020223">
        <ele>709.111</ele>
        <time>2019-05-30T15:37:15Z</time>
      </trkpt>
      <trkpt lat="42.541191" lon="-8.021023">
        <ele>719.225</ele>
        <time>2019-05-30T15:38:43Z</time>
      </trkpt>
      <trkpt lat="42.541324" lon="-8.022505">
        <ele>736.510</ele>
        <time>2019-05-30T15:40:25Z</time>
      </trkpt>
      <trkpt lat="42.543373" lon="-8.023987">
        <ele>740.379</ele>
        <time>2019-05-30T15:42:19Z</time>
      </trkpt>
      <trkpt lat="42.543436" lon="-8.024851">
        <ele>736.969</ele>
        <time>2019-05-30T15:45:53Z</time>
      </trkpt>
      <trkpt lat="42.543477" lon="-8.024712">
        <ele>737.426</ele>
        <time>2019-05-30T15:47:33Z</time>
      </trkpt>
      <trkpt lat="42.543779" lon="-8.025030">
        <ele>739.353</ele>
        <time>2019-05-30T15:48:22Z</time>
      </trkpt>
      <trkpt lat="42.544660" lon="-8.025400">
        <ele>743.776</ele>
        <time>2019-05-30T15:49:18Z</time>
      </trkpt>
      <trkpt lat="42.545053" lon="-8.025788">
        <ele>745.195</ele>
        <time>2019-05-30T15:49:44Z</time>
      </trkpt>
      <trkpt lat="42.545692" lon="-8.025468">
        <ele>745.149</ele>
        <time>2019-05-30T15:50:18Z</time>
      </trkpt>
      <trkpt lat="42.546062" lon="-8.024884">
        <ele>746.623</ele>
        <time>2019-05-30T15:50:44Z</time>
      </trkpt>
      <trkpt lat="42.546389" lon="-8.025044">
        <ele>751.408</ele>
        <time>2019-05-30T15:51:39Z</time>
      </trkpt>
      <trkpt lat="42.546887" lon="-8.026101">
        <ele>756.292</ele>
        <time>2019-05-30T15:52:47Z</time>
      </trkpt>
      <trkpt lat="42.546455" lon="-8.026777">
        <ele>761.076</ele>
        <time>2019-05-30T15:53:38Z</time>
      </trkpt>
      <trkpt lat="42.546488" lon="-8.027734">
        <ele>769.661</ele>
        <time>2019-05-30T15:54:38Z</time>
      </trkpt>
      <trkpt lat="42.547308" lon="-8.029582">
        <ele>768.730</ele>
        <time>2019-05-30T15:55:44Z</time>
      </trkpt>
      <trkpt lat="42.548255" lon="-8.030608">
        <ele>775.910</ele>
        <time>2019-05-30T15:56:59Z</time>
      </trkpt>
      <trkpt lat="42.548292" lon="-8.031394">
        <ele>784.047</ele>
        <time>2019-05-30T15:57:49Z</time>
      </trkpt>
      <trkpt lat="42.548651" lon="-8.032592">
        <ele>800.964</ele>
        <time>2019-05-30T15:59:00Z</time>
      </trkpt>
      <trkpt lat="42.548439" lon="-8.034160">
        <ele>811.027</ele>
        <time>2019-05-30T16:00:15Z</time>
      </trkpt>
      <trkpt lat="42.548565" lon="-8.034527">
        <ele>811.064</ele>
        <time>2019-05-30T16:00:30Z</time>
      </trkpt>
      <trkpt lat="42.552152" lon="-8.034717">
        <ele>818.206</ele>
        <time>2019-05-30T16:05:22Z</time>
      </trkpt>
      <trkpt lat="42.552140" lon="-8.035067">
        <ele>818.216</ele>
        <time>2019-05-30T16:05:35Z</time>
      </trkpt>
      <trkpt lat="42.552346" lon="-8.035179">
        <ele>820.108</ele>
        <time>2019-05-30T16:05:47Z</time>
      </trkpt>
      <trkpt lat="42.555710" lon="-8.034924">
        <ele>828.369</ele>
        <time>2019-05-30T16:08:15Z</time>
      </trkpt>
      <trkpt lat="42.557841" lon="-8.035793">
        <ele>832.163</ele>
        <time>2019-05-30T16:09:26Z</time>
      </trkpt>
      <trkpt lat="42.558401" lon="-8.036190">
        <ele>830.788</ele>
        <time>2019-05-30T16:09:41Z</time>
      </trkpt>
      <trkpt lat="42.559462" lon="-8.037438">
        <ele>829.737</ele>
        <time>2019-05-30T16:10:15Z</time>
      </trkpt>
      <trkpt lat="42.560143" lon="-8.041106">
        <ele>836.927</ele>
        <time>2019-05-30T16:11:41Z</time>
      </trkpt>
      <trkpt lat="42.560257" lon="-8.043734">
        <ele>843.654</ele>
        <time>2019-05-30T16:13:08Z</time>
      </trkpt>
      <trkpt lat="42.560623" lon="-8.045339">
        <ele>843.631</ele>
        <time>2019-05-30T16:14:10Z</time>
      </trkpt>
      <trkpt lat="42.560935" lon="-8.045566">
        <ele>838.424</ele>
        <time>2019-05-30T16:14:20Z</time>
      </trkpt>
      <trkpt lat="42.561103" lon="-8.046450">
        <ele>827.812</ele>
        <time>2019-05-30T16:14:30Z</time>
      </trkpt>
      <trkpt lat="42.561346" lon="-8.046667">
        <ele>823.532</ele>
        <time>2019-05-30T16:14:37Z</time>
      </trkpt>
      <trkpt lat="42.561736" lon="-8.046541">
        <ele>819.105</ele>
        <time>2019-05-30T16:14:44Z</time>
      </trkpt>
      <trkpt lat="42.563585" lon="-8.047717">
        <ele>796.108</ele>
        <time>2019-05-30T16:15:32Z</time>
      </trkpt>
      <trkpt lat="42.564258" lon="-8.048581">
        <ele>787.484</ele>
        <time>2019-05-30T16:15:43Z</time>
      </trkpt>
      <trkpt lat="42.564412" lon="-8.049500">
        <ele>781.218</ele>
        <time>2019-05-30T16:15:54Z</time>
      </trkpt>
      <trkpt lat="42.564800" lon="-8.049753">
        <ele>773.933</ele>
        <time>2019-05-30T16:16:09Z</time>
      </trkpt>
      <trkpt lat="42.565201" lon="-8.049648">
        <ele>768.212</ele>
        <time>2019-05-30T16:16:19Z</time>
      </trkpt>
      <trkpt lat="42.565539" lon="-8.051190">
        <ele>751.832</ele>
        <time>2019-05-30T16:16:34Z</time>
      </trkpt>
      <trkpt lat="42.566218" lon="-8.049412">
        <ele>752.339</ele>
        <time>2019-05-30T16:17:49Z</time>
      </trkpt>
      <trkpt lat="42.566301" lon="-8.048272">
        <ele>749.946</ele>
        <time>2019-05-30T16:18:11Z</time>
      </trkpt>
      <trkpt lat="42.566553" lon="-8.047815">
        <ele>745.119</ele>
        <time>2019-05-30T16:18:17Z</time>
      </trkpt>
      <trkpt lat="42.567377" lon="-8.047256">
        <ele>742.231</ele>
        <time>2019-05-30T16:18:37Z</time>
      </trkpt>
      <trkpt lat="42.569126" lon="-8.048176">
        <ele>738.961</ele>
        <time>2019-05-30T16:19:30Z</time>
      </trkpt>
      <trkpt lat="42.569522" lon="-8.048765">
        <ele>741.707</ele>
        <time>2019-05-30T16:19:49Z</time>
      </trkpt>
      <trkpt lat="42.570335" lon="-8.051268">
        <ele>750.908</ele>
        <time>2019-05-30T16:21:04Z</time>
      </trkpt>
      <trkpt lat="42.569732" lon="-8.052205">
        <ele>747.096</ele>
        <time>2019-05-30T16:21:41Z</time>
      </trkpt>
      <trkpt lat="42.569576" lon="-8.052185">
        <ele>748.520</ele>
        <time>2019-05-30T16:21:52Z</time>
      </trkpt>
      <trkpt lat="42.569816" lon="-8.052316">
        <ele>747.545</ele>
        <time>2019-05-30T16:24:15Z</time>
      </trkpt>
      <trkpt lat="42.569683" lon="-8.052291">
        <ele>748.094</ele>
        <time>2019-05-30T16:28:37Z</time>
      </trkpt>
      <trkpt lat="42.569577" lon="-8.050771">
        <ele>740.578</ele>
        <time>2016-06-07T19:37:35Z</time>
      </trkpt>
      <trkpt lat="42.570740" lon="-8.049289">
        <ele>748.533</ele>
        <time>2016-06-07T19:37:55Z</time>
      </trkpt>
      <trkpt lat="42.571310" lon="-8.050789">
        <ele>757.426</ele>
        <time>2016-06-07T19:38:35Z</time>
      </trkpt>
      <trkpt lat="42.572763" lon="-8.051998">
        <ele>749.808</ele>
        <time>2016-06-07T19:39:35Z</time>
      </trkpt>
      <trkpt lat="42.572982" lon="-8.052512">
        <ele>747.728</ele>
        <time>2016-06-07T19:39:55Z</time>
      </trkpt>
      <trkpt lat="42.573052" lon="-8.054925">
        <ele>740.290</ele>
        <time>2016-06-07T19:40:55Z</time>
      </trkpt>
      <trkpt lat="42.572622" lon="-8.058439">
        <ele>721.523</ele>
        <time>2016-06-07T19:41:55Z</time>
      </trkpt>
      <trkpt lat="42.572877" lon="-8.059498">
        <ele>715.587</ele>
        <time>2016-06-07T19:42:15Z</time>
      </trkpt>
      <trkpt lat="42.573512" lon="-8.059987">
        <ele>706.538</ele>
        <time>2016-06-07T19:42:35Z</time>
      </trkpt>
      <trkpt lat="42.574490" lon="-8.060099">
        <ele>701.241</ele>
        <time>2016-06-07T19:42:55Z</time>
      </trkpt>
      <trkpt lat="42.575013" lon="-8.059712">
        <ele>702.972</ele>
        <time>2016-06-07T19:43:35Z</time>
      </trkpt>
      <trkpt lat="42.578309" lon="-8.060603">
        <ele>698.159</ele>
        <time>2016-06-07T19:43:55Z</time>
      </trkpt>
      <trkpt lat="42.578478" lon="-8.060748">
        <ele>698.965</ele>
        <time>2016-06-07T19:44:15Z</time>
      </trkpt>
      <trkpt lat="42.581430" lon="-8.061043">
        <ele>706.168</ele>
        <time>2016-06-07T19:44:35Z</time>
      </trkpt>
      <trkpt lat="42.581812" lon="-8.061230">
        <ele>707.114</ele>
        <time>2016-06-07T19:44:55Z</time>
      </trkpt>
      <trkpt lat="42.582264" lon="-8.061773">
        <ele>710.408</ele>
        <time>2016-06-07T19:45:15Z</time>
      </trkpt>
      <trkpt lat="42.583551" lon="-8.061800">
        <ele>713.657</ele>
        <time>2016-06-07T19:46:15Z</time>
      </trkpt>
      <trkpt lat="42.585257" lon="-8.062639">
        <ele>716.089</ele>
        <time>2016-06-07T19:46:35Z</time>
      </trkpt>
      <trkpt lat="42.586811" lon="-8.064252">
        <ele>707.242</ele>
        <time>2016-06-07T19:46:55Z</time>
      </trkpt>
      <trkpt lat="42.587418" lon="-8.065294">
        <ele>702.016</ele>
        <time>2016-06-07T19:47:15Z</time>
      </trkpt>
      <trkpt lat="42.587269" lon="-8.066370">
        <ele>699.227</ele>
        <time>2016-06-07T19:47:55Z</time>
      </trkpt>
      <trkpt lat="42.592129" lon="-8.070930">
        <ele>682.120</ele>
        <time>2016-06-07T19:49:35Z</time>
      </trkpt>
      <trkpt lat="42.593850" lon="-8.073047">
        <ele>672.171</ele>
        <time>2016-06-07T19:49:55Z</time>
      </trkpt>
      <trkpt lat="42.595078" lon="-8.073837">
        <ele>680.848</ele>
        <time>2016-06-07T19:50:35Z</time>
      </trkpt>
      <trkpt lat="42.595996" lon="-8.073736">
        <ele>681.543</ele>
        <time>2016-06-07T19:51:35Z</time>
      </trkpt>
      <trkpt lat="42.596365" lon="-8.073896">
        <ele>684.264</ele>
        <time>2016-06-07T19:51:55Z</time>
      </trkpt>
      <trkpt lat="42.596626" lon="-8.074218">
        <ele>688.210</ele>
        <time>2016-06-07T19:52:15Z</time>
      </trkpt>
      <trkpt lat="42.596727" lon="-8.076061">
        <ele>698.808</ele>
        <time>2016-06-07T19:53:15Z</time>
      </trkpt>
      <trkpt lat="42.597985" lon="-8.077316">
        <ele>703.835</ele>
        <time>2016-06-07T19:53:35Z</time>
      </trkpt>
      <trkpt lat="42.601180" lon="-8.078393">
        <ele>694.127</ele>
        <time>2016-06-07T19:54:55Z</time>
      </trkpt>
      <trkpt lat="42.603260" lon="-8.078860">
        <ele>687.850</ele>
        <time>2016-06-07T19:55:15Z</time>
      </trkpt>
      <trkpt lat="42.603625" lon="-8.079068">
        <ele>687.114</ele>
        <time>2016-06-07T19:55:35Z</time>
      </trkpt>
      <trkpt lat="42.604198" lon="-8.080220">
        <ele>682.085</ele>
        <time>2016-06-07T19:56:35Z</time>
      </trkpt>
      <trkpt lat="42.604870" lon="-8.080315">
        <ele>676.668</ele>
        <time>2016-06-07T19:56:55Z</time>
      </trkpt>
      <trkpt lat="42.605695" lon="-8.082847">
        <ele>661.389</ele>
        <time>2016-06-07T19:57:35Z</time>
      </trkpt>
      <trkpt lat="42.606061" lon="-8.085001">
        <ele>653.886</ele>
        <time>2016-06-07T19:58:15Z</time>
      </trkpt>
      <trkpt lat="42.606164" lon="-8.086723">
        <ele>655.436</ele>
        <time>2016-06-07T19:58:35Z</time>
      </trkpt>
      <trkpt lat="42.607779" lon="-8.090297">
        <ele>637.917</ele>
        <time>2016-06-07T19:59:35Z</time>
      </trkpt>
      <trkpt lat="42.608321" lon="-8.091989">
        <ele>625.718</ele>
        <time>2016-06-07T20:00:15Z</time>
      </trkpt>
      <trkpt lat="42.608731" lon="-8.092484">
        <ele>622.108</ele>
        <time>2016-06-07T20:00:35Z</time>
      </trkpt>
      <trkpt lat="42.609559" lon="-8.095249">
        <ele>613.494</ele>
        <time>2016-06-07T20:01:35Z</time>
      </trkpt>
      <trkpt lat="42.609927" lon="-8.097345">
        <ele>598.536</ele>
        <time>2016-06-07T20:02:15Z</time>
      </trkpt>
      <trkpt lat="42.609660" lon="-8.098059">
        <ele>591.299</ele>
        <time>2016-06-07T20:02:35Z</time>
      </trkpt>
      <trkpt lat="42.608854" lon="-8.099117">
        <ele>576.573</ele>
        <time>2016-06-07T20:02:55Z</time>
      </trkpt>
      <trkpt lat="42.607509" lon="-8.100163">
        <ele>559.974</ele>
        <time>2016-06-07T20:03:35Z</time>
      </trkpt>
      <trkpt lat="42.607408" lon="-8.101195">
        <ele>554.867</ele>
        <time>2016-06-07T20:03:55Z</time>
      </trkpt>
      <trkpt lat="42.608703" lon="-8.101278">
        <ele>552.858</ele>
        <time>2016-06-07T20:04:35Z</time>
      </trkpt>
      <trkpt lat="42.609092" lon="-8.101461">
        <ele>545.515</ele>
        <time>2016-06-07T20:04:55Z</time>
      </trkpt>
      <trkpt lat="42.609976" lon="-8.102866">
        <ele>533.063</ele>
        <time>2016-06-07T20:05:55Z</time>
      </trkpt>
      <trkpt lat="42.611406" lon="-8.103609">
        <ele>510.844</ele>
        <time>2016-06-07T20:06:55Z</time>
      </trkpt>
      <trkpt lat="42.611318" lon="-8.104854">
        <ele>500.618</ele>
        <time>2016-06-07T20:08:15Z</time>
      </trkpt>
      <trkpt lat="42.611708" lon="-8.105404">
        <ele>496.608</ele>
        <time>2016-06-07T20:08:35Z</time>
      </trkpt>
      <trkpt lat="42.612473" lon="-8.106009">
        <ele>485.417</ele>
        <time>2016-06-07T20:09:15Z</time>
      </trkpt>
      <trkpt lat="42.612719" lon="-8.106745">
        <ele>490.639</ele>
        <time>2016-06-07T20:09:35Z</time>
      </trkpt>
      <trkpt lat="42.613390" lon="-8.106708">
        <ele>494.652</ele>
        <time>2016-06-07T20:09:55Z</time>
      </trkpt>
      <trkpt lat="42.614468" lon="-8.106035">
        <ele>504.196</ele>
        <time>2016-06-07T20:10:15Z</time>
      </trkpt>
      <trkpt lat="42.613858" lon="-8.107699">
        <ele>515.847</ele>
        <time>2016-06-07T20:10:55Z</time>
      </trkpt>
      <trkpt lat="42.614154" lon="-8.107545">
        <ele>519.110</ele>
        <time>2016-06-07T20:11:35Z</time>
      </trkpt>
      <trkpt lat="42.614435" lon="-8.107634">
        <ele>521.961</ele>
        <time>2016-06-07T20:11:55Z</time>
      </trkpt>
      <trkpt lat="42.614729" lon="-8.108126">
        <ele>524.068</ele>
        <time>2016-06-07T20:12:35Z</time>
      </trkpt>
      <trkpt lat="42.614940" lon="-8.110854">
        <ele>538.761</ele>
        <time>2016-06-07T20:13:15Z</time>
      </trkpt>
      <trkpt lat="42.615506" lon="-8.112842">
        <ele>549.721</ele>
        <time>2016-06-07T20:13:35Z</time>
      </trkpt>
      <trkpt lat="42.615365" lon="-8.113866">
        <ele>551.913</ele>
        <time>2016-06-07T20:13:55Z</time>
      </trkpt>
      <trkpt lat="42.615792" lon="-8.114424">
        <ele>557.608</ele>
        <time>2016-06-07T20:14:15Z</time>
      </trkpt>
      <trkpt lat="42.616535" lon="-8.114642">
        <ele>570.387</ele>
        <time>2016-06-07T20:14:55Z</time>
      </trkpt>
      <trkpt lat="42.617328" lon="-8.115486">
        <ele>575.419</ele>
        <time>2016-06-07T20:15:15Z</time>
      </trkpt>
      <trkpt lat="42.618971" lon="-8.119684">
        <ele>563.522</ele>
        <time>2016-06-07T20:16:55Z</time>
      </trkpt>
      <trkpt lat="42.618967" lon="-8.120021">
        <ele>560.816</ele>
        <time>2016-06-07T20:17:15Z</time>
      </trkpt>
      <trkpt lat="42.622429" lon="-8.122975">
        <ele>564.167</ele>
        <time>2016-06-07T20:17:35Z</time>
      </trkpt>
      <trkpt lat="42.623805" lon="-8.124749">
        <ele>559.150</ele>
        <time>2016-06-07T20:18:15Z</time>
      </trkpt>
      <trkpt lat="42.624507" lon="-8.126038">
        <ele>545.061</ele>
        <time>2016-06-07T20:18:35Z</time>
      </trkpt>
      <trkpt lat="42.624702" lon="-8.126720">
        <ele>543.518</ele>
        <time>2016-06-07T20:18:55Z</time>
      </trkpt>
      <trkpt lat="42.625873" lon="-8.128109">
        <ele>534.033</ele>
        <time>2016-06-07T20:19:35Z</time>
      </trkpt>
      <trkpt lat="42.625748" lon="-8.128405">
        <ele>538.723</ele>
        <time>2016-06-07T20:19:55Z</time>
      </trkpt>
      <trkpt lat="42.625158" lon="-8.128216">
        <ele>548.515</ele>
        <time>2016-06-07T20:20:55Z</time>
      </trkpt>
      <trkpt lat="42.625150" lon="-8.128692">
        <ele>550.808</ele>
        <time>2016-06-07T20:21:55Z</time>
      </trkpt>
      <trkpt lat="42.626670" lon="-8.132583">
        <ele>534.054</ele>
        <time>2016-06-07T20:22:55Z</time>
      </trkpt>
      <trkpt lat="42.627440" lon="-8.133225">
        <ele>536.596</ele>
        <time>2016-06-07T20:23:35Z</time>
      </trkpt>
      <trkpt lat="42.629089" lon="-8.135642">
        <ele>528.549</ele>
        <time>2016-06-07T20:24:35Z</time>
      </trkpt>
      <trkpt lat="42.629810" lon="-8.136318">
        <ele>524.163</ele>
        <time>2016-06-07T20:24:55Z</time>
      </trkpt>
      <trkpt lat="42.631044" lon="-8.136258">
        <ele>519.434</ele>
        <time>2016-06-07T20:25:15Z</time>
      </trkpt>
      <trkpt lat="42.631847" lon="-8.136833">
        <ele>512.837</ele>
        <time>2016-06-07T20:25:35Z</time>
      </trkpt>
      <trkpt lat="42.632890" lon="-8.137859">
        <ele>499.528</ele>
        <time>2016-06-07T20:25:55Z</time>
      </trkpt>
      <trkpt lat="42.633421" lon="-8.138877">
        <ele>489.225</ele>
        <time>2016-06-07T20:26:35Z</time>
      </trkpt>
      <trkpt lat="42.633366" lon="-8.140081">
        <ele>479.022</ele>
        <time>2016-06-07T20:26:55Z</time>
      </trkpt>
      <trkpt lat="42.634380" lon="-8.141290">
        <ele>468.662</ele>
        <time>2016-06-07T20:27:35Z</time>
      </trkpt>
      <trkpt lat="42.635245" lon="-8.142136">
        <ele>469.908</ele>
        <time>2016-06-07T20:28:15Z</time>
      </trkpt>
      <trkpt lat="42.635825" lon="-8.142256">
        <ele>473.108</ele>
        <time>2016-06-07T20:28:35Z</time>
      </trkpt>
      <trkpt lat="42.637605" lon="-8.141649">
        <ele>486.793</ele>
        <time>2016-06-07T20:28:55Z</time>
      </trkpt>
      <trkpt lat="42.638704" lon="-8.142405">
        <ele>501.725</ele>
        <time>2016-06-07T20:29:15Z</time>
      </trkpt>
      <trkpt lat="42.639287" lon="-8.143375">
        <ele>507.528</ele>
        <time>2016-06-07T20:29:35Z</time>
      </trkpt>
      <trkpt lat="42.640874" lon="-8.144002">
        <ele>525.472</ele>
        <time>2016-06-07T20:29:55Z</time>
      </trkpt>
      <trkpt lat="42.641705" lon="-8.144161">
        <ele>521.133</ele>
        <time>2016-06-07T20:30:15Z</time>
      </trkpt>
      <trkpt lat="42.644005" lon="-8.144021">
        <ele>529.446</ele>
        <time>2016-06-07T20:31:35Z</time>
      </trkpt>
      <trkpt lat="42.644876" lon="-8.144690">
        <ele>527.137</ele>
        <time>2016-06-07T20:32:15Z</time>
      </trkpt>
      <trkpt lat="42.645071" lon="-8.145158">
        <ele>525.474</ele>
        <time>2016-06-07T20:32:35Z</time>
      </trkpt>
      <trkpt lat="42.645871" lon="-8.145861">
        <ele>524.186</ele>
        <time>2016-06-07T20:32:55Z</time>
      </trkpt>
      <trkpt lat="42.646205" lon="-8.145966">
        <ele>526.260</ele>
        <time>2016-06-07T20:33:15Z</time>
      </trkpt>
      <trkpt lat="42.647988" lon="-8.146319">
        <ele>542.326</ele>
        <time>2016-06-07T20:34:15Z</time>
      </trkpt>
      <trkpt lat="42.651268" lon="-8.146391">
        <ele>560.608</ele>
        <time>2016-06-07T20:34:55Z</time>
      </trkpt>
      <trkpt lat="42.652415" lon="-8.146896">
        <ele>565.339</ele>
        <time>2016-06-07T20:35:15Z</time>
      </trkpt>
      <trkpt lat="42.652980" lon="-8.147497">
        <ele>562.331</ele>
        <time>2016-06-07T20:35:35Z</time>
      </trkpt>
      <trkpt lat="42.653625" lon="-8.149025">
        <ele>563.834</ele>
        <time>2016-06-07T20:36:15Z</time>
      </trkpt>
      <trkpt lat="42.654369" lon="-8.150130">
        <ele>555.898</ele>
        <time>2016-06-07T20:37:15Z</time>
      </trkpt>
      <trkpt lat="42.659183" lon="-8.154012">
        <ele>528.649</ele>
        <time>2016-06-07T20:38:15Z</time>
      </trkpt>
      <trkpt lat="42.660409" lon="-8.153442">
        <ele>525.992</ele>
        <time>2016-06-07T20:38:35Z</time>
      </trkpt>
      <trkpt lat="42.660726" lon="-8.152693">
        <ele>526.253</ele>
        <time>2016-06-07T20:38:55Z</time>
      </trkpt>
      <trkpt lat="42.662311" lon="-8.151854">
        <ele>515.960</ele>
        <time>2016-06-07T20:39:35Z</time>
      </trkpt>
      <trkpt lat="42.664132" lon="-8.153348">
        <ele>512.171</ele>
        <time>2016-06-07T20:39:55Z</time>
      </trkpt>
      <trkpt lat="42.664945" lon="-8.153652">
        <ele>510.741</ele>
        <time>2016-06-07T20:40:15Z</time>
      </trkpt>
      <trkpt lat="42.665919" lon="-8.154522">
        <ele>500.815</ele>
        <time>2016-06-07T20:40:35Z</time>
      </trkpt>
      <trkpt lat="42.666685" lon="-8.155541">
        <ele>497.008</ele>
        <time>2016-06-07T20:40:55Z</time>
      </trkpt>
      <trkpt lat="42.669125" lon="-8.156800">
        <ele>464.398</ele>
        <time>2016-06-07T20:41:35Z</time>
      </trkpt>
      <trkpt lat="42.669319" lon="-8.157188">
        <ele>459.910</ele>
        <time>2016-06-07T20:41:55Z</time>
      </trkpt>
      <trkpt lat="42.669771" lon="-8.157024">
        <ele>457.843</ele>
        <time>2016-06-07T20:42:35Z</time>
      </trkpt>
      <trkpt lat="42.670553" lon="-8.157854">
        <ele>466.077</ele>
        <time>2016-06-07T20:42:55Z</time>
      </trkpt>
      <trkpt lat="42.672024" lon="-8.158769">
        <ele>478.778</ele>
        <time>2016-06-07T20:43:15Z</time>
      </trkpt>
      <trkpt lat="42.672357" lon="-8.159207">
        <ele>484.461</ele>
        <time>2016-06-07T20:43:35Z</time>
      </trkpt>
      <trkpt lat="42.673283" lon="-8.161162">
        <ele>489.792</ele>
        <time>2016-06-07T20:43:55Z</time>
      </trkpt>
      <trkpt lat="42.673335" lon="-8.161658">
        <ele>490.099</ele>
        <time>2016-06-07T20:44:15Z</time>
      </trkpt>
      <trkpt lat="42.674114" lon="-8.163109">
        <ele>480.683</ele>
        <time>2016-06-07T20:44:35Z</time>
      </trkpt>
      <trkpt lat="42.674946" lon="-8.164062">
        <ele>470.025</ele>
        <time>2016-06-07T20:45:15Z</time>
      </trkpt>
      <trkpt lat="42.675221" lon="-8.163769">
        <ele>470.717</ele>
        <time>2016-06-07T20:45:55Z</time>
      </trkpt>
      <trkpt lat="42.675340" lon="-8.163131">
        <ele>473.308</ele>
        <time>2016-06-07T20:46:15Z</time>
      </trkpt>
      <trkpt lat="42.676122" lon="-8.163378">
        <ele>470.049</ele>
        <time>2016-06-07T20:46:55Z</time>
      </trkpt>
      <trkpt lat="42.676277" lon="-8.163612">
        <ele>470.011</ele>
        <time>2016-06-07T20:47:15Z</time>
      </trkpt>
      <trkpt lat="42.676364" lon="-8.163478">
        <ele>469.624</ele>
        <time>2016-06-07T20:47:55Z</time>
      </trkpt>
      <trkpt lat="42.676358" lon="-8.163697">
        <ele>470.028</ele>
        <time>2016-06-07T20:48:15Z</time>
      </trkpt>
      <trkpt lat="42.676322" lon="-8.163558">
        <ele>469.979</ele>
        <time>2016-06-07T20:48:35Z</time>
      </trkpt>
      <trkpt lat="42.676017" lon="-8.163779">
        <ele>470.322</ele>
        <time>2016-06-07T20:48:55Z</time>
      </trkpt>
      <trkpt lat="42.676168" lon="-8.163759">
        <ele>470.093</ele>
        <time>2016-06-07T20:49:15Z</time>
      </trkpt>
      <trkpt lat="42.676318" lon="-8.164487">
        <ele>472.340</ele>
        <time>2016-06-07T20:49:55Z</time>
      </trkpt>
      <trkpt lat="42.678710" lon="-8.166025">
        <ele>488.614</ele>
        <time>2016-06-07T20:50:35Z</time>
      </trkpt>
      <trkpt lat="42.678724" lon="-8.165903">
        <ele>489.554</ele>
        <time>2016-06-07T20:50:55Z</time>
      </trkpt>
      <trkpt lat="42.679182" lon="-8.166061">
        <ele>490.209</ele>
        <time>2016-06-07T20:51:55Z</time>
      </trkpt>
      <trkpt lat="42.678955" lon="-8.166144">
        <ele>488.308</ele>
        <time>2016-06-07T20:52:35Z</time>
      </trkpt>
      <trkpt lat="42.678984" lon="-8.166300">
        <ele>487.852</ele>
        <time>2016-06-07T20:52:55Z</time>
      </trkpt>
      <trkpt lat="42.679478" lon="-8.166732">
        <ele>487.514</ele>
        <time>2016-06-07T20:53:15Z</time>
      </trkpt>
      <trkpt lat="42.680150" lon="-8.168952">
        <ele>474.497</ele>
        <time>2016-06-07T20:53:55Z</time>
      </trkpt>
      <trkpt lat="42.680887" lon="-8.169577">
        <ele>470.051</ele>
        <time>2016-06-07T20:54:35Z</time>
      </trkpt>
      <trkpt lat="42.681050" lon="-8.169962">
        <ele>463.942</ele>
        <time>2016-06-07T20:54:55Z</time>
      </trkpt>
      <trkpt lat="42.680798" lon="-8.171134">
        <ele>463.895</ele>
        <time>2016-06-07T20:55:15Z</time>
      </trkpt>
      <trkpt lat="42.681545" lon="-8.172990">
        <ele>473.686</ele>
        <time>2016-06-07T20:55:35Z</time>
      </trkpt>
      <trkpt lat="42.681723" lon="-8.173820">
        <ele>475.323</ele>
        <time>2016-06-07T20:56:15Z</time>
      </trkpt>
      <trkpt lat="42.681469" lon="-8.175088">
        <ele>472.162</ele>
        <time>2016-06-07T20:56:55Z</time>
      </trkpt>
      <trkpt lat="42.680961" lon="-8.175005">
        <ele>463.383</ele>
        <time>2016-06-07T20:57:55Z</time>
      </trkpt>
      <trkpt lat="42.680659" lon="-8.175847">
        <ele>462.111</ele>
        <time>2016-06-07T20:58:35Z</time>
      </trkpt>
      <trkpt lat="42.681033" lon="-8.176615">
        <ele>467.308</ele>
        <time>2016-06-07T20:58:55Z</time>
      </trkpt>
      <trkpt lat="42.681313" lon="-8.178691">
        <ele>467.037</ele>
        <time>2016-06-07T20:59:35Z</time>
      </trkpt>
      <trkpt lat="42.681694" lon="-8.180277">
        <ele>460.959</ele>
        <time>2016-06-07T21:00:15Z</time>
      </trkpt>
      <trkpt lat="42.682521" lon="-8.181425">
        <ele>455.822</ele>
        <time>2016-06-07T21:00:55Z</time>
      </trkpt>
      <trkpt lat="42.683619" lon="-8.185725">
        <ele>442.456</ele>
        <time>2016-06-07T21:02:15Z</time>
      </trkpt>
      <trkpt lat="42.683527" lon="-8.186251">
        <ele>439.797</ele>
        <time>2016-06-07T21:02:35Z</time>
      </trkpt>
      <trkpt lat="42.683179" lon="-8.186494">
        <ele>437.740</ele>
        <time>2016-06-07T21:03:15Z</time>
      </trkpt>
      <trkpt lat="42.682923" lon="-8.190337">
        <ele>426.831</ele>
        <time>2016-06-07T21:04:55Z</time>
      </trkpt>
      <trkpt lat="42.682435" lon="-8.191872">
        <ele>427.518</ele>
        <time>2016-06-07T21:05:15Z</time>
      </trkpt>
      <trkpt lat="42.681708" lon="-8.195654">
        <ele>434.953</ele>
        <time>2016-06-07T21:05:55Z</time>
      </trkpt>
      <trkpt lat="42.683183" lon="-8.196137">
        <ele>421.504</ele>
        <time>2016-06-07T21:06:55Z</time>
      </trkpt>
      <trkpt lat="42.683014" lon="-8.197269">
        <ele>415.314</ele>
        <time>2016-06-07T21:07:15Z</time>
      </trkpt>
      <trkpt lat="42.682117" lon="-8.199943">
        <ele>406.708</ele>
        <time>2016-06-07T21:07:55Z</time>
      </trkpt>
      <trkpt lat="42.682345" lon="-8.203661">
        <ele>388.756</ele>
        <time>2016-06-07T21:08:35Z</time>
      </trkpt>
      <trkpt lat="42.682713" lon="-8.205165">
        <ele>385.138</ele>
        <time>2016-06-07T21:08:55Z</time>
      </trkpt>
      <trkpt lat="42.682531" lon="-8.205602">
        <ele>382.171</ele>
        <time>2016-06-07T21:09:15Z</time>
      </trkpt>
      <trkpt lat="42.681400" lon="-8.206058">
        <ele>365.555</ele>
        <time>2016-06-07T21:09:55Z</time>
      </trkpt>
      <trkpt lat="42.681531" lon="-8.205781">
        <ele>378.236</ele>
        <time>2016-06-07T21:10:15Z</time>
      </trkpt>
      <trkpt lat="42.681340" lon="-8.205820">
        <ele>375.929</ele>
        <time>2016-06-07T21:10:35Z</time>
      </trkpt>
      <trkpt lat="42.680258" lon="-8.206812">
        <ele>370.050</ele>
        <time>2016-06-07T21:10:55Z</time>
      </trkpt>
      <trkpt lat="42.679936" lon="-8.207864">
        <ele>368.157</ele>
        <time>2016-06-07T21:11:35Z</time>
      </trkpt>
      <trkpt lat="42.679822" lon="-8.209171">
        <ele>360.434</ele>
        <time>2016-06-07T21:11:55Z</time>
      </trkpt>
      <trkpt lat="42.679469" lon="-8.209793">
        <ele>358.755</ele>
        <time>2016-06-07T21:12:35Z</time>
      </trkpt>
      <trkpt lat="42.679644" lon="-8.210091">
        <ele>359.510</ele>
        <time>2016-06-07T21:12:55Z</time>
      </trkpt>
      <trkpt lat="42.680273" lon="-8.210227">
        <ele>361.908</ele>
        <time>2016-06-07T21:13:55Z</time>
      </trkpt>
      <trkpt lat="42.680512" lon="-8.210581">
        <ele>368.474</ele>
        <time>2016-06-07T21:14:15Z</time>
      </trkpt>
      <trkpt lat="42.683067" lon="-8.210451">
        <ele>403.156</ele>
        <time>2016-06-07T21:14:55Z</time>
      </trkpt>
      <trkpt lat="42.683380" lon="-8.210836">
        <ele>407.889</ele>
        <time>2016-06-07T21:15:15Z</time>
      </trkpt>
      <trkpt lat="42.683781" lon="-8.211795">
        <ele>408.383</ele>
        <time>2016-06-07T21:15:35Z</time>
      </trkpt>
      <trkpt lat="42.683494" lon="-8.212728">
        <ele>410.234</ele>
        <time>2016-06-07T21:15:55Z</time>
      </trkpt>
      <trkpt lat="42.685190" lon="-8.214801">
        <ele>421.757</ele>
        <time>2016-06-07T21:16:15Z</time>
      </trkpt>
      <trkpt lat="42.685442" lon="-8.215917">
        <ele>429.958</ele>
        <time>2016-06-07T21:16:35Z</time>
      </trkpt>
      <trkpt lat="42.685414" lon="-8.217627">
        <ele>442.355</ele>
        <time>2016-06-07T21:17:15Z</time>
      </trkpt>
      <trkpt lat="42.686389" lon="-8.218268">
        <ele>450.535</ele>
        <time>2016-06-07T21:17:55Z</time>
      </trkpt>
      <trkpt lat="42.686838" lon="-8.219094">
        <ele>449.786</ele>
        <time>2016-06-07T21:18:35Z</time>
      </trkpt>
      <trkpt lat="42.686550" lon="-8.219650">
        <ele>456.514</ele>
        <time>2016-06-07T21:18:55Z</time>
      </trkpt>
      <trkpt lat="42.686625" lon="-8.220201">
        <ele>459.708</ele>
        <time>2016-06-07T21:19:15Z</time>
      </trkpt>
      <trkpt lat="42.687398" lon="-8.221236">
        <ele>459.694</ele>
        <time>2016-06-07T21:19:35Z</time>
      </trkpt>
      <trkpt lat="42.688563" lon="-8.222239">
        <ele>470.426</ele>
        <time>2016-06-07T21:19:55Z</time>
      </trkpt>
      <trkpt lat="42.689554" lon="-8.223799">
        <ele>471.219</ele>
        <time>2016-06-07T21:21:15Z</time>
      </trkpt>
      <trkpt lat="42.690004" lon="-8.225449">
        <ele>475.073</ele>
        <time>2016-06-07T21:22:35Z</time>
      </trkpt>
      <trkpt lat="42.689245" lon="-8.225868">
        <ele>483.854</ele>
        <time>2016-06-07T21:23:35Z</time>
      </trkpt>
      <trkpt lat="42.688171" lon="-8.228743">
        <ele>484.457</ele>
        <time>2016-06-07T21:24:35Z</time>
      </trkpt>
      <trkpt lat="42.687389" lon="-8.232115">
        <ele>484.238</ele>
        <time>2016-06-07T21:25:35Z</time>
      </trkpt>
      <trkpt lat="42.687652" lon="-8.233716">
        <ele>466.495</ele>
        <time>2016-06-07T21:26:35Z</time>
      </trkpt>
      <trkpt lat="42.687340" lon="-8.234032">
        <ele>466.412</ele>
        <time>2016-06-07T21:27:15Z</time>
      </trkpt>
      <trkpt lat="42.687326" lon="-8.234301">
        <ele>464.332</ele>
        <time>2016-06-07T21:27:35Z</time>
      </trkpt>
      <trkpt lat="42.687601" lon="-8.234204">
        <ele>463.405</ele>
        <time>2016-06-07T21:27:55Z</time>
      </trkpt>
      <trkpt lat="42.688172" lon="-8.235161">
        <ele>453.408</ele>
        <time>2016-06-07T21:28:35Z</time>
      </trkpt>
      <trkpt lat="42.688558" lon="-8.235083">
        <ele>449.372</ele>
        <time>2016-06-07T21:28:55Z</time>
      </trkpt>
      <trkpt lat="42.689842" lon="-8.235407">
        <ele>444.824</ele>
        <time>2016-06-07T21:29:15Z</time>
      </trkpt>
      <trkpt lat="42.691674" lon="-8.238151">
        <ele>471.027</ele>
        <time>2016-06-07T21:29:35Z</time>
      </trkpt>
      <trkpt lat="42.691515" lon="-8.241664">
        <ele>486.661</ele>
        <time>2016-06-07T21:30:55Z</time>
      </trkpt>
      <trkpt lat="42.692462" lon="-8.243277">
        <ele>490.842</ele>
        <time>2016-06-07T21:31:35Z</time>
      </trkpt>
      <trkpt lat="42.692943" lon="-8.244518">
        <ele>495.355</ele>
        <time>2016-06-07T21:31:55Z</time>
      </trkpt>
      <trkpt lat="42.693718" lon="-8.245452">
        <ele>494.576</ele>
        <time>2016-06-07T21:32:15Z</time>
      </trkpt>
      <trkpt lat="42.695683" lon="-8.244724">
        <ele>490.563</ele>
        <time>2016-06-07T21:33:15Z</time>
      </trkpt>
      <trkpt lat="42.696127" lon="-8.247232">
        <ele>493.076</ele>
        <time>2016-06-07T21:33:55Z</time>
      </trkpt>
      <trkpt lat="42.696705" lon="-8.247157">
        <ele>495.190</ele>
        <time>2016-06-07T21:34:35Z</time>
      </trkpt>
      <trkpt lat="42.697248" lon="-8.247322">
        <ele>492.119</ele>
        <time>2016-06-07T21:35:15Z</time>
      </trkpt>
      <trkpt lat="42.697491" lon="-8.247041">
        <ele>490.108</ele>
        <time>2016-06-07T21:35:55Z</time>
      </trkpt>
      <trkpt lat="42.697737" lon="-8.248405">
        <ele>487.018</ele>
        <time>2016-06-07T21:36:15Z</time>
      </trkpt>
      <trkpt lat="42.698538" lon="-8.249079">
        <ele>476.320</ele>
        <time>2016-06-07T21:36:55Z</time>
      </trkpt>
      <trkpt lat="42.698274" lon="-8.249364">
        <ele>474.933</ele>
        <time>2016-06-07T21:37:15Z</time>
      </trkpt>
      <trkpt lat="42.698767" lon="-8.250315">
        <ele>469.967</ele>
        <time>2016-06-07T21:37:35Z</time>
      </trkpt>
      <trkpt lat="42.699514" lon="-8.253628">
        <ele>470.368</ele>
        <time>2016-06-07T21:38:35Z</time>
      </trkpt>
      <trkpt lat="42.699915" lon="-8.254262">
        <ele>465.471</ele>
        <time>2016-06-07T21:38:55Z</time>
      </trkpt>
      <trkpt lat="42.700862" lon="-8.255059">
        <ele>460.832</ele>
        <time>2016-06-07T21:39:15Z</time>
      </trkpt>
      <trkpt lat="42.700152" lon="-8.254616">
        <ele>462.899</ele>
        <time>2016-06-07T21:39:35Z</time>
      </trkpt>
      <trkpt lat="42.700404" lon="-8.255365">
        <ele>453.885</ele>
        <time>2016-06-07T21:39:55Z</time>
      </trkpt>
      <trkpt lat="42.701068" lon="-8.255963">
        <ele>453.189</ele>
        <time>2016-06-07T21:40:35Z</time>
      </trkpt>
      <trkpt lat="42.701481" lon="-8.258164">
        <ele>445.417</ele>
        <time>2016-06-07T21:41:15Z</time>
      </trkpt>
      <trkpt lat="42.702280" lon="-8.258621">
        <ele>453.208</ele>
        <time>2016-06-07T21:42:15Z</time>
      </trkpt>
      <trkpt lat="42.702825" lon="-8.259183">
        <ele>451.029</ele>
        <time>2016-06-07T21:42:55Z</time>
      </trkpt>
      <trkpt lat="42.704409" lon="-8.258976">
        <ele>445.331</ele>
        <time>2016-06-07T21:43:35Z</time>
      </trkpt>
      <trkpt lat="42.704139" lon="-8.259807">
        <ele>449.844</ele>
        <time>2016-06-07T21:44:15Z</time>
      </trkpt>
      <trkpt lat="42.703919" lon="-8.261362">
        <ele>428.478</ele>
        <time>2016-06-07T21:45:15Z</time>
      </trkpt>
      <trkpt lat="42.703953" lon="-8.263653">
        <ele>406.359</ele>
        <time>2016-06-07T21:45:35Z</time>
      </trkpt>
      <trkpt lat="42.703805" lon="-8.265541">
        <ele>406.322</ele>
        <time>2016-06-07T21:45:55Z</time>
      </trkpt>
      <trkpt lat="42.704391" lon="-8.268083">
        <ele>407.983</ele>
        <time>2016-06-07T21:46:15Z</time>
      </trkpt>
      <trkpt lat="42.704757" lon="-8.268936">
        <ele>408.330</ele>
        <time>2016-06-07T21:46:35Z</time>
      </trkpt>
      <trkpt lat="42.705543" lon="-8.269864">
        <ele>408.569</ele>
        <time>2016-06-07T21:47:35Z</time>
      </trkpt>
      <trkpt lat="42.705987" lon="-8.271040">
        <ele>400.204</ele>
        <time>2016-06-07T21:47:55Z</time>
      </trkpt>
      <trkpt lat="42.706239" lon="-8.272910">
        <ele>392.424</ele>
        <time>2016-06-07T21:48:15Z</time>
      </trkpt>
      <trkpt lat="42.707388" lon="-8.274603">
        <ele>390.008</ele>
        <time>2016-06-07T21:49:15Z</time>
      </trkpt>
      <trkpt lat="42.707963" lon="-8.274512">
        <ele>391.037</ele>
        <time>2016-06-07T21:49:35Z</time>
      </trkpt>
      <trkpt lat="42.708414" lon="-8.274809">
        <ele>389.999</ele>
        <time>2016-06-07T21:49:55Z</time>
      </trkpt>
      <trkpt lat="42.708722" lon="-8.275311">
        <ele>386.482</ele>
        <time>2016-06-07T21:50:35Z</time>
      </trkpt>
      <trkpt lat="42.709546" lon="-8.275901">
        <ele>367.996</ele>
        <time>2016-06-07T21:50:55Z</time>
      </trkpt>
      <trkpt lat="42.709775" lon="-8.275926">
        <ele>364.627</ele>
        <time>2016-06-07T21:51:15Z</time>
      </trkpt>
      <trkpt lat="42.710097" lon="-8.275449">
        <ele>364.280</ele>
        <time>2016-06-07T21:51:35Z</time>
      </trkpt>
      <trkpt lat="42.710593" lon="-8.275837">
        <ele>363.331</ele>
        <time>2016-06-07T21:51:55Z</time>
      </trkpt>
      <trkpt lat="42.710780" lon="-8.277259">
        <ele>357.168</ele>
        <time>2016-06-07T21:52:15Z</time>
      </trkpt>
      <trkpt lat="42.713140" lon="-8.282031">
        <ele>338.341</ele>
        <time>2016-06-07T21:52:55Z</time>
      </trkpt>
      <trkpt lat="42.713617" lon="-8.282504">
        <ele>335.981</ele>
        <time>2016-06-07T21:53:15Z</time>
      </trkpt>
      <trkpt lat="42.714921" lon="-8.283164">
        <ele>330.309</ele>
        <time>2016-06-07T21:53:55Z</time>
      </trkpt>
      <trkpt lat="42.715025" lon="-8.283298">
        <ele>330.008</ele>
        <time>2016-06-07T21:54:15Z</time>
      </trkpt>
      <trkpt lat="42.714608" lon="-8.283824">
        <ele>333.525</ele>
        <time>2016-06-07T21:54:35Z</time>
      </trkpt>
      <trkpt lat="42.717179" lon="-8.285765">
        <ele>340.367</ele>
        <time>2016-06-07T21:55:55Z</time>
      </trkpt>
      <trkpt lat="42.719626" lon="-8.290695">
        <ele>354.250</ele>
        <time>2016-06-07T21:57:15Z</time>
      </trkpt>
      <trkpt lat="42.721496" lon="-8.296939">
        <ele>343.524</ele>
        <time>2016-06-07T21:57:55Z</time>
      </trkpt>
      <trkpt lat="42.721578" lon="-8.299205">
        <ele>339.625</ele>
        <time>2016-06-07T21:58:55Z</time>
      </trkpt>
      <trkpt lat="42.722609" lon="-8.300355">
        <ele>337.658</ele>
        <time>2016-06-07T21:59:15Z</time>
      </trkpt>
      <trkpt lat="42.723080" lon="-8.301176">
        <ele>342.059</ele>
        <time>2016-06-07T21:59:35Z</time>
      </trkpt>
      <trkpt lat="42.723648" lon="-8.300359">
        <ele>330.096</ele>
        <time>2016-06-07T22:00:15Z</time>
      </trkpt>
      <trkpt lat="42.725602" lon="-8.300578">
        <ele>336.427</ele>
        <time>2016-06-07T22:00:55Z</time>
      </trkpt>
      <trkpt lat="42.726407" lon="-8.300485">
        <ele>340.768</ele>
        <time>2016-06-07T22:01:35Z</time>
      </trkpt>
      <trkpt lat="42.726613" lon="-8.300552">
        <ele>340.214</ele>
        <time>2016-06-07T22:01:55Z</time>
      </trkpt>
      <trkpt lat="42.727354" lon="-8.301497">
        <ele>344.208</ele>
        <time>2016-06-07T22:02:35Z</time>
      </trkpt>
      <trkpt lat="42.728330" lon="-8.301905">
        <ele>350.983</ele>
        <time>2016-06-07T22:02:55Z</time>
      </trkpt>
      <trkpt lat="42.728810" lon="-8.302310">
        <ele>351.365</ele>
        <time>2016-06-07T22:03:15Z</time>
      </trkpt>
      <trkpt lat="42.731425" lon="-8.306416">
        <ele>344.098</ele>
        <time>2016-06-07T22:05:55Z</time>
      </trkpt>
      <trkpt lat="42.731711" lon="-8.308170">
        <ele>341.152</ele>
        <time>2016-06-07T22:06:15Z</time>
      </trkpt>
      <trkpt lat="42.732768" lon="-8.309261">
        <ele>334.363</ele>
        <time>2016-06-07T22:06:55Z</time>
      </trkpt>
      <trkpt lat="42.733285" lon="-8.309569">
        <ele>332.646</ele>
        <time>2016-06-07T22:07:15Z</time>
      </trkpt>
      <trkpt lat="42.734054" lon="-8.309637">
        <ele>320.947</ele>
        <time>2016-06-07T22:07:35Z</time>
      </trkpt>
      <trkpt lat="42.736290" lon="-8.308787">
        <ele>291.294</ele>
        <time>2016-06-07T22:08:15Z</time>
      </trkpt>
      <trkpt lat="42.738300" lon="-8.310316">
        <ele>273.318</ele>
        <time>2016-06-07T22:08:55Z</time>
      </trkpt>
      <trkpt lat="42.738694" lon="-8.311823">
        <ele>269.098</ele>
        <time>2016-06-07T22:09:15Z</time>
      </trkpt>
      <trkpt lat="42.739708" lon="-8.313015">
        <ele>267.617</ele>
        <time>2016-06-07T22:09:55Z</time>
      </trkpt>
      <trkpt lat="42.739653" lon="-8.314201">
        <ele>264.608</ele>
        <time>2016-06-07T22:10:15Z</time>
      </trkpt>
      <trkpt lat="42.740156" lon="-8.314816">
        <ele>272.742</ele>
        <time>2016-06-07T22:10:35Z</time>
      </trkpt>
      <trkpt lat="42.740516" lon="-8.314707">
        <ele>271.044</ele>
        <time>2016-06-07T22:11:15Z</time>
      </trkpt>
      <trkpt lat="42.740674" lon="-8.314823">
        <ele>271.677</ele>
        <time>2016-06-07T22:11:35Z</time>
      </trkpt>
      <trkpt lat="42.740600" lon="-8.315971">
        <ele>280.611</ele>
        <time>2016-06-07T22:11:55Z</time>
      </trkpt>
      <trkpt lat="42.741536" lon="-8.320391">
        <ele>287.062</ele>
        <time>2016-06-07T22:13:15Z</time>
      </trkpt>
      <trkpt lat="42.743117" lon="-8.323596">
        <ele>291.575</ele>
        <time>2016-06-07T22:13:55Z</time>
      </trkpt>
      <trkpt lat="42.745928" lon="-8.327595">
        <ele>292.916</ele>
        <time>2016-06-07T22:14:35Z</time>
      </trkpt>
      <trkpt lat="42.746637" lon="-8.329242">
        <ele>295.223</ele>
        <time>2016-06-07T22:14:55Z</time>
      </trkpt>
      <trkpt lat="42.747109" lon="-8.331011">
        <ele>285.113</ele>
        <time>2016-06-07T22:15:35Z</time>
      </trkpt>
      <trkpt lat="42.747850" lon="-8.331196">
        <ele>278.143</ele>
        <time>2016-06-07T22:15:55Z</time>
      </trkpt>
      <trkpt lat="42.747735" lon="-8.331903">
        <ele>273.607</ele>
        <time>2016-06-07T22:16:15Z</time>
      </trkpt>
      <trkpt lat="42.748537" lon="-8.333904">
        <ele>280.308</ele>
        <time>2016-06-07T22:16:55Z</time>
      </trkpt>
      <trkpt lat="42.748357" lon="-8.334810">
        <ele>284.692</ele>
        <time>2016-06-07T22:17:15Z</time>
      </trkpt>
      <trkpt lat="42.747793" lon="-8.335226">
        <ele>284.364</ele>
        <time>2016-06-07T22:17:35Z</time>
      </trkpt>
      <trkpt lat="42.747402" lon="-8.335963">
        <ele>281.687</ele>
        <time>2016-06-07T22:17:55Z</time>
      </trkpt>
      <trkpt lat="42.747291" lon="-8.337792">
        <ele>297.421</ele>
        <time>2016-06-07T22:18:15Z</time>
      </trkpt>
      <trkpt lat="42.750825" lon="-8.337581">
        <ele>273.212</ele>
        <time>2016-06-07T22:19:55Z</time>
      </trkpt>
      <trkpt lat="42.753308" lon="-8.337118">
        <ele>273.525</ele>
        <time>2016-06-07T22:20:35Z</time>
      </trkpt>
      <trkpt lat="42.754473" lon="-8.337438">
        <ele>279.166</ele>
        <time>2016-06-07T22:21:15Z</time>
      </trkpt>
      <trkpt lat="42.755360" lon="-8.338105">
        <ele>292.383</ele>
        <time>2016-06-07T22:21:55Z</time>
      </trkpt>
      <trkpt lat="42.756347" lon="-8.338212">
        <ele>288.584</ele>
        <time>2016-06-07T22:22:35Z</time>
      </trkpt>
      <trkpt lat="42.756491" lon="-8.337880">
        <ele>286.007</ele>
        <time>2016-06-07T22:22:55Z</time>
      </trkpt>
      <trkpt lat="42.757251" lon="-8.337765">
        <ele>286.117</ele>
        <time>2016-06-07T22:23:15Z</time>
      </trkpt>
      <trkpt lat="42.757339" lon="-8.337544">
        <ele>285.508</ele>
        <time>2016-06-07T22:23:35Z</time>
      </trkpt>
      <trkpt lat="42.757232" lon="-8.337760">
        <ele>285.999</ele>
        <time>2016-06-07T22:23:55Z</time>
      </trkpt>
      <trkpt lat="42.756851" lon="-8.337850">
        <ele>284.881</ele>
        <time>2016-06-07T22:24:15Z</time>
      </trkpt>
      <trkpt lat="42.756381" lon="-8.338224">
        <ele>288.124</ele>
        <time>2016-06-07T22:24:35Z</time>
      </trkpt>
      <trkpt lat="42.756268" lon="-8.338170">
        <ele>289.268</ele>
        <time>2016-06-07T22:24:55Z</time>
      </trkpt>
      <trkpt lat="42.757230" lon="-8.339860">
        <ele>297.749</ele>
        <time>2016-06-07T22:25:15Z</time>
      </trkpt>
      <trkpt lat="42.758255" lon="-8.342627">
        <ele>307.442</ele>
        <time>2016-06-07T22:26:15Z</time>
      </trkpt>
      <trkpt lat="42.758215" lon="-8.342885">
        <ele>305.953</ele>
        <time>2016-06-07T22:26:35Z</time>
      </trkpt>
      <trkpt lat="42.756913" lon="-8.343629">
        <ele>307.080</ele>
        <time>2016-06-07T22:29:15Z</time>
      </trkpt>
      <trkpt lat="42.756541" lon="-8.344067">
        <ele>308.189</ele>
        <time>2016-06-07T22:29:35Z</time>
      </trkpt>
      <trkpt lat="42.755725" lon="-8.346278">
        <ele>322.606</ele>
        <time>2016-06-07T22:29:55Z</time>
      </trkpt>
      <trkpt lat="42.755766" lon="-8.350038">
        <ele>335.626</ele>
        <time>2016-06-07T22:30:15Z</time>
      </trkpt>
      <trkpt lat="42.755570" lon="-8.352365">
        <ele>324.108</ele>
        <time>2016-06-07T22:31:15Z</time>
      </trkpt>
      <trkpt lat="42.756472" lon="-8.353974">
        <ele>323.749</ele>
        <time>2016-06-07T22:31:35Z</time>
      </trkpt>
      <trkpt lat="42.756420" lon="-8.354229">
        <ele>323.081</ele>
        <time>2016-06-07T22:31:55Z</time>
      </trkpt>
      <trkpt lat="42.755116" lon="-8.355472">
        <ele>323.434</ele>
        <time>2016-06-07T22:32:35Z</time>
      </trkpt>
      <trkpt lat="42.755628" lon="-8.354964">
        <ele>323.358</ele>
        <time>2016-06-07T22:33:15Z</time>
      </trkpt>
      <trkpt lat="42.756515" lon="-8.355754">
        <ele>323.989</ele>
        <time>2016-06-07T22:33:55Z</time>
      </trkpt>
      <trkpt lat="42.758259" lon="-8.360217">
        <ele>326.842</ele>
        <time>2016-06-07T22:35:55Z</time>
      </trkpt>
      <trkpt lat="42.759064" lon="-8.363757">
        <ele>338.373</ele>
        <time>2016-06-07T22:36:35Z</time>
      </trkpt>
      <trkpt lat="42.760147" lon="-8.365124">
        <ele>347.190</ele>
        <time>2016-06-07T22:36:55Z</time>
      </trkpt>
      <trkpt lat="42.760560" lon="-8.365347">
        <ele>348.056</ele>
        <time>2016-06-07T22:37:15Z</time>
      </trkpt>
      <trkpt lat="42.760592" lon="-8.365843">
        <ele>347.459</ele>
        <time>2016-06-07T22:37:35Z</time>
      </trkpt>
      <trkpt lat="42.760966" lon="-8.366953">
        <ele>351.514</ele>
        <time>2016-06-07T22:38:15Z</time>
      </trkpt>
      <trkpt lat="42.761988" lon="-8.369530">
        <ele>334.308</ele>
        <time>2016-06-07T22:39:35Z</time>
      </trkpt>
      <trkpt lat="42.763696" lon="-8.371748">
        <ele>332.176</ele>
        <time>2016-06-07T22:39:55Z</time>
      </trkpt>
      <trkpt lat="42.765171" lon="-8.373276">
        <ele>324.098</ele>
        <time>2016-06-07T22:40:15Z</time>
      </trkpt>
      <trkpt lat="42.765638" lon="-8.374013">
        <ele>313.361</ele>
        <time>2016-06-07T22:40:35Z</time>
      </trkpt>
      <trkpt lat="42.766437" lon="-8.375889">
        <ele>290.835</ele>
        <time>2016-06-07T22:41:35Z</time>
      </trkpt>
      <trkpt lat="42.768308" lon="-8.377624">
        <ele>289.596</ele>
        <time>2016-06-07T22:42:15Z</time>
      </trkpt>
      <trkpt lat="42.769507" lon="-8.378410">
        <ele>282.269</ele>
        <time>2016-06-07T22:43:15Z</time>
      </trkpt>
      <trkpt lat="42.770486" lon="-8.379345">
        <ele>276.840</ele>
        <time>2016-06-07T22:43:35Z</time>
      </trkpt>
      <trkpt lat="42.772665" lon="-8.381924">
        <ele>274.867</ele>
        <time>2016-06-07T22:43:55Z</time>
      </trkpt>
      <trkpt lat="42.773154" lon="-8.383049">
        <ele>262.439</ele>
        <time>2016-06-07T22:44:15Z</time>
      </trkpt>
      <trkpt lat="42.773581" lon="-8.385572">
        <ele>260.701</ele>
        <time>2016-06-07T22:45:15Z</time>
      </trkpt>
      <trkpt lat="42.774609" lon="-8.387092">
        <ele>255.821</ele>
        <time>2016-06-07T22:45:35Z</time>
      </trkpt>
      <trkpt lat="42.774982" lon="-8.387167">
        <ele>255.108</ele>
        <time>2016-06-07T22:45:55Z</time>
      </trkpt>
      <trkpt lat="42.777198" lon="-8.386185">
        <ele>245.294</ele>
        <time>2016-06-07T22:46:35Z</time>
      </trkpt>
      <trkpt lat="42.778784" lon="-8.386529">
        <ele>222.926</ele>
        <time>2016-06-07T22:46:55Z</time>
      </trkpt>
      <trkpt lat="42.779089" lon="-8.386787">
        <ele>218.939</ele>
        <time>2016-06-07T22:47:15Z</time>
      </trkpt>
      <trkpt lat="42.779267" lon="-8.387653">
        <ele>223.783</ele>
        <time>2016-06-07T22:47:55Z</time>
      </trkpt>
      <trkpt lat="42.779928" lon="-8.387888">
        <ele>214.894</ele>
        <time>2016-06-07T22:48:15Z</time>
      </trkpt>
      <trkpt lat="42.779717" lon="-8.391198">
        <ele>192.637</ele>
        <time>2016-06-07T22:48:55Z</time>
      </trkpt>
      <trkpt lat="42.779965" lon="-8.392078">
        <ele>170.568</ele>
        <time>2016-06-07T22:49:35Z</time>
      </trkpt>
      <trkpt lat="42.780543" lon="-8.391244">
        <ele>169.475</ele>
        <time>2016-06-07T22:50:15Z</time>
      </trkpt>
      <trkpt lat="42.781078" lon="-8.390967">
        <ele>159.494</ele>
        <time>2016-06-07T22:50:35Z</time>
      </trkpt>
      <trkpt lat="42.781514" lon="-8.391632">
        <ele>145.157</ele>
        <time>2016-06-07T22:50:55Z</time>
      </trkpt>
      <trkpt lat="42.781049" lon="-8.392391">
        <ele>136.822</ele>
        <time>2016-06-07T22:51:35Z</time>
      </trkpt>
      <trkpt lat="42.781018" lon="-8.393572">
        <ele>117.908</ele>
        <time>2016-06-07T22:52:15Z</time>
      </trkpt>
      <trkpt lat="42.780263" lon="-8.395008">
        <ele>103.820</ele>
        <time>2016-06-07T22:53:15Z</time>
      </trkpt>
      <trkpt lat="42.779982" lon="-8.395277">
        <ele>98.162</ele>
        <time>2016-06-07T22:53:35Z</time>
      </trkpt>
      <trkpt lat="42.779396" lon="-8.395411">
        <ele>102.365</ele>
        <time>2016-06-07T22:53:55Z</time>
      </trkpt>
      <trkpt lat="42.779270" lon="-8.395705">
        <ele>102.649</ele>
        <time>2016-06-07T22:54:15Z</time>
      </trkpt>
      <trkpt lat="42.779439" lon="-8.397194">
        <ele>101.920</ele>
        <time>2016-06-07T22:54:55Z</time>
      </trkpt>
      <trkpt lat="42.779606" lon="-8.397565">
        <ele>100.763</ele>
        <time>2016-06-07T22:55:15Z</time>
      </trkpt>
      <trkpt lat="42.779721" lon="-8.398916">
        <ele>83.664</ele>
        <time>2016-06-07T22:55:35Z</time>
      </trkpt>
      <trkpt lat="42.779586" lon="-8.399357">
        <ele>76.491</ele>
        <time>2016-06-07T22:55:55Z</time>
      </trkpt>
      <trkpt lat="42.778587" lon="-8.400235">
        <ele>61.795</ele>
        <time>2016-06-07T22:56:15Z</time>
      </trkpt>
      <trkpt lat="42.777947" lon="-8.400478">
        <ele>69.049</ele>
        <time>2016-06-07T22:56:35Z</time>
      </trkpt>
      <trkpt lat="42.778511" lon="-8.403008">
        <ele>65.323</ele>
        <time>2016-06-07T22:56:55Z</time>
      </trkpt>
      <trkpt lat="42.778409" lon="-8.403584">
        <ele>67.208</ele>
        <time>2016-06-07T22:57:15Z</time>
      </trkpt>
      <trkpt lat="42.777873" lon="-8.403777">
        <ele>68.660</ele>
        <time>2016-06-07T22:57:55Z</time>
      </trkpt>
      <trkpt lat="42.778282" lon="-8.405679">
        <ele>85.662</ele>
        <time>2016-06-07T22:58:15Z</time>
      </trkpt>
      <trkpt lat="42.778213" lon="-8.407950">
        <ele>107.245</ele>
        <time>2016-06-07T22:58:55Z</time>
      </trkpt>
      <trkpt lat="42.777396" lon="-8.409471">
        <ele>102.719</ele>
        <time>2016-06-07T23:00:15Z</time>
      </trkpt>
      <trkpt lat="42.778372" lon="-8.411284">
        <ele>114.260</ele>
        <time>2016-06-07T23:00:35Z</time>
      </trkpt>
      <trkpt lat="42.778632" lon="-8.412805">
        <ele>123.843</ele>
        <time>2016-06-07T23:00:55Z</time>
      </trkpt>
      <trkpt lat="42.778404" lon="-8.413947">
        <ele>126.184</ele>
        <time>2016-06-07T23:01:15Z</time>
      </trkpt>
      <trkpt lat="42.777349" lon="-8.414445">
        <ele>131.961</ele>
        <time>2016-06-07T23:01:55Z</time>
      </trkpt>
      <trkpt lat="42.776457" lon="-8.417671">
        <ele>143.548</ele>
        <time>2016-06-07T23:02:35Z</time>
      </trkpt>
      <trkpt lat="42.776619" lon="-8.418421">
        <ele>149.461</ele>
        <time>2016-06-07T23:03:15Z</time>
      </trkpt>
      <trkpt lat="42.776989" lon="-8.417962">
        <ele>154.417</ele>
        <time>2016-06-07T23:03:55Z</time>
      </trkpt>
      <trkpt lat="42.777317" lon="-8.417947">
        <ele>160.208</ele>
        <time>2016-06-07T23:04:15Z</time>
      </trkpt>
      <trkpt lat="42.777548" lon="-8.418639">
        <ele>165.055</ele>
        <time>2016-06-07T23:04:35Z</time>
      </trkpt>
      <trkpt lat="42.777239" lon="-8.421690">
        <ele>189.487</ele>
        <time>2016-06-07T23:05:35Z</time>
      </trkpt>
      <trkpt lat="42.777980" lon="-8.422177">
        <ele>201.210</ele>
        <time>2016-06-07T23:05:55Z</time>
      </trkpt>
      <trkpt lat="42.778548" lon="-8.420704">
        <ele>213.884</ele>
        <time>2016-06-07T23:06:15Z</time>
      </trkpt>
      <trkpt lat="42.779724" lon="-8.420115">
        <ele>226.325</ele>
        <time>2016-06-07T23:07:15Z</time>
      </trkpt>
      <trkpt lat="42.782350" lon="-8.421772">
        <ele>246.038</ele>
        <time>2016-06-07T23:07:55Z</time>
      </trkpt>
      <trkpt lat="42.785675" lon="-8.424271">
        <ele>264.669</ele>
        <time>2016-06-07T23:08:15Z</time>
      </trkpt>
      <trkpt lat="42.787963" lon="-8.426439">
        <ele>278.756</ele>
        <time>2016-06-07T23:08:35Z</time>
      </trkpt>
      <trkpt lat="42.789142" lon="-8.427942">
        <ele>285.853</ele>
        <time>2016-06-07T23:09:15Z</time>
      </trkpt>
      <trkpt lat="42.789728" lon="-8.428451">
        <ele>282.404</ele>
        <time>2016-06-07T23:09:35Z</time>
      </trkpt>
      <trkpt lat="42.791221" lon="-8.428711">
        <ele>289.214</ele>
        <time>2016-06-07T23:09:55Z</time>
      </trkpt>
      <trkpt lat="42.791279" lon="-8.429273">
        <ele>282.708</ele>
        <time>2016-06-07T23:10:15Z</time>
      </trkpt>
      <trkpt lat="42.790914" lon="-8.432318">
        <ele>285.326</ele>
        <time>2016-06-07T23:10:55Z</time>
      </trkpt>
      <trkpt lat="42.791701" lon="-8.436433">
        <ele>292.458</ele>
        <time>2016-06-07T23:12:15Z</time>
      </trkpt>
      <trkpt lat="42.791976" lon="-8.436347">
        <ele>293.171</ele>
        <time>2016-06-07T23:13:15Z</time>
      </trkpt>
      <trkpt lat="42.791698" lon="-8.436530">
        <ele>293.165</ele>
        <time>2016-06-07T23:13:35Z</time>
      </trkpt>
      <trkpt lat="42.792281" lon="-8.437428">
        <ele>297.926</ele>
        <time>2016-06-07T23:13:55Z</time>
      </trkpt>
      <trkpt lat="42.793110" lon="-8.438028">
        <ele>300.029</ele>
        <time>2016-06-07T23:14:35Z</time>
      </trkpt>
      <trkpt lat="42.794071" lon="-8.438158">
        <ele>298.790</ele>
        <time>2016-06-07T23:14:55Z</time>
      </trkpt>
      <trkpt lat="42.794586" lon="-8.439081">
        <ele>293.747</ele>
        <time>2016-06-07T23:15:35Z</time>
      </trkpt>
      <trkpt lat="42.794968" lon="-8.439459">
        <ele>298.424</ele>
        <time>2016-06-07T23:16:15Z</time>
      </trkpt>
      <trkpt lat="42.796992" lon="-8.440588">
        <ele>301.804</ele>
        <time>2016-06-07T23:16:35Z</time>
      </trkpt>
      <trkpt lat="42.797986" lon="-8.442185">
        <ele>289.814</ele>
        <time>2016-06-07T23:16:55Z</time>
      </trkpt>
      <trkpt lat="42.798376" lon="-8.443070">
        <ele>289.908</ele>
        <time>2016-06-07T23:17:15Z</time>
      </trkpt>
      <trkpt lat="42.798783" lon="-8.446225">
        <ele>296.763</ele>
        <time>2016-06-07T23:17:35Z</time>
      </trkpt>
      <trkpt lat="42.798591" lon="-8.447394">
        <ele>304.335</ele>
        <time>2016-06-07T23:17:55Z</time>
      </trkpt>
      <trkpt lat="42.798333" lon="-8.448025">
        <ele>313.358</ele>
        <time>2016-06-07T23:18:15Z</time>
      </trkpt>
      <trkpt lat="42.798488" lon="-8.449627">
        <ele>318.852</ele>
        <time>2016-06-07T23:18:35Z</time>
      </trkpt>
      <trkpt lat="42.799356" lon="-8.451598">
        <ele>326.043</ele>
        <time>2016-06-07T23:18:55Z</time>
      </trkpt>
      <trkpt lat="42.801457" lon="-8.454236">
        <ele>316.846</ele>
        <time>2016-06-07T23:20:55Z</time>
      </trkpt>
      <trkpt lat="42.801583" lon="-8.454959">
        <ele>320.467</ele>
        <time>2016-06-07T23:21:15Z</time>
      </trkpt>
      <trkpt lat="42.801714" lon="-8.458350">
        <ele>302.144</ele>
        <time>2016-06-07T23:22:35Z</time>
      </trkpt>
      <trkpt lat="42.801162" lon="-8.462167">
        <ele>283.254</ele>
        <time>2016-06-07T23:23:35Z</time>
      </trkpt>
      <trkpt lat="42.800714" lon="-8.463462">
        <ele>278.756</ele>
        <time>2016-06-07T23:23:55Z</time>
      </trkpt>
      <trkpt lat="42.801591" lon="-8.465192">
        <ele>274.011</ele>
        <time>2016-06-07T23:24:15Z</time>
      </trkpt>
      <trkpt lat="42.802749" lon="-8.465757">
        <ele>255.608</ele>
        <time>2016-06-07T23:24:55Z</time>
      </trkpt>
      <trkpt lat="42.803412" lon="-8.466294">
        <ele>250.086</ele>
        <time>2016-06-07T23:25:15Z</time>
      </trkpt>
      <trkpt lat="42.803920" lon="-8.466393">
        <ele>244.318</ele>
        <time>2016-06-07T23:25:35Z</time>
      </trkpt>
      <trkpt lat="42.804311" lon="-8.465826">
        <ele>245.531</ele>
        <time>2016-06-07T23:26:15Z</time>
      </trkpt>
      <trkpt lat="42.805335" lon="-8.465607">
        <ele>241.895</ele>
        <time>2016-06-07T23:26:55Z</time>
      </trkpt>
      <trkpt lat="42.806279" lon="-8.464740">
        <ele>233.286</ele>
        <time>2016-06-07T23:27:15Z</time>
      </trkpt>
      <trkpt lat="42.808217" lon="-8.465285">
        <ele>229.169</ele>
        <time>2016-06-07T23:27:35Z</time>
      </trkpt>
      <trkpt lat="42.808575" lon="-8.465629">
        <ele>229.130</ele>
        <time>2016-06-07T23:27:55Z</time>
      </trkpt>
      <trkpt lat="42.809387" lon="-8.465407">
        <ele>234.247</ele>
        <time>2016-06-07T23:28:15Z</time>
      </trkpt>
      <trkpt lat="42.810226" lon="-8.464615">
        <ele>244.254</ele>
        <time>2016-06-07T23:28:35Z</time>
      </trkpt>
      <trkpt lat="42.811292" lon="-8.465605">
        <ele>225.356</ele>
        <time>2016-06-07T23:28:55Z</time>
      </trkpt>
      <trkpt lat="42.812755" lon="-8.469329">
        <ele>231.811</ele>
        <time>2016-06-07T23:29:55Z</time>
      </trkpt>
      <trkpt lat="42.814241" lon="-8.471002">
        <ele>231.608</ele>
        <time>2016-06-07T23:30:35Z</time>
      </trkpt>
      <trkpt lat="42.815247" lon="-8.471603">
        <ele>228.866</ele>
        <time>2016-06-07T23:31:15Z</time>
      </trkpt>
      <trkpt lat="42.815499" lon="-8.472420">
        <ele>226.928</ele>
        <time>2016-06-07T23:31:35Z</time>
      </trkpt>
      <trkpt lat="42.815747" lon="-8.474180">
        <ele>210.921</ele>
        <time>2016-06-07T23:31:55Z</time>
      </trkpt>
      <trkpt lat="42.816710" lon="-8.475844">
        <ele>215.745</ele>
        <time>2016-06-07T23:32:55Z</time>
      </trkpt>
      <trkpt lat="42.817134" lon="-8.476868">
        <ele>201.366</ele>
        <time>2016-06-07T23:33:35Z</time>
      </trkpt>
      <trkpt lat="42.817910" lon="-8.477417">
        <ele>187.479</ele>
        <time>2016-06-07T23:33:55Z</time>
      </trkpt>
      <trkpt lat="42.818658" lon="-8.478350">
        <ele>182.770</ele>
        <time>2016-06-07T23:34:55Z</time>
      </trkpt>
      <trkpt lat="42.819713" lon="-8.478257">
        <ele>191.477</ele>
        <time>2016-06-07T23:35:15Z</time>
      </trkpt>
      <trkpt lat="42.820252" lon="-8.478992">
        <ele>193.517</ele>
        <time>2016-06-07T23:35:35Z</time>
      </trkpt>
      <trkpt lat="42.819309" lon="-8.480722">
        <ele>192.887</ele>
        <time>2016-06-07T23:36:15Z</time>
      </trkpt>
      <trkpt lat="42.820347" lon="-8.481854">
        <ele>212.515</ele>
        <time>2016-06-07T23:36:35Z</time>
      </trkpt>
      <trkpt lat="42.820451" lon="-8.482134">
        <ele>213.108</ele>
        <time>2016-06-07T23:36:55Z</time>
      </trkpt>
      <trkpt lat="42.820316" lon="-8.482431">
        <ele>214.072</ele>
        <time>2016-06-07T23:37:15Z</time>
      </trkpt>
      <trkpt lat="42.820488" lon="-8.482864">
        <ele>215.364</ele>
        <time>2016-06-07T23:37:35Z</time>
      </trkpt>
      <trkpt lat="42.822424" lon="-8.485210">
        <ele>223.647</ele>
        <time>2016-06-07T23:38:55Z</time>
      </trkpt>
      <trkpt lat="42.822914" lon="-8.486006">
        <ele>220.351</ele>
        <time>2016-06-07T23:39:15Z</time>
      </trkpt>
      <trkpt lat="42.823807" lon="-8.485468">
        <ele>224.772</ele>
        <time>2016-06-07T23:39:35Z</time>
      </trkpt>
      <trkpt lat="42.824322" lon="-8.485878">
        <ele>227.255</ele>
        <time>2016-06-07T23:39:55Z</time>
      </trkpt>
      <trkpt lat="42.825859" lon="-8.485627">
        <ele>224.076</ele>
        <time>2016-06-07T23:40:35Z</time>
      </trkpt>
      <trkpt lat="42.826799" lon="-8.485232">
        <ele>222.673</ele>
        <time>2016-06-07T23:41:15Z</time>
      </trkpt>
      <trkpt lat="42.827706" lon="-8.486938">
        <ele>217.325</ele>
        <time>2016-06-07T23:42:15Z</time>
      </trkpt>
      <trkpt lat="42.827353" lon="-8.488281">
        <ele>212.526</ele>
        <time>2016-06-07T23:42:55Z</time>
      </trkpt>
      <trkpt lat="42.827358" lon="-8.488893">
        <ele>212.508</ele>
        <time>2016-06-07T23:43:15Z</time>
      </trkpt>
      <trkpt lat="42.827136" lon="-8.488974">
        <ele>212.808</ele>
        <time>2016-06-07T23:43:35Z</time>
      </trkpt>
      <trkpt lat="42.827251" lon="-8.489023">
        <ele>212.933</ele>
        <time>2016-06-07T23:43:55Z</time>
      </trkpt>
      <trkpt lat="42.827237" lon="-8.489532">
        <ele>213.925</ele>
        <time>2016-06-07T23:44:35Z</time>
      </trkpt>
      <trkpt lat="42.827664" lon="-8.490726">
        <ele>216.448</ele>
        <time>2016-06-07T23:45:15Z</time>
      </trkpt>
      <trkpt lat="42.828834" lon="-8.491085">
        <ele>199.092</ele>
        <time>2016-06-07T23:45:35Z</time>
      </trkpt>
      <trkpt lat="42.829573" lon="-8.490645">
        <ele>195.053</ele>
        <time>2016-06-07T23:46:15Z</time>
      </trkpt>
      <trkpt lat="42.830922" lon="-8.490997">
        <ele>192.356</ele>
        <time>2016-06-07T23:47:35Z</time>
      </trkpt>
      <trkpt lat="42.831133" lon="-8.491708">
        <ele>193.757</ele>
        <time>2016-06-07T23:47:55Z</time>
      </trkpt>
      <trkpt lat="42.831841" lon="-8.492497">
        <ele>199.974</ele>
        <time>2016-06-07T23:48:35Z</time>
      </trkpt>
      <trkpt lat="42.832048" lon="-8.494227">
        <ele>201.836</ele>
        <time>2016-06-07T23:48:55Z</time>
      </trkpt>
      <trkpt lat="42.833361" lon="-8.493691">
        <ele>219.617</ele>
        <time>2016-06-07T23:49:15Z</time>
      </trkpt>
      <trkpt lat="42.833500" lon="-8.494505">
        <ele>221.018</ele>
        <time>2016-06-07T23:49:35Z</time>
      </trkpt>
      <trkpt lat="42.834057" lon="-8.494421">
        <ele>228.208</ele>
        <time>2016-06-07T23:49:55Z</time>
      </trkpt>
      <trkpt lat="42.834223" lon="-8.494673">
        <ele>229.314</ele>
        <time>2016-06-07T23:50:15Z</time>
      </trkpt>
      <trkpt lat="42.835402" lon="-8.497755">
        <ele>215.366</ele>
        <time>2016-06-07T23:51:15Z</time>
      </trkpt>
      <trkpt lat="42.834626" lon="-8.498688">
        <ele>211.379</ele>
        <time>2016-06-07T23:51:35Z</time>
      </trkpt>
      <trkpt lat="42.834536" lon="-8.499197">
        <ele>218.663</ele>
        <time>2016-06-07T23:51:55Z</time>
      </trkpt>
      <trkpt lat="42.837019" lon="-8.505887">
        <ele>210.374</ele>
        <time>2016-06-07T23:52:15Z</time>
      </trkpt>
      <trkpt lat="42.838001" lon="-8.507051">
        <ele>209.337</ele>
        <time>2016-06-07T23:52:55Z</time>
      </trkpt>
      <trkpt lat="42.837548" lon="-8.507980">
        <ele>208.278</ele>
        <time>2016-06-07T23:53:35Z</time>
      </trkpt>
      <trkpt lat="42.840235" lon="-8.508675">
        <ele>202.685</ele>
        <time>2016-06-07T23:54:15Z</time>
      </trkpt>
      <trkpt lat="42.840943" lon="-8.511218">
        <ele>172.853</ele>
        <time>2016-06-07T23:54:55Z</time>
      </trkpt>
      <trkpt lat="42.841627" lon="-8.512699">
        <ele>156.404</ele>
        <time>2016-06-07T23:55:35Z</time>
      </trkpt>
      <trkpt lat="42.842648" lon="-8.512227">
        <ele>159.414</ele>
        <time>2016-06-07T23:55:55Z</time>
      </trkpt>
      <trkpt lat="42.842767" lon="-8.512341">
        <ele>158.208</ele>
        <time>2016-06-07T23:56:15Z</time>
      </trkpt>
      <trkpt lat="42.845392" lon="-8.520190">
        <ele>126.396</ele>
        <time>2016-06-07T23:58:55Z</time>
      </trkpt>
      <trkpt lat="42.846408" lon="-8.521059">
        <ele>124.968</ele>
        <time>2016-06-07T23:59:15Z</time>
      </trkpt>
      <trkpt lat="42.847329" lon="-8.522313">
        <ele>138.591</ele>
        <time>2016-06-07T23:59:35Z</time>
      </trkpt>
      <trkpt lat="42.847867" lon="-8.522791">
        <ele>143.495</ele>
        <time>2016-06-08T00:00:15Z</time>
      </trkpt>
      <trkpt lat="42.849341" lon="-8.523338">
        <ele>152.786</ele>
        <time>2016-06-08T00:00:35Z</time>
      </trkpt>
      <trkpt lat="42.850618" lon="-8.524266">
        <ele>158.459</ele>
        <time>2016-06-08T00:01:15Z</time>
      </trkpt>
      <trkpt lat="42.850074" lon="-8.524809">
        <ele>160.410</ele>
        <time>2016-06-08T00:01:35Z</time>
      </trkpt>
      <trkpt lat="42.849867" lon="-8.524778">
        <ele>159.657</ele>
        <time>2016-06-08T00:01:55Z</time>
      </trkpt>
      <trkpt lat="42.850103" lon="-8.524739">
        <ele>160.146</ele>
        <time>2016-06-08T00:02:15Z</time>
      </trkpt>
      <trkpt lat="42.849978" lon="-8.525080">
        <ele>160.888</ele>
        <time>2016-06-08T00:02:55Z</time>
      </trkpt>
      <trkpt lat="42.850662" lon="-8.524242">
        <ele>158.116</ele>
        <time>2016-06-08T00:03:15Z</time>
      </trkpt>
      <trkpt lat="42.852134" lon="-8.524889">
        <ele>164.308</ele>
        <time>2016-06-08T00:03:35Z</time>
      </trkpt>
      <trkpt lat="42.853418" lon="-8.525029">
        <ele>176.685</ele>
        <time>2016-06-08T00:04:35Z</time>
      </trkpt>
      <trkpt lat="42.856870" lon="-8.526269">
        <ele>208.397</ele>
        <time>2016-06-08T00:04:55Z</time>
      </trkpt>
      <trkpt lat="42.857602" lon="-8.526847">
        <ele>214.850</ele>
        <time>2016-06-08T00:05:15Z</time>
      </trkpt>
      <trkpt lat="42.858209" lon="-8.527104">
        <ele>217.414</ele>
        <time>2016-06-08T00:05:35Z</time>
      </trkpt>
      <trkpt lat="42.858287" lon="-8.527461">
        <ele>221.635</ele>
        <time>2016-06-08T00:05:55Z</time>
      </trkpt>
      <trkpt lat="42.859431" lon="-8.528432">
        <ele>223.858</ele>
        <time>2016-06-08T00:06:35Z</time>
      </trkpt>
      <trkpt lat="42.860648" lon="-8.528596">
        <ele>226.529</ele>
        <time>2016-06-08T00:06:55Z</time>
      </trkpt>
      <trkpt lat="42.862544" lon="-8.528351">
        <ele>235.396</ele>
        <time>2016-06-08T00:07:15Z</time>
      </trkpt>
      <trkpt lat="42.865533" lon="-8.529279">
        <ele>252.947</ele>
        <time>2016-06-08T00:07:35Z</time>
      </trkpt>
      <trkpt lat="42.865805" lon="-8.529549">
        <ele>253.929</ele>
        <time>2016-06-08T00:07:55Z</time>
      </trkpt>
      <trkpt lat="42.866435" lon="-8.529723">
        <ele>255.221</ele>
        <time>2016-06-08T00:08:15Z</time>
      </trkpt>
      <trkpt lat="42.867505" lon="-8.531743">
        <ele>240.908</ele>
        <time>2016-06-08T00:09:15Z</time>
      </trkpt>
      <trkpt lat="42.868903" lon="-8.532967">
        <ele>232.385</ele>
        <time>2016-06-08T00:10:35Z</time>
      </trkpt>
      <trkpt lat="42.869673" lon="-8.533105">
        <ele>224.437</ele>
        <time>2016-06-08T00:10:55Z</time>
      </trkpt>
      <trkpt lat="42.872396" lon="-8.535999">
        <ele>208.430</ele>
        <time>2016-06-08T00:11:55Z</time>
      </trkpt>
      <trkpt lat="42.873095" lon="-8.536422">
        <ele>208.954</ele>
        <time>2016-06-08T00:12:15Z</time>
      </trkpt>
      <trkpt lat="42.873521" lon="-8.537688">
        <ele>216.915</ele>
        <time>2016-06-08T00:12:35Z</time>
      </trkpt>
      <trkpt lat="42.874218" lon="-8.538437">
        <ele>222.418</ele>
        <time>2016-06-08T00:12:55Z</time>
      </trkpt>
      <trkpt lat="42.875227" lon="-8.539055">
        <ele>225.849</ele>
        <time>2016-06-08T00:13:55Z</time>
      </trkpt>
      <trkpt lat="42.876146" lon="-8.540858">
        <ele>230.466</ele>
        <time>2016-06-08T00:14:55Z</time>
      </trkpt>
      <trkpt lat="42.876872" lon="-8.541887">
        <ele>250.996</ele>
        <time>2016-06-08T00:15:55Z</time>
      </trkpt>
      <trkpt lat="42.877578" lon="-8.542393">
        <ele>261.831</ele>
        <time>2016-06-08T00:17:35Z</time>
      </trkpt>
      <trkpt lat="42.880521" lon="-8.545489">
        <ele>261.024</ele>
        <time>2016-06-08T00:18:15Z</time>
      </trkpt>
    </trkseg>
  </trk>
</gpx>
